<?xml version='1.0' encoding='UTF-8'?><gpx version="1.1" creator="JPX - https://github.com/jenetics/jpx" xmlns="http://www.topografix.com/GPX/1/1"><trk><trkseg><trkpt lat="40.739785" lon="14.7758917"><ele>178.0</ele><time>2026-04-18T05:41:41.975Z</time></trkpt><trkpt lat="40.7396533" lon="14.7758833"><ele>178.0</ele><time>2026-04-18T05:41:42.975Z</time></trkpt><trkpt lat="40.73947" lon="14.7759133"><ele>178.0</ele><time>2026-04-18T05:41:44.475Z</time></trkpt><trkpt lat="40.739255" lon="14.77587"><ele>177.5</ele><time>2026-04-18T05:41:45.975Z</time></trkpt><trkpt lat="40.739125" lon="14.77583"><ele>177.0</ele><time>2026-04-18T05:41:46.975Z</time></trkpt><trkpt lat="40.739005" lon="14.7757967"><ele>176.5</ele><time>2026-04-18T05:41:47.975Z</time></trkpt><trkpt lat="40.738895" lon="14.7757683"><ele>176.0</ele><time>2026-04-18T05:41:48.975Z</time></trkpt><trkpt lat="40.7387733" lon="14.7757217"><ele>176.0</ele><time>2026-04-18T05:41:49.975Z</time></trkpt><trkpt lat="40.738655" lon="14.7756683"><ele>176.0</ele><time>2026-04-18T05:41:50.975Z</time></trkpt><trkpt lat="40.73854" lon="14.775605"><ele>176.0</ele><time>2026-04-18T05:41:51.975Z</time></trkpt><trkpt lat="40.7384283" lon="14.7755533"><ele>176.0</ele><time>2026-04-18T05:41:52.975Z</time></trkpt><trkpt lat="40.7383217" lon="14.7754967"><ele>174.60000000000002</ele><time>2026-04-18T05:41:53.975Z</time></trkpt><trkpt lat="40.7382233" lon="14.7754417"><ele>173.2</ele><time>2026-04-18T05:41:54.975Z</time></trkpt><trkpt lat="40.73813" lon="14.77539"><ele>171.8</ele><time>2026-04-18T05:41:55.975Z</time></trkpt><trkpt lat="40.7380417" lon="14.7753167"><ele>170.39999999999998</ele><time>2026-04-18T05:41:56.976Z</time></trkpt><trkpt lat="40.7379817" lon="14.7752233"><ele>169.0</ele><time>2026-04-18T05:41:57.975Z</time></trkpt><trkpt lat="40.73795" lon="14.77513"><ele>169.0</ele><time>2026-04-18T05:41:58.975Z</time></trkpt><trkpt lat="40.737905" lon="14.7750167"><ele>169.0</ele><time>2026-04-18T05:42:00.975Z</time></trkpt><trkpt lat="40.73781" lon="14.77494"><ele>169.0</ele><time>2026-04-18T05:42:02.975Z</time></trkpt><trkpt lat="40.7377317" lon="14.7749117"><ele>169.0</ele><time>2026-04-18T05:42:03.975Z</time></trkpt><trkpt lat="40.7376417" lon="14.7748983"><ele>169.0</ele><time>2026-04-18T05:42:04.975Z</time></trkpt><trkpt lat="40.7375283" lon="14.7749017"><ele>168.25</ele><time>2026-04-18T05:42:05.975Z</time></trkpt><trkpt lat="40.7374183" lon="14.774895"><ele>167.5</ele><time>2026-04-18T05:42:06.976Z</time></trkpt><trkpt lat="40.7373067" lon="14.774875"><ele>166.75</ele><time>2026-04-18T05:42:07.975Z</time></trkpt><trkpt lat="40.7371933" lon="14.7748483"><ele>166.0</ele><time>2026-04-18T05:42:08.975Z</time></trkpt><trkpt lat="40.73708" lon="14.7748233"><ele>166.0</ele><time>2026-04-18T05:42:09.975Z</time></trkpt><trkpt lat="40.7369783" lon="14.774785"><ele>166.0</ele><time>2026-04-18T05:42:10.975Z</time></trkpt><trkpt lat="40.73688" lon="14.7747617"><ele>166.0</ele><time>2026-04-18T05:42:11.975Z</time></trkpt><trkpt lat="40.7367917" lon="14.7747383"><ele>166.0</ele><time>2026-04-18T05:42:12.975Z</time></trkpt><trkpt lat="40.736705" lon="14.774705"><ele>166.0</ele><time>2026-04-18T05:42:13.975Z</time></trkpt><trkpt lat="40.7366217" lon="14.7746683"><ele>165.42857142857142</ele><time>2026-04-18T05:42:14.975Z</time></trkpt><trkpt lat="40.7365383" lon="14.77463"><ele>164.85714285714286</ele><time>2026-04-18T05:42:15.975Z</time></trkpt><trkpt lat="40.7364583" lon="14.77461"><ele>164.28571428571428</ele><time>2026-04-18T05:42:16.975Z</time></trkpt><trkpt lat="40.7363867" lon="14.7745933"><ele>163.71428571428572</ele><time>2026-04-18T05:42:17.975Z</time></trkpt><trkpt lat="40.7363217" lon="14.7745683"><ele>163.14285714285714</ele><time>2026-04-18T05:42:18.975Z</time></trkpt><trkpt lat="40.736255" lon="14.7745483"><ele>162.57142857142858</ele><time>2026-04-18T05:42:19.975Z</time></trkpt><trkpt lat="40.73619" lon="14.77452"><ele>162.0</ele><time>2026-04-18T05:42:20.975Z</time></trkpt><trkpt lat="40.7360933" lon="14.774495"><ele>161.83333333333334</ele><time>2026-04-18T05:42:22.975Z</time></trkpt><trkpt lat="40.7360083" lon="14.7745117"><ele>161.66666666666666</ele><time>2026-04-18T05:42:25.975Z</time></trkpt><trkpt lat="40.7359467" lon="14.77463"><ele>161.5</ele><time>2026-04-18T05:42:27.975Z</time></trkpt><trkpt lat="40.7359217" lon="14.774715"><ele>161.33333333333331</ele><time>2026-04-18T05:42:28.975Z</time></trkpt><trkpt lat="40.7359017" lon="14.7748217"><ele>161.16666666666666</ele><time>2026-04-18T05:42:29.975Z</time></trkpt><trkpt lat="40.73588" lon="14.7749367"><ele>161.0</ele><time>2026-04-18T05:42:30.976Z</time></trkpt><trkpt lat="40.7358617" lon="14.7750733"><ele>162.25</ele><time>2026-04-18T05:42:31.975Z</time></trkpt><trkpt lat="40.735845" lon="14.7752233"><ele>163.5</ele><time>2026-04-18T05:42:32.975Z</time></trkpt><trkpt lat="40.7358267" lon="14.7753883"><ele>164.75</ele><time>2026-04-18T05:42:33.975Z</time></trkpt><trkpt lat="40.7357967" lon="14.77557"><ele>166.0</ele><time>2026-04-18T05:42:34.975Z</time></trkpt><trkpt lat="40.7357517" lon="14.7757683"><ele>166.0</ele><time>2026-04-18T05:42:35.975Z</time></trkpt><trkpt lat="40.73571" lon="14.7759867"><ele>166.0</ele><time>2026-04-18T05:42:36.975Z</time></trkpt><trkpt lat="40.7356783" lon="14.7762033"><ele>166.0</ele><time>2026-04-18T05:42:37.975Z</time></trkpt><trkpt lat="40.7356517" lon="14.7764117"><ele>169.0</ele><time>2026-04-18T05:42:38.975Z</time></trkpt><trkpt lat="40.7356267" lon="14.7766267"><ele>172.0</ele><time>2026-04-18T05:42:39.975Z</time></trkpt><trkpt lat="40.7356067" lon="14.7768483"><ele>175.0</ele><time>2026-04-18T05:42:40.975Z</time></trkpt><trkpt lat="40.7355767" lon="14.77707"><ele>176.25</ele><time>2026-04-18T05:42:41.975Z</time></trkpt><trkpt lat="40.7355383" lon="14.7772667"><ele>177.5</ele><time>2026-04-18T05:42:42.975Z</time></trkpt><trkpt lat="40.7355217" lon="14.7774367"><ele>178.75</ele><time>2026-04-18T05:42:43.976Z</time></trkpt><trkpt lat="40.7355033" lon="14.7776"><ele>180.0</ele><time>2026-04-18T05:42:44.975Z</time></trkpt><trkpt lat="40.7354917" lon="14.7777483"><ele>181.2</ele><time>2026-04-18T05:42:45.975Z</time></trkpt><trkpt lat="40.7354717" lon="14.7778783"><ele>182.4</ele><time>2026-04-18T05:42:46.975Z</time></trkpt><trkpt lat="40.7354717" lon="14.7779917"><ele>183.60000000000002</ele><time>2026-04-18T05:42:47.975Z</time></trkpt><trkpt lat="40.735495" lon="14.778095"><ele>184.8</ele><time>2026-04-18T05:42:48.975Z</time></trkpt><trkpt lat="40.7355517" lon="14.7781917"><ele>186.0</ele><time>2026-04-18T05:42:49.975Z</time></trkpt><trkpt lat="40.7356283" lon="14.77826"><ele>186.0</ele><time>2026-04-18T05:42:50.975Z</time></trkpt><trkpt lat="40.735705" lon="14.7783033"><ele>186.0</ele><time>2026-04-18T05:42:51.975Z</time></trkpt><trkpt lat="40.73578" lon="14.7783567"><ele>186.0</ele><time>2026-04-18T05:42:52.975Z</time></trkpt><trkpt lat="40.7358583" lon="14.7784067"><ele>186.0</ele><time>2026-04-18T05:42:53.976Z</time></trkpt><trkpt lat="40.7359433" lon="14.7784517"><ele>186.0</ele><time>2026-04-18T05:42:54.975Z</time></trkpt><trkpt lat="40.7360367" lon="14.778495"><ele>186.0</ele><time>2026-04-18T05:42:55.975Z</time></trkpt><trkpt lat="40.7361267" lon="14.77855"><ele>186.4</ele><time>2026-04-18T05:42:56.975Z</time></trkpt><trkpt lat="40.7362167" lon="14.7786083"><ele>186.8</ele><time>2026-04-18T05:42:57.975Z</time></trkpt><trkpt lat="40.7363067" lon="14.7786717"><ele>187.20000000000002</ele><time>2026-04-18T05:42:58.975Z</time></trkpt><trkpt lat="40.7363967" lon="14.7787333"><ele>187.60000000000002</ele><time>2026-04-18T05:42:59.975Z</time></trkpt><trkpt lat="40.7364833" lon="14.778765"><ele>188.0</ele><time>2026-04-18T05:43:00.976Z</time></trkpt><trkpt lat="40.7365683" lon="14.7787983"><ele>188.0</ele><time>2026-04-18T05:43:01.975Z</time></trkpt><trkpt lat="40.73664" lon="14.778835"><ele>188.0</ele><time>2026-04-18T05:43:02.975Z</time></trkpt><trkpt lat="40.736715" lon="14.7788467"><ele>188.0</ele><time>2026-04-18T05:43:03.975Z</time></trkpt><trkpt lat="40.7367983" lon="14.7788633"><ele>188.0</ele><time>2026-04-18T05:43:04.975Z</time></trkpt><trkpt lat="40.7368933" lon="14.7788833"><ele>188.0</ele><time>2026-04-18T05:43:05.975Z</time></trkpt><trkpt lat="40.737005" lon="14.7789117"><ele>188.0</ele><time>2026-04-18T05:43:06.976Z</time></trkpt><trkpt lat="40.73712" lon="14.778945"><ele>188.5</ele><time>2026-04-18T05:43:07.975Z</time></trkpt><trkpt lat="40.73724" lon="14.778975"><ele>189.0</ele><time>2026-04-18T05:43:08.975Z</time></trkpt><trkpt lat="40.73736" lon="14.779005"><ele>189.5</ele><time>2026-04-18T05:43:09.976Z</time></trkpt><trkpt lat="40.7374683" lon="14.7790383"><ele>190.0</ele><time>2026-04-18T05:43:10.975Z</time></trkpt><trkpt lat="40.7375667" lon="14.7790667"><ele>190.0</ele><time>2026-04-18T05:43:11.975Z</time></trkpt><trkpt lat="40.7376567" lon="14.779055"><ele>190.0</ele><time>2026-04-18T05:43:12.975Z</time></trkpt><trkpt lat="40.7377417" lon="14.7789983"><ele>190.0</ele><time>2026-04-18T05:43:13.975Z</time></trkpt><trkpt lat="40.7378267" lon="14.77892"><ele>190.0</ele><time>2026-04-18T05:43:14.975Z</time></trkpt><trkpt lat="40.7379217" lon="14.7788083"><ele>190.0</ele><time>2026-04-18T05:43:15.975Z</time></trkpt><trkpt lat="40.7380117" lon="14.778655"><ele>189.5</ele><time>2026-04-18T05:43:16.975Z</time></trkpt><trkpt lat="40.7380533" lon="14.7784617"><ele>189.0</ele><time>2026-04-18T05:43:17.975Z</time></trkpt><trkpt lat="40.7380783" lon="14.778275"><ele>188.5</ele><time>2026-04-18T05:43:18.975Z</time></trkpt><trkpt lat="40.738075" lon="14.7780933"><ele>188.0</ele><time>2026-04-18T05:43:19.975Z</time></trkpt><trkpt lat="40.7380517" lon="14.77791"><ele>188.0</ele><time>2026-04-18T05:43:20.975Z</time></trkpt><trkpt lat="40.7380167" lon="14.777735"><ele>188.0</ele><time>2026-04-18T05:43:21.975Z</time></trkpt><trkpt lat="40.7379767" lon="14.7775783"><ele>188.0</ele><time>2026-04-18T05:43:22.975Z</time></trkpt><trkpt lat="40.7379217" lon="14.7774433"><ele>188.0</ele><time>2026-04-18T05:43:23.975Z</time></trkpt><trkpt lat="40.7378417" lon="14.7773367"><ele>186.75</ele><time>2026-04-18T05:43:24.975Z</time></trkpt><trkpt lat="40.7377417" lon="14.77726"><ele>185.5</ele><time>2026-04-18T05:43:25.975Z</time></trkpt><trkpt lat="40.7376283" lon="14.7772367"><ele>184.25</ele><time>2026-04-18T05:43:26.975Z</time></trkpt><trkpt lat="40.7375133" lon="14.777255"><ele>183.0</ele><time>2026-04-18T05:43:27.975Z</time></trkpt><trkpt lat="40.7374133" lon="14.7773267"><ele>183.0</ele><time>2026-04-18T05:43:28.975Z</time></trkpt><trkpt lat="40.737325" lon="14.777415"><ele>183.0</ele><time>2026-04-18T05:43:29.975Z</time></trkpt><trkpt lat="40.73724" lon="14.7774883"><ele>183.0</ele><time>2026-04-18T05:43:30.975Z</time></trkpt><trkpt lat="40.737135" lon="14.7775267"><ele>183.0</ele><time>2026-04-18T05:43:31.976Z</time></trkpt><trkpt lat="40.7370283" lon="14.77752"><ele>183.0</ele><time>2026-04-18T05:43:32.975Z</time></trkpt><trkpt lat="40.736925" lon="14.7774917"><ele>182.60000000000002</ele><time>2026-04-18T05:43:33.975Z</time></trkpt><trkpt lat="40.7368217" lon="14.7774417"><ele>182.20000000000002</ele><time>2026-04-18T05:43:34.975Z</time></trkpt><trkpt lat="40.7367283" lon="14.7773733"><ele>181.8</ele><time>2026-04-18T05:43:35.975Z</time></trkpt><trkpt lat="40.7366433" lon="14.7773067"><ele>181.4</ele><time>2026-04-18T05:43:36.975Z</time></trkpt><trkpt lat="40.736555" lon="14.77724"><ele>181.0</ele><time>2026-04-18T05:43:37.975Z</time></trkpt><trkpt lat="40.736465" lon="14.77717"><ele>181.0</ele><time>2026-04-18T05:43:38.975Z</time></trkpt><trkpt lat="40.7363583" lon="14.7770917"><ele>181.0</ele><time>2026-04-18T05:43:39.975Z</time></trkpt><trkpt lat="40.7362417" lon="14.7770033"><ele>181.0</ele><time>2026-04-18T05:43:40.975Z</time></trkpt><trkpt lat="40.7361067" lon="14.77691"><ele>181.0</ele><time>2026-04-18T05:43:41.975Z</time></trkpt><trkpt lat="40.7359583" lon="14.776805"><ele>179.0</ele><time>2026-04-18T05:43:42.975Z</time></trkpt><trkpt lat="40.73579" lon="14.77669"><ele>177.0</ele><time>2026-04-18T05:43:43.975Z</time></trkpt><trkpt lat="40.7356117" lon="14.7765733"><ele>175.0</ele><time>2026-04-18T05:43:44.975Z</time></trkpt><trkpt lat="40.7354167" lon="14.776455"><ele>175.5</ele><time>2026-04-18T05:43:45.975Z</time></trkpt><trkpt lat="40.735215" lon="14.7763383"><ele>176.0</ele><time>2026-04-18T05:43:46.976Z</time></trkpt><trkpt lat="40.7349983" lon="14.7762283"><ele>176.0</ele><time>2026-04-18T05:43:47.975Z</time></trkpt><trkpt lat="40.7347833" lon="14.776105"><ele>176.0</ele><time>2026-04-18T05:43:48.975Z</time></trkpt><trkpt lat="40.7345583" lon="14.7759817"><ele>173.5</ele><time>2026-04-18T05:43:49.975Z</time></trkpt><trkpt lat="40.7343217" lon="14.7758583"><ele>171.0</ele><time>2026-04-18T05:43:50.975Z</time></trkpt><trkpt lat="40.73408" lon="14.775745"><ele>171.0</ele><time>2026-04-18T05:43:51.975Z</time></trkpt><trkpt lat="40.7338233" lon="14.775645"><ele>171.0</ele><time>2026-04-18T05:43:52.975Z</time></trkpt><trkpt lat="40.7335633" lon="14.775555"><ele>171.5</ele><time>2026-04-18T05:43:53.975Z</time></trkpt><trkpt lat="40.7332983" lon="14.7754783"><ele>172.0</ele><time>2026-04-18T05:43:54.975Z</time></trkpt><trkpt lat="40.7330283" lon="14.775415"><ele>172.0</ele><time>2026-04-18T05:43:55.975Z</time></trkpt><trkpt lat="40.7327533" lon="14.775365"><ele>172.0</ele><time>2026-04-18T05:43:56.975Z</time></trkpt><trkpt lat="40.732475" lon="14.77532"><ele>170.0</ele><time>2026-04-18T05:43:57.976Z</time></trkpt><trkpt lat="40.7321983" lon="14.7752883"><ele>168.0</ele><time>2026-04-18T05:43:58.975Z</time></trkpt><trkpt lat="40.7319183" lon="14.775265"><ele>168.5</ele><time>2026-04-18T05:43:59.975Z</time></trkpt><trkpt lat="40.7316383" lon="14.77526"><ele>169.0</ele><time>2026-04-18T05:44:00.975Z</time></trkpt><trkpt lat="40.73135" lon="14.7752617"><ele>169.0</ele><time>2026-04-18T05:44:01.975Z</time></trkpt><trkpt lat="40.7310667" lon="14.7752667"><ele>169.0</ele><time>2026-04-18T05:44:02.975Z</time></trkpt><trkpt lat="40.730785" lon="14.7752783"><ele>170.5</ele><time>2026-04-18T05:44:03.975Z</time></trkpt><trkpt lat="40.7305" lon="14.7752933"><ele>172.0</ele><time>2026-04-18T05:44:04.975Z</time></trkpt><trkpt lat="40.7302183" lon="14.7753133"><ele>172.0</ele><time>2026-04-18T05:44:05.975Z</time></trkpt><trkpt lat="40.729935" lon="14.77534"><ele>172.0</ele><time>2026-04-18T05:44:06.975Z</time></trkpt><trkpt lat="40.729655" lon="14.77536"><ele>169.5</ele><time>2026-04-18T05:44:07.975Z</time></trkpt><trkpt lat="40.7293733" lon="14.7753817"><ele>167.0</ele><time>2026-04-18T05:44:08.975Z</time></trkpt><trkpt lat="40.7290917" lon="14.775405"><ele>167.0</ele><time>2026-04-18T05:44:09.975Z</time></trkpt><trkpt lat="40.72881" lon="14.7754317"><ele>167.0</ele><time>2026-04-18T05:44:10.975Z</time></trkpt><trkpt lat="40.7285283" lon="14.775455"><ele>165.0</ele><time>2026-04-18T05:44:11.975Z</time></trkpt><trkpt lat="40.728245" lon="14.77548"><ele>163.0</ele><time>2026-04-18T05:44:12.975Z</time></trkpt><trkpt lat="40.72796" lon="14.775505"><ele>162.0</ele><time>2026-04-18T05:44:13.975Z</time></trkpt><trkpt lat="40.727675" lon="14.7755267"><ele>161.0</ele><time>2026-04-18T05:44:14.975Z</time></trkpt><trkpt lat="40.7273867" lon="14.7755467"><ele>161.0</ele><time>2026-04-18T05:44:15.975Z</time></trkpt><trkpt lat="40.7270967" lon="14.7755683"><ele>161.0</ele><time>2026-04-18T05:44:16.975Z</time></trkpt><trkpt lat="40.72681" lon="14.7755967"><ele>159.0</ele><time>2026-04-18T05:44:17.975Z</time></trkpt><trkpt lat="40.72652" lon="14.7756167"><ele>157.0</ele><time>2026-04-18T05:44:18.975Z</time></trkpt><trkpt lat="40.72623" lon="14.7756383"><ele>156.0</ele><time>2026-04-18T05:44:19.975Z</time></trkpt><trkpt lat="40.7259417" lon="14.7756583"><ele>155.0</ele><time>2026-04-18T05:44:20.975Z</time></trkpt><trkpt lat="40.72565" lon="14.7756817"><ele>155.0</ele><time>2026-04-18T05:44:21.976Z</time></trkpt><trkpt lat="40.7253617" lon="14.77571"><ele>155.0</ele><time>2026-04-18T05:44:22.975Z</time></trkpt><trkpt lat="40.725075" lon="14.7757367"><ele>152.0</ele><time>2026-04-18T05:44:23.975Z</time></trkpt><trkpt lat="40.72479" lon="14.7757683"><ele>149.0</ele><time>2026-04-18T05:44:24.975Z</time></trkpt><trkpt lat="40.7245117" lon="14.7758117"><ele>146.5</ele><time>2026-04-18T05:44:25.975Z</time></trkpt><trkpt lat="40.7242333" lon="14.7758683"><ele>144.0</ele><time>2026-04-18T05:44:26.975Z</time></trkpt><trkpt lat="40.7239583" lon="14.77595"><ele>149.0</ele><time>2026-04-18T05:44:27.976Z</time></trkpt><trkpt lat="40.7236883" lon="14.776055"><ele>154.0</ele><time>2026-04-18T05:44:28.975Z</time></trkpt><trkpt lat="40.7234233" lon="14.7761767"><ele>158.0</ele><time>2026-04-18T05:44:29.975Z</time></trkpt><trkpt lat="40.7231567" lon="14.77631"><ele>162.0</ele><time>2026-04-18T05:44:30.975Z</time></trkpt><trkpt lat="40.7228917" lon="14.7764533"><ele>162.5</ele><time>2026-04-18T05:44:31.975Z</time></trkpt><trkpt lat="40.7226333" lon="14.7766117"><ele>163.0</ele><time>2026-04-18T05:44:32.975Z</time></trkpt><trkpt lat="40.7223767" lon="14.776775"><ele>169.0</ele><time>2026-04-18T05:44:33.975Z</time></trkpt><trkpt lat="40.7221183" lon="14.7769433"><ele>175.0</ele><time>2026-04-18T05:44:34.975Z</time></trkpt><trkpt lat="40.7218533" lon="14.77712"><ele>161.0</ele><time>2026-04-18T05:44:35.975Z</time></trkpt><trkpt lat="40.7215867" lon="14.777265"><ele>147.0</ele><time>2026-04-18T05:44:36.975Z</time></trkpt><trkpt lat="40.7213217" lon="14.7774083"><ele>145.0</ele><time>2026-04-18T05:44:37.975Z</time></trkpt><trkpt lat="40.721035" lon="14.777555"><ele>143.0</ele><time>2026-04-18T05:44:38.975Z</time></trkpt><trkpt lat="40.7207583" lon="14.7776983"><ele>143.0</ele><time>2026-04-18T05:44:39.975Z</time></trkpt><trkpt lat="40.72048" lon="14.7778033"><ele>143.0</ele><time>2026-04-18T05:44:40.975Z</time></trkpt><trkpt lat="40.7201983" lon="14.77787"><ele>142.0</ele><time>2026-04-18T05:44:41.975Z</time></trkpt><trkpt lat="40.71991" lon="14.777925"><ele>141.0</ele><time>2026-04-18T05:44:42.975Z</time></trkpt><trkpt lat="40.7196233" lon="14.777975"><ele>139.0</ele><time>2026-04-18T05:44:43.976Z</time></trkpt><trkpt lat="40.719335" lon="14.778025"><ele>137.0</ele><time>2026-04-18T05:44:44.975Z</time></trkpt><trkpt lat="40.719045" lon="14.7780783"><ele>137.0</ele><time>2026-04-18T05:44:45.975Z</time></trkpt><trkpt lat="40.7187567" lon="14.7781317"><ele>137.0</ele><time>2026-04-18T05:44:46.975Z</time></trkpt><trkpt lat="40.7184683" lon="14.7781883"><ele>138.0</ele><time>2026-04-18T05:44:47.975Z</time></trkpt><trkpt lat="40.7181717" lon="14.77824"><ele>139.0</ele><time>2026-04-18T05:44:48.975Z</time></trkpt><trkpt lat="40.71788" lon="14.77829"><ele>138.5</ele><time>2026-04-18T05:44:49.975Z</time></trkpt><trkpt lat="40.7175933" lon="14.7783283"><ele>138.0</ele><time>2026-04-18T05:44:50.975Z</time></trkpt><trkpt lat="40.7172983" lon="14.778365"><ele>138.0</ele><time>2026-04-18T05:44:51.975Z</time></trkpt><trkpt lat="40.717005" lon="14.7784017"><ele>138.0</ele><time>2026-04-18T05:44:52.975Z</time></trkpt><trkpt lat="40.71671" lon="14.77844"><ele>135.0</ele><time>2026-04-18T05:44:53.975Z</time></trkpt><trkpt lat="40.71642" lon="14.7784833"><ele>132.0</ele><time>2026-04-18T05:44:54.975Z</time></trkpt><trkpt lat="40.71613" lon="14.7785333"><ele>136.0</ele><time>2026-04-18T05:44:55.976Z</time></trkpt><trkpt lat="40.7158383" lon="14.7785817"><ele>140.0</ele><time>2026-04-18T05:44:56.975Z</time></trkpt><trkpt lat="40.7155467" lon="14.7786433"><ele>140.0</ele><time>2026-04-18T05:44:57.975Z</time></trkpt><trkpt lat="40.7152517" lon="14.7787017"><ele>140.0</ele><time>2026-04-18T05:44:58.975Z</time></trkpt><trkpt lat="40.7149633" lon="14.77875"><ele>134.5</ele><time>2026-04-18T05:44:59.975Z</time></trkpt><trkpt lat="40.71468" lon="14.7788"><ele>129.0</ele><time>2026-04-18T05:45:00.975Z</time></trkpt><trkpt lat="40.71439" lon="14.7788583"><ele>123.0</ele><time>2026-04-18T05:45:01.975Z</time></trkpt><trkpt lat="40.7141017" lon="14.7789117"><ele>117.0</ele><time>2026-04-18T05:45:02.975Z</time></trkpt><trkpt lat="40.7138183" lon="14.778965"><ele>118.0</ele><time>2026-04-18T05:45:03.975Z</time></trkpt><trkpt lat="40.7135283" lon="14.779025"><ele>119.0</ele><time>2026-04-18T05:45:04.975Z</time></trkpt><trkpt lat="40.7132367" lon="14.7790783"><ele>119.0</ele><time>2026-04-18T05:45:05.975Z</time></trkpt><trkpt lat="40.7129483" lon="14.7791417"><ele>119.0</ele><time>2026-04-18T05:45:06.975Z</time></trkpt><trkpt lat="40.7126583" lon="14.7792167"><ele>120.5</ele><time>2026-04-18T05:45:07.975Z</time></trkpt><trkpt lat="40.7123733" lon="14.7793167"><ele>122.0</ele><time>2026-04-18T05:45:08.975Z</time></trkpt><trkpt lat="40.7120933" lon="14.779435"><ele>118.0</ele><time>2026-04-18T05:45:09.975Z</time></trkpt><trkpt lat="40.7118233" lon="14.7795617"><ele>114.0</ele><time>2026-04-18T05:45:10.975Z</time></trkpt><trkpt lat="40.7115533" lon="14.7796983"><ele>114.0</ele><time>2026-04-18T05:45:11.975Z</time></trkpt><trkpt lat="40.7112817" lon="14.779825"><ele>114.0</ele><time>2026-04-18T05:45:12.975Z</time></trkpt><trkpt lat="40.71101" lon="14.779945"><ele>112.5</ele><time>2026-04-18T05:45:13.975Z</time></trkpt><trkpt lat="40.7107367" lon="14.78005"><ele>111.0</ele><time>2026-04-18T05:45:14.975Z</time></trkpt><trkpt lat="40.71046" lon="14.780135"><ele>117.0</ele><time>2026-04-18T05:45:15.975Z</time></trkpt><trkpt lat="40.7101683" lon="14.7801967"><ele>123.0</ele><time>2026-04-18T05:45:16.975Z</time></trkpt><trkpt lat="40.7098783" lon="14.780225"><ele>123.0</ele><time>2026-04-18T05:45:17.975Z</time></trkpt><trkpt lat="40.7095883" lon="14.7802333"><ele>123.0</ele><time>2026-04-18T05:45:18.976Z</time></trkpt><trkpt lat="40.7092983" lon="14.7802183"><ele>111.0</ele><time>2026-04-18T05:45:19.975Z</time></trkpt><trkpt lat="40.709005" lon="14.7801783"><ele>99.0</ele><time>2026-04-18T05:45:20.975Z</time></trkpt><trkpt lat="40.70872" lon="14.780115"><ele>101.5</ele><time>2026-04-18T05:45:21.975Z</time></trkpt><trkpt lat="40.7084467" lon="14.7800283"><ele>104.0</ele><time>2026-04-18T05:45:22.975Z</time></trkpt><trkpt lat="40.708175" lon="14.7799067"><ele>104.0</ele><time>2026-04-18T05:45:23.976Z</time></trkpt><trkpt lat="40.7079083" lon="14.7797567"><ele>104.0</ele><time>2026-04-18T05:45:24.975Z</time></trkpt><trkpt lat="40.7076467" lon="14.7795933"><ele>104.0</ele><time>2026-04-18T05:45:25.975Z</time></trkpt><trkpt lat="40.7073833" lon="14.7794283"><ele>104.0</ele><time>2026-04-18T05:45:26.975Z</time></trkpt><trkpt lat="40.7071167" lon="14.7792683"><ele>98.0</ele><time>2026-04-18T05:45:27.975Z</time></trkpt><trkpt lat="40.7068517" lon="14.779115"><ele>92.0</ele><time>2026-04-18T05:45:28.975Z</time></trkpt><trkpt lat="40.7065933" lon="14.778965"><ele>92.0</ele><time>2026-04-18T05:45:29.975Z</time></trkpt><trkpt lat="40.7063383" lon="14.7788217"><ele>92.0</ele><time>2026-04-18T05:45:30.976Z</time></trkpt><trkpt lat="40.7060783" lon="14.7786817"><ele>91.0</ele><time>2026-04-18T05:45:31.976Z</time></trkpt><trkpt lat="40.7058133" lon="14.778565"><ele>90.0</ele><time>2026-04-18T05:45:32.975Z</time></trkpt><trkpt lat="40.7055467" lon="14.7784683"><ele>88.0</ele><time>2026-04-18T05:45:33.976Z</time></trkpt><trkpt lat="40.705275" lon="14.778395"><ele>86.0</ele><time>2026-04-18T05:45:34.975Z</time></trkpt><trkpt lat="40.7050033" lon="14.7783483"><ele>85.5</ele><time>2026-04-18T05:45:35.975Z</time></trkpt><trkpt lat="40.7047283" lon="14.778325"><ele>85.0</ele><time>2026-04-18T05:45:36.975Z</time></trkpt><trkpt lat="40.704455" lon="14.778325"><ele>83.0</ele><time>2026-04-18T05:45:37.975Z</time></trkpt><trkpt lat="40.7041833" lon="14.7783367"><ele>81.0</ele><time>2026-04-18T05:45:38.975Z</time></trkpt><trkpt lat="40.7039133" lon="14.7783567"><ele>81.0</ele><time>2026-04-18T05:45:39.975Z</time></trkpt><trkpt lat="40.70364" lon="14.7783817"><ele>81.0</ele><time>2026-04-18T05:45:40.975Z</time></trkpt><trkpt lat="40.7033683" lon="14.7784083"><ele>79.5</ele><time>2026-04-18T05:45:41.975Z</time></trkpt><trkpt lat="40.7030917" lon="14.7784417"><ele>78.0</ele><time>2026-04-18T05:45:42.975Z</time></trkpt><trkpt lat="40.702815" lon="14.778475"><ele>78.5</ele><time>2026-04-18T05:45:43.975Z</time></trkpt><trkpt lat="40.7025333" lon="14.7785033"><ele>79.0</ele><time>2026-04-18T05:45:44.975Z</time></trkpt><trkpt lat="40.7022517" lon="14.77853"><ele>79.0</ele><time>2026-04-18T05:45:45.975Z</time></trkpt><trkpt lat="40.7019717" lon="14.778555"><ele>79.0</ele><time>2026-04-18T05:45:46.975Z</time></trkpt><trkpt lat="40.701695" lon="14.7785867"><ele>79.0</ele><time>2026-04-18T05:45:47.975Z</time></trkpt><trkpt lat="40.7014133" lon="14.778615"><ele>79.0</ele><time>2026-04-18T05:45:48.975Z</time></trkpt><trkpt lat="40.7011367" lon="14.7786517"><ele>76.0</ele><time>2026-04-18T05:45:49.975Z</time></trkpt><trkpt lat="40.7008633" lon="14.7786817"><ele>73.0</ele><time>2026-04-18T05:45:50.975Z</time></trkpt><trkpt lat="40.7005933" lon="14.7787133"><ele>73.0</ele><time>2026-04-18T05:45:51.975Z</time></trkpt><trkpt lat="40.7003233" lon="14.7787483"><ele>73.0</ele><time>2026-04-18T05:45:52.976Z</time></trkpt><trkpt lat="40.70005" lon="14.778785"><ele>70.5</ele><time>2026-04-18T05:45:53.975Z</time></trkpt><trkpt lat="40.6997717" lon="14.7788267"><ele>68.0</ele><time>2026-04-18T05:45:54.975Z</time></trkpt><trkpt lat="40.6995017" lon="14.7788833"><ele>68.5</ele><time>2026-04-18T05:45:55.975Z</time></trkpt><trkpt lat="40.6992333" lon="14.7789567"><ele>69.0</ele><time>2026-04-18T05:45:56.975Z</time></trkpt><trkpt lat="40.6989733" lon="14.77904"><ele>69.0</ele><time>2026-04-18T05:45:57.975Z</time></trkpt><trkpt lat="40.698715" lon="14.7791367"><ele>69.0</ele><time>2026-04-18T05:45:58.975Z</time></trkpt><trkpt lat="40.6984633" lon="14.7792617"><ele>76.0</ele><time>2026-04-18T05:45:59.975Z</time></trkpt><trkpt lat="40.6982083" lon="14.7793867"><ele>83.0</ele><time>2026-04-18T05:46:00.975Z</time></trkpt><trkpt lat="40.69797" lon="14.779535"><ele>80.0</ele><time>2026-04-18T05:46:01.976Z</time></trkpt><trkpt lat="40.6977383" lon="14.7797067"><ele>77.0</ele><time>2026-04-18T05:46:02.975Z</time></trkpt><trkpt lat="40.697515" lon="14.7798817"><ele>77.0</ele><time>2026-04-18T05:46:03.975Z</time></trkpt><trkpt lat="40.6972917" lon="14.78007"><ele>77.0</ele><time>2026-04-18T05:46:04.975Z</time></trkpt><trkpt lat="40.6970717" lon="14.7802667"><ele>73.5</ele><time>2026-04-18T05:46:05.975Z</time></trkpt><trkpt lat="40.6968567" lon="14.7804767"><ele>70.0</ele><time>2026-04-18T05:46:06.975Z</time></trkpt><trkpt lat="40.6966567" lon="14.7806883"><ele>70.0</ele><time>2026-04-18T05:46:07.975Z</time></trkpt><trkpt lat="40.6964683" lon="14.7809067"><ele>70.0</ele><time>2026-04-18T05:46:08.975Z</time></trkpt><trkpt lat="40.69629" lon="14.7811317"><ele>69.5</ele><time>2026-04-18T05:46:09.975Z</time></trkpt><trkpt lat="40.6961267" lon="14.7813683"><ele>69.0</ele><time>2026-04-18T05:46:10.975Z</time></trkpt><trkpt lat="40.69597" lon="14.7816"><ele>65.33333333333333</ele><time>2026-04-18T05:46:11.975Z</time></trkpt><trkpt lat="40.6958233" lon="14.781825"><ele>61.666666666666664</ele><time>2026-04-18T05:46:12.975Z</time></trkpt><trkpt lat="40.6956833" lon="14.7820467"><ele>58.0</ele><time>2026-04-18T05:46:13.975Z</time></trkpt><trkpt lat="40.6955667" lon="14.7822867"><ele>58.0</ele><time>2026-04-18T05:46:14.975Z</time></trkpt><trkpt lat="40.69548" lon="14.782535"><ele>58.0</ele><time>2026-04-18T05:46:15.975Z</time></trkpt><trkpt lat="40.69543" lon="14.78279"><ele>58.0</ele><time>2026-04-18T05:46:16.975Z</time></trkpt><trkpt lat="40.6954267" lon="14.7830617"><ele>60.0</ele><time>2026-04-18T05:46:17.975Z</time></trkpt><trkpt lat="40.6954533" lon="14.7833567"><ele>62.0</ele><time>2026-04-18T05:46:18.975Z</time></trkpt><trkpt lat="40.6955017" lon="14.7836667"><ele>62.0</ele><time>2026-04-18T05:46:19.975Z</time></trkpt><trkpt lat="40.6955717" lon="14.7839583"><ele>62.0</ele><time>2026-04-18T05:46:20.975Z</time></trkpt><trkpt lat="40.6956767" lon="14.78423"><ele>62.5</ele><time>2026-04-18T05:46:21.975Z</time></trkpt><trkpt lat="40.6958167" lon="14.7844883"><ele>63.0</ele><time>2026-04-18T05:46:22.975Z</time></trkpt><trkpt lat="40.695975" lon="14.7847167"><ele>65.66666666666667</ele><time>2026-04-18T05:46:23.975Z</time></trkpt><trkpt lat="40.69614" lon="14.7849083"><ele>68.33333333333334</ele><time>2026-04-18T05:46:24.975Z</time></trkpt><trkpt lat="40.6962983" lon="14.7850783"><ele>71.0</ele><time>2026-04-18T05:46:25.975Z</time></trkpt><trkpt lat="40.696435" lon="14.7852583"><ele>71.66666666666667</ele><time>2026-04-18T05:46:26.975Z</time></trkpt><trkpt lat="40.696545" lon="14.78546"><ele>72.33333333333333</ele><time>2026-04-18T05:46:27.976Z</time></trkpt><trkpt lat="40.696645" lon="14.7856633"><ele>73.0</ele><time>2026-04-18T05:46:28.975Z</time></trkpt><trkpt lat="40.69673" lon="14.7858867"><ele>73.66666666666666</ele><time>2026-04-18T05:46:29.975Z</time></trkpt><trkpt lat="40.6967983" lon="14.7861117"><ele>74.33333333333333</ele><time>2026-04-18T05:46:30.975Z</time></trkpt><trkpt lat="40.6968533" lon="14.7863483"><ele>75.0</ele><time>2026-04-18T05:46:31.975Z</time></trkpt><trkpt lat="40.6968933" lon="14.7865883"><ele>78.33333333333333</ele><time>2026-04-18T05:46:32.975Z</time></trkpt><trkpt lat="40.6969217" lon="14.78685"><ele>81.66666666666666</ele><time>2026-04-18T05:46:33.975Z</time></trkpt><trkpt lat="40.6969633" lon="14.787115"><ele>85.0</ele><time>2026-04-18T05:46:34.975Z</time></trkpt><trkpt lat="40.69701" lon="14.7873767"><ele>85.0</ele><time>2026-04-18T05:46:35.975Z</time></trkpt><trkpt lat="40.697055" lon="14.78764"><ele>85.0</ele><time>2026-04-18T05:46:36.975Z</time></trkpt><trkpt lat="40.6970933" lon="14.7879033"><ele>85.0</ele><time>2026-04-18T05:46:37.975Z</time></trkpt><trkpt lat="40.6971317" lon="14.7881667"><ele>86.66666666666666</ele><time>2026-04-18T05:46:38.975Z</time></trkpt><trkpt lat="40.697155" lon="14.7884283"><ele>88.33333333333333</ele><time>2026-04-18T05:46:39.975Z</time></trkpt><trkpt lat="40.6971833" lon="14.7886983"><ele>90.0</ele><time>2026-04-18T05:46:40.975Z</time></trkpt><trkpt lat="40.697205" lon="14.78897"><ele>92.0</ele><time>2026-04-18T05:46:41.975Z</time></trkpt><trkpt lat="40.697225" lon="14.789245"><ele>94.0</ele><time>2026-04-18T05:46:42.975Z</time></trkpt><trkpt lat="40.6972417" lon="14.78953"><ele>96.0</ele><time>2026-04-18T05:46:43.975Z</time></trkpt><trkpt lat="40.6972667" lon="14.7898183"><ele>96.5</ele><time>2026-04-18T05:46:44.975Z</time></trkpt><trkpt lat="40.69728" lon="14.7901233"><ele>97.0</ele><time>2026-04-18T05:46:45.975Z</time></trkpt><trkpt lat="40.69729" lon="14.7904217"><ele>99.0</ele><time>2026-04-18T05:46:46.975Z</time></trkpt><trkpt lat="40.697285" lon="14.7907317"><ele>101.0</ele><time>2026-04-18T05:46:47.975Z</time></trkpt><trkpt lat="40.6972717" lon="14.791045"><ele>103.0</ele><time>2026-04-18T05:46:48.975Z</time></trkpt><trkpt lat="40.69725" lon="14.791355"><ele>105.0</ele><time>2026-04-18T05:46:49.975Z</time></trkpt><trkpt lat="40.6972267" lon="14.7916667"><ele>107.5</ele><time>2026-04-18T05:46:50.975Z</time></trkpt><trkpt lat="40.6971983" lon="14.7919767"><ele>110.0</ele><time>2026-04-18T05:46:51.975Z</time></trkpt><trkpt lat="40.6971717" lon="14.792285"><ele>110.0</ele><time>2026-04-18T05:46:52.975Z</time></trkpt><trkpt lat="40.6971367" lon="14.7925983"><ele>110.0</ele><time>2026-04-18T05:46:53.975Z</time></trkpt><trkpt lat="40.69711" lon="14.79291"><ele>112.5</ele><time>2026-04-18T05:46:54.975Z</time></trkpt><trkpt lat="40.69709" lon="14.7932233"><ele>115.0</ele><time>2026-04-18T05:46:55.975Z</time></trkpt><trkpt lat="40.697075" lon="14.7935317"><ele>115.0</ele><time>2026-04-18T05:46:56.975Z</time></trkpt><trkpt lat="40.69706" lon="14.7938417"><ele>115.0</ele><time>2026-04-18T05:46:57.975Z</time></trkpt><trkpt lat="40.6970483" lon="14.7941567"><ele>114.0</ele><time>2026-04-18T05:46:58.975Z</time></trkpt><trkpt lat="40.69704" lon="14.794465"><ele>113.0</ele><time>2026-04-18T05:46:59.975Z</time></trkpt><trkpt lat="40.69703" lon="14.7947767"><ele>113.0</ele><time>2026-04-18T05:47:00.975Z</time></trkpt><trkpt lat="40.6970217" lon="14.7950867"><ele>113.0</ele><time>2026-04-18T05:47:01.975Z</time></trkpt><trkpt lat="40.697015" lon="14.7954"><ele>112.5</ele><time>2026-04-18T05:47:02.975Z</time></trkpt><trkpt lat="40.69702" lon="14.7957183"><ele>112.0</ele><time>2026-04-18T05:47:03.975Z</time></trkpt><trkpt lat="40.697025" lon="14.7960383"><ele>112.0</ele><time>2026-04-18T05:47:04.975Z</time></trkpt><trkpt lat="40.6970317" lon="14.7963617"><ele>112.0</ele><time>2026-04-18T05:47:05.975Z</time></trkpt><trkpt lat="40.6970433" lon="14.7966883"><ele>114.0</ele><time>2026-04-18T05:47:06.975Z</time></trkpt><trkpt lat="40.69706" lon="14.7970167"><ele>116.0</ele><time>2026-04-18T05:47:07.975Z</time></trkpt><trkpt lat="40.697085" lon="14.7973517"><ele>118.0</ele><time>2026-04-18T05:47:08.975Z</time></trkpt><trkpt lat="40.6971117" lon="14.79769"><ele>120.0</ele><time>2026-04-18T05:47:09.975Z</time></trkpt><trkpt lat="40.6971517" lon="14.798025"><ele>120.0</ele><time>2026-04-18T05:47:10.975Z</time></trkpt><trkpt lat="40.6971883" lon="14.7983617"><ele>120.0</ele><time>2026-04-18T05:47:11.975Z</time></trkpt><trkpt lat="40.697225" lon="14.7986967"><ele>122.5</ele><time>2026-04-18T05:47:12.975Z</time></trkpt><trkpt lat="40.6972617" lon="14.7990383"><ele>125.0</ele><time>2026-04-18T05:47:13.975Z</time></trkpt><trkpt lat="40.697305" lon="14.799375"><ele>125.0</ele><time>2026-04-18T05:47:14.975Z</time></trkpt><trkpt lat="40.6973533" lon="14.7997067"><ele>125.0</ele><time>2026-04-18T05:47:15.975Z</time></trkpt><trkpt lat="40.697415" lon="14.800045"><ele>125.0</ele><time>2026-04-18T05:47:16.975Z</time></trkpt><trkpt lat="40.6974817" lon="14.8003783"><ele>125.0</ele><time>2026-04-18T05:47:17.975Z</time></trkpt><trkpt lat="40.6975533" lon="14.8007083"><ele>126.5</ele><time>2026-04-18T05:47:18.974Z</time></trkpt><trkpt lat="40.697625" lon="14.8010383"><ele>128.0</ele><time>2026-04-18T05:47:19.974Z</time></trkpt><trkpt lat="40.6976967" lon="14.80137"><ele>135.5</ele><time>2026-04-18T05:47:20.974Z</time></trkpt><trkpt lat="40.69777" lon="14.8017"><ele>143.0</ele><time>2026-04-18T05:47:21.974Z</time></trkpt><trkpt lat="40.697845" lon="14.8020333"><ele>143.5</ele><time>2026-04-18T05:47:22.974Z</time></trkpt><trkpt lat="40.69793" lon="14.8023617"><ele>144.0</ele><time>2026-04-18T05:47:23.974Z</time></trkpt><trkpt lat="40.6980117" lon="14.80269"><ele>142.5</ele><time>2026-04-18T05:47:24.974Z</time></trkpt><trkpt lat="40.698075" lon="14.803025"><ele>141.0</ele><time>2026-04-18T05:47:25.974Z</time></trkpt><trkpt lat="40.69813" lon="14.8033633"><ele>139.5</ele><time>2026-04-18T05:47:26.975Z</time></trkpt><trkpt lat="40.6981933" lon="14.8037017"><ele>138.0</ele><time>2026-04-18T05:47:27.974Z</time></trkpt><trkpt lat="40.698265" lon="14.804035"><ele>140.0</ele><time>2026-04-18T05:47:28.974Z</time></trkpt><trkpt lat="40.6983433" lon="14.804365"><ele>142.0</ele><time>2026-04-18T05:47:29.974Z</time></trkpt><trkpt lat="40.6984217" lon="14.8046917"><ele>142.0</ele><time>2026-04-18T05:47:30.974Z</time></trkpt><trkpt lat="40.698495" lon="14.8050167"><ele>142.0</ele><time>2026-04-18T05:47:31.974Z</time></trkpt><trkpt lat="40.6985683" lon="14.8053433"><ele>149.5</ele><time>2026-04-18T05:47:32.974Z</time></trkpt><trkpt lat="40.6986417" lon="14.8056683"><ele>157.0</ele><time>2026-04-18T05:47:33.975Z</time></trkpt><trkpt lat="40.6987183" lon="14.80599"><ele>156.0</ele><time>2026-04-18T05:47:34.974Z</time></trkpt><trkpt lat="40.6987933" lon="14.8063117"><ele>155.0</ele><time>2026-04-18T05:47:35.974Z</time></trkpt><trkpt lat="40.69886" lon="14.806635"><ele>154.0</ele><time>2026-04-18T05:47:36.974Z</time></trkpt><trkpt lat="40.69893" lon="14.80696"><ele>153.0</ele><time>2026-04-18T05:47:37.975Z</time></trkpt><trkpt lat="40.6989867" lon="14.8072867"><ele>153.0</ele><time>2026-04-18T05:47:38.975Z</time></trkpt><trkpt lat="40.6990417" lon="14.807615"><ele>153.0</ele><time>2026-04-18T05:47:39.974Z</time></trkpt><trkpt lat="40.6990917" lon="14.8079433"><ele>156.5</ele><time>2026-04-18T05:47:40.974Z</time></trkpt><trkpt lat="40.69914" lon="14.8082717"><ele>160.0</ele><time>2026-04-18T05:47:41.974Z</time></trkpt><trkpt lat="40.69918" lon="14.8085983"><ele>164.0</ele><time>2026-04-18T05:47:42.974Z</time></trkpt><trkpt lat="40.69921" lon="14.8089267"><ele>168.0</ele><time>2026-04-18T05:47:43.974Z</time></trkpt><trkpt lat="40.6992367" lon="14.8092533"><ele>169.0</ele><time>2026-04-18T05:47:44.974Z</time></trkpt><trkpt lat="40.6992567" lon="14.80957"><ele>170.0</ele><time>2026-04-18T05:47:45.974Z</time></trkpt><trkpt lat="40.6992683" lon="14.8098983"><ele>169.0</ele><time>2026-04-18T05:47:46.974Z</time></trkpt><trkpt lat="40.6992767" lon="14.8102167"><ele>168.0</ele><time>2026-04-18T05:47:47.974Z</time></trkpt><trkpt lat="40.6992783" lon="14.81054"><ele>168.0</ele><time>2026-04-18T05:47:48.974Z</time></trkpt><trkpt lat="40.6992733" lon="14.8108633"><ele>168.0</ele><time>2026-04-18T05:47:49.974Z</time></trkpt><trkpt lat="40.6992583" lon="14.8111883"><ele>169.5</ele><time>2026-04-18T05:47:50.974Z</time></trkpt><trkpt lat="40.699235" lon="14.81151"><ele>171.0</ele><time>2026-04-18T05:47:51.974Z</time></trkpt><trkpt lat="40.699225" lon="14.8118383"><ele>171.0</ele><time>2026-04-18T05:47:52.974Z</time></trkpt><trkpt lat="40.699205" lon="14.8121633"><ele>171.0</ele><time>2026-04-18T05:47:53.974Z</time></trkpt><trkpt lat="40.699185" lon="14.8124817"><ele>175.5</ele><time>2026-04-18T05:47:54.974Z</time></trkpt><trkpt lat="40.699165" lon="14.8127833"><ele>180.0</ele><time>2026-04-18T05:47:55.975Z</time></trkpt><trkpt lat="40.6991317" lon="14.8131"><ele>180.0</ele><time>2026-04-18T05:47:56.974Z</time></trkpt><trkpt lat="40.6990733" lon="14.8133967"><ele>180.0</ele><time>2026-04-18T05:47:57.974Z</time></trkpt><trkpt lat="40.6990283" lon="14.813725"><ele>185.5</ele><time>2026-04-18T05:47:58.974Z</time></trkpt><trkpt lat="40.6989867" lon="14.8140617"><ele>191.0</ele><time>2026-04-18T05:47:59.974Z</time></trkpt><trkpt lat="40.6989417" lon="14.8143983"><ele>181.0</ele><time>2026-04-18T05:48:00.974Z</time></trkpt><trkpt lat="40.6984133" lon="14.8196483"><ele>181.0</ele><time>2026-04-18T05:48:16.973Z</time></trkpt><trkpt lat="40.6983939" lon="14.8200153"><ele>181.0</ele><time>2026-04-18T05:48:17.973Z</time></trkpt><trkpt lat="40.6983819" lon="14.8203631"><ele>180.0</ele><time>2026-04-18T05:48:18.973Z</time></trkpt><trkpt lat="40.6983665" lon="14.8207034"><ele>179.0</ele><time>2026-04-18T05:48:19.974Z</time></trkpt><trkpt lat="40.6983467" lon="14.8210372"><ele>177.5</ele><time>2026-04-18T05:48:20.973Z</time></trkpt><trkpt lat="40.6983199" lon="14.8213669"><ele>176.0</ele><time>2026-04-18T05:48:21.973Z</time></trkpt><trkpt lat="40.698292" lon="14.8216914"><ele>176.5</ele><time>2026-04-18T05:48:22.973Z</time></trkpt><trkpt lat="40.6982569" lon="14.8220171"><ele>177.0</ele><time>2026-04-18T05:48:23.973Z</time></trkpt><trkpt lat="40.6982181" lon="14.822342"><ele>176.5</ele><time>2026-04-18T05:48:24.974Z</time></trkpt><trkpt lat="40.6981772" lon="14.8226655"><ele>176.0</ele><time>2026-04-18T05:48:25.973Z</time></trkpt><trkpt lat="40.6981311" lon="14.8229875"><ele>176.0</ele><time>2026-04-18T05:48:26.973Z</time></trkpt><trkpt lat="40.6980764" lon="14.8233085"><ele>176.0</ele><time>2026-04-18T05:48:27.973Z</time></trkpt><trkpt lat="40.6980179" lon="14.8236262"><ele>175.5</ele><time>2026-04-18T05:48:28.973Z</time></trkpt><trkpt lat="40.6979547" lon="14.8239428"><ele>175.0</ele><time>2026-04-18T05:48:29.973Z</time></trkpt><trkpt lat="40.6978891" lon="14.8242593"><ele>175.0</ele><time>2026-04-18T05:48:30.973Z</time></trkpt><trkpt lat="40.6978203" lon="14.8245744"><ele>175.0</ele><time>2026-04-18T05:48:31.973Z</time></trkpt><trkpt lat="40.697747" lon="14.8248882"><ele>174.5</ele><time>2026-04-18T05:48:32.973Z</time></trkpt><trkpt lat="40.6976666" lon="14.8252023"><ele>174.0</ele><time>2026-04-18T05:48:33.973Z</time></trkpt><trkpt lat="40.6975805" lon="14.8255115"><ele>174.0</ele><time>2026-04-18T05:48:34.974Z</time></trkpt><trkpt lat="40.6974916" lon="14.8258208"><ele>174.0</ele><time>2026-04-18T05:48:35.973Z</time></trkpt><trkpt lat="40.6974063" lon="14.826135"><ele>175.0</ele><time>2026-04-18T05:48:36.973Z</time></trkpt><trkpt lat="40.6973071" lon="14.8264433"><ele>176.0</ele><time>2026-04-18T05:48:37.973Z</time></trkpt><trkpt lat="40.6971969" lon="14.826747"><ele>177.5</ele><time>2026-04-18T05:48:38.973Z</time></trkpt><trkpt lat="40.6970944" lon="14.8270557"><ele>179.0</ele><time>2026-04-18T05:48:39.973Z</time></trkpt><trkpt lat="40.6969867" lon="14.8273619"><ele>178.0</ele><time>2026-04-18T05:48:40.973Z</time></trkpt><trkpt lat="40.6968717" lon="14.8276632"><ele>177.0</ele><time>2026-04-18T05:48:41.973Z</time></trkpt><trkpt lat="40.6967559" lon="14.827954"><ele>177.0</ele><time>2026-04-18T05:48:42.973Z</time></trkpt><trkpt lat="40.6966352" lon="14.8282402"><ele>177.0</ele><time>2026-04-18T05:48:43.973Z</time></trkpt><trkpt lat="40.696512" lon="14.8285351"><ele>178.0</ele><time>2026-04-18T05:48:44.973Z</time></trkpt><trkpt lat="40.6963835" lon="14.8288324"><ele>179.0</ele><time>2026-04-18T05:48:45.973Z</time></trkpt><trkpt lat="40.6962454" lon="14.8291219"><ele>178.0</ele><time>2026-04-18T05:48:46.973Z</time></trkpt><trkpt lat="40.6960962" lon="14.8294128"><ele>177.0</ele><time>2026-04-18T05:48:47.973Z</time></trkpt><trkpt lat="40.6959322" lon="14.8296915"><ele>176.0</ele><time>2026-04-18T05:48:48.973Z</time></trkpt><trkpt lat="40.6957658" lon="14.8299727"><ele>175.0</ele><time>2026-04-18T05:48:49.974Z</time></trkpt><trkpt lat="40.6956008" lon="14.830257"><ele>174.5</ele><time>2026-04-18T05:48:50.973Z</time></trkpt><trkpt lat="40.6954357" lon="14.83054"><ele>174.0</ele><time>2026-04-18T05:48:51.973Z</time></trkpt><trkpt lat="40.6952699" lon="14.8308186"><ele>170.0</ele><time>2026-04-18T05:48:52.973Z</time></trkpt><trkpt lat="40.6951022" lon="14.8310855"><ele>166.0</ele><time>2026-04-18T05:48:53.973Z</time></trkpt><trkpt lat="40.6949247" lon="14.8313348"><ele>166.0</ele><time>2026-04-18T05:48:54.974Z</time></trkpt><trkpt lat="40.6947435" lon="14.831581"><ele>166.0</ele><time>2026-04-18T05:48:55.973Z</time></trkpt><trkpt lat="40.694563" lon="14.8318287"><ele>163.5</ele><time>2026-04-18T05:48:56.973Z</time></trkpt><trkpt lat="40.6943869" lon="14.8320828"><ele>161.0</ele><time>2026-04-18T05:48:57.973Z</time></trkpt><trkpt lat="40.6942093" lon="14.8323386"><ele>161.0</ele><time>2026-04-18T05:48:58.973Z</time></trkpt><trkpt lat="40.6940321" lon="14.8325837"><ele>161.0</ele><time>2026-04-18T05:48:59.973Z</time></trkpt><trkpt lat="40.6938588" lon="14.8328094"><ele>160.66666666666666</ele><time>2026-04-18T05:49:00.973Z</time></trkpt><trkpt lat="40.6936962" lon="14.8330149"><ele>160.33333333333334</ele><time>2026-04-18T05:49:01.973Z</time></trkpt><trkpt lat="40.6935353" lon="14.8332007"><ele>160.0</ele><time>2026-04-18T05:49:02.973Z</time></trkpt><trkpt lat="40.6933721" lon="14.8333574"><ele>160.0</ele><time>2026-04-18T05:49:03.973Z</time></trkpt><trkpt lat="40.6932031" lon="14.8334648"><ele>160.0</ele><time>2026-04-18T05:49:04.973Z</time></trkpt><trkpt lat="40.6930372" lon="14.8335383"><ele>160.0</ele><time>2026-04-18T05:49:05.973Z</time></trkpt><trkpt lat="40.6928844" lon="14.8336144"><ele>159.0</ele><time>2026-04-18T05:49:06.973Z</time></trkpt><trkpt lat="40.6927538" lon="14.8337145"><ele>158.0</ele><time>2026-04-18T05:49:07.973Z</time></trkpt><trkpt lat="40.6926442" lon="14.8338318"><ele>157.0</ele><time>2026-04-18T05:49:08.973Z</time></trkpt><trkpt lat="40.6925441" lon="14.8339511"><ele>156.0</ele><time>2026-04-18T05:49:09.973Z</time></trkpt><trkpt lat="40.6924524" lon="14.8340618"><ele>156.0</ele><time>2026-04-18T05:49:10.973Z</time></trkpt><trkpt lat="40.692375" lon="14.8341546"><ele>156.0</ele><time>2026-04-18T05:49:11.973Z</time></trkpt><trkpt lat="40.6923198" lon="14.8342271"><ele>156.0</ele><time>2026-04-18T05:49:12.974Z</time></trkpt><trkpt lat="40.6922578" lon="14.8342964"><ele>156.0</ele><time>2026-04-18T05:49:14.973Z</time></trkpt><trkpt lat="40.6921846" lon="14.8343947"><ele>156.0</ele><time>2026-04-18T05:50:19.973Z</time></trkpt><trkpt lat="40.692144" lon="14.8344743"><ele>156.0</ele><time>2026-04-18T05:50:20.973Z</time></trkpt><trkpt lat="40.6921088" lon="14.8345808"><ele>156.0</ele><time>2026-04-18T05:50:21.973Z</time></trkpt><trkpt lat="40.6920663" lon="14.8346872"><ele>156.0</ele><time>2026-04-18T05:50:22.973Z</time></trkpt><trkpt lat="40.6920083" lon="14.8348166"><ele>156.0</ele><time>2026-04-18T05:50:23.973Z</time></trkpt><trkpt lat="40.6919573" lon="14.8349644"><ele>156.0</ele><time>2026-04-18T05:50:24.973Z</time></trkpt><trkpt lat="40.691916" lon="14.8351267"><ele>155.0</ele><time>2026-04-18T05:50:25.973Z</time></trkpt><trkpt lat="40.6918603" lon="14.8352944"><ele>154.0</ele><time>2026-04-18T05:50:26.973Z</time></trkpt><trkpt lat="40.691782" lon="14.8354585"><ele>153.0</ele><time>2026-04-18T05:50:27.973Z</time></trkpt><trkpt lat="40.6916883" lon="14.8356144"><ele>152.0</ele><time>2026-04-18T05:50:28.973Z</time></trkpt><trkpt lat="40.6915783" lon="14.8357705"><ele>152.0</ele><time>2026-04-18T05:50:29.973Z</time></trkpt><trkpt lat="40.6914635" lon="14.8359261"><ele>152.0</ele><time>2026-04-18T05:50:30.973Z</time></trkpt><trkpt lat="40.6913444" lon="14.8360854"><ele>152.0</ele><time>2026-04-18T05:50:31.974Z</time></trkpt><trkpt lat="40.6912249" lon="14.836255"><ele>151.66666666666666</ele><time>2026-04-18T05:50:32.973Z</time></trkpt><trkpt lat="40.6911047" lon="14.8364286"><ele>151.33333333333334</ele><time>2026-04-18T05:50:33.973Z</time></trkpt><trkpt lat="40.690983" lon="14.8366032"><ele>151.0</ele><time>2026-04-18T05:50:34.974Z</time></trkpt><trkpt lat="40.6908613" lon="14.8367792"><ele>150.66666666666669</ele><time>2026-04-18T05:50:35.973Z</time></trkpt><trkpt lat="40.6907419" lon="14.8369574"><ele>150.33333333333334</ele><time>2026-04-18T05:50:36.973Z</time></trkpt><trkpt lat="40.6906194" lon="14.8371385"><ele>150.0</ele><time>2026-04-18T05:50:37.973Z</time></trkpt><trkpt lat="40.6904974" lon="14.8373229"><ele>150.0</ele><time>2026-04-18T05:50:38.973Z</time></trkpt><trkpt lat="40.6903768" lon="14.8375117"><ele>150.0</ele><time>2026-04-18T05:50:39.973Z</time></trkpt><trkpt lat="40.6902528" lon="14.8377105"><ele>150.0</ele><time>2026-04-18T05:50:40.974Z</time></trkpt><trkpt lat="40.6901298" lon="14.8379175"><ele>147.66666666666666</ele><time>2026-04-18T05:50:41.973Z</time></trkpt><trkpt lat="40.6900034" lon="14.8381227"><ele>145.33333333333331</ele><time>2026-04-18T05:50:42.974Z</time></trkpt><trkpt lat="40.6898727" lon="14.838335"><ele>143.0</ele><time>2026-04-18T05:50:43.973Z</time></trkpt><trkpt lat="40.6897466" lon="14.8385536"><ele>142.66666666666666</ele><time>2026-04-18T05:50:44.973Z</time></trkpt><trkpt lat="40.6896244" lon="14.8387786"><ele>142.33333333333334</ele><time>2026-04-18T05:50:45.973Z</time></trkpt><trkpt lat="40.6895031" lon="14.8390077"><ele>142.0</ele><time>2026-04-18T05:50:46.973Z</time></trkpt><trkpt lat="40.6893831" lon="14.8392403"><ele>140.66666666666669</ele><time>2026-04-18T05:50:47.973Z</time></trkpt><trkpt lat="40.6892568" lon="14.8394733"><ele>139.33333333333334</ele><time>2026-04-18T05:50:48.973Z</time></trkpt><trkpt lat="40.6891278" lon="14.8397096"><ele>138.0</ele><time>2026-04-18T05:50:49.973Z</time></trkpt><trkpt lat="40.6890093" lon="14.8399629"><ele>137.5</ele><time>2026-04-18T05:50:50.973Z</time></trkpt><trkpt lat="40.6888889" lon="14.8402192"><ele>137.0</ele><time>2026-04-18T05:50:51.973Z</time></trkpt><trkpt lat="40.688769" lon="14.8404797"><ele>137.0</ele><time>2026-04-18T05:50:52.973Z</time></trkpt><trkpt lat="40.6886527" lon="14.8407435"><ele>137.0</ele><time>2026-04-18T05:50:53.973Z</time></trkpt><trkpt lat="40.688538" lon="14.8410104"><ele>134.0</ele><time>2026-04-18T05:50:54.973Z</time></trkpt><trkpt lat="40.6884266" lon="14.8412756"><ele>131.0</ele><time>2026-04-18T05:50:55.973Z</time></trkpt><trkpt lat="40.6883203" lon="14.841548"><ele>130.5</ele><time>2026-04-18T05:50:56.973Z</time></trkpt><trkpt lat="40.6882147" lon="14.8418233"><ele>130.0</ele><time>2026-04-18T05:50:57.973Z</time></trkpt><trkpt lat="40.6881128" lon="14.8420979"><ele>130.0</ele><time>2026-04-18T05:50:58.974Z</time></trkpt><trkpt lat="40.6880148" lon="14.8423789"><ele>130.0</ele><time>2026-04-18T05:50:59.973Z</time></trkpt><trkpt lat="40.6879179" lon="14.8426593"><ele>129.5</ele><time>2026-04-18T05:51:00.973Z</time></trkpt><trkpt lat="40.6878233" lon="14.8429374"><ele>129.0</ele><time>2026-04-18T05:51:01.973Z</time></trkpt><trkpt lat="40.6877332" lon="14.8432171"><ele>128.0</ele><time>2026-04-18T05:51:02.973Z</time></trkpt><trkpt lat="40.6876478" lon="14.8435007"><ele>127.0</ele><time>2026-04-18T05:51:03.973Z</time></trkpt><trkpt lat="40.6875632" lon="14.8437781"><ele>127.0</ele><time>2026-04-18T05:51:04.973Z</time></trkpt><trkpt lat="40.68748" lon="14.844058"><ele>127.0</ele><time>2026-04-18T05:51:05.973Z</time></trkpt><trkpt lat="40.687398" lon="14.8443393"><ele>126.5</ele><time>2026-04-18T05:51:06.973Z</time></trkpt><trkpt lat="40.6873164" lon="14.8446206"><ele>126.0</ele><time>2026-04-18T05:51:07.973Z</time></trkpt><trkpt lat="40.6872373" lon="14.8449021"><ele>125.0</ele><time>2026-04-18T05:51:08.973Z</time></trkpt><trkpt lat="40.6871632" lon="14.8451849"><ele>124.0</ele><time>2026-04-18T05:51:09.973Z</time></trkpt><trkpt lat="40.6870876" lon="14.845466"><ele>124.0</ele><time>2026-04-18T05:51:10.973Z</time></trkpt><trkpt lat="40.6870191" lon="14.8457519"><ele>124.0</ele><time>2026-04-18T05:51:11.973Z</time></trkpt><trkpt lat="40.6869505" lon="14.8460375"><ele>123.0</ele><time>2026-04-18T05:51:12.973Z</time></trkpt><trkpt lat="40.686881" lon="14.8463239"><ele>122.0</ele><time>2026-04-18T05:51:13.973Z</time></trkpt><trkpt lat="40.6868124" lon="14.8466105"><ele>120.5</ele><time>2026-04-18T05:51:14.973Z</time></trkpt><trkpt lat="40.6867428" lon="14.846896"><ele>119.0</ele><time>2026-04-18T05:51:15.973Z</time></trkpt><trkpt lat="40.686674" lon="14.8471809"><ele>119.0</ele><time>2026-04-18T05:51:16.973Z</time></trkpt><trkpt lat="40.6866024" lon="14.8474668"><ele>119.0</ele><time>2026-04-18T05:51:17.973Z</time></trkpt><trkpt lat="40.6865282" lon="14.8477509"><ele>115.5</ele><time>2026-04-18T05:51:18.973Z</time></trkpt><trkpt lat="40.6864542" lon="14.8480374"><ele>112.0</ele><time>2026-04-18T05:51:19.973Z</time></trkpt><trkpt lat="40.6863762" lon="14.8483252"><ele>111.5</ele><time>2026-04-18T05:51:20.973Z</time></trkpt><trkpt lat="40.6862979" lon="14.8486097"><ele>111.0</ele><time>2026-04-18T05:51:21.973Z</time></trkpt><trkpt lat="40.6862221" lon="14.8488958"><ele>111.0</ele><time>2026-04-18T05:51:22.973Z</time></trkpt><trkpt lat="40.6861441" lon="14.8491826"><ele>111.0</ele><time>2026-04-18T05:51:23.973Z</time></trkpt><trkpt lat="40.6860669" lon="14.849472"><ele>110.5</ele><time>2026-04-18T05:51:24.973Z</time></trkpt><trkpt lat="40.6859881" lon="14.849763"><ele>110.0</ele><time>2026-04-18T05:51:25.973Z</time></trkpt><trkpt lat="40.6859095" lon="14.8500533"><ele>109.5</ele><time>2026-04-18T05:51:26.974Z</time></trkpt><trkpt lat="40.6858296" lon="14.8503421"><ele>109.0</ele><time>2026-04-18T05:51:27.973Z</time></trkpt><trkpt lat="40.6857487" lon="14.8506292"><ele>109.0</ele><time>2026-04-18T05:51:28.973Z</time></trkpt><trkpt lat="40.6856589" lon="14.850913"><ele>109.0</ele><time>2026-04-18T05:51:29.973Z</time></trkpt><trkpt lat="40.6855624" lon="14.8511906"><ele>110.5</ele><time>2026-04-18T05:51:30.973Z</time></trkpt><trkpt lat="40.6854621" lon="14.8514664"><ele>112.0</ele><time>2026-04-18T05:51:31.973Z</time></trkpt><trkpt lat="40.6853542" lon="14.8517366"><ele>112.5</ele><time>2026-04-18T05:51:32.974Z</time></trkpt><trkpt lat="40.6852392" lon="14.852003"><ele>113.0</ele><time>2026-04-18T05:51:33.973Z</time></trkpt><trkpt lat="40.6851212" lon="14.8522622"><ele>113.0</ele><time>2026-04-18T05:51:34.973Z</time></trkpt><trkpt lat="40.6849971" lon="14.8525198"><ele>113.0</ele><time>2026-04-18T05:51:35.973Z</time></trkpt><trkpt lat="40.6848712" lon="14.8527758"><ele>114.0</ele><time>2026-04-18T05:51:36.973Z</time></trkpt><trkpt lat="40.6847407" lon="14.853025"><ele>115.0</ele><time>2026-04-18T05:51:37.973Z</time></trkpt><trkpt lat="40.684602" lon="14.8532688"><ele>115.5</ele><time>2026-04-18T05:51:38.973Z</time></trkpt><trkpt lat="40.6844525" lon="14.8535082"><ele>116.0</ele><time>2026-04-18T05:51:39.973Z</time></trkpt><trkpt lat="40.6842969" lon="14.8537392"><ele>114.5</ele><time>2026-04-18T05:51:40.973Z</time></trkpt><trkpt lat="40.6841303" lon="14.8539677"><ele>113.0</ele><time>2026-04-18T05:51:41.973Z</time></trkpt><trkpt lat="40.6839618" lon="14.8541846"><ele>113.0</ele><time>2026-04-18T05:51:42.973Z</time></trkpt><trkpt lat="40.6837883" lon="14.8543957"><ele>113.0</ele><time>2026-04-18T05:51:43.973Z</time></trkpt><trkpt lat="40.6836126" lon="14.8546026"><ele>111.5</ele><time>2026-04-18T05:51:44.973Z</time></trkpt><trkpt lat="40.6834354" lon="14.8548082"><ele>110.0</ele><time>2026-04-18T05:51:45.973Z</time></trkpt><trkpt lat="40.6832529" lon="14.855006"><ele>111.5</ele><time>2026-04-18T05:51:46.973Z</time></trkpt><trkpt lat="40.6830612" lon="14.8551985"><ele>113.0</ele><time>2026-04-18T05:51:47.973Z</time></trkpt><trkpt lat="40.6828681" lon="14.8553782"><ele>112.0</ele><time>2026-04-18T05:51:48.973Z</time></trkpt><trkpt lat="40.6826647" lon="14.8555437"><ele>111.0</ele><time>2026-04-18T05:51:49.973Z</time></trkpt><trkpt lat="40.6824597" lon="14.8556995"><ele>111.0</ele><time>2026-04-18T05:51:50.973Z</time></trkpt><trkpt lat="40.6822539" lon="14.8558521"><ele>111.0</ele><time>2026-04-18T05:51:51.973Z</time></trkpt><trkpt lat="40.6820462" lon="14.8560069"><ele>113.0</ele><time>2026-04-18T05:51:52.973Z</time></trkpt><trkpt lat="40.6818346" lon="14.8561538"><ele>115.0</ele><time>2026-04-18T05:51:53.973Z</time></trkpt><trkpt lat="40.6816145" lon="14.8562821"><ele>115.0</ele><time>2026-04-18T05:51:54.973Z</time></trkpt><trkpt lat="40.6813929" lon="14.856402"><ele>115.0</ele><time>2026-04-18T05:51:55.973Z</time></trkpt><trkpt lat="40.6811666" lon="14.8565094"><ele>113.5</ele><time>2026-04-18T05:51:56.973Z</time></trkpt><trkpt lat="40.6809342" lon="14.856611"><ele>112.0</ele><time>2026-04-18T05:51:57.973Z</time></trkpt><trkpt lat="40.6807013" lon="14.8567043"><ele>113.0</ele><time>2026-04-18T05:51:58.973Z</time></trkpt><trkpt lat="40.6804664" lon="14.8567973"><ele>114.0</ele><time>2026-04-18T05:51:59.973Z</time></trkpt><trkpt lat="40.6802323" lon="14.8568831"><ele>114.0</ele><time>2026-04-18T05:52:00.973Z</time></trkpt><trkpt lat="40.6799983" lon="14.8569581"><ele>114.0</ele><time>2026-04-18T05:52:01.973Z</time></trkpt><trkpt lat="40.6797633" lon="14.857015"><ele>114.0</ele><time>2026-04-18T05:52:02.973Z</time></trkpt><trkpt lat="40.679525" lon="14.85706"><ele>114.0</ele><time>2026-04-18T05:52:03.973Z</time></trkpt><trkpt lat="40.679285" lon="14.8570983"><ele>114.0</ele><time>2026-04-18T05:52:04.973Z</time></trkpt><trkpt lat="40.67905" lon="14.8571333"><ele>114.0</ele><time>2026-04-18T05:52:05.973Z</time></trkpt><trkpt lat="40.678815" lon="14.85717"><ele>115.5</ele><time>2026-04-18T05:52:06.973Z</time></trkpt><trkpt lat="40.678575" lon="14.8572067"><ele>117.0</ele><time>2026-04-18T05:52:07.973Z</time></trkpt><trkpt lat="40.6783317" lon="14.8572367"><ele>117.0</ele><time>2026-04-18T05:52:08.973Z</time></trkpt><trkpt lat="40.6780867" lon="14.8572617"><ele>117.0</ele><time>2026-04-18T05:52:09.973Z</time></trkpt><trkpt lat="40.6778383" lon="14.857285"><ele>118.0</ele><time>2026-04-18T05:52:10.973Z</time></trkpt><trkpt lat="40.67759" lon="14.8573067"><ele>119.0</ele><time>2026-04-18T05:52:11.973Z</time></trkpt><trkpt lat="40.6773433" lon="14.857325"><ele>119.0</ele><time>2026-04-18T05:52:12.974Z</time></trkpt><trkpt lat="40.6770967" lon="14.85735"><ele>119.0</ele><time>2026-04-18T05:52:13.973Z</time></trkpt><trkpt lat="40.6768517" lon="14.8573683"><ele>125.0</ele><time>2026-04-18T05:52:14.973Z</time></trkpt><trkpt lat="40.6766" lon="14.85738"><ele>131.0</ele><time>2026-04-18T05:52:15.973Z</time></trkpt><trkpt lat="40.6763583" lon="14.857395"><ele>131.0</ele><time>2026-04-18T05:52:16.973Z</time></trkpt><trkpt lat="40.6761117" lon="14.8573967"><ele>131.0</ele><time>2026-04-18T05:52:17.973Z</time></trkpt><trkpt lat="40.6758533" lon="14.8574083"><ele>148.0</ele><time>2026-04-18T05:52:18.973Z</time></trkpt><trkpt lat="40.675565" lon="14.8574333"><ele>165.0</ele><time>2026-04-18T05:52:19.973Z</time></trkpt><trkpt lat="40.6752917" lon="14.85739"><ele>112.0</ele><time>2026-04-18T05:52:20.973Z</time></trkpt><trkpt lat="40.6697417" lon="14.858045"><ele>112.0</ele><time>2026-04-18T05:52:43.973Z</time></trkpt><trkpt lat="40.6694983" lon="14.8580717"><ele>112.0</ele><time>2026-04-18T05:52:44.973Z</time></trkpt><trkpt lat="40.6692533" lon="14.858095"><ele>115.5</ele><time>2026-04-18T05:52:45.973Z</time></trkpt><trkpt lat="40.6690067" lon="14.8581167"><ele>119.0</ele><time>2026-04-18T05:52:46.973Z</time></trkpt><trkpt lat="40.6687517" lon="14.8581333"><ele>130.0</ele><time>2026-04-18T05:52:47.973Z</time></trkpt><trkpt lat="40.6685" lon="14.85815"><ele>141.0</ele><time>2026-04-18T05:52:48.973Z</time></trkpt><trkpt lat="40.6682483" lon="14.858165"><ele>141.0</ele><time>2026-04-18T05:52:49.973Z</time></trkpt><trkpt lat="40.6679967" lon="14.8581817"><ele>141.0</ele><time>2026-04-18T05:52:50.973Z</time></trkpt><trkpt lat="40.6627067" lon="14.8590767"><ele>107.5</ele><time>2026-04-18T05:53:12.972Z</time></trkpt><trkpt lat="40.66245" lon="14.8591583"><ele>74.0</ele><time>2026-04-18T05:53:13.972Z</time></trkpt><trkpt lat="40.6622033" lon="14.8592483"><ele>72.0</ele><time>2026-04-18T05:53:14.972Z</time></trkpt><trkpt lat="40.6619667" lon="14.8593583"><ele>70.0</ele><time>2026-04-18T05:53:15.972Z</time></trkpt><trkpt lat="40.66174" lon="14.8594783"><ele>70.0</ele><time>2026-04-18T05:53:16.972Z</time></trkpt><trkpt lat="40.66152" lon="14.859615"><ele>70.0</ele><time>2026-04-18T05:53:17.972Z</time></trkpt><trkpt lat="40.6613017" lon="14.85976"><ele>65.5</ele><time>2026-04-18T05:53:18.972Z</time></trkpt><trkpt lat="40.661085" lon="14.8599133"><ele>61.0</ele><time>2026-04-18T05:53:19.972Z</time></trkpt><trkpt lat="40.66087" lon="14.86007"><ele>65.5</ele><time>2026-04-18T05:53:20.973Z</time></trkpt><trkpt lat="40.6606583" lon="14.86023"><ele>70.0</ele><time>2026-04-18T05:53:21.972Z</time></trkpt><trkpt lat="40.66045" lon="14.8603967"><ele>65.0</ele><time>2026-04-18T05:53:22.972Z</time></trkpt><trkpt lat="40.6602417" lon="14.8605667"><ele>60.0</ele><time>2026-04-18T05:53:23.972Z</time></trkpt><trkpt lat="40.6600317" lon="14.8607417"><ele>60.0</ele><time>2026-04-18T05:53:24.972Z</time></trkpt><trkpt lat="40.6598233" lon="14.8609067"><ele>60.0</ele><time>2026-04-18T05:53:25.972Z</time></trkpt><trkpt lat="40.65961" lon="14.86108"><ele>58.5</ele><time>2026-04-18T05:53:26.972Z</time></trkpt><trkpt lat="40.6593983" lon="14.8612483"><ele>57.0</ele><time>2026-04-18T05:53:27.972Z</time></trkpt><trkpt lat="40.659185" lon="14.8614133"><ele>57.0</ele><time>2026-04-18T05:53:28.972Z</time></trkpt><trkpt lat="40.6589783" lon="14.8615833"><ele>57.0</ele><time>2026-04-18T05:53:29.972Z</time></trkpt><trkpt lat="40.6587683" lon="14.8617533"><ele>54.5</ele><time>2026-04-18T05:53:30.972Z</time></trkpt><trkpt lat="40.6585617" lon="14.8619267"><ele>52.0</ele><time>2026-04-18T05:53:31.972Z</time></trkpt><trkpt lat="40.65835" lon="14.8621"><ele>52.0</ele><time>2026-04-18T05:53:32.972Z</time></trkpt><trkpt lat="40.658145" lon="14.862275"><ele>52.0</ele><time>2026-04-18T05:53:33.972Z</time></trkpt><trkpt lat="40.657945" lon="14.8624567"><ele>50.5</ele><time>2026-04-18T05:53:34.972Z</time></trkpt><trkpt lat="40.6577517" lon="14.8626517"><ele>49.0</ele><time>2026-04-18T05:53:35.972Z</time></trkpt><trkpt lat="40.6575633" lon="14.8628567"><ele>49.0</ele><time>2026-04-18T05:53:36.972Z</time></trkpt><trkpt lat="40.6573833" lon="14.8630683"><ele>49.0</ele><time>2026-04-18T05:53:37.972Z</time></trkpt><trkpt lat="40.6572033" lon="14.8632833"><ele>48.5</ele><time>2026-04-18T05:53:38.972Z</time></trkpt><trkpt lat="40.65703" lon="14.86351"><ele>48.0</ele><time>2026-04-18T05:53:39.972Z</time></trkpt><trkpt lat="40.6568617" lon="14.8637417"><ele>48.0</ele><time>2026-04-18T05:53:40.972Z</time></trkpt><trkpt lat="40.6566933" lon="14.8639767"><ele>48.0</ele><time>2026-04-18T05:53:41.972Z</time></trkpt><trkpt lat="40.6565317" lon="14.8642217"><ele>47.5</ele><time>2026-04-18T05:53:42.972Z</time></trkpt><trkpt lat="40.656375" lon="14.86447"><ele>47.0</ele><time>2026-04-18T05:53:43.972Z</time></trkpt><trkpt lat="40.6562217" lon="14.8647217"><ele>46.5</ele><time>2026-04-18T05:53:44.972Z</time></trkpt><trkpt lat="40.656075" lon="14.8649817"><ele>46.0</ele><time>2026-04-18T05:53:45.972Z</time></trkpt><trkpt lat="40.65593" lon="14.8652417"><ele>46.0</ele><time>2026-04-18T05:53:46.972Z</time></trkpt><trkpt lat="40.655795" lon="14.8655117"><ele>46.0</ele><time>2026-04-18T05:53:47.972Z</time></trkpt><trkpt lat="40.655665" lon="14.865785"><ele>47.0</ele><time>2026-04-18T05:53:48.972Z</time></trkpt><trkpt lat="40.6555433" lon="14.8660617"><ele>48.0</ele><time>2026-04-18T05:53:49.972Z</time></trkpt><trkpt lat="40.6554233" lon="14.8663317"><ele>48.0</ele><time>2026-04-18T05:53:50.972Z</time></trkpt><trkpt lat="40.6553183" lon="14.8666033"><ele>48.0</ele><time>2026-04-18T05:53:51.972Z</time></trkpt><trkpt lat="40.6552083" lon="14.8668733"><ele>45.5</ele><time>2026-04-18T05:53:52.972Z</time></trkpt><trkpt lat="40.6550967" lon="14.8671383"><ele>43.0</ele><time>2026-04-18T05:53:53.972Z</time></trkpt><trkpt lat="40.65499" lon="14.8674117"><ele>43.0</ele><time>2026-04-18T05:53:54.972Z</time></trkpt><trkpt lat="40.6548817" lon="14.867685"><ele>43.0</ele><time>2026-04-18T05:53:55.972Z</time></trkpt><trkpt lat="40.6547783" lon="14.86796"><ele>43.0</ele><time>2026-04-18T05:53:56.972Z</time></trkpt><trkpt lat="40.6546733" lon="14.868235"><ele>43.0</ele><time>2026-04-18T05:53:57.972Z</time></trkpt><trkpt lat="40.654565" lon="14.86851"><ele>43.0</ele><time>2026-04-18T05:53:58.972Z</time></trkpt><trkpt lat="40.65446" lon="14.8687833"><ele>43.0</ele><time>2026-04-18T05:53:59.972Z</time></trkpt><trkpt lat="40.6543533" lon="14.8690567"><ele>41.5</ele><time>2026-04-18T05:54:00.972Z</time></trkpt><trkpt lat="40.654245" lon="14.8693267"><ele>40.0</ele><time>2026-04-18T05:54:01.972Z</time></trkpt><trkpt lat="40.6541367" lon="14.8696"><ele>40.0</ele><time>2026-04-18T05:54:02.972Z</time></trkpt><trkpt lat="40.6540267" lon="14.8698733"><ele>40.0</ele><time>2026-04-18T05:54:03.972Z</time></trkpt><trkpt lat="40.6539183" lon="14.8701417"><ele>38.5</ele><time>2026-04-18T05:54:04.972Z</time></trkpt><trkpt lat="40.6538083" lon="14.8704133"><ele>37.0</ele><time>2026-04-18T05:54:05.972Z</time></trkpt><trkpt lat="40.6537017" lon="14.8706867"><ele>34.5</ele><time>2026-04-18T05:54:06.972Z</time></trkpt><trkpt lat="40.6535933" lon="14.87096"><ele>32.0</ele><time>2026-04-18T05:54:07.972Z</time></trkpt><trkpt lat="40.65348" lon="14.871225"><ele>32.0</ele><time>2026-04-18T05:54:08.972Z</time></trkpt><trkpt lat="40.653365" lon="14.8714917"><ele>32.0</ele><time>2026-04-18T05:54:09.972Z</time></trkpt><trkpt lat="40.6532483" lon="14.8717583"><ele>31.5</ele><time>2026-04-18T05:54:10.972Z</time></trkpt><trkpt lat="40.6531283" lon="14.8720283"><ele>31.0</ele><time>2026-04-18T05:54:11.972Z</time></trkpt><trkpt lat="40.6530117" lon="14.8722933"><ele>31.0</ele><time>2026-04-18T05:54:12.972Z</time></trkpt><trkpt lat="40.652895" lon="14.8725567"><ele>31.0</ele><time>2026-04-18T05:54:13.972Z</time></trkpt><trkpt lat="40.6527833" lon="14.8728233"><ele>31.0</ele><time>2026-04-18T05:54:14.972Z</time></trkpt><trkpt lat="40.6526717" lon="14.8730933"><ele>31.0</ele><time>2026-04-18T05:54:15.972Z</time></trkpt><trkpt lat="40.6525567" lon="14.87336"><ele>31.0</ele><time>2026-04-18T05:54:16.972Z</time></trkpt><trkpt lat="40.6524417" lon="14.873625"><ele>31.0</ele><time>2026-04-18T05:54:17.972Z</time></trkpt><trkpt lat="40.652325" lon="14.8738917"><ele>31.0</ele><time>2026-04-18T05:54:18.972Z</time></trkpt><trkpt lat="40.652205" lon="14.8741583"><ele>31.0</ele><time>2026-04-18T05:54:19.972Z</time></trkpt><trkpt lat="40.6520833" lon="14.8744217"><ele>31.5</ele><time>2026-04-18T05:54:20.972Z</time></trkpt><trkpt lat="40.6519667" lon="14.8746883"><ele>32.0</ele><time>2026-04-18T05:54:21.972Z</time></trkpt><trkpt lat="40.65185" lon="14.8749567"><ele>34.0</ele><time>2026-04-18T05:54:22.972Z</time></trkpt><trkpt lat="40.6517317" lon="14.8752217"><ele>36.0</ele><time>2026-04-18T05:54:23.972Z</time></trkpt><trkpt lat="40.6516167" lon="14.87549"><ele>36.0</ele><time>2026-04-18T05:54:24.972Z</time></trkpt><trkpt lat="40.6515" lon="14.8757533"><ele>36.0</ele><time>2026-04-18T05:54:25.972Z</time></trkpt><trkpt lat="40.6513817" lon="14.8760183"><ele>36.0</ele><time>2026-04-18T05:54:26.972Z</time></trkpt><trkpt lat="40.6512667" lon="14.8762783"><ele>36.0</ele><time>2026-04-18T05:54:27.972Z</time></trkpt><trkpt lat="40.651145" lon="14.87655"><ele>35.5</ele><time>2026-04-18T05:54:28.972Z</time></trkpt><trkpt lat="40.6510283" lon="14.87681"><ele>35.0</ele><time>2026-04-18T05:54:29.972Z</time></trkpt><trkpt lat="40.6509117" lon="14.87707"><ele>35.0</ele><time>2026-04-18T05:54:30.972Z</time></trkpt><trkpt lat="40.650795" lon="14.8773333"><ele>35.0</ele><time>2026-04-18T05:54:31.972Z</time></trkpt><trkpt lat="40.6506767" lon="14.877595"><ele>35.5</ele><time>2026-04-18T05:54:32.972Z</time></trkpt><trkpt lat="40.65056" lon="14.8778617"><ele>36.0</ele><time>2026-04-18T05:54:33.972Z</time></trkpt><trkpt lat="40.6504417" lon="14.8781283"><ele>36.0</ele><time>2026-04-18T05:54:34.972Z</time></trkpt><trkpt lat="40.650325" lon="14.8783917"><ele>36.0</ele><time>2026-04-18T05:54:35.972Z</time></trkpt><trkpt lat="40.6502083" lon="14.878655"><ele>37.0</ele><time>2026-04-18T05:54:36.972Z</time></trkpt><trkpt lat="40.6500867" lon="14.8789183"><ele>38.0</ele><time>2026-04-18T05:54:37.972Z</time></trkpt><trkpt lat="40.6499733" lon="14.8791833"><ele>38.0</ele><time>2026-04-18T05:54:38.972Z</time></trkpt><trkpt lat="40.6498517" lon="14.8794417"><ele>38.0</ele><time>2026-04-18T05:54:39.972Z</time></trkpt><trkpt lat="40.649735" lon="14.8797033"><ele>38.0</ele><time>2026-04-18T05:54:40.972Z</time></trkpt><trkpt lat="40.6496183" lon="14.8799633"><ele>38.0</ele><time>2026-04-18T05:54:41.972Z</time></trkpt><trkpt lat="40.6495" lon="14.880225"><ele>39.0</ele><time>2026-04-18T05:54:42.972Z</time></trkpt><trkpt lat="40.64938" lon="14.8804917"><ele>40.0</ele><time>2026-04-18T05:54:43.972Z</time></trkpt><trkpt lat="40.6492617" lon="14.8807583"><ele>40.0</ele><time>2026-04-18T05:54:44.972Z</time></trkpt><trkpt lat="40.6491433" lon="14.8810233"><ele>40.0</ele><time>2026-04-18T05:54:45.972Z</time></trkpt><trkpt lat="40.649025" lon="14.88129"><ele>40.0</ele><time>2026-04-18T05:54:46.972Z</time></trkpt><trkpt lat="40.648905" lon="14.88155"><ele>40.0</ele><time>2026-04-18T05:54:47.972Z</time></trkpt><trkpt lat="40.6487883" lon="14.8818167"><ele>40.0</ele><time>2026-04-18T05:54:48.972Z</time></trkpt><trkpt lat="40.6486733" lon="14.8820867"><ele>40.0</ele><time>2026-04-18T05:54:49.972Z</time></trkpt><trkpt lat="40.6485567" lon="14.8823533"><ele>40.5</ele><time>2026-04-18T05:54:50.972Z</time></trkpt><trkpt lat="40.6484417" lon="14.8826267"><ele>41.0</ele><time>2026-04-18T05:54:51.972Z</time></trkpt><trkpt lat="40.6483183" lon="14.88291"><ele>41.0</ele><time>2026-04-18T05:54:52.972Z</time></trkpt><trkpt lat="40.6481933" lon="14.8832017"><ele>41.0</ele><time>2026-04-18T05:54:53.972Z</time></trkpt><trkpt lat="40.648065" lon="14.8834917"><ele>41.5</ele><time>2026-04-18T05:54:54.972Z</time></trkpt><trkpt lat="40.6479367" lon="14.8837883"><ele>42.0</ele><time>2026-04-18T05:54:55.972Z</time></trkpt><trkpt lat="40.6478067" lon="14.88409"><ele>42.0</ele><time>2026-04-18T05:54:56.972Z</time></trkpt><trkpt lat="40.64768" lon="14.8843917"><ele>42.0</ele><time>2026-04-18T05:54:57.972Z</time></trkpt><trkpt lat="40.6475533" lon="14.8846867"><ele>42.0</ele><time>2026-04-18T05:54:58.972Z</time></trkpt><trkpt lat="40.6474233" lon="14.8849767"><ele>42.0</ele><time>2026-04-18T05:54:59.972Z</time></trkpt><trkpt lat="40.6472933" lon="14.8852683"><ele>43.0</ele><time>2026-04-18T05:55:00.972Z</time></trkpt><trkpt lat="40.6471667" lon="14.8855583"><ele>44.0</ele><time>2026-04-18T05:55:01.972Z</time></trkpt><trkpt lat="40.6470383" lon="14.88585"><ele>43.5</ele><time>2026-04-18T05:55:02.973Z</time></trkpt><trkpt lat="40.6469117" lon="14.886145"><ele>43.0</ele><time>2026-04-18T05:55:03.972Z</time></trkpt><trkpt lat="40.6467817" lon="14.8864333"><ele>43.0</ele><time>2026-04-18T05:55:04.972Z</time></trkpt><trkpt lat="40.6466533" lon="14.8867283"><ele>43.0</ele><time>2026-04-18T05:55:05.973Z</time></trkpt><trkpt lat="40.6465217" lon="14.88702"><ele>43.0</ele><time>2026-04-18T05:55:06.972Z</time></trkpt><trkpt lat="40.6463933" lon="14.88731"><ele>43.0</ele><time>2026-04-18T05:55:07.972Z</time></trkpt><trkpt lat="40.6462583" lon="14.8876033"><ele>43.5</ele><time>2026-04-18T05:55:08.972Z</time></trkpt><trkpt lat="40.6461288" lon="14.8878956"><ele>44.0</ele><time>2026-04-18T05:55:09.972Z</time></trkpt><trkpt lat="40.645998" lon="14.888186"><ele>45.0</ele><time>2026-04-18T05:55:10.972Z</time></trkpt><trkpt lat="40.6458687" lon="14.8884787"><ele>46.0</ele><time>2026-04-18T05:55:11.972Z</time></trkpt><trkpt lat="40.6457414" lon="14.8887721"><ele>46.0</ele><time>2026-04-18T05:55:12.973Z</time></trkpt><trkpt lat="40.6456152" lon="14.8890606"><ele>46.0</ele><time>2026-04-18T05:55:13.972Z</time></trkpt><trkpt lat="40.6454846" lon="14.8893542"><ele>46.5</ele><time>2026-04-18T05:55:14.972Z</time></trkpt><trkpt lat="40.6453556" lon="14.8896486"><ele>47.0</ele><time>2026-04-18T05:55:15.972Z</time></trkpt><trkpt lat="40.6452259" lon="14.8899404"><ele>45.5</ele><time>2026-04-18T05:55:16.973Z</time></trkpt><trkpt lat="40.6450981" lon="14.8902333"><ele>44.0</ele><time>2026-04-18T05:55:17.972Z</time></trkpt><trkpt lat="40.6449699" lon="14.8905288"><ele>44.0</ele><time>2026-04-18T05:55:18.972Z</time></trkpt><trkpt lat="40.6448451" lon="14.8908239"><ele>44.0</ele><time>2026-04-18T05:55:19.972Z</time></trkpt><trkpt lat="40.644719" lon="14.8911188"><ele>45.0</ele><time>2026-04-18T05:55:20.972Z</time></trkpt><trkpt lat="40.6445926" lon="14.8914128"><ele>46.0</ele><time>2026-04-18T05:55:21.972Z</time></trkpt><trkpt lat="40.6444671" lon="14.8917051"><ele>45.0</ele><time>2026-04-18T05:55:22.972Z</time></trkpt><trkpt lat="40.6443373" lon="14.8919984"><ele>44.0</ele><time>2026-04-18T05:55:23.972Z</time></trkpt><trkpt lat="40.6442074" lon="14.8922894"><ele>44.0</ele><time>2026-04-18T05:55:24.972Z</time></trkpt><trkpt lat="40.6440785" lon="14.8925809"><ele>44.0</ele><time>2026-04-18T05:55:25.972Z</time></trkpt><trkpt lat="40.6439477" lon="14.8928713"><ele>43.5</ele><time>2026-04-18T05:55:26.972Z</time></trkpt><trkpt lat="40.643815" lon="14.893162"><ele>43.0</ele><time>2026-04-18T05:55:27.972Z</time></trkpt><trkpt lat="40.6436773" lon="14.8934487"><ele>42.0</ele><time>2026-04-18T05:55:28.973Z</time></trkpt><trkpt lat="40.6435427" lon="14.8937353"><ele>41.0</ele><time>2026-04-18T05:55:29.972Z</time></trkpt><trkpt lat="40.6434089" lon="14.8940231"><ele>41.0</ele><time>2026-04-18T05:55:30.972Z</time></trkpt><trkpt lat="40.643278" lon="14.8943094"><ele>41.0</ele><time>2026-04-18T05:55:31.972Z</time></trkpt><trkpt lat="40.64315" lon="14.894597"><ele>41.0</ele><time>2026-04-18T05:55:32.972Z</time></trkpt><trkpt lat="40.6430206" lon="14.8948887"><ele>41.0</ele><time>2026-04-18T05:55:33.972Z</time></trkpt><trkpt lat="40.6428895" lon="14.8951829"><ele>40.5</ele><time>2026-04-18T05:55:34.972Z</time></trkpt><trkpt lat="40.6427556" lon="14.8954723"><ele>40.0</ele><time>2026-04-18T05:55:35.972Z</time></trkpt><trkpt lat="40.6426233" lon="14.8957598"><ele>39.5</ele><time>2026-04-18T05:55:36.972Z</time></trkpt><trkpt lat="40.642488" lon="14.8960512"><ele>39.0</ele><time>2026-04-18T05:55:37.972Z</time></trkpt><trkpt lat="40.6423575" lon="14.8963427"><ele>39.0</ele><time>2026-04-18T05:55:38.972Z</time></trkpt><trkpt lat="40.6422274" lon="14.8966297"><ele>39.0</ele><time>2026-04-18T05:55:39.972Z</time></trkpt><trkpt lat="40.6420998" lon="14.8969229"><ele>39.0</ele><time>2026-04-18T05:55:40.972Z</time></trkpt><trkpt lat="40.6419715" lon="14.8972173"><ele>39.0</ele><time>2026-04-18T05:55:41.972Z</time></trkpt><trkpt lat="40.6418388" lon="14.8975079"><ele>38.0</ele><time>2026-04-18T05:55:42.972Z</time></trkpt><trkpt lat="40.6417032" lon="14.8977959"><ele>37.0</ele><time>2026-04-18T05:55:43.972Z</time></trkpt><trkpt lat="40.6415703" lon="14.8980842"><ele>37.0</ele><time>2026-04-18T05:55:44.972Z</time></trkpt><trkpt lat="40.641436" lon="14.8983738"><ele>37.0</ele><time>2026-04-18T05:55:45.972Z</time></trkpt><trkpt lat="40.6413046" lon="14.8986645"><ele>37.5</ele><time>2026-04-18T05:55:46.972Z</time></trkpt><trkpt lat="40.6411754" lon="14.8989547"><ele>38.0</ele><time>2026-04-18T05:55:47.973Z</time></trkpt><trkpt lat="40.6410469" lon="14.8992468"><ele>38.5</ele><time>2026-04-18T05:55:48.972Z</time></trkpt><trkpt lat="40.6409173" lon="14.8995377"><ele>39.0</ele><time>2026-04-18T05:55:49.972Z</time></trkpt><trkpt lat="40.6407839" lon="14.8998268"><ele>39.5</ele><time>2026-04-18T05:55:50.972Z</time></trkpt><trkpt lat="40.6406459" lon="14.9001122"><ele>40.0</ele><time>2026-04-18T05:55:51.972Z</time></trkpt><trkpt lat="40.6405065" lon="14.9003952"><ele>40.0</ele><time>2026-04-18T05:55:52.972Z</time></trkpt><trkpt lat="40.6403643" lon="14.9006755"><ele>40.0</ele><time>2026-04-18T05:55:53.972Z</time></trkpt><trkpt lat="40.6402237" lon="14.9009577"><ele>39.5</ele><time>2026-04-18T05:55:54.972Z</time></trkpt><trkpt lat="40.6400847" lon="14.9012427"><ele>39.0</ele><time>2026-04-18T05:55:55.972Z</time></trkpt><trkpt lat="40.6399495" lon="14.9015308"><ele>39.5</ele><time>2026-04-18T05:55:56.972Z</time></trkpt><trkpt lat="40.6398144" lon="14.9018142"><ele>40.0</ele><time>2026-04-18T05:55:57.972Z</time></trkpt><trkpt lat="40.6396794" lon="14.9020999"><ele>40.0</ele><time>2026-04-18T05:55:58.973Z</time></trkpt><trkpt lat="40.6395469" lon="14.9023898"><ele>40.0</ele><time>2026-04-18T05:55:59.972Z</time></trkpt><trkpt lat="40.6394139" lon="14.9026752"><ele>40.0</ele><time>2026-04-18T05:56:00.972Z</time></trkpt><trkpt lat="40.6392826" lon="14.9029681"><ele>40.0</ele><time>2026-04-18T05:56:01.972Z</time></trkpt><trkpt lat="40.6391535" lon="14.9032555"><ele>39.5</ele><time>2026-04-18T05:56:02.972Z</time></trkpt><trkpt lat="40.6390225" lon="14.9035459"><ele>39.0</ele><time>2026-04-18T05:56:03.972Z</time></trkpt><trkpt lat="40.6388879" lon="14.9038345"><ele>39.0</ele><time>2026-04-18T05:56:04.972Z</time></trkpt><trkpt lat="40.6387528" lon="14.9041228"><ele>39.0</ele><time>2026-04-18T05:56:05.972Z</time></trkpt><trkpt lat="40.638618" lon="14.9044122"><ele>38.0</ele><time>2026-04-18T05:56:06.972Z</time></trkpt><trkpt lat="40.6384874" lon="14.9047013"><ele>37.0</ele><time>2026-04-18T05:56:07.972Z</time></trkpt><trkpt lat="40.6383562" lon="14.9049925"><ele>38.0</ele><time>2026-04-18T05:56:08.972Z</time></trkpt><trkpt lat="40.6382281" lon="14.9052839"><ele>39.0</ele><time>2026-04-18T05:56:09.972Z</time></trkpt><trkpt lat="40.6381036" lon="14.9055805"><ele>39.0</ele><time>2026-04-18T05:56:10.972Z</time></trkpt><trkpt lat="40.6379774" lon="14.9058761"><ele>39.0</ele><time>2026-04-18T05:56:11.972Z</time></trkpt><trkpt lat="40.6378476" lon="14.9061663"><ele>38.5</ele><time>2026-04-18T05:56:12.972Z</time></trkpt><trkpt lat="40.6377161" lon="14.9064541"><ele>38.0</ele><time>2026-04-18T05:56:13.973Z</time></trkpt><trkpt lat="40.6375858" lon="14.9067461"><ele>39.0</ele><time>2026-04-18T05:56:14.972Z</time></trkpt><trkpt lat="40.6374603" lon="14.9070383"><ele>40.0</ele><time>2026-04-18T05:56:15.972Z</time></trkpt><trkpt lat="40.6373352" lon="14.9073328"><ele>40.0</ele><time>2026-04-18T05:56:16.972Z</time></trkpt><trkpt lat="40.6372147" lon="14.9076305"><ele>40.0</ele><time>2026-04-18T05:56:17.972Z</time></trkpt><trkpt lat="40.6370949" lon="14.9079303"><ele>40.0</ele><time>2026-04-18T05:56:18.972Z</time></trkpt><trkpt lat="40.6369844" lon="14.9082322"><ele>40.0</ele><time>2026-04-18T05:56:19.972Z</time></trkpt><trkpt lat="40.6368765" lon="14.9085382"><ele>39.0</ele><time>2026-04-18T05:56:20.972Z</time></trkpt><trkpt lat="40.6367703" lon="14.9088467"><ele>38.0</ele><time>2026-04-18T05:56:21.972Z</time></trkpt><trkpt lat="40.6366615" lon="14.9091553"><ele>37.0</ele><time>2026-04-18T05:56:22.972Z</time></trkpt><trkpt lat="40.6365518" lon="14.9094628"><ele>36.0</ele><time>2026-04-18T05:56:23.972Z</time></trkpt><trkpt lat="40.6364433" lon="14.909767"><ele>36.5</ele><time>2026-04-18T05:56:24.972Z</time></trkpt><trkpt lat="40.6363387" lon="14.9100764"><ele>37.0</ele><time>2026-04-18T05:56:25.972Z</time></trkpt><trkpt lat="40.6362408" lon="14.9103863"><ele>37.0</ele><time>2026-04-18T05:56:26.972Z</time></trkpt><trkpt lat="40.6361417" lon="14.9106966"><ele>37.0</ele><time>2026-04-18T05:56:27.972Z</time></trkpt><trkpt lat="40.6360438" lon="14.9110086"><ele>38.0</ele><time>2026-04-18T05:56:28.973Z</time></trkpt><trkpt lat="40.6359431" lon="14.9113208"><ele>39.0</ele><time>2026-04-18T05:56:29.972Z</time></trkpt><trkpt lat="40.6358431" lon="14.9116314"><ele>39.0</ele><time>2026-04-18T05:56:30.972Z</time></trkpt><trkpt lat="40.6357443" lon="14.9119426"><ele>39.0</ele><time>2026-04-18T05:56:31.972Z</time></trkpt><trkpt lat="40.6356474" lon="14.9122531"><ele>39.0</ele><time>2026-04-18T05:56:32.972Z</time></trkpt><trkpt lat="40.6355524" lon="14.912566"><ele>39.0</ele><time>2026-04-18T05:56:33.972Z</time></trkpt><trkpt lat="40.6354554" lon="14.9128791"><ele>38.5</ele><time>2026-04-18T05:56:34.972Z</time></trkpt><trkpt lat="40.6353562" lon="14.913191"><ele>38.0</ele><time>2026-04-18T05:56:35.972Z</time></trkpt><trkpt lat="40.6352576" lon="14.9135062"><ele>39.0</ele><time>2026-04-18T05:56:36.973Z</time></trkpt><trkpt lat="40.6351566" lon="14.9138139"><ele>40.0</ele><time>2026-04-18T05:56:37.972Z</time></trkpt><trkpt lat="40.6350555" lon="14.9141241"><ele>41.0</ele><time>2026-04-18T05:56:38.972Z</time></trkpt><trkpt lat="40.6349527" lon="14.9144339"><ele>42.0</ele><time>2026-04-18T05:56:39.972Z</time></trkpt><trkpt lat="40.6348509" lon="14.9147449"><ele>42.0</ele><time>2026-04-18T05:56:40.972Z</time></trkpt><trkpt lat="40.6347537" lon="14.9150579"><ele>42.0</ele><time>2026-04-18T05:56:41.973Z</time></trkpt><trkpt lat="40.6346555" lon="14.9153638"><ele>42.0</ele><time>2026-04-18T05:56:42.972Z</time></trkpt><trkpt lat="40.6345569" lon="14.9156712"><ele>42.0</ele><time>2026-04-18T05:56:43.972Z</time></trkpt><trkpt lat="40.6344578" lon="14.9159832"><ele>42.0</ele><time>2026-04-18T05:56:44.972Z</time></trkpt><trkpt lat="40.6343555" lon="14.9162926"><ele>42.0</ele><time>2026-04-18T05:56:45.973Z</time></trkpt><trkpt lat="40.6342491" lon="14.9166009"><ele>43.0</ele><time>2026-04-18T05:56:46.972Z</time></trkpt><trkpt lat="40.6341413" lon="14.9169077"><ele>44.0</ele><time>2026-04-18T05:56:47.973Z</time></trkpt><trkpt lat="40.6340321" lon="14.9172152"><ele>44.0</ele><time>2026-04-18T05:56:48.972Z</time></trkpt><trkpt lat="40.6339221" lon="14.9175222"><ele>44.0</ele><time>2026-04-18T05:56:49.972Z</time></trkpt><trkpt lat="40.6338146" lon="14.9178279"><ele>44.5</ele><time>2026-04-18T05:56:50.972Z</time></trkpt><trkpt lat="40.6337062" lon="14.9181345"><ele>45.0</ele><time>2026-04-18T05:56:51.972Z</time></trkpt><trkpt lat="40.6335991" lon="14.9184386"><ele>46.5</ele><time>2026-04-18T05:56:52.972Z</time></trkpt><trkpt lat="40.633489" lon="14.9187417"><ele>48.0</ele><time>2026-04-18T05:56:53.972Z</time></trkpt><trkpt lat="40.6333791" lon="14.9190475"><ele>47.5</ele><time>2026-04-18T05:56:54.972Z</time></trkpt><trkpt lat="40.6332709" lon="14.9193542"><ele>47.0</ele><time>2026-04-18T05:56:55.972Z</time></trkpt><trkpt lat="40.633163" lon="14.9196621"><ele>47.0</ele><time>2026-04-18T05:56:56.972Z</time></trkpt><trkpt lat="40.633056" lon="14.9199702"><ele>47.0</ele><time>2026-04-18T05:56:57.972Z</time></trkpt><trkpt lat="40.6329517" lon="14.9202748"><ele>47.5</ele><time>2026-04-18T05:56:58.972Z</time></trkpt><trkpt lat="40.6328457" lon="14.9205846"><ele>48.0</ele><time>2026-04-18T05:56:59.972Z</time></trkpt><trkpt lat="40.6327454" lon="14.920891"><ele>48.0</ele><time>2026-04-18T05:57:00.972Z</time></trkpt><trkpt lat="40.6326473" lon="14.9212016"><ele>48.0</ele><time>2026-04-18T05:57:01.972Z</time></trkpt><trkpt lat="40.6325468" lon="14.9215094"><ele>49.0</ele><time>2026-04-18T05:57:02.972Z</time></trkpt><trkpt lat="40.6324457" lon="14.9218201"><ele>50.0</ele><time>2026-04-18T05:57:03.972Z</time></trkpt><trkpt lat="40.6323473" lon="14.9221317"><ele>50.0</ele><time>2026-04-18T05:57:04.972Z</time></trkpt><trkpt lat="40.632247" lon="14.9224421"><ele>50.0</ele><time>2026-04-18T05:57:05.973Z</time></trkpt><trkpt lat="40.6321418" lon="14.9227535"><ele>51.0</ele><time>2026-04-18T05:57:06.972Z</time></trkpt><trkpt lat="40.632038" lon="14.9230628"><ele>52.0</ele><time>2026-04-18T05:57:07.972Z</time></trkpt><trkpt lat="40.6319357" lon="14.9233727"><ele>51.0</ele><time>2026-04-18T05:57:08.972Z</time></trkpt><trkpt lat="40.631835" lon="14.9236838"><ele>50.0</ele><time>2026-04-18T05:57:09.972Z</time></trkpt><trkpt lat="40.6317336" lon="14.9239941"><ele>50.5</ele><time>2026-04-18T05:57:10.972Z</time></trkpt><trkpt lat="40.6316323" lon="14.9243078"><ele>51.0</ele><time>2026-04-18T05:57:11.972Z</time></trkpt><trkpt lat="40.6315352" lon="14.924619"><ele>51.0</ele><time>2026-04-18T05:57:12.973Z</time></trkpt><trkpt lat="40.6314387" lon="14.9249319"><ele>51.0</ele><time>2026-04-18T05:57:13.972Z</time></trkpt><trkpt lat="40.631344" lon="14.9252442"><ele>52.0</ele><time>2026-04-18T05:57:14.972Z</time></trkpt><trkpt lat="40.6312446" lon="14.9255572"><ele>53.0</ele><time>2026-04-18T05:57:15.972Z</time></trkpt><trkpt lat="40.6311446" lon="14.9258678"><ele>53.0</ele><time>2026-04-18T05:57:16.972Z</time></trkpt><trkpt lat="40.6310389" lon="14.9261749"><ele>53.0</ele><time>2026-04-18T05:57:17.972Z</time></trkpt><trkpt lat="40.6309315" lon="14.9264813"><ele>54.0</ele><time>2026-04-18T05:57:18.972Z</time></trkpt><trkpt lat="40.6308256" lon="14.9267888"><ele>55.0</ele><time>2026-04-18T05:57:19.972Z</time></trkpt><trkpt lat="40.6307194" lon="14.9270955"><ele>55.0</ele><time>2026-04-18T05:57:20.972Z</time></trkpt><trkpt lat="40.6306162" lon="14.9274037"><ele>55.0</ele><time>2026-04-18T05:57:21.972Z</time></trkpt><trkpt lat="40.6305141" lon="14.9277123"><ele>55.5</ele><time>2026-04-18T05:57:22.972Z</time></trkpt><trkpt lat="40.6304135" lon="14.9280208"><ele>56.0</ele><time>2026-04-18T05:57:23.972Z</time></trkpt><trkpt lat="40.6303109" lon="14.9283294"><ele>56.5</ele><time>2026-04-18T05:57:24.972Z</time></trkpt><trkpt lat="40.6302078" lon="14.928639"><ele>57.0</ele><time>2026-04-18T05:57:25.972Z</time></trkpt><trkpt lat="40.6301057" lon="14.928949"><ele>58.0</ele><time>2026-04-18T05:57:26.972Z</time></trkpt><trkpt lat="40.6300002" lon="14.9292591"><ele>59.0</ele><time>2026-04-18T05:57:27.972Z</time></trkpt><trkpt lat="40.6298976" lon="14.9295689"><ele>59.0</ele><time>2026-04-18T05:57:28.972Z</time></trkpt><trkpt lat="40.6297945" lon="14.9298787"><ele>59.0</ele><time>2026-04-18T05:57:29.972Z</time></trkpt><trkpt lat="40.6296925" lon="14.9301874"><ele>59.0</ele><time>2026-04-18T05:57:30.973Z</time></trkpt><trkpt lat="40.6295895" lon="14.9304921"><ele>59.0</ele><time>2026-04-18T05:57:31.972Z</time></trkpt><trkpt lat="40.6294877" lon="14.9307995"><ele>59.0</ele><time>2026-04-18T05:57:32.972Z</time></trkpt><trkpt lat="40.6293904" lon="14.9311103"><ele>59.0</ele><time>2026-04-18T05:57:33.972Z</time></trkpt><trkpt lat="40.629289" lon="14.9314183"><ele>59.0</ele><time>2026-04-18T05:57:34.972Z</time></trkpt><trkpt lat="40.6291932" lon="14.9317332"><ele>59.0</ele><time>2026-04-18T05:57:35.972Z</time></trkpt><trkpt lat="40.6291026" lon="14.9320518"><ele>59.0</ele><time>2026-04-18T05:57:36.972Z</time></trkpt><trkpt lat="40.6290195" lon="14.9323733"><ele>59.0</ele><time>2026-04-18T05:57:37.972Z</time></trkpt><trkpt lat="40.6289399" lon="14.9326978"><ele>58.5</ele><time>2026-04-18T05:57:38.972Z</time></trkpt><trkpt lat="40.6288673" lon="14.9330204"><ele>58.0</ele><time>2026-04-18T05:57:39.972Z</time></trkpt><trkpt lat="40.6287943" lon="14.9333449"><ele>58.0</ele><time>2026-04-18T05:57:40.972Z</time></trkpt><trkpt lat="40.6287282" lon="14.9336689"><ele>58.0</ele><time>2026-04-18T05:57:41.972Z</time></trkpt><trkpt lat="40.6286677" lon="14.9339991"><ele>57.0</ele><time>2026-04-18T05:57:42.972Z</time></trkpt><trkpt lat="40.6286099" lon="14.9343296"><ele>56.0</ele><time>2026-04-18T05:57:43.972Z</time></trkpt><trkpt lat="40.6285567" lon="14.9346563"><ele>56.0</ele><time>2026-04-18T05:57:44.972Z</time></trkpt><trkpt lat="40.6285131" lon="14.9349882"><ele>56.0</ele><time>2026-04-18T05:57:45.972Z</time></trkpt><trkpt lat="40.6284671" lon="14.9353215"><ele>57.0</ele><time>2026-04-18T05:57:46.972Z</time></trkpt><trkpt lat="40.6284292" lon="14.935659"><ele>58.0</ele><time>2026-04-18T05:57:47.972Z</time></trkpt><trkpt lat="40.6283945" lon="14.9359927"><ele>59.0</ele><time>2026-04-18T05:57:48.972Z</time></trkpt><trkpt lat="40.628362" lon="14.9363274"><ele>60.0</ele><time>2026-04-18T05:57:49.972Z</time></trkpt><trkpt lat="40.6283303" lon="14.9366634"><ele>60.0</ele><time>2026-04-18T05:57:50.972Z</time></trkpt><trkpt lat="40.6283033" lon="14.9369976"><ele>60.0</ele><time>2026-04-18T05:57:51.972Z</time></trkpt><trkpt lat="40.6282827" lon="14.9373334"><ele>61.5</ele><time>2026-04-18T05:57:52.972Z</time></trkpt><trkpt lat="40.6282662" lon="14.9376701"><ele>63.0</ele><time>2026-04-18T05:57:53.973Z</time></trkpt><trkpt lat="40.6282544" lon="14.9380082"><ele>63.0</ele><time>2026-04-18T05:57:54.972Z</time></trkpt><trkpt lat="40.628245" lon="14.9383478"><ele>63.0</ele><time>2026-04-18T05:57:55.972Z</time></trkpt><trkpt lat="40.6282365" lon="14.9386866"><ele>63.5</ele><time>2026-04-18T05:57:56.973Z</time></trkpt><trkpt lat="40.6282257" lon="14.9390226"><ele>64.0</ele><time>2026-04-18T05:57:57.972Z</time></trkpt><trkpt lat="40.6282143" lon="14.9393577"><ele>64.0</ele><time>2026-04-18T05:57:58.972Z</time></trkpt><trkpt lat="40.6282026" lon="14.9396966"><ele>64.0</ele><time>2026-04-18T05:57:59.972Z</time></trkpt><trkpt lat="40.6281827" lon="14.9400374"><ele>64.0</ele><time>2026-04-18T05:58:00.972Z</time></trkpt><trkpt lat="40.6281636" lon="14.9403752"><ele>64.0</ele><time>2026-04-18T05:58:01.972Z</time></trkpt><trkpt lat="40.6281402" lon="14.9407073"><ele>64.5</ele><time>2026-04-18T05:58:02.972Z</time></trkpt><trkpt lat="40.6281088" lon="14.9410388"><ele>65.0</ele><time>2026-04-18T05:58:03.972Z</time></trkpt><trkpt lat="40.6280707" lon="14.9413712"><ele>65.0</ele><time>2026-04-18T05:58:04.972Z</time></trkpt><trkpt lat="40.6280267" lon="14.9417028"><ele>65.0</ele><time>2026-04-18T05:58:05.972Z</time></trkpt><trkpt lat="40.6279758" lon="14.942033"><ele>65.0</ele><time>2026-04-18T05:58:06.972Z</time></trkpt><trkpt lat="40.627922" lon="14.9423653"><ele>65.0</ele><time>2026-04-18T05:58:07.972Z</time></trkpt><trkpt lat="40.6278658" lon="14.9426969"><ele>64.5</ele><time>2026-04-18T05:58:08.972Z</time></trkpt><trkpt lat="40.6278059" lon="14.9430269"><ele>64.0</ele><time>2026-04-18T05:58:09.972Z</time></trkpt><trkpt lat="40.6277484" lon="14.9433554"><ele>63.5</ele><time>2026-04-18T05:58:10.972Z</time></trkpt><trkpt lat="40.6276852" lon="14.9436825"><ele>63.0</ele><time>2026-04-18T05:58:11.972Z</time></trkpt><trkpt lat="40.6276197" lon="14.9440065"><ele>63.0</ele><time>2026-04-18T05:58:12.972Z</time></trkpt><trkpt lat="40.6275471" lon="14.9443323"><ele>63.0</ele><time>2026-04-18T05:58:13.972Z</time></trkpt><trkpt lat="40.6274635" lon="14.9446532"><ele>63.0</ele><time>2026-04-18T05:58:14.973Z</time></trkpt><trkpt lat="40.6273738" lon="14.9449682"><ele>63.0</ele><time>2026-04-18T05:58:15.972Z</time></trkpt><trkpt lat="40.6272821" lon="14.9452885"><ele>63.0</ele><time>2026-04-18T05:58:16.973Z</time></trkpt><trkpt lat="40.6271886" lon="14.9456045"><ele>63.0</ele><time>2026-04-18T05:58:17.972Z</time></trkpt><trkpt lat="40.6270904" lon="14.9459178"><ele>63.0</ele><time>2026-04-18T05:58:18.973Z</time></trkpt><trkpt lat="40.6269842" lon="14.9462266"><ele>63.0</ele><time>2026-04-18T05:58:19.973Z</time></trkpt><trkpt lat="40.6268776" lon="14.946533"><ele>62.0</ele><time>2026-04-18T05:58:20.972Z</time></trkpt><trkpt lat="40.6267625" lon="14.9468316"><ele>61.0</ele><time>2026-04-18T05:58:21.973Z</time></trkpt><trkpt lat="40.6266454" lon="14.9471317"><ele>61.0</ele><time>2026-04-18T05:58:22.972Z</time></trkpt><trkpt lat="40.6265297" lon="14.9474339"><ele>61.0</ele><time>2026-04-18T05:58:23.972Z</time></trkpt><trkpt lat="40.6264107" lon="14.9477359"><ele>61.0</ele><time>2026-04-18T05:58:24.972Z</time></trkpt><trkpt lat="40.6262935" lon="14.94804"><ele>61.0</ele><time>2026-04-18T05:58:25.972Z</time></trkpt><trkpt lat="40.6261778" lon="14.9483409"><ele>60.5</ele><time>2026-04-18T05:58:26.972Z</time></trkpt><trkpt lat="40.6260605" lon="14.9486408"><ele>60.0</ele><time>2026-04-18T05:58:27.972Z</time></trkpt><trkpt lat="40.6259435" lon="14.9489393"><ele>60.0</ele><time>2026-04-18T05:58:28.972Z</time></trkpt><trkpt lat="40.6258243" lon="14.9492354"><ele>60.0</ele><time>2026-04-18T05:58:29.972Z</time></trkpt><trkpt lat="40.6257045" lon="14.9495369"><ele>60.0</ele><time>2026-04-18T05:58:30.972Z</time></trkpt><trkpt lat="40.6255881" lon="14.9498361"><ele>60.0</ele><time>2026-04-18T05:58:31.972Z</time></trkpt><trkpt lat="40.6254692" lon="14.9501345"><ele>60.0</ele><time>2026-04-18T05:58:32.972Z</time></trkpt><trkpt lat="40.6253495" lon="14.9504305"><ele>60.0</ele><time>2026-04-18T05:58:33.972Z</time></trkpt><trkpt lat="40.6252332" lon="14.9507317"><ele>61.0</ele><time>2026-04-18T05:58:34.972Z</time></trkpt><trkpt lat="40.6251179" lon="14.9510332"><ele>62.0</ele><time>2026-04-18T05:58:35.972Z</time></trkpt><trkpt lat="40.624998" lon="14.9513336"><ele>62.0</ele><time>2026-04-18T05:58:36.972Z</time></trkpt><trkpt lat="40.6248781" lon="14.9516326"><ele>62.0</ele><time>2026-04-18T05:58:37.972Z</time></trkpt><trkpt lat="40.6247592" lon="14.9519311"><ele>64.0</ele><time>2026-04-18T05:58:38.973Z</time></trkpt><trkpt lat="40.6246395" lon="14.9522294"><ele>66.0</ele><time>2026-04-18T05:58:39.972Z</time></trkpt><trkpt lat="40.6245196" lon="14.9525241"><ele>66.0</ele><time>2026-04-18T05:58:40.972Z</time></trkpt><trkpt lat="40.6243998" lon="14.952826"><ele>66.0</ele><time>2026-04-18T05:58:41.972Z</time></trkpt><trkpt lat="40.6242825" lon="14.9531243"><ele>66.0</ele><time>2026-04-18T05:58:42.972Z</time></trkpt><trkpt lat="40.6241639" lon="14.9534255"><ele>66.0</ele><time>2026-04-18T05:58:43.972Z</time></trkpt><trkpt lat="40.6240491" lon="14.9537261"><ele>66.0</ele><time>2026-04-18T05:58:44.972Z</time></trkpt><trkpt lat="40.6239354" lon="14.9540277"><ele>66.0</ele><time>2026-04-18T05:58:45.972Z</time></trkpt><trkpt lat="40.6238208" lon="14.9543306"><ele>66.0</ele><time>2026-04-18T05:58:46.972Z</time></trkpt><trkpt lat="40.6237036" lon="14.9546364"><ele>66.0</ele><time>2026-04-18T05:58:47.972Z</time></trkpt><trkpt lat="40.6235912" lon="14.954936"><ele>65.5</ele><time>2026-04-18T05:58:48.972Z</time></trkpt><trkpt lat="40.6234773" lon="14.9552434"><ele>65.0</ele><time>2026-04-18T05:58:49.972Z</time></trkpt><trkpt lat="40.6233692" lon="14.9555518"><ele>65.0</ele><time>2026-04-18T05:58:50.972Z</time></trkpt><trkpt lat="40.6232653" lon="14.9558618"><ele>65.0</ele><time>2026-04-18T05:58:51.973Z</time></trkpt><trkpt lat="40.623167" lon="14.9561713"><ele>65.0</ele><time>2026-04-18T05:58:52.972Z</time></trkpt><trkpt lat="40.6230702" lon="14.9564825"><ele>65.0</ele><time>2026-04-18T05:58:53.972Z</time></trkpt><trkpt lat="40.6229736" lon="14.9567931"><ele>65.0</ele><time>2026-04-18T05:58:54.973Z</time></trkpt><trkpt lat="40.6228803" lon="14.9571085"><ele>65.0</ele><time>2026-04-18T05:58:55.972Z</time></trkpt><trkpt lat="40.6227858" lon="14.9574251"><ele>63.5</ele><time>2026-04-18T05:58:56.972Z</time></trkpt><trkpt lat="40.6226898" lon="14.9577392"><ele>62.0</ele><time>2026-04-18T05:58:57.972Z</time></trkpt><trkpt lat="40.6225957" lon="14.9580539"><ele>61.5</ele><time>2026-04-18T05:58:58.972Z</time></trkpt><trkpt lat="40.6225035" lon="14.9583714"><ele>61.0</ele><time>2026-04-18T05:58:59.972Z</time></trkpt><trkpt lat="40.622415" lon="14.9586886"><ele>61.0</ele><time>2026-04-18T05:59:00.972Z</time></trkpt><trkpt lat="40.6223293" lon="14.9590068"><ele>61.0</ele><time>2026-04-18T05:59:01.972Z</time></trkpt><trkpt lat="40.6222462" lon="14.9593255"><ele>61.0</ele><time>2026-04-18T05:59:02.972Z</time></trkpt><trkpt lat="40.6221594" lon="14.9596466"><ele>61.0</ele><time>2026-04-18T05:59:03.972Z</time></trkpt><trkpt lat="40.6220716" lon="14.9599679"><ele>60.5</ele><time>2026-04-18T05:59:04.972Z</time></trkpt><trkpt lat="40.6219882" lon="14.9602883"><ele>60.0</ele><time>2026-04-18T05:59:05.972Z</time></trkpt><trkpt lat="40.6219025" lon="14.9606059"><ele>59.0</ele><time>2026-04-18T05:59:06.972Z</time></trkpt><trkpt lat="40.6218161" lon="14.9609251"><ele>58.0</ele><time>2026-04-18T05:59:07.972Z</time></trkpt><trkpt lat="40.6217309" lon="14.9612426"><ele>58.0</ele><time>2026-04-18T05:59:08.972Z</time></trkpt><trkpt lat="40.6216491" lon="14.9615596"><ele>58.0</ele><time>2026-04-18T05:59:09.972Z</time></trkpt><trkpt lat="40.6215701" lon="14.9618777"><ele>57.5</ele><time>2026-04-18T05:59:10.972Z</time></trkpt><trkpt lat="40.6214913" lon="14.9621959"><ele>57.0</ele><time>2026-04-18T05:59:11.972Z</time></trkpt><trkpt lat="40.6214108" lon="14.9625142"><ele>58.0</ele><time>2026-04-18T05:59:12.972Z</time></trkpt><trkpt lat="40.6213306" lon="14.962835"><ele>59.0</ele><time>2026-04-18T05:59:13.972Z</time></trkpt><trkpt lat="40.621254" lon="14.9631558"><ele>58.5</ele><time>2026-04-18T05:59:14.972Z</time></trkpt><trkpt lat="40.6211786" lon="14.9634797"><ele>58.0</ele><time>2026-04-18T05:59:15.972Z</time></trkpt><trkpt lat="40.6211059" lon="14.9638037"><ele>58.0</ele><time>2026-04-18T05:59:16.972Z</time></trkpt><trkpt lat="40.6210385" lon="14.964131"><ele>58.0</ele><time>2026-04-18T05:59:17.972Z</time></trkpt><trkpt lat="40.6209754" lon="14.9644598"><ele>58.5</ele><time>2026-04-18T05:59:18.972Z</time></trkpt><trkpt lat="40.6209204" lon="14.964788"><ele>59.0</ele><time>2026-04-18T05:59:19.972Z</time></trkpt><trkpt lat="40.6208726" lon="14.9651192"><ele>60.0</ele><time>2026-04-18T05:59:20.972Z</time></trkpt><trkpt lat="40.6208293" lon="14.9654487"><ele>61.0</ele><time>2026-04-18T05:59:21.972Z</time></trkpt><trkpt lat="40.6207838" lon="14.9657805"><ele>62.0</ele><time>2026-04-18T05:59:22.972Z</time></trkpt><trkpt lat="40.6207435" lon="14.9661111"><ele>63.0</ele><time>2026-04-18T05:59:23.972Z</time></trkpt><trkpt lat="40.6207119" lon="14.9664449"><ele>63.5</ele><time>2026-04-18T05:59:24.972Z</time></trkpt><trkpt lat="40.6206839" lon="14.96678"><ele>64.0</ele><time>2026-04-18T05:59:25.972Z</time></trkpt><trkpt lat="40.6206616" lon="14.9671164"><ele>64.0</ele><time>2026-04-18T05:59:26.972Z</time></trkpt><trkpt lat="40.6206398" lon="14.9674519"><ele>64.0</ele><time>2026-04-18T05:59:27.972Z</time></trkpt><trkpt lat="40.620624" lon="14.9677876"><ele>64.0</ele><time>2026-04-18T05:59:28.972Z</time></trkpt><trkpt lat="40.6206042" lon="14.9681239"><ele>64.0</ele><time>2026-04-18T05:59:29.972Z</time></trkpt><trkpt lat="40.6205866" lon="14.9684604"><ele>64.0</ele><time>2026-04-18T05:59:30.973Z</time></trkpt><trkpt lat="40.6205756" lon="14.9687971"><ele>64.0</ele><time>2026-04-18T05:59:31.972Z</time></trkpt><trkpt lat="40.6205655" lon="14.9691338"><ele>65.5</ele><time>2026-04-18T05:59:32.972Z</time></trkpt><trkpt lat="40.6205578" lon="14.9694681"><ele>67.0</ele><time>2026-04-18T05:59:33.972Z</time></trkpt><trkpt lat="40.620551" lon="14.9698062"><ele>67.5</ele><time>2026-04-18T05:59:34.973Z</time></trkpt><trkpt lat="40.6205407" lon="14.9701469"><ele>68.0</ele><time>2026-04-18T05:59:35.972Z</time></trkpt><trkpt lat="40.6205294" lon="14.9704825"><ele>68.0</ele><time>2026-04-18T05:59:36.972Z</time></trkpt><trkpt lat="40.6205119" lon="14.9708198"><ele>68.0</ele><time>2026-04-18T05:59:37.972Z</time></trkpt><trkpt lat="40.6204984" lon="14.9711545"><ele>66.5</ele><time>2026-04-18T05:59:38.972Z</time></trkpt><trkpt lat="40.6204816" lon="14.9714917"><ele>65.0</ele><time>2026-04-18T05:59:39.972Z</time></trkpt><trkpt lat="40.6204682" lon="14.9718289"><ele>65.0</ele><time>2026-04-18T05:59:40.972Z</time></trkpt><trkpt lat="40.6204515" lon="14.9721658"><ele>65.0</ele><time>2026-04-18T05:59:41.972Z</time></trkpt><trkpt lat="40.6204348" lon="14.9725061"><ele>67.0</ele><time>2026-04-18T05:59:42.973Z</time></trkpt><trkpt lat="40.6204181" lon="14.9728439"><ele>69.0</ele><time>2026-04-18T05:59:43.972Z</time></trkpt><trkpt lat="40.6203966" lon="14.9731794"><ele>69.0</ele><time>2026-04-18T05:59:44.972Z</time></trkpt><trkpt lat="40.6203608" lon="14.9735141"><ele>69.0</ele><time>2026-04-18T05:59:45.972Z</time></trkpt><trkpt lat="40.6203171" lon="14.9738446"><ele>69.0</ele><time>2026-04-18T05:59:46.973Z</time></trkpt><trkpt lat="40.6202651" lon="14.9741723"><ele>69.0</ele><time>2026-04-18T05:59:47.972Z</time></trkpt><trkpt lat="40.6202062" lon="14.9745004"><ele>68.5</ele><time>2026-04-18T05:59:48.973Z</time></trkpt><trkpt lat="40.6201404" lon="14.9748276"><ele>68.0</ele><time>2026-04-18T05:59:49.972Z</time></trkpt><trkpt lat="40.6200643" lon="14.975153"><ele>69.5</ele><time>2026-04-18T05:59:50.972Z</time></trkpt><trkpt lat="40.6199841" lon="14.9754771"><ele>71.0</ele><time>2026-04-18T05:59:51.972Z</time></trkpt><trkpt lat="40.6199016" lon="14.9757956"><ele>71.0</ele><time>2026-04-18T05:59:52.972Z</time></trkpt><trkpt lat="40.6198103" lon="14.9761106"><ele>71.0</ele><time>2026-04-18T05:59:53.972Z</time></trkpt><trkpt lat="40.6197151" lon="14.9764203"><ele>71.0</ele><time>2026-04-18T05:59:54.972Z</time></trkpt><trkpt lat="40.619614" lon="14.976729"><ele>71.0</ele><time>2026-04-18T05:59:55.972Z</time></trkpt><trkpt lat="40.6195067" lon="14.9770375"><ele>71.0</ele><time>2026-04-18T05:59:56.972Z</time></trkpt><trkpt lat="40.6193905" lon="14.9773387"><ele>71.0</ele><time>2026-04-18T05:59:57.972Z</time></trkpt><trkpt lat="40.6192682" lon="14.9776337"><ele>71.0</ele><time>2026-04-18T05:59:58.972Z</time></trkpt><trkpt lat="40.619146" lon="14.9779278"><ele>71.0</ele><time>2026-04-18T05:59:59.973Z</time></trkpt><trkpt lat="40.6190126" lon="14.978219"><ele>71.0</ele><time>2026-04-18T06:00:00.972Z</time></trkpt><trkpt lat="40.618878" lon="14.978505"><ele>71.0</ele><time>2026-04-18T06:00:01.972Z</time></trkpt><trkpt lat="40.6187416" lon="14.9787907"><ele>71.0</ele><time>2026-04-18T06:00:02.972Z</time></trkpt><trkpt lat="40.6186041" lon="14.9790738"><ele>71.0</ele><time>2026-04-18T06:00:03.972Z</time></trkpt><trkpt lat="40.6184674" lon="14.9793585"><ele>71.0</ele><time>2026-04-18T06:00:04.972Z</time></trkpt><trkpt lat="40.6183352" lon="14.9796469"><ele>71.0</ele><time>2026-04-18T06:00:05.972Z</time></trkpt><trkpt lat="40.6182127" lon="14.9799359"><ele>70.5</ele><time>2026-04-18T06:00:06.972Z</time></trkpt><trkpt lat="40.6180976" lon="14.9802365"><ele>70.0</ele><time>2026-04-18T06:00:07.972Z</time></trkpt><trkpt lat="40.6179897" lon="14.9805415"><ele>70.0</ele><time>2026-04-18T06:00:08.972Z</time></trkpt><trkpt lat="40.6179009" lon="14.9808475"><ele>70.0</ele><time>2026-04-18T06:00:09.972Z</time></trkpt><trkpt lat="40.6178088" lon="14.9811633"><ele>70.0</ele><time>2026-04-18T06:00:10.972Z</time></trkpt><trkpt lat="40.6177153" lon="14.9814894"><ele>70.0</ele><time>2026-04-18T06:00:11.972Z</time></trkpt><trkpt lat="40.6176304" lon="14.981816"><ele>71.0</ele><time>2026-04-18T06:00:12.972Z</time></trkpt><trkpt lat="40.6175562" lon="14.9821399"><ele>72.0</ele><time>2026-04-18T06:00:13.972Z</time></trkpt><trkpt lat="40.6174912" lon="14.9824634"><ele>72.5</ele><time>2026-04-18T06:00:14.972Z</time></trkpt><trkpt lat="40.6174392" lon="14.9827901"><ele>73.0</ele><time>2026-04-18T06:00:15.972Z</time></trkpt><trkpt lat="40.617397" lon="14.9831231"><ele>71.5</ele><time>2026-04-18T06:00:16.972Z</time></trkpt><trkpt lat="40.6173556" lon="14.9834552"><ele>70.0</ele><time>2026-04-18T06:00:17.972Z</time></trkpt><trkpt lat="40.6173188" lon="14.9837885"><ele>70.0</ele><time>2026-04-18T06:00:18.972Z</time></trkpt><trkpt lat="40.6172844" lon="14.984123"><ele>70.0</ele><time>2026-04-18T06:00:19.972Z</time></trkpt><trkpt lat="40.6172485" lon="14.9844567"><ele>69.5</ele><time>2026-04-18T06:00:20.972Z</time></trkpt><trkpt lat="40.6172096" lon="14.9847889"><ele>69.0</ele><time>2026-04-18T06:00:21.972Z</time></trkpt><trkpt lat="40.6171628" lon="14.9851205"><ele>67.5</ele><time>2026-04-18T06:00:22.972Z</time></trkpt><trkpt lat="40.6171056" lon="14.985448"><ele>66.0</ele><time>2026-04-18T06:00:23.972Z</time></trkpt><trkpt lat="40.6170379" lon="14.9857721"><ele>69.0</ele><time>2026-04-18T06:00:24.972Z</time></trkpt><trkpt lat="40.6169637" lon="14.9860932"><ele>72.0</ele><time>2026-04-18T06:00:25.971Z</time></trkpt><trkpt lat="40.6168782" lon="14.9864087"><ele>73.0</ele><time>2026-04-18T06:00:26.971Z</time></trkpt><trkpt lat="40.6167823" lon="14.9867215"><ele>74.0</ele><time>2026-04-18T06:00:27.971Z</time></trkpt><trkpt lat="40.6166764" lon="14.9870276"><ele>74.0</ele><time>2026-04-18T06:00:28.971Z</time></trkpt><trkpt lat="40.6165628" lon="14.9873293"><ele>74.0</ele><time>2026-04-18T06:00:29.971Z</time></trkpt><trkpt lat="40.6164423" lon="14.9876272"><ele>77.0</ele><time>2026-04-18T06:00:30.971Z</time></trkpt><trkpt lat="40.6163219" lon="14.9879192"><ele>80.0</ele><time>2026-04-18T06:00:31.971Z</time></trkpt><trkpt lat="40.61619" lon="14.9882094"><ele>82.0</ele><time>2026-04-18T06:00:32.971Z</time></trkpt><trkpt lat="40.6160514" lon="14.9884953"><ele>84.0</ele><time>2026-04-18T06:00:33.971Z</time></trkpt><trkpt lat="40.6159117" lon="14.9887739"><ele>84.0</ele><time>2026-04-18T06:00:34.971Z</time></trkpt><trkpt lat="40.615765" lon="14.9890445"><ele>84.0</ele><time>2026-04-18T06:00:35.971Z</time></trkpt><trkpt lat="40.6156206" lon="14.9893177"><ele>88.5</ele><time>2026-04-18T06:00:36.971Z</time></trkpt><trkpt lat="40.6154759" lon="14.9895946"><ele>93.0</ele><time>2026-04-18T06:00:37.972Z</time></trkpt><trkpt lat="40.6153263" lon="14.9898713"><ele>92.0</ele><time>2026-04-18T06:00:38.971Z</time></trkpt><trkpt lat="40.6151722" lon="14.9901497"><ele>91.0</ele><time>2026-04-18T06:00:39.971Z</time></trkpt><trkpt lat="40.6150237" lon="14.9904278"><ele>91.0</ele><time>2026-04-18T06:00:40.971Z</time></trkpt><trkpt lat="40.6148757" lon="14.9907045"><ele>91.0</ele><time>2026-04-18T06:00:41.971Z</time></trkpt><trkpt lat="40.6147294" lon="14.9909815"><ele>92.5</ele><time>2026-04-18T06:00:42.971Z</time></trkpt><trkpt lat="40.614575" lon="14.9912492"><ele>94.0</ele><time>2026-04-18T06:00:43.971Z</time></trkpt><trkpt lat="40.6144156" lon="14.9915117"><ele>98.5</ele><time>2026-04-18T06:00:44.971Z</time></trkpt><trkpt lat="40.6142547" lon="14.9917748"><ele>103.0</ele><time>2026-04-18T06:00:45.971Z</time></trkpt><trkpt lat="40.6140874" lon="14.9920263"><ele>103.0</ele><time>2026-04-18T06:00:46.971Z</time></trkpt><trkpt lat="40.6139087" lon="14.9922687"><ele>103.0</ele><time>2026-04-18T06:00:47.971Z</time></trkpt><trkpt lat="40.6137255" lon="14.9925084"><ele>100.5</ele><time>2026-04-18T06:00:48.971Z</time></trkpt><trkpt lat="40.6135367" lon="14.9927403"><ele>98.0</ele><time>2026-04-18T06:00:49.971Z</time></trkpt><trkpt lat="40.6133439" lon="14.9929657"><ele>98.0</ele><time>2026-04-18T06:00:50.971Z</time></trkpt><trkpt lat="40.6131474" lon="14.9931851"><ele>98.0</ele><time>2026-04-18T06:00:51.971Z</time></trkpt><trkpt lat="40.6129518" lon="14.9934008"><ele>96.5</ele><time>2026-04-18T06:00:52.971Z</time></trkpt><trkpt lat="40.6127492" lon="14.9936138"><ele>95.0</ele><time>2026-04-18T06:00:53.971Z</time></trkpt><trkpt lat="40.6125483" lon="14.993828"><ele>95.0</ele><time>2026-04-18T06:00:54.971Z</time></trkpt><trkpt lat="40.6123506" lon="14.9940431"><ele>95.0</ele><time>2026-04-18T06:00:55.971Z</time></trkpt><trkpt lat="40.6121528" lon="14.9942637"><ele>93.0</ele><time>2026-04-18T06:00:56.971Z</time></trkpt><trkpt lat="40.6119584" lon="14.9944816"><ele>91.0</ele><time>2026-04-18T06:00:57.971Z</time></trkpt><trkpt lat="40.6117649" lon="14.9946997"><ele>91.0</ele><time>2026-04-18T06:00:58.971Z</time></trkpt><trkpt lat="40.6115702" lon="14.9949189"><ele>91.0</ele><time>2026-04-18T06:00:59.972Z</time></trkpt><trkpt lat="40.6113696" lon="14.9951315"><ele>88.5</ele><time>2026-04-18T06:01:00.971Z</time></trkpt><trkpt lat="40.6111595" lon="14.9953318"><ele>86.0</ele><time>2026-04-18T06:01:01.971Z</time></trkpt><trkpt lat="40.610942" lon="14.9955197"><ele>86.0</ele><time>2026-04-18T06:01:02.971Z</time></trkpt><trkpt lat="40.6107213" lon="14.9956991"><ele>86.0</ele><time>2026-04-18T06:01:03.971Z</time></trkpt><trkpt lat="40.610501" lon="14.9958667"><ele>84.0</ele><time>2026-04-18T06:01:04.971Z</time></trkpt><trkpt lat="40.6102751" lon="14.9960297"><ele>82.0</ele><time>2026-04-18T06:01:05.971Z</time></trkpt><trkpt lat="40.6100481" lon="14.9961903"><ele>82.0</ele><time>2026-04-18T06:01:06.971Z</time></trkpt><trkpt lat="40.6098221" lon="14.9963499"><ele>82.0</ele><time>2026-04-18T06:01:07.971Z</time></trkpt><trkpt lat="40.6095941" lon="14.9965061"><ele>82.0</ele><time>2026-04-18T06:01:08.971Z</time></trkpt><trkpt lat="40.609367" lon="14.9966637"><ele>82.0</ele><time>2026-04-18T06:01:09.971Z</time></trkpt><trkpt lat="40.6091389" lon="14.9968184"><ele>82.0</ele><time>2026-04-18T06:01:10.971Z</time></trkpt><trkpt lat="40.6089105" lon="14.9969733"><ele>82.0</ele><time>2026-04-18T06:01:11.971Z</time></trkpt><trkpt lat="40.6086822" lon="14.9971283"><ele>81.0</ele><time>2026-04-18T06:01:12.971Z</time></trkpt><trkpt lat="40.6084551" lon="14.9972843"><ele>80.0</ele><time>2026-04-18T06:01:13.971Z</time></trkpt><trkpt lat="40.608226" lon="14.9974372"><ele>80.0</ele><time>2026-04-18T06:01:14.971Z</time></trkpt><trkpt lat="40.6079987" lon="14.9975967"><ele>80.0</ele><time>2026-04-18T06:01:15.971Z</time></trkpt><trkpt lat="40.6077737" lon="14.9977579"><ele>80.0</ele><time>2026-04-18T06:01:16.971Z</time></trkpt><trkpt lat="40.607556" lon="14.9979316"><ele>80.0</ele><time>2026-04-18T06:01:17.971Z</time></trkpt><trkpt lat="40.607344" lon="14.9981185"><ele>80.0</ele><time>2026-04-18T06:01:18.971Z</time></trkpt><trkpt lat="40.607136" lon="14.9983152"><ele>80.0</ele><time>2026-04-18T06:01:19.971Z</time></trkpt><trkpt lat="40.6069314" lon="14.9985205"><ele>80.5</ele><time>2026-04-18T06:01:20.971Z</time></trkpt><trkpt lat="40.6067299" lon="14.9987297"><ele>81.0</ele><time>2026-04-18T06:01:21.971Z</time></trkpt><trkpt lat="40.6065344" lon="14.9989417"><ele>81.0</ele><time>2026-04-18T06:01:22.971Z</time></trkpt><trkpt lat="40.6063363" lon="14.9991607"><ele>81.0</ele><time>2026-04-18T06:01:23.971Z</time></trkpt><trkpt lat="40.6061418" lon="14.9993819"><ele>81.5</ele><time>2026-04-18T06:01:24.971Z</time></trkpt><trkpt lat="40.6059458" lon="14.9996023"><ele>82.0</ele><time>2026-04-18T06:01:25.972Z</time></trkpt><trkpt lat="40.6057481" lon="14.9998212"><ele>82.0</ele><time>2026-04-18T06:01:26.971Z</time></trkpt><trkpt lat="40.605551" lon="15.0000383"><ele>82.0</ele><time>2026-04-18T06:01:27.971Z</time></trkpt><trkpt lat="40.6053499" lon="15.0002521"><ele>80.5</ele><time>2026-04-18T06:01:28.971Z</time></trkpt><trkpt lat="40.6051484" lon="15.0004664"><ele>79.0</ele><time>2026-04-18T06:01:29.971Z</time></trkpt><trkpt lat="40.6049479" lon="15.0006813"><ele>79.0</ele><time>2026-04-18T06:01:30.971Z</time></trkpt><trkpt lat="40.6047478" lon="15.0008986"><ele>79.0</ele><time>2026-04-18T06:01:31.971Z</time></trkpt><trkpt lat="40.60455" lon="15.0011208"><ele>78.5</ele><time>2026-04-18T06:01:32.971Z</time></trkpt><trkpt lat="40.6043562" lon="15.0013444"><ele>78.0</ele><time>2026-04-18T06:01:33.971Z</time></trkpt><trkpt lat="40.6041608" lon="15.0015628"><ele>78.5</ele><time>2026-04-18T06:01:34.971Z</time></trkpt><trkpt lat="40.6039677" lon="15.0017828"><ele>79.0</ele><time>2026-04-18T06:01:35.971Z</time></trkpt><trkpt lat="40.6037723" lon="15.0020013"><ele>77.5</ele><time>2026-04-18T06:01:36.972Z</time></trkpt><trkpt lat="40.6035748" lon="15.0022209"><ele>76.0</ele><time>2026-04-18T06:01:37.971Z</time></trkpt><trkpt lat="40.6033792" lon="15.002437"><ele>76.5</ele><time>2026-04-18T06:01:38.971Z</time></trkpt><trkpt lat="40.6031879" lon="15.0026576"><ele>77.0</ele><time>2026-04-18T06:01:39.971Z</time></trkpt><trkpt lat="40.6029986" lon="15.0028834"><ele>76.5</ele><time>2026-04-18T06:01:40.971Z</time></trkpt><trkpt lat="40.6028095" lon="15.0031158"><ele>76.0</ele><time>2026-04-18T06:01:41.972Z</time></trkpt><trkpt lat="40.6026249" lon="15.0033532"><ele>76.0</ele><time>2026-04-18T06:01:42.971Z</time></trkpt><trkpt lat="40.6024465" lon="15.0035943"><ele>76.0</ele><time>2026-04-18T06:01:43.971Z</time></trkpt><trkpt lat="40.6022748" lon="15.0038438"><ele>76.0</ele><time>2026-04-18T06:01:44.971Z</time></trkpt><trkpt lat="40.602109" lon="15.0041031"><ele>76.0</ele><time>2026-04-18T06:01:45.971Z</time></trkpt><trkpt lat="40.6019548" lon="15.0043787"><ele>73.5</ele><time>2026-04-18T06:01:46.971Z</time></trkpt><trkpt lat="40.6018107" lon="15.0046582"><ele>71.0</ele><time>2026-04-18T06:01:47.971Z</time></trkpt><trkpt lat="40.6016716" lon="15.0049424"><ele>73.5</ele><time>2026-04-18T06:01:48.971Z</time></trkpt><trkpt lat="40.6015437" lon="15.0052352"><ele>76.0</ele><time>2026-04-18T06:01:49.971Z</time></trkpt><trkpt lat="40.6014268" lon="15.0055351"><ele>80.5</ele><time>2026-04-18T06:01:50.971Z</time></trkpt><trkpt lat="40.60132" lon="15.0058379"><ele>85.0</ele><time>2026-04-18T06:01:51.971Z</time></trkpt><trkpt lat="40.6012187" lon="15.0061474"><ele>80.0</ele><time>2026-04-18T06:01:52.971Z</time></trkpt><trkpt lat="40.6011307" lon="15.0064612"><ele>75.0</ele><time>2026-04-18T06:01:53.971Z</time></trkpt><trkpt lat="40.6010563" lon="15.0067811"><ele>75.0</ele><time>2026-04-18T06:01:54.971Z</time></trkpt><trkpt lat="40.6009911" lon="15.0071083"><ele>75.0</ele><time>2026-04-18T06:01:55.971Z</time></trkpt><trkpt lat="40.600937" lon="15.0074385"><ele>76.5</ele><time>2026-04-18T06:01:56.971Z</time></trkpt><trkpt lat="40.6008895" lon="15.0077693"><ele>78.0</ele><time>2026-04-18T06:01:57.971Z</time></trkpt><trkpt lat="40.6008523" lon="15.0081052"><ele>79.5</ele><time>2026-04-18T06:01:58.971Z</time></trkpt><trkpt lat="40.6008249" lon="15.0084436"><ele>81.0</ele><time>2026-04-18T06:01:59.971Z</time></trkpt><trkpt lat="40.6008043" lon="15.0087775"><ele>81.0</ele><time>2026-04-18T06:02:00.971Z</time></trkpt><trkpt lat="40.6007926" lon="15.0091136"><ele>81.0</ele><time>2026-04-18T06:02:01.972Z</time></trkpt><trkpt lat="40.6007907" lon="15.009449"><ele>81.5</ele><time>2026-04-18T06:02:02.971Z</time></trkpt><trkpt lat="40.6007949" lon="15.0097842"><ele>82.0</ele><time>2026-04-18T06:02:03.971Z</time></trkpt><trkpt lat="40.6008034" lon="15.0101217"><ele>81.0</ele><time>2026-04-18T06:02:04.971Z</time></trkpt><trkpt lat="40.6008203" lon="15.0104596"><ele>80.0</ele><time>2026-04-18T06:02:05.971Z</time></trkpt><trkpt lat="40.6008431" lon="15.0107964"><ele>81.0</ele><time>2026-04-18T06:02:06.971Z</time></trkpt><trkpt lat="40.6008626" lon="15.0111343"><ele>82.0</ele><time>2026-04-18T06:02:07.971Z</time></trkpt><trkpt lat="40.6008814" lon="15.0114727"><ele>84.0</ele><time>2026-04-18T06:02:08.972Z</time></trkpt><trkpt lat="40.6009023" lon="15.0118086"><ele>86.0</ele><time>2026-04-18T06:02:09.972Z</time></trkpt><trkpt lat="40.6009213" lon="15.0121402"><ele>86.0</ele><time>2026-04-18T06:02:10.972Z</time></trkpt><trkpt lat="40.6009434" lon="15.0124742"><ele>86.0</ele><time>2026-04-18T06:02:11.971Z</time></trkpt><trkpt lat="40.6009665" lon="15.0128089"><ele>85.0</ele><time>2026-04-18T06:02:12.971Z</time></trkpt><trkpt lat="40.6009945" lon="15.0131449"><ele>84.0</ele><time>2026-04-18T06:02:13.971Z</time></trkpt><trkpt lat="40.6010228" lon="15.0134774"><ele>83.0</ele><time>2026-04-18T06:02:14.971Z</time></trkpt><trkpt lat="40.6010572" lon="15.0138106"><ele>82.0</ele><time>2026-04-18T06:02:15.971Z</time></trkpt><trkpt lat="40.6010994" lon="15.0141452"><ele>80.5</ele><time>2026-04-18T06:02:16.971Z</time></trkpt><trkpt lat="40.6011506" lon="15.01448"><ele>79.0</ele><time>2026-04-18T06:02:17.972Z</time></trkpt><trkpt lat="40.6012035" lon="15.0148122"><ele>88.5</ele><time>2026-04-18T06:02:18.971Z</time></trkpt><trkpt lat="40.6012568" lon="15.0151461"><ele>98.0</ele><time>2026-04-18T06:02:19.971Z</time></trkpt><trkpt lat="40.6013089" lon="15.0154759"><ele>98.0</ele><time>2026-04-18T06:02:20.971Z</time></trkpt><trkpt lat="40.6013607" lon="15.0158043"><ele>98.0</ele><time>2026-04-18T06:02:21.971Z</time></trkpt><trkpt lat="40.6014098" lon="15.0161348"><ele>96.0</ele><time>2026-04-18T06:02:22.971Z</time></trkpt><trkpt lat="40.6014585" lon="15.0164672"><ele>94.0</ele><time>2026-04-18T06:02:23.971Z</time></trkpt><trkpt lat="40.6015093" lon="15.0167976"><ele>93.0</ele><time>2026-04-18T06:02:24.971Z</time></trkpt><trkpt lat="40.6015666" lon="15.0171261"><ele>92.0</ele><time>2026-04-18T06:02:25.971Z</time></trkpt><trkpt lat="40.6016247" lon="15.0174521"><ele>90.5</ele><time>2026-04-18T06:02:26.971Z</time></trkpt><trkpt lat="40.601683" lon="15.0177777"><ele>89.0</ele><time>2026-04-18T06:02:27.971Z</time></trkpt><trkpt lat="40.6017414" lon="15.0181077"><ele>86.5</ele><time>2026-04-18T06:02:28.971Z</time></trkpt><trkpt lat="40.6017986" lon="15.018437"><ele>84.0</ele><time>2026-04-18T06:02:29.971Z</time></trkpt><trkpt lat="40.6018517" lon="15.0187681"><ele>84.0</ele><time>2026-04-18T06:02:30.971Z</time></trkpt><trkpt lat="40.6019028" lon="15.0191009"><ele>84.0</ele><time>2026-04-18T06:02:31.971Z</time></trkpt><trkpt lat="40.6019529" lon="15.0194328"><ele>95.5</ele><time>2026-04-18T06:02:32.971Z</time></trkpt><trkpt lat="40.6020053" lon="15.0197621"><ele>107.0</ele><time>2026-04-18T06:02:33.971Z</time></trkpt><trkpt lat="40.6020584" lon="15.0200894"><ele>107.0</ele><time>2026-04-18T06:02:34.971Z</time></trkpt><trkpt lat="40.6021105" lon="15.0204187"><ele>107.0</ele><time>2026-04-18T06:02:35.971Z</time></trkpt><trkpt lat="40.6021623" lon="15.0207485"><ele>103.0</ele><time>2026-04-18T06:02:36.971Z</time></trkpt><trkpt lat="40.6022152" lon="15.021077"><ele>99.0</ele><time>2026-04-18T06:02:37.971Z</time></trkpt><trkpt lat="40.6022707" lon="15.0214063"><ele>94.5</ele><time>2026-04-18T06:02:38.971Z</time></trkpt><trkpt lat="40.6023283" lon="15.0217336"><ele>90.0</ele><time>2026-04-18T06:02:39.971Z</time></trkpt><trkpt lat="40.602384" lon="15.0220617"><ele>90.0</ele><time>2026-04-18T06:02:40.971Z</time></trkpt><trkpt lat="40.6024344" lon="15.0223916"><ele>90.0</ele><time>2026-04-18T06:02:41.971Z</time></trkpt><trkpt lat="40.6024847" lon="15.0227242"><ele>88.0</ele><time>2026-04-18T06:02:42.972Z</time></trkpt><trkpt lat="40.6025359" lon="15.023055"><ele>86.0</ele><time>2026-04-18T06:02:43.971Z</time></trkpt><trkpt lat="40.6025862" lon="15.0233876"><ele>86.0</ele><time>2026-04-18T06:02:44.971Z</time></trkpt><trkpt lat="40.6026424" lon="15.0237182"><ele>86.0</ele><time>2026-04-18T06:02:45.971Z</time></trkpt><trkpt lat="40.6026975" lon="15.0240433"><ele>84.0</ele><time>2026-04-18T06:02:46.971Z</time></trkpt><trkpt lat="40.6027513" lon="15.024374"><ele>82.0</ele><time>2026-04-18T06:02:47.971Z</time></trkpt><trkpt lat="40.6028059" lon="15.0247019"><ele>87.0</ele><time>2026-04-18T06:02:48.971Z</time></trkpt><trkpt lat="40.6028549" lon="15.0250305"><ele>92.0</ele><time>2026-04-18T06:02:49.971Z</time></trkpt><trkpt lat="40.6028999" lon="15.0253605"><ele>92.0</ele><time>2026-04-18T06:02:50.971Z</time></trkpt><trkpt lat="40.6029363" lon="15.0256943"><ele>92.0</ele><time>2026-04-18T06:02:51.971Z</time></trkpt><trkpt lat="40.602967" lon="15.0260307"><ele>92.5</ele><time>2026-04-18T06:02:52.971Z</time></trkpt><trkpt lat="40.6029947" lon="15.0263667"><ele>93.0</ele><time>2026-04-18T06:02:53.971Z</time></trkpt><trkpt lat="40.6030181" lon="15.0267009"><ele>93.0</ele><time>2026-04-18T06:02:54.971Z</time></trkpt><trkpt lat="40.6030378" lon="15.0270369"><ele>93.0</ele><time>2026-04-18T06:02:55.971Z</time></trkpt><trkpt lat="40.6030576" lon="15.027372"><ele>94.5</ele><time>2026-04-18T06:02:56.971Z</time></trkpt><trkpt lat="40.6030741" lon="15.0277057"><ele>96.0</ele><time>2026-04-18T06:02:57.971Z</time></trkpt><trkpt lat="40.6030953" lon="15.0280427"><ele>97.0</ele><time>2026-04-18T06:02:58.971Z</time></trkpt><trkpt lat="40.6031157" lon="15.028381"><ele>98.0</ele><time>2026-04-18T06:02:59.971Z</time></trkpt><trkpt lat="40.6031335" lon="15.0287154"><ele>98.0</ele><time>2026-04-18T06:03:00.971Z</time></trkpt><trkpt lat="40.6031516" lon="15.0290489"><ele>98.0</ele><time>2026-04-18T06:03:01.971Z</time></trkpt><trkpt lat="40.6031711" lon="15.0293838"><ele>98.0</ele><time>2026-04-18T06:03:02.971Z</time></trkpt><trkpt lat="40.6031934" lon="15.0297214"><ele>98.0</ele><time>2026-04-18T06:03:03.971Z</time></trkpt><trkpt lat="40.6032152" lon="15.0300583"><ele>100.0</ele><time>2026-04-18T06:03:04.971Z</time></trkpt><trkpt lat="40.6032346" lon="15.0303974"><ele>102.0</ele><time>2026-04-18T06:03:05.971Z</time></trkpt><trkpt lat="40.6032603" lon="15.0307371"><ele>101.5</ele><time>2026-04-18T06:03:06.971Z</time></trkpt><trkpt lat="40.6032882" lon="15.031072"><ele>101.0</ele><time>2026-04-18T06:03:07.972Z</time></trkpt><trkpt lat="40.6033222" lon="15.0314055"><ele>99.5</ele><time>2026-04-18T06:03:08.971Z</time></trkpt><trkpt lat="40.6033656" lon="15.0317425"><ele>98.0</ele><time>2026-04-18T06:03:09.971Z</time></trkpt><trkpt lat="40.6034198" lon="15.0320792"><ele>98.0</ele><time>2026-04-18T06:03:10.971Z</time></trkpt><trkpt lat="40.6034818" lon="15.0324079"><ele>98.0</ele><time>2026-04-18T06:03:11.971Z</time></trkpt><trkpt lat="40.6035496" lon="15.0327341"><ele>95.0</ele><time>2026-04-18T06:03:12.971Z</time></trkpt><trkpt lat="40.6036225" lon="15.0330586"><ele>92.0</ele><time>2026-04-18T06:03:13.971Z</time></trkpt><trkpt lat="40.6037042" lon="15.0333781"><ele>98.5</ele><time>2026-04-18T06:03:14.971Z</time></trkpt><trkpt lat="40.6037919" lon="15.0336923"><ele>105.0</ele><time>2026-04-18T06:03:15.971Z</time></trkpt><trkpt lat="40.6038908" lon="15.034005"><ele>100.5</ele><time>2026-04-18T06:03:16.972Z</time></trkpt><trkpt lat="40.6039914" lon="15.034317"><ele>96.0</ele><time>2026-04-18T06:03:17.972Z</time></trkpt><trkpt lat="40.6040952" lon="15.0346267"><ele>96.0</ele><time>2026-04-18T06:03:18.971Z</time></trkpt><trkpt lat="40.6042046" lon="15.0349333"><ele>96.0</ele><time>2026-04-18T06:03:19.971Z</time></trkpt><trkpt lat="40.6043178" lon="15.0352395"><ele>92.0</ele><time>2026-04-18T06:03:20.971Z</time></trkpt><trkpt lat="40.6044316" lon="15.0355459"><ele>88.0</ele><time>2026-04-18T06:03:21.971Z</time></trkpt><trkpt lat="40.6045458" lon="15.0358496"><ele>96.5</ele><time>2026-04-18T06:03:22.971Z</time></trkpt><trkpt lat="40.6046592" lon="15.0361504"><ele>105.0</ele><time>2026-04-18T06:03:23.971Z</time></trkpt><trkpt lat="40.6047693" lon="15.0364509"><ele>100.0</ele><time>2026-04-18T06:03:24.971Z</time></trkpt><trkpt lat="40.6048792" lon="15.0367546"><ele>95.0</ele><time>2026-04-18T06:03:25.971Z</time></trkpt><trkpt lat="40.6049891" lon="15.0370568"><ele>95.0</ele><time>2026-04-18T06:03:26.971Z</time></trkpt><trkpt lat="40.6050967" lon="15.0373585"><ele>95.0</ele><time>2026-04-18T06:03:27.971Z</time></trkpt><trkpt lat="40.6052048" lon="15.0376574"><ele>91.5</ele><time>2026-04-18T06:03:28.971Z</time></trkpt><trkpt lat="40.6053176" lon="15.0379591"><ele>88.0</ele><time>2026-04-18T06:03:29.971Z</time></trkpt><trkpt lat="40.605431" lon="15.0382611"><ele>97.5</ele><time>2026-04-18T06:03:30.971Z</time></trkpt><trkpt lat="40.6055443" lon="15.0385656"><ele>107.0</ele><time>2026-04-18T06:03:31.971Z</time></trkpt><trkpt lat="40.6056547" lon="15.0388685"><ele>103.5</ele><time>2026-04-18T06:03:32.971Z</time></trkpt><trkpt lat="40.6057715" lon="15.0391726"><ele>100.0</ele><time>2026-04-18T06:03:33.971Z</time></trkpt><trkpt lat="40.6058857" lon="15.0394762"><ele>100.0</ele><time>2026-04-18T06:03:34.971Z</time></trkpt><trkpt lat="40.6059949" lon="15.03978"><ele>100.0</ele><time>2026-04-18T06:03:35.971Z</time></trkpt><trkpt lat="40.6061057" lon="15.040086"><ele>110.0</ele><time>2026-04-18T06:03:36.971Z</time></trkpt><trkpt lat="40.606217" lon="15.0403926"><ele>120.0</ele><time>2026-04-18T06:03:37.971Z</time></trkpt><trkpt lat="40.6063216" lon="15.0407011"><ele>114.0</ele><time>2026-04-18T06:03:38.971Z</time></trkpt><trkpt lat="40.6064202" lon="15.0410177"><ele>108.0</ele><time>2026-04-18T06:03:39.971Z</time></trkpt><trkpt lat="40.6065026" lon="15.0413355"><ele>102.0</ele><time>2026-04-18T06:03:40.971Z</time></trkpt><trkpt lat="40.606576" lon="15.0416569"><ele>96.0</ele><time>2026-04-18T06:03:41.971Z</time></trkpt><trkpt lat="40.6066458" lon="15.041983"><ele>96.0</ele><time>2026-04-18T06:03:42.971Z</time></trkpt><trkpt lat="40.6067104" lon="15.0423152"><ele>96.0</ele><time>2026-04-18T06:03:43.971Z</time></trkpt><trkpt lat="40.6067673" lon="15.0426453"><ele>90.5</ele><time>2026-04-18T06:03:44.971Z</time></trkpt><trkpt lat="40.606824" lon="15.0429721"><ele>85.0</ele><time>2026-04-18T06:03:45.971Z</time></trkpt><trkpt lat="40.6068752" lon="15.0433017"><ele>83.5</ele><time>2026-04-18T06:03:46.971Z</time></trkpt><trkpt lat="40.6069263" lon="15.0436348"><ele>82.0</ele><time>2026-04-18T06:03:47.971Z</time></trkpt><trkpt lat="40.6069728" lon="15.0439707"><ele>84.0</ele><time>2026-04-18T06:03:48.971Z</time></trkpt><trkpt lat="40.6070218" lon="15.0443023"><ele>86.0</ele><time>2026-04-18T06:03:49.971Z</time></trkpt><trkpt lat="40.6070679" lon="15.0446374"><ele>82.5</ele><time>2026-04-18T06:03:50.971Z</time></trkpt><trkpt lat="40.6071168" lon="15.0449676"><ele>79.0</ele><time>2026-04-18T06:03:51.971Z</time></trkpt><trkpt lat="40.607164" lon="15.0452985"><ele>79.0</ele><time>2026-04-18T06:03:52.971Z</time></trkpt><trkpt lat="40.607212" lon="15.0456312"><ele>79.0</ele><time>2026-04-18T06:03:53.971Z</time></trkpt><trkpt lat="40.6072579" lon="15.045962"><ele>78.5</ele><time>2026-04-18T06:03:54.971Z</time></trkpt><trkpt lat="40.6073067" lon="15.0462971"><ele>78.0</ele><time>2026-04-18T06:03:55.971Z</time></trkpt><trkpt lat="40.6073553" lon="15.0466288"><ele>77.5</ele><time>2026-04-18T06:03:56.971Z</time></trkpt><trkpt lat="40.6074036" lon="15.0469617"><ele>77.0</ele><time>2026-04-18T06:03:57.971Z</time></trkpt><trkpt lat="40.6074483" lon="15.0472923"><ele>77.0</ele><time>2026-04-18T06:03:58.971Z</time></trkpt><trkpt lat="40.6074884" lon="15.0476251"><ele>77.0</ele><time>2026-04-18T06:03:59.971Z</time></trkpt><trkpt lat="40.6075225" lon="15.0479573"><ele>77.0</ele><time>2026-04-18T06:04:00.971Z</time></trkpt><trkpt lat="40.6075558" lon="15.0482891"><ele>77.0</ele><time>2026-04-18T06:04:01.971Z</time></trkpt><trkpt lat="40.6075856" lon="15.0486186"><ele>77.0</ele><time>2026-04-18T06:04:02.971Z</time></trkpt><trkpt lat="40.6076119" lon="15.0489509"><ele>77.0</ele><time>2026-04-18T06:04:03.971Z</time></trkpt><trkpt lat="40.6076312" lon="15.0492842"><ele>77.5</ele><time>2026-04-18T06:04:04.971Z</time></trkpt><trkpt lat="40.6076461" lon="15.0496216"><ele>78.0</ele><time>2026-04-18T06:04:05.971Z</time></trkpt><trkpt lat="40.6076552" lon="15.0499608"><ele>77.0</ele><time>2026-04-18T06:04:06.971Z</time></trkpt><trkpt lat="40.6076684" lon="15.0502982"><ele>76.0</ele><time>2026-04-18T06:04:07.971Z</time></trkpt><trkpt lat="40.6076781" lon="15.0506339"><ele>75.5</ele><time>2026-04-18T06:04:08.971Z</time></trkpt><trkpt lat="40.607688" lon="15.050969"><ele>75.0</ele><time>2026-04-18T06:04:09.971Z</time></trkpt><trkpt lat="40.6076933" lon="15.0513017"><ele>77.0</ele><time>2026-04-18T06:04:10.971Z</time></trkpt><trkpt lat="40.6076946" lon="15.0516373"><ele>79.0</ele><time>2026-04-18T06:04:11.971Z</time></trkpt><trkpt lat="40.6076961" lon="15.05197"><ele>79.0</ele><time>2026-04-18T06:04:12.971Z</time></trkpt><trkpt lat="40.6076942" lon="15.0523045"><ele>79.0</ele><time>2026-04-18T06:04:13.971Z</time></trkpt><trkpt lat="40.6076911" lon="15.052641"><ele>79.0</ele><time>2026-04-18T06:04:14.971Z</time></trkpt><trkpt lat="40.6076868" lon="15.0529815"><ele>79.0</ele><time>2026-04-18T06:04:15.972Z</time></trkpt><trkpt lat="40.6076854" lon="15.0533217"><ele>79.5</ele><time>2026-04-18T06:04:16.971Z</time></trkpt><trkpt lat="40.6076851" lon="15.0536616"><ele>80.0</ele><time>2026-04-18T06:04:17.971Z</time></trkpt><trkpt lat="40.6076814" lon="15.0539989"><ele>80.0</ele><time>2026-04-18T06:04:18.971Z</time></trkpt><trkpt lat="40.6076804" lon="15.0543368"><ele>80.0</ele><time>2026-04-18T06:04:19.971Z</time></trkpt><trkpt lat="40.6076802" lon="15.0546747"><ele>81.0</ele><time>2026-04-18T06:04:20.971Z</time></trkpt><trkpt lat="40.6076812" lon="15.0550129"><ele>82.0</ele><time>2026-04-18T06:04:21.971Z</time></trkpt><trkpt lat="40.6076828" lon="15.0553464"><ele>82.0</ele><time>2026-04-18T06:04:22.971Z</time></trkpt><trkpt lat="40.6076844" lon="15.0556812"><ele>82.0</ele><time>2026-04-18T06:04:23.971Z</time></trkpt><trkpt lat="40.607686" lon="15.05602"><ele>81.5</ele><time>2026-04-18T06:04:24.971Z</time></trkpt><trkpt lat="40.607683" lon="15.0563585"><ele>81.0</ele><time>2026-04-18T06:04:25.971Z</time></trkpt><trkpt lat="40.6076809" lon="15.0566957"><ele>79.5</ele><time>2026-04-18T06:04:26.971Z</time></trkpt><trkpt lat="40.607679" lon="15.0570324"><ele>78.0</ele><time>2026-04-18T06:04:27.971Z</time></trkpt><trkpt lat="40.6076785" lon="15.0573725"><ele>77.5</ele><time>2026-04-18T06:04:28.971Z</time></trkpt><trkpt lat="40.6076785" lon="15.0577089"><ele>77.0</ele><time>2026-04-18T06:04:29.971Z</time></trkpt><trkpt lat="40.6076783" lon="15.0580469"><ele>77.0</ele><time>2026-04-18T06:04:30.972Z</time></trkpt><trkpt lat="40.6076772" lon="15.0583816"><ele>77.0</ele><time>2026-04-18T06:04:31.971Z</time></trkpt><trkpt lat="40.6076756" lon="15.05872"><ele>77.0</ele><time>2026-04-18T06:04:32.971Z</time></trkpt><trkpt lat="40.6076728" lon="15.0590583"><ele>77.0</ele><time>2026-04-18T06:04:33.971Z</time></trkpt><trkpt lat="40.6076708" lon="15.0593942"><ele>77.0</ele><time>2026-04-18T06:04:34.971Z</time></trkpt><trkpt lat="40.607669" lon="15.0597344"><ele>77.0</ele><time>2026-04-18T06:04:35.972Z</time></trkpt><trkpt lat="40.6076686" lon="15.0600709"><ele>77.0</ele><time>2026-04-18T06:04:36.971Z</time></trkpt><trkpt lat="40.6076683" lon="15.0604086"><ele>77.0</ele><time>2026-04-18T06:04:37.972Z</time></trkpt><trkpt lat="40.6076684" lon="15.0607443"><ele>78.0</ele><time>2026-04-18T06:04:38.971Z</time></trkpt><trkpt lat="40.6076647" lon="15.0610821"><ele>79.0</ele><time>2026-04-18T06:04:39.971Z</time></trkpt><trkpt lat="40.6076625" lon="15.0614216"><ele>78.0</ele><time>2026-04-18T06:04:40.971Z</time></trkpt><trkpt lat="40.6076631" lon="15.0617577"><ele>77.0</ele><time>2026-04-18T06:04:41.971Z</time></trkpt><trkpt lat="40.6076632" lon="15.0620953"><ele>77.0</ele><time>2026-04-18T06:04:42.971Z</time></trkpt><trkpt lat="40.6076621" lon="15.0624346"><ele>77.0</ele><time>2026-04-18T06:04:43.971Z</time></trkpt><trkpt lat="40.6076618" lon="15.0627731"><ele>76.0</ele><time>2026-04-18T06:04:44.971Z</time></trkpt><trkpt lat="40.607663" lon="15.0631079"><ele>75.0</ele><time>2026-04-18T06:04:45.971Z</time></trkpt><trkpt lat="40.6076631" lon="15.0634427"><ele>74.5</ele><time>2026-04-18T06:04:46.971Z</time></trkpt><trkpt lat="40.6076646" lon="15.0637814"><ele>74.0</ele><time>2026-04-18T06:04:47.971Z</time></trkpt><trkpt lat="40.6076649" lon="15.0641201"><ele>72.5</ele><time>2026-04-18T06:04:48.971Z</time></trkpt><trkpt lat="40.6076614" lon="15.0644598"><ele>71.0</ele><time>2026-04-18T06:04:49.971Z</time></trkpt><trkpt lat="40.6076604" lon="15.0647985"><ele>71.0</ele><time>2026-04-18T06:04:50.971Z</time></trkpt><trkpt lat="40.6076602" lon="15.0651333"><ele>71.0</ele><time>2026-04-18T06:04:51.971Z</time></trkpt><trkpt lat="40.6076636" lon="15.0654706"><ele>70.5</ele><time>2026-04-18T06:04:52.971Z</time></trkpt><trkpt lat="40.6076659" lon="15.0658097"><ele>70.0</ele><time>2026-04-18T06:04:53.971Z</time></trkpt><trkpt lat="40.6076676" lon="15.0661459"><ele>70.0</ele><time>2026-04-18T06:04:54.971Z</time></trkpt><trkpt lat="40.6076646" lon="15.0664811"><ele>70.0</ele><time>2026-04-18T06:04:55.971Z</time></trkpt><trkpt lat="40.6076649" lon="15.0668207"><ele>69.5</ele><time>2026-04-18T06:04:56.971Z</time></trkpt><trkpt lat="40.6076652" lon="15.0671579"><ele>69.0</ele><time>2026-04-18T06:04:57.971Z</time></trkpt><trkpt lat="40.6076758" lon="15.0674911"><ele>69.0</ele><time>2026-04-18T06:04:58.971Z</time></trkpt><trkpt lat="40.6076862" lon="15.0678256"><ele>69.0</ele><time>2026-04-18T06:04:59.971Z</time></trkpt><trkpt lat="40.6077011" lon="15.0681617"><ele>68.5</ele><time>2026-04-18T06:05:00.971Z</time></trkpt><trkpt lat="40.6077185" lon="15.0684996"><ele>68.0</ele><time>2026-04-18T06:05:01.971Z</time></trkpt><trkpt lat="40.6077366" lon="15.0688355"><ele>68.5</ele><time>2026-04-18T06:05:02.971Z</time></trkpt><trkpt lat="40.6077586" lon="15.0691693"><ele>69.0</ele><time>2026-04-18T06:05:03.971Z</time></trkpt><trkpt lat="40.6077837" lon="15.0695027"><ele>69.0</ele><time>2026-04-18T06:05:04.971Z</time></trkpt><trkpt lat="40.6078115" lon="15.0698383"><ele>69.0</ele><time>2026-04-18T06:05:05.971Z</time></trkpt><trkpt lat="40.6078431" lon="15.0701721"><ele>70.0</ele><time>2026-04-18T06:05:06.971Z</time></trkpt><trkpt lat="40.6078772" lon="15.0705052"><ele>71.0</ele><time>2026-04-18T06:05:07.971Z</time></trkpt><trkpt lat="40.6079132" lon="15.0708369"><ele>72.0</ele><time>2026-04-18T06:05:08.971Z</time></trkpt><trkpt lat="40.6079533" lon="15.0711686"><ele>73.0</ele><time>2026-04-18T06:05:09.971Z</time></trkpt><trkpt lat="40.6079994" lon="15.0715002"><ele>74.5</ele><time>2026-04-18T06:05:10.971Z</time></trkpt><trkpt lat="40.6080519" lon="15.0718318"><ele>76.0</ele><time>2026-04-18T06:05:11.971Z</time></trkpt><trkpt lat="40.6081087" lon="15.0721658"><ele>76.0</ele><time>2026-04-18T06:05:12.971Z</time></trkpt><trkpt lat="40.6081677" lon="15.0724931"><ele>76.0</ele><time>2026-04-18T06:05:13.972Z</time></trkpt><trkpt lat="40.6082241" lon="15.0728197"><ele>76.0</ele><time>2026-04-18T06:05:14.971Z</time></trkpt><trkpt lat="40.6082816" lon="15.0731471"><ele>76.0</ele><time>2026-04-18T06:05:15.971Z</time></trkpt><trkpt lat="40.6083411" lon="15.0734735"><ele>75.5</ele><time>2026-04-18T06:05:16.971Z</time></trkpt><trkpt lat="40.6084043" lon="15.0738012"><ele>75.0</ele><time>2026-04-18T06:05:17.971Z</time></trkpt><trkpt lat="40.6084689" lon="15.074128"><ele>77.0</ele><time>2026-04-18T06:05:18.971Z</time></trkpt><trkpt lat="40.6085314" lon="15.0744533"><ele>79.0</ele><time>2026-04-18T06:05:19.971Z</time></trkpt><trkpt lat="40.6085968" lon="15.0747821"><ele>79.5</ele><time>2026-04-18T06:05:20.971Z</time></trkpt><trkpt lat="40.6086598" lon="15.0751071"><ele>80.0</ele><time>2026-04-18T06:05:21.971Z</time></trkpt><trkpt lat="40.6087208" lon="15.0754308"><ele>80.0</ele><time>2026-04-18T06:05:22.972Z</time></trkpt><trkpt lat="40.6087857" lon="15.0757542"><ele>80.0</ele><time>2026-04-18T06:05:23.971Z</time></trkpt><trkpt lat="40.6088421" lon="15.0760787"><ele>80.5</ele><time>2026-04-18T06:05:24.971Z</time></trkpt><trkpt lat="40.6089011" lon="15.0764025"><ele>81.0</ele><time>2026-04-18T06:05:25.971Z</time></trkpt><trkpt lat="40.6089608" lon="15.0767309"><ele>81.0</ele><time>2026-04-18T06:05:26.971Z</time></trkpt><trkpt lat="40.6090195" lon="15.0770567"><ele>81.0</ele><time>2026-04-18T06:05:27.971Z</time></trkpt><trkpt lat="40.6090803" lon="15.0773817"><ele>81.5</ele><time>2026-04-18T06:05:28.971Z</time></trkpt><trkpt lat="40.6091393" lon="15.0777067"><ele>82.0</ele><time>2026-04-18T06:05:29.971Z</time></trkpt><trkpt lat="40.6091964" lon="15.0780321"><ele>84.0</ele><time>2026-04-18T06:05:30.971Z</time></trkpt><trkpt lat="40.6092499" lon="15.0783574"><ele>86.0</ele><time>2026-04-18T06:05:31.971Z</time></trkpt><trkpt lat="40.6093044" lon="15.0786877"><ele>86.0</ele><time>2026-04-18T06:05:32.971Z</time></trkpt><trkpt lat="40.6093521" lon="15.079018"><ele>86.0</ele><time>2026-04-18T06:05:33.971Z</time></trkpt><trkpt lat="40.6093979" lon="15.0793495"><ele>86.5</ele><time>2026-04-18T06:05:34.971Z</time></trkpt><trkpt lat="40.6094383" lon="15.0796827"><ele>87.0</ele><time>2026-04-18T06:05:35.971Z</time></trkpt><trkpt lat="40.6094736" lon="15.0800163"><ele>88.0</ele><time>2026-04-18T06:05:36.971Z</time></trkpt><trkpt lat="40.6095074" lon="15.0803537"><ele>89.0</ele><time>2026-04-18T06:05:37.971Z</time></trkpt><trkpt lat="40.6095315" lon="15.0806802"><ele>89.5</ele><time>2026-04-18T06:05:38.971Z</time></trkpt><trkpt lat="40.6095579" lon="15.0810153"><ele>90.0</ele><time>2026-04-18T06:05:39.971Z</time></trkpt><trkpt lat="40.609578" lon="15.0813527"><ele>90.5</ele><time>2026-04-18T06:05:40.971Z</time></trkpt><trkpt lat="40.6095965" lon="15.0816896"><ele>91.0</ele><time>2026-04-18T06:05:41.971Z</time></trkpt><trkpt lat="40.6096147" lon="15.0820265"><ele>91.0</ele><time>2026-04-18T06:05:42.971Z</time></trkpt><trkpt lat="40.6096259" lon="15.0823621"><ele>91.0</ele><time>2026-04-18T06:05:43.971Z</time></trkpt><trkpt lat="40.6096325" lon="15.0826985"><ele>91.0</ele><time>2026-04-18T06:05:44.971Z</time></trkpt><trkpt lat="40.6096336" lon="15.0830353"><ele>91.0</ele><time>2026-04-18T06:05:45.971Z</time></trkpt><trkpt lat="40.6096277" lon="15.0833722"><ele>90.5</ele><time>2026-04-18T06:05:46.971Z</time></trkpt><trkpt lat="40.6096199" lon="15.0837063"><ele>90.0</ele><time>2026-04-18T06:05:47.971Z</time></trkpt><trkpt lat="40.6096081" lon="15.0840432"><ele>90.0</ele><time>2026-04-18T06:05:48.971Z</time></trkpt><trkpt lat="40.6095938" lon="15.0843787"><ele>90.0</ele><time>2026-04-18T06:05:49.971Z</time></trkpt><trkpt lat="40.6095755" lon="15.0847153"><ele>88.5</ele><time>2026-04-18T06:05:50.971Z</time></trkpt><trkpt lat="40.6095561" lon="15.0850531"><ele>87.0</ele><time>2026-04-18T06:05:51.971Z</time></trkpt><trkpt lat="40.6095349" lon="15.0853901"><ele>87.0</ele><time>2026-04-18T06:05:52.972Z</time></trkpt><trkpt lat="40.6095145" lon="15.0857269"><ele>87.0</ele><time>2026-04-18T06:05:53.971Z</time></trkpt><trkpt lat="40.6094955" lon="15.0860648"><ele>87.0</ele><time>2026-04-18T06:05:54.972Z</time></trkpt><trkpt lat="40.6094758" lon="15.0863995"><ele>87.0</ele><time>2026-04-18T06:05:55.971Z</time></trkpt><trkpt lat="40.6094571" lon="15.0867333"><ele>87.0</ele><time>2026-04-18T06:05:56.971Z</time></trkpt><trkpt lat="40.6094375" lon="15.0870699"><ele>87.0</ele><time>2026-04-18T06:05:57.971Z</time></trkpt><trkpt lat="40.6094165" lon="15.0874052"><ele>88.5</ele><time>2026-04-18T06:05:58.971Z</time></trkpt><trkpt lat="40.6093973" lon="15.0877388"><ele>90.0</ele><time>2026-04-18T06:05:59.971Z</time></trkpt><trkpt lat="40.6093776" lon="15.0880734"><ele>90.5</ele><time>2026-04-18T06:06:00.971Z</time></trkpt><trkpt lat="40.6093565" lon="15.0884084"><ele>91.0</ele><time>2026-04-18T06:06:01.971Z</time></trkpt><trkpt lat="40.6093313" lon="15.0887413"><ele>91.0</ele><time>2026-04-18T06:06:02.971Z</time></trkpt><trkpt lat="40.6093015" lon="15.0890744"><ele>91.0</ele><time>2026-04-18T06:06:03.971Z</time></trkpt><trkpt lat="40.6092655" lon="15.089412"><ele>92.5</ele><time>2026-04-18T06:06:04.971Z</time></trkpt><trkpt lat="40.6092171" lon="15.089737"><ele>94.0</ele><time>2026-04-18T06:06:05.971Z</time></trkpt><trkpt lat="40.6091582" lon="15.0900688"><ele>95.0</ele><time>2026-04-18T06:06:06.971Z</time></trkpt><trkpt lat="40.6090912" lon="15.090394"><ele>96.0</ele><time>2026-04-18T06:06:07.971Z</time></trkpt><trkpt lat="40.6090124" lon="15.0907141"><ele>96.0</ele><time>2026-04-18T06:06:08.971Z</time></trkpt><trkpt lat="40.6089337" lon="15.0910334"><ele>96.0</ele><time>2026-04-18T06:06:09.972Z</time></trkpt><trkpt lat="40.6088479" lon="15.0913502"><ele>96.0</ele><time>2026-04-18T06:06:10.971Z</time></trkpt><trkpt lat="40.6087579" lon="15.0916647"><ele>96.0</ele><time>2026-04-18T06:06:11.971Z</time></trkpt><trkpt lat="40.6086573" lon="15.091979"><ele>96.0</ele><time>2026-04-18T06:06:12.971Z</time></trkpt><trkpt lat="40.6085547" lon="15.092293"><ele>96.0</ele><time>2026-04-18T06:06:13.971Z</time></trkpt><trkpt lat="40.6084514" lon="15.0926013"><ele>95.0</ele><time>2026-04-18T06:06:14.971Z</time></trkpt><trkpt lat="40.6083445" lon="15.0929067"><ele>94.0</ele><time>2026-04-18T06:06:15.971Z</time></trkpt><trkpt lat="40.6082355" lon="15.0932153"><ele>94.5</ele><time>2026-04-18T06:06:16.971Z</time></trkpt><trkpt lat="40.608135" lon="15.0935233"><ele>95.0</ele><time>2026-04-18T06:06:17.971Z</time></trkpt><trkpt lat="40.6080326" lon="15.0938315"><ele>95.5</ele><time>2026-04-18T06:06:18.971Z</time></trkpt><trkpt lat="40.6079309" lon="15.0941394"><ele>96.0</ele><time>2026-04-18T06:06:19.971Z</time></trkpt><trkpt lat="40.6078282" lon="15.0944492"><ele>96.0</ele><time>2026-04-18T06:06:20.971Z</time></trkpt><trkpt lat="40.6077238" lon="15.0947588"><ele>96.0</ele><time>2026-04-18T06:06:21.972Z</time></trkpt><trkpt lat="40.6076213" lon="15.0950672"><ele>96.0</ele><time>2026-04-18T06:06:22.971Z</time></trkpt><trkpt lat="40.6075205" lon="15.0953759"><ele>96.0</ele><time>2026-04-18T06:06:23.971Z</time></trkpt><trkpt lat="40.6074225" lon="15.09569"><ele>96.0</ele><time>2026-04-18T06:06:24.971Z</time></trkpt><trkpt lat="40.6073289" lon="15.0960088"><ele>96.0</ele><time>2026-04-18T06:06:25.971Z</time></trkpt><trkpt lat="40.6072403" lon="15.0963268"><ele>96.0</ele><time>2026-04-18T06:06:26.971Z</time></trkpt><trkpt lat="40.6071555" lon="15.0966423"><ele>96.0</ele><time>2026-04-18T06:06:27.971Z</time></trkpt><trkpt lat="40.6070741" lon="15.0969614"><ele>96.0</ele><time>2026-04-18T06:06:28.971Z</time></trkpt><trkpt lat="40.6069987" lon="15.0972799"><ele>96.0</ele><time>2026-04-18T06:06:29.971Z</time></trkpt><trkpt lat="40.6069249" lon="15.0975985"><ele>95.0</ele><time>2026-04-18T06:06:30.972Z</time></trkpt><trkpt lat="40.6068466" lon="15.0979215"><ele>94.0</ele><time>2026-04-18T06:06:31.971Z</time></trkpt><trkpt lat="40.6067707" lon="15.0982454"><ele>95.0</ele><time>2026-04-18T06:06:32.971Z</time></trkpt><trkpt lat="40.6067011" lon="15.0985716"><ele>96.0</ele><time>2026-04-18T06:06:33.971Z</time></trkpt><trkpt lat="40.606636" lon="15.098899"><ele>96.0</ele><time>2026-04-18T06:06:34.971Z</time></trkpt><trkpt lat="40.6065759" lon="15.0992247"><ele>96.0</ele><time>2026-04-18T06:06:35.971Z</time></trkpt><trkpt lat="40.6065145" lon="15.0995534"><ele>96.0</ele><time>2026-04-18T06:06:36.971Z</time></trkpt><trkpt lat="40.6064579" lon="15.0998808"><ele>96.0</ele><time>2026-04-18T06:06:37.971Z</time></trkpt><trkpt lat="40.6063978" lon="15.1002078"><ele>96.0</ele><time>2026-04-18T06:06:38.971Z</time></trkpt><trkpt lat="40.6063422" lon="15.1005371"><ele>96.0</ele><time>2026-04-18T06:06:39.971Z</time></trkpt><trkpt lat="40.6062873" lon="15.1008657"><ele>96.0</ele><time>2026-04-18T06:06:40.971Z</time></trkpt><trkpt lat="40.6062299" lon="15.1011953"><ele>96.0</ele><time>2026-04-18T06:06:41.972Z</time></trkpt><trkpt lat="40.6061742" lon="15.1015229"><ele>95.0</ele><time>2026-04-18T06:06:42.971Z</time></trkpt><trkpt lat="40.6061216" lon="15.1018535"><ele>94.0</ele><time>2026-04-18T06:06:43.971Z</time></trkpt><trkpt lat="40.6060756" lon="15.1021876"><ele>95.0</ele><time>2026-04-18T06:06:44.971Z</time></trkpt><trkpt lat="40.6060363" lon="15.1025218"><ele>96.0</ele><time>2026-04-18T06:06:45.971Z</time></trkpt><trkpt lat="40.6060085" lon="15.1028581"><ele>96.0</ele><time>2026-04-18T06:06:46.971Z</time></trkpt><trkpt lat="40.6059874" lon="15.1031937"><ele>96.0</ele><time>2026-04-18T06:06:47.971Z</time></trkpt><trkpt lat="40.6059723" lon="15.1035316"><ele>97.0</ele><time>2026-04-18T06:06:48.971Z</time></trkpt><trkpt lat="40.6059654" lon="15.1038685"><ele>98.0</ele><time>2026-04-18T06:06:49.971Z</time></trkpt><trkpt lat="40.6059628" lon="15.1042065"><ele>98.5</ele><time>2026-04-18T06:06:50.971Z</time></trkpt><trkpt lat="40.6059667" lon="15.1045424"><ele>99.0</ele><time>2026-04-18T06:06:51.972Z</time></trkpt><trkpt lat="40.6059787" lon="15.1048744"><ele>99.5</ele><time>2026-04-18T06:06:52.971Z</time></trkpt><trkpt lat="40.6059904" lon="15.1051846"><ele>100.0</ele><time>2026-04-18T06:06:53.971Z</time></trkpt><trkpt lat="40.606004" lon="15.1054911"><ele>99.66666666666667</ele><time>2026-04-18T06:06:54.971Z</time></trkpt><trkpt lat="40.6060175" lon="15.1057822"><ele>99.33333333333334</ele><time>2026-04-18T06:06:55.971Z</time></trkpt><trkpt lat="40.606031" lon="15.1060704"><ele>99.0</ele><time>2026-04-18T06:06:56.971Z</time></trkpt><trkpt lat="40.6060463" lon="15.1063565"><ele>97.33333333333333</ele><time>2026-04-18T06:06:57.971Z</time></trkpt><trkpt lat="40.6060627" lon="15.1066426"><ele>95.66666666666666</ele><time>2026-04-18T06:06:58.971Z</time></trkpt><trkpt lat="40.6060781" lon="15.1069302"><ele>94.0</ele><time>2026-04-18T06:06:59.971Z</time></trkpt><trkpt lat="40.6060956" lon="15.1072197"><ele>94.0</ele><time>2026-04-18T06:07:00.971Z</time></trkpt><trkpt lat="40.6061151" lon="15.1075073"><ele>94.0</ele><time>2026-04-18T06:07:01.971Z</time></trkpt><trkpt lat="40.6061357" lon="15.1077954"><ele>94.0</ele><time>2026-04-18T06:07:02.971Z</time></trkpt><trkpt lat="40.6061526" lon="15.1080834"><ele>96.0</ele><time>2026-04-18T06:07:03.971Z</time></trkpt><trkpt lat="40.606166" lon="15.1083714"><ele>98.0</ele><time>2026-04-18T06:07:04.971Z</time></trkpt><trkpt lat="40.6061825" lon="15.108657"><ele>100.0</ele><time>2026-04-18T06:07:05.971Z</time></trkpt><trkpt lat="40.6062004" lon="15.1089409"><ele>101.33333333333334</ele><time>2026-04-18T06:07:06.971Z</time></trkpt><trkpt lat="40.6062162" lon="15.1092243"><ele>102.66666666666666</ele><time>2026-04-18T06:07:07.971Z</time></trkpt><trkpt lat="40.6062327" lon="15.1095113"><ele>104.0</ele><time>2026-04-18T06:07:08.971Z</time></trkpt><trkpt lat="40.6062492" lon="15.1097968"><ele>104.33333333333333</ele><time>2026-04-18T06:07:09.971Z</time></trkpt><trkpt lat="40.6062671" lon="15.1100832"><ele>104.66666666666666</ele><time>2026-04-18T06:07:10.971Z</time></trkpt><trkpt lat="40.606284" lon="15.1103739"><ele>105.0</ele><time>2026-04-18T06:07:11.971Z</time></trkpt><trkpt lat="40.6063001" lon="15.110666"><ele>104.66666666666666</ele><time>2026-04-18T06:07:12.971Z</time></trkpt><trkpt lat="40.6063174" lon="15.1109566"><ele>104.33333333333333</ele><time>2026-04-18T06:07:13.971Z</time></trkpt><trkpt lat="40.6063342" lon="15.111244"><ele>104.0</ele><time>2026-04-18T06:07:14.971Z</time></trkpt><trkpt lat="40.6063497" lon="15.1115294"><ele>104.33333333333333</ele><time>2026-04-18T06:07:15.971Z</time></trkpt><trkpt lat="40.606366" lon="15.1118128"><ele>104.66666666666666</ele><time>2026-04-18T06:07:16.971Z</time></trkpt><trkpt lat="40.6063814" lon="15.1120954"><ele>105.0</ele><time>2026-04-18T06:07:17.972Z</time></trkpt><trkpt lat="40.6063964" lon="15.112377"><ele>105.66666666666666</ele><time>2026-04-18T06:07:18.971Z</time></trkpt><trkpt lat="40.6064081" lon="15.11266"><ele>106.33333333333333</ele><time>2026-04-18T06:07:19.971Z</time></trkpt><trkpt lat="40.6064209" lon="15.1129408"><ele>107.0</ele><time>2026-04-18T06:07:20.971Z</time></trkpt><trkpt lat="40.606434" lon="15.1132248"><ele>107.0</ele><time>2026-04-18T06:07:21.971Z</time></trkpt><trkpt lat="40.6064474" lon="15.1135099"><ele>107.0</ele><time>2026-04-18T06:07:22.971Z</time></trkpt><trkpt lat="40.6064607" lon="15.1137963"><ele>107.0</ele><time>2026-04-18T06:07:23.971Z</time></trkpt><trkpt lat="40.6064741" lon="15.1140776"><ele>107.0</ele><time>2026-04-18T06:07:24.971Z</time></trkpt><trkpt lat="40.606493" lon="15.1143547"><ele>107.0</ele><time>2026-04-18T06:07:25.971Z</time></trkpt><trkpt lat="40.6065128" lon="15.1146337"><ele>107.0</ele><time>2026-04-18T06:07:26.971Z</time></trkpt><trkpt lat="40.6065376" lon="15.1149108"><ele>107.33333333333333</ele><time>2026-04-18T06:07:27.971Z</time></trkpt><trkpt lat="40.6065584" lon="15.1151864"><ele>107.66666666666666</ele><time>2026-04-18T06:07:28.971Z</time></trkpt><trkpt lat="40.606577" lon="15.1154665"><ele>108.0</ele><time>2026-04-18T06:07:29.971Z</time></trkpt><trkpt lat="40.6065877" lon="15.1157503"><ele>107.0</ele><time>2026-04-18T06:07:30.971Z</time></trkpt><trkpt lat="40.6065818" lon="15.1160311"><ele>106.0</ele><time>2026-04-18T06:07:31.971Z</time></trkpt><trkpt lat="40.6065468" lon="15.1163043"><ele>105.0</ele><time>2026-04-18T06:07:32.971Z</time></trkpt><trkpt lat="40.6064814" lon="15.1165736"><ele>105.0</ele><time>2026-04-18T06:07:33.971Z</time></trkpt><trkpt lat="40.6063925" lon="15.1168276"><ele>105.0</ele><time>2026-04-18T06:07:34.971Z</time></trkpt><trkpt lat="40.6062808" lon="15.1170701"><ele>105.0</ele><time>2026-04-18T06:07:35.971Z</time></trkpt><trkpt lat="40.6061532" lon="15.1173004"><ele>105.0</ele><time>2026-04-18T06:07:36.971Z</time></trkpt><trkpt lat="40.6060258" lon="15.117512"><ele>105.0</ele><time>2026-04-18T06:07:37.971Z</time></trkpt><trkpt lat="40.605907" lon="15.1177131"><ele>105.0</ele><time>2026-04-18T06:07:38.972Z</time></trkpt><trkpt lat="40.6058085" lon="15.1179102"><ele>105.0</ele><time>2026-04-18T06:07:39.971Z</time></trkpt><trkpt lat="40.6057437" lon="15.1181115"><ele>105.0</ele><time>2026-04-18T06:07:40.971Z</time></trkpt><trkpt lat="40.6057246" lon="15.1183186"><ele>105.0</ele><time>2026-04-18T06:07:41.971Z</time></trkpt><trkpt lat="40.6057511" lon="15.1185279"><ele>105.33333333333334</ele><time>2026-04-18T06:07:42.971Z</time></trkpt><trkpt lat="40.6058188" lon="15.1187242"><ele>105.66666666666667</ele><time>2026-04-18T06:07:43.971Z</time></trkpt><trkpt lat="40.605926" lon="15.1188892"><ele>106.0</ele><time>2026-04-18T06:07:44.971Z</time></trkpt><trkpt lat="40.6060659" lon="15.1190134"><ele>106.33333333333334</ele><time>2026-04-18T06:07:45.971Z</time></trkpt><trkpt lat="40.6062288" lon="15.1190893"><ele>106.66666666666666</ele><time>2026-04-18T06:07:46.971Z</time></trkpt><trkpt lat="40.6064085" lon="15.119107"><ele>107.0</ele><time>2026-04-18T06:07:47.971Z</time></trkpt><trkpt lat="40.6065901" lon="15.1190862"><ele>107.33333333333333</ele><time>2026-04-18T06:07:48.971Z</time></trkpt><trkpt lat="40.6067608" lon="15.1190532"><ele>107.66666666666666</ele><time>2026-04-18T06:07:49.971Z</time></trkpt><trkpt lat="40.6069206" lon="15.1190211"><ele>108.0</ele><time>2026-04-18T06:07:50.971Z</time></trkpt><trkpt lat="40.6070723" lon="15.1189931"><ele>108.0</ele><time>2026-04-18T06:07:51.971Z</time></trkpt><trkpt lat="40.6072145" lon="15.1189706"><ele>108.0</ele><time>2026-04-18T06:07:52.971Z</time></trkpt><trkpt lat="40.607347" lon="15.1189374"><ele>108.0</ele><time>2026-04-18T06:07:53.971Z</time></trkpt><trkpt lat="40.6074717" lon="15.1188718"><ele>108.0</ele><time>2026-04-18T06:07:54.971Z</time></trkpt><trkpt lat="40.6075855" lon="15.1187818"><ele>108.0</ele><time>2026-04-18T06:07:55.971Z</time></trkpt><trkpt lat="40.6076894" lon="15.1186744"><ele>108.0</ele><time>2026-04-18T06:07:56.971Z</time></trkpt><trkpt lat="40.6077909" lon="15.1185609"><ele>108.0</ele><time>2026-04-18T06:07:57.971Z</time></trkpt><trkpt lat="40.6078786" lon="15.1184322"><ele>108.0</ele><time>2026-04-18T06:07:58.971Z</time></trkpt><trkpt lat="40.6079552" lon="15.1182862"><ele>108.5</ele><time>2026-04-18T06:07:59.971Z</time></trkpt><trkpt lat="40.6080288" lon="15.1181332"><ele>109.0</ele><time>2026-04-18T06:08:00.971Z</time></trkpt><trkpt lat="40.6080944" lon="15.1179722"><ele>109.5</ele><time>2026-04-18T06:08:01.971Z</time></trkpt><trkpt lat="40.6081571" lon="15.1178065"><ele>110.0</ele><time>2026-04-18T06:08:02.971Z</time></trkpt><trkpt lat="40.6082265" lon="15.1176458"><ele>110.0</ele><time>2026-04-18T06:08:03.971Z</time></trkpt><trkpt lat="40.6082988" lon="15.117481"><ele>110.0</ele><time>2026-04-18T06:08:04.971Z</time></trkpt><trkpt lat="40.6083691" lon="15.1173115"><ele>110.0</ele><time>2026-04-18T06:08:05.971Z</time></trkpt><trkpt lat="40.6084421" lon="15.1171439"><ele>110.0</ele><time>2026-04-18T06:08:06.971Z</time></trkpt><trkpt lat="40.6085139" lon="15.1169703"><ele>109.66666666666666</ele><time>2026-04-18T06:08:07.971Z</time></trkpt><trkpt lat="40.6085825" lon="15.1167942"><ele>109.33333333333334</ele><time>2026-04-18T06:08:08.971Z</time></trkpt><trkpt lat="40.6086546" lon="15.116623"><ele>109.0</ele><time>2026-04-18T06:08:09.971Z</time></trkpt><trkpt lat="40.6087265" lon="15.1164479"><ele>109.5</ele><time>2026-04-18T06:08:10.972Z</time></trkpt><trkpt lat="40.6087974" lon="15.1162802"><ele>110.0</ele><time>2026-04-18T06:08:11.971Z</time></trkpt><trkpt lat="40.6088717" lon="15.1161267"><ele>110.5</ele><time>2026-04-18T06:08:12.971Z</time></trkpt><trkpt lat="40.608945" lon="15.115975"><ele>111.0</ele><time>2026-04-18T06:08:13.971Z</time></trkpt><trkpt lat="40.609015" lon="15.1158417"><ele>111.19999999999999</ele><time>2026-04-18T06:08:14.971Z</time></trkpt><trkpt lat="40.609085" lon="15.115715"><ele>111.39999999999999</ele><time>2026-04-18T06:08:15.971Z</time></trkpt><trkpt lat="40.60915" lon="15.1156"><ele>111.6</ele><time>2026-04-18T06:08:16.971Z</time></trkpt><trkpt lat="40.60921" lon="15.1154917"><ele>111.8</ele><time>2026-04-18T06:08:17.971Z</time></trkpt><trkpt lat="40.60926" lon="15.1153933"><ele>112.0</ele><time>2026-04-18T06:08:18.971Z</time></trkpt><trkpt lat="40.6092983" lon="15.1153133"><ele>112.00000000000001</ele><time>2026-04-18T06:08:19.971Z</time></trkpt><trkpt lat="40.6093367" lon="15.1152"><ele>112.0</ele><time>2026-04-18T06:08:21.971Z</time></trkpt><trkpt lat="40.6093317" lon="15.11509"><ele>112.0</ele><time>2026-04-18T06:08:25.972Z</time></trkpt><trkpt lat="40.609245" lon="15.1150333"><ele>112.0</ele><time>2026-04-18T06:08:27.971Z</time></trkpt><trkpt lat="40.6091717" lon="15.1150167"><ele>112.00000000000001</ele><time>2026-04-18T06:08:28.971Z</time></trkpt><trkpt lat="40.609085" lon="15.1150033"><ele>112.0</ele><time>2026-04-18T06:08:29.971Z</time></trkpt><trkpt lat="40.6089883" lon="15.1149883"><ele>112.0</ele><time>2026-04-18T06:08:30.971Z</time></trkpt><trkpt lat="40.6088867" lon="15.1149733"><ele>111.99999999999999</ele><time>2026-04-18T06:08:31.971Z</time></trkpt><trkpt lat="40.6087783" lon="15.1149533"><ele>111.99999999999999</ele><time>2026-04-18T06:08:32.971Z</time></trkpt><trkpt lat="40.6086633" lon="15.1149367"><ele>112.0</ele><time>2026-04-18T06:08:33.971Z</time></trkpt><trkpt lat="40.6085433" lon="15.11492"><ele>112.0</ele><time>2026-04-18T06:08:34.971Z</time></trkpt><trkpt lat="40.608415" lon="15.1149017"><ele>112.5</ele><time>2026-04-18T06:08:35.971Z</time></trkpt><trkpt lat="40.6082883" lon="15.1148883"><ele>113.0</ele><time>2026-04-18T06:08:36.971Z</time></trkpt><trkpt lat="40.6081567" lon="15.1148733"><ele>113.5</ele><time>2026-04-18T06:08:37.971Z</time></trkpt><trkpt lat="40.6080233" lon="15.1148583"><ele>114.0</ele><time>2026-04-18T06:08:38.971Z</time></trkpt><trkpt lat="40.6078883" lon="15.1148533"><ele>113.25</ele><time>2026-04-18T06:08:39.971Z</time></trkpt><trkpt lat="40.6077533" lon="15.114845"><ele>112.5</ele><time>2026-04-18T06:08:40.971Z</time></trkpt><trkpt lat="40.6076133" lon="15.114845"><ele>111.75</ele><time>2026-04-18T06:08:41.971Z</time></trkpt><trkpt lat="40.6074817" lon="15.1148633"><ele>111.0</ele><time>2026-04-18T06:08:42.972Z</time></trkpt><trkpt lat="40.6073433" lon="15.1148867"><ele>110.75</ele><time>2026-04-18T06:08:43.971Z</time></trkpt><trkpt lat="40.6072067" lon="15.1149067"><ele>110.5</ele><time>2026-04-18T06:08:44.971Z</time></trkpt><trkpt lat="40.6070717" lon="15.1149333"><ele>110.25</ele><time>2026-04-18T06:08:45.971Z</time></trkpt><trkpt lat="40.6069333" lon="15.11495"><ele>110.0</ele><time>2026-04-18T06:08:46.971Z</time></trkpt><trkpt lat="40.606795" lon="15.1149667"><ele>109.5</ele><time>2026-04-18T06:08:47.971Z</time></trkpt><trkpt lat="40.606655" lon="15.1149883"><ele>109.0</ele><time>2026-04-18T06:08:48.971Z</time></trkpt><trkpt lat="40.6065183" lon="15.11501"><ele>108.5</ele><time>2026-04-18T06:08:49.972Z</time></trkpt><trkpt lat="40.6063783" lon="15.1150233"><ele>108.0</ele><time>2026-04-18T06:08:50.971Z</time></trkpt><trkpt lat="40.60625" lon="15.1150133"><ele>107.0</ele><time>2026-04-18T06:08:51.971Z</time></trkpt><trkpt lat="40.606125" lon="15.114965"><ele>106.0</ele><time>2026-04-18T06:08:52.971Z</time></trkpt><trkpt lat="40.60601" lon="15.1149"><ele>105.0</ele><time>2026-04-18T06:08:53.971Z</time></trkpt><trkpt lat="40.60588" lon="15.1148317"><ele>104.0</ele><time>2026-04-18T06:08:54.971Z</time></trkpt><trkpt lat="40.605745" lon="15.1147817"><ele>104.0</ele><time>2026-04-18T06:08:55.971Z</time></trkpt><trkpt lat="40.605605" lon="15.1147633"><ele>104.0</ele><time>2026-04-18T06:08:56.971Z</time></trkpt><trkpt lat="40.6054683" lon="15.1147533"><ele>104.0</ele><time>2026-04-18T06:08:57.971Z</time></trkpt><trkpt lat="40.60533" lon="15.1147417"><ele>104.0</ele><time>2026-04-18T06:08:58.971Z</time></trkpt><trkpt lat="40.60519" lon="15.1147333"><ele>104.0</ele><time>2026-04-18T06:08:59.971Z</time></trkpt><trkpt lat="40.60505" lon="15.11472"><ele>104.0</ele><time>2026-04-18T06:09:00.971Z</time></trkpt><trkpt lat="40.6049117" lon="15.1147067"><ele>104.0</ele><time>2026-04-18T06:09:01.971Z</time></trkpt><trkpt lat="40.604785" lon="15.1147"><ele>104.0</ele><time>2026-04-18T06:09:02.972Z</time></trkpt><trkpt lat="40.60466" lon="15.1146917"><ele>103.99999999999999</ele><time>2026-04-18T06:09:03.971Z</time></trkpt><trkpt lat="40.60455" lon="15.11468"><ele>104.0</ele><time>2026-04-18T06:09:04.971Z</time></trkpt><trkpt lat="40.604455" lon="15.11466"><ele>104.0</ele><time>2026-04-18T06:09:05.971Z</time></trkpt><trkpt lat="40.6043783" lon="15.11463"><ele>104.0</ele><time>2026-04-18T06:09:06.971Z</time></trkpt><trkpt lat="40.6043083" lon="15.1145817"><ele>103.99999999999999</ele><time>2026-04-18T06:09:07.971Z</time></trkpt><trkpt lat="40.6042483" lon="15.114525"><ele>104.0</ele><time>2026-04-18T06:09:08.971Z</time></trkpt><trkpt lat="40.6041983" lon="15.1144633"><ele>103.80000000000001</ele><time>2026-04-18T06:09:09.971Z</time></trkpt><trkpt lat="40.6041083" lon="15.11436"><ele>103.60000000000001</ele><time>2026-04-18T06:09:11.971Z</time></trkpt><trkpt lat="40.6040467" lon="15.1142783"><ele>103.4</ele><time>2026-04-18T06:09:13.971Z</time></trkpt><trkpt lat="40.6040283" lon="15.1141733"><ele>103.2</ele><time>2026-04-18T06:09:16.971Z</time></trkpt><trkpt lat="40.603975" lon="15.1140633"><ele>103.0</ele><time>2026-04-18T06:49:18.962Z</time></trkpt><trkpt lat="40.60391" lon="15.1140733"><ele>103.00000000000001</ele><time>2026-04-18T06:49:20.962Z</time></trkpt><trkpt lat="40.60388" lon="15.1141583"><ele>103.0</ele><time>2026-04-18T06:49:23.962Z</time></trkpt><trkpt lat="40.6039717" lon="15.1143083"><ele>103.0</ele><time>2026-04-18T06:49:51.962Z</time></trkpt><trkpt lat="40.6040117" lon="15.1143783"><ele>103.0</ele><time>2026-04-18T06:49:52.962Z</time></trkpt><trkpt lat="40.60407" lon="15.114475"><ele>103.00000000000001</ele><time>2026-04-18T06:49:54.962Z</time></trkpt><trkpt lat="40.604095" lon="15.1145533"><ele>103.0</ele><time>2026-04-18T06:49:58.962Z</time></trkpt><trkpt lat="40.6041583" lon="15.1146467"><ele>103.0</ele><time>2026-04-18T06:50:01.963Z</time></trkpt><trkpt lat="40.6042483" lon="15.114665"><ele>103.0</ele><time>2026-04-18T06:50:03.962Z</time></trkpt><trkpt lat="40.604375" lon="15.1146967"><ele>103.0</ele><time>2026-04-18T06:50:05.962Z</time></trkpt><trkpt lat="40.60445" lon="15.11471"><ele>103.0</ele><time>2026-04-18T06:50:06.962Z</time></trkpt><trkpt lat="40.6045333" lon="15.1147183"><ele>103.0</ele><time>2026-04-18T06:50:07.962Z</time></trkpt><trkpt lat="40.6046183" lon="15.1147217"><ele>103.2</ele><time>2026-04-18T06:50:08.962Z</time></trkpt><trkpt lat="40.6047067" lon="15.1147267"><ele>103.4</ele><time>2026-04-18T06:50:09.962Z</time></trkpt><trkpt lat="40.6048" lon="15.1147333"><ele>103.60000000000001</ele><time>2026-04-18T06:50:10.962Z</time></trkpt><trkpt lat="40.6048983" lon="15.11474"><ele>103.80000000000001</ele><time>2026-04-18T06:50:11.962Z</time></trkpt><trkpt lat="40.6050017" lon="15.11475"><ele>104.0</ele><time>2026-04-18T06:50:12.963Z</time></trkpt><trkpt lat="40.6051033" lon="15.1147617"><ele>104.0</ele><time>2026-04-18T06:50:13.963Z</time></trkpt><trkpt lat="40.60521" lon="15.1147717"><ele>104.0</ele><time>2026-04-18T06:50:14.962Z</time></trkpt><trkpt lat="40.6053167" lon="15.1147783"><ele>104.0</ele><time>2026-04-18T06:50:15.962Z</time></trkpt><trkpt lat="40.6054233" lon="15.1147867"><ele>104.0</ele><time>2026-04-18T06:50:16.962Z</time></trkpt><trkpt lat="40.60553" lon="15.1148"><ele>104.0</ele><time>2026-04-18T06:50:17.962Z</time></trkpt><trkpt lat="40.6056383" lon="15.1148167"><ele>104.0</ele><time>2026-04-18T06:50:18.962Z</time></trkpt><trkpt lat="40.6057583" lon="15.11483"><ele>104.0</ele><time>2026-04-18T06:50:19.962Z</time></trkpt><trkpt lat="40.6058783" lon="15.114865"><ele>104.0</ele><time>2026-04-18T06:50:20.962Z</time></trkpt><trkpt lat="40.6059867" lon="15.11492"><ele>104.0</ele><time>2026-04-18T06:50:21.962Z</time></trkpt><trkpt lat="40.60608" lon="15.1149817"><ele>104.80000000000001</ele><time>2026-04-18T06:50:22.962Z</time></trkpt><trkpt lat="40.6061683" lon="15.1150283"><ele>105.60000000000001</ele><time>2026-04-18T06:50:23.962Z</time></trkpt><trkpt lat="40.6062517" lon="15.1150533"><ele>106.4</ele><time>2026-04-18T06:50:24.962Z</time></trkpt><trkpt lat="40.606345" lon="15.1150667"><ele>107.2</ele><time>2026-04-18T06:50:25.962Z</time></trkpt><trkpt lat="40.60644" lon="15.115065"><ele>108.0</ele><time>2026-04-18T06:50:26.963Z</time></trkpt><trkpt lat="40.606545" lon="15.11506"><ele>108.0</ele><time>2026-04-18T06:50:27.962Z</time></trkpt><trkpt lat="40.6066483" lon="15.115045"><ele>108.00000000000001</ele><time>2026-04-18T06:50:28.962Z</time></trkpt><trkpt lat="40.606755" lon="15.11503"><ele>108.00000000000001</ele><time>2026-04-18T06:50:29.963Z</time></trkpt><trkpt lat="40.6068633" lon="15.1150117"><ele>108.0</ele><time>2026-04-18T06:50:30.962Z</time></trkpt><trkpt lat="40.6069733" lon="15.114995"><ele>108.0</ele><time>2026-04-18T06:50:31.962Z</time></trkpt><trkpt lat="40.607085" lon="15.1149783"><ele>108.5</ele><time>2026-04-18T06:50:32.962Z</time></trkpt><trkpt lat="40.6072083" lon="15.114955"><ele>109.0</ele><time>2026-04-18T06:50:33.962Z</time></trkpt><trkpt lat="40.6073333" lon="15.11494"><ele>109.5</ele><time>2026-04-18T06:50:34.963Z</time></trkpt><trkpt lat="40.6074583" lon="15.11492"><ele>110.0</ele><time>2026-04-18T06:50:35.962Z</time></trkpt><trkpt lat="40.6075883" lon="15.1149017"><ele>110.25</ele><time>2026-04-18T06:50:36.962Z</time></trkpt><trkpt lat="40.607715" lon="15.1148917"><ele>110.5</ele><time>2026-04-18T06:50:37.962Z</time></trkpt><trkpt lat="40.6078417" lon="15.114895"><ele>110.75</ele><time>2026-04-18T06:50:38.962Z</time></trkpt><trkpt lat="40.6079617" lon="15.1149067"><ele>111.0</ele><time>2026-04-18T06:50:39.962Z</time></trkpt><trkpt lat="40.608085" lon="15.1149183"><ele>111.0</ele><time>2026-04-18T06:50:40.962Z</time></trkpt><trkpt lat="40.6082017" lon="15.11493"><ele>111.0</ele><time>2026-04-18T06:50:41.962Z</time></trkpt><trkpt lat="40.608315" lon="15.1149483"><ele>111.0</ele><time>2026-04-18T06:50:42.962Z</time></trkpt><trkpt lat="40.6084333" lon="15.1149667"><ele>111.0</ele><time>2026-04-18T06:50:43.962Z</time></trkpt><trkpt lat="40.608555" lon="15.1149833"><ele>111.25</ele><time>2026-04-18T06:50:44.962Z</time></trkpt><trkpt lat="40.6086767" lon="15.1149983"><ele>111.5</ele><time>2026-04-18T06:50:45.962Z</time></trkpt><trkpt lat="40.608795" lon="15.1150183"><ele>111.75</ele><time>2026-04-18T06:50:46.962Z</time></trkpt><trkpt lat="40.608915" lon="15.1150367"><ele>112.0</ele><time>2026-04-18T06:50:47.962Z</time></trkpt><trkpt lat="40.6090433" lon="15.115055"><ele>112.0</ele><time>2026-04-18T06:50:48.962Z</time></trkpt><trkpt lat="40.6091717" lon="15.115075"><ele>112.0</ele><time>2026-04-18T06:50:49.962Z</time></trkpt><trkpt lat="40.6092967" lon="15.1150933"><ele>112.0</ele><time>2026-04-18T06:50:50.962Z</time></trkpt><trkpt lat="40.6094267" lon="15.115105"><ele>112.0</ele><time>2026-04-18T06:50:51.962Z</time></trkpt><trkpt lat="40.609555" lon="15.11512"><ele>112.25</ele><time>2026-04-18T06:50:52.962Z</time></trkpt><trkpt lat="40.6096817" lon="15.11514"><ele>112.5</ele><time>2026-04-18T06:50:53.962Z</time></trkpt><trkpt lat="40.6098083" lon="15.1151567"><ele>112.75</ele><time>2026-04-18T06:50:54.962Z</time></trkpt><trkpt lat="40.6099317" lon="15.1151683"><ele>113.0</ele><time>2026-04-18T06:50:55.962Z</time></trkpt><trkpt lat="40.6100567" lon="15.1151867"><ele>113.0</ele><time>2026-04-18T06:50:56.962Z</time></trkpt><trkpt lat="40.6101783" lon="15.115195"><ele>113.0</ele><time>2026-04-18T06:50:57.962Z</time></trkpt><trkpt lat="40.6103033" lon="15.1152067"><ele>113.0</ele><time>2026-04-18T06:50:58.962Z</time></trkpt><trkpt lat="40.6104283" lon="15.115225"><ele>113.0</ele><time>2026-04-18T06:50:59.963Z</time></trkpt><trkpt lat="40.6105533" lon="15.1152367"><ele>114.25</ele><time>2026-04-18T06:51:00.962Z</time></trkpt><trkpt lat="40.6106783" lon="15.11525"><ele>115.5</ele><time>2026-04-18T06:51:01.962Z</time></trkpt><trkpt lat="40.6108067" lon="15.1152633"><ele>116.75</ele><time>2026-04-18T06:51:02.962Z</time></trkpt><trkpt lat="40.6109333" lon="15.1152783"><ele>118.0</ele><time>2026-04-18T06:51:03.962Z</time></trkpt><trkpt lat="40.61105" lon="15.1152917"><ele>118.0</ele><time>2026-04-18T06:51:04.962Z</time></trkpt><trkpt lat="40.6111717" lon="15.11531"><ele>118.0</ele><time>2026-04-18T06:51:05.962Z</time></trkpt><trkpt lat="40.611295" lon="15.1153367"><ele>118.0</ele><time>2026-04-18T06:51:06.962Z</time></trkpt><trkpt lat="40.6114183" lon="15.115355"><ele>118.0</ele><time>2026-04-18T06:51:07.962Z</time></trkpt><trkpt lat="40.6115417" lon="15.1153783"><ele>118.0</ele><time>2026-04-18T06:51:08.962Z</time></trkpt><trkpt lat="40.6116683" lon="15.1154033"><ele>118.0</ele><time>2026-04-18T06:51:09.962Z</time></trkpt><trkpt lat="40.611795" lon="15.1154283"><ele>118.0</ele><time>2026-04-18T06:51:10.963Z</time></trkpt><trkpt lat="40.6119183" lon="15.1154483"><ele>118.0</ele><time>2026-04-18T06:51:11.962Z</time></trkpt><trkpt lat="40.6120433" lon="15.115475"><ele>118.25</ele><time>2026-04-18T06:51:12.962Z</time></trkpt><trkpt lat="40.6121717" lon="15.115495"><ele>118.5</ele><time>2026-04-18T06:51:13.962Z</time></trkpt><trkpt lat="40.6123033" lon="15.1155167"><ele>118.75</ele><time>2026-04-18T06:51:14.961Z</time></trkpt><trkpt lat="40.6124433" lon="15.1155367"><ele>119.0</ele><time>2026-04-18T06:51:15.961Z</time></trkpt><trkpt lat="40.612575" lon="15.1155567"><ele>119.0</ele><time>2026-04-18T06:51:16.961Z</time></trkpt><trkpt lat="40.6127033" lon="15.1155733"><ele>119.0</ele><time>2026-04-18T06:51:17.961Z</time></trkpt><trkpt lat="40.6128333" lon="15.115595"><ele>119.0</ele><time>2026-04-18T06:51:18.961Z</time></trkpt><trkpt lat="40.6129683" lon="15.1156217"><ele>119.0</ele><time>2026-04-18T06:51:19.961Z</time></trkpt><trkpt lat="40.6131067" lon="15.1156533"><ele>119.5</ele><time>2026-04-18T06:51:20.961Z</time></trkpt><trkpt lat="40.6132383" lon="15.1156767"><ele>120.0</ele><time>2026-04-18T06:51:21.961Z</time></trkpt><trkpt lat="40.6133667" lon="15.1157067"><ele>120.5</ele><time>2026-04-18T06:51:22.961Z</time></trkpt><trkpt lat="40.6134917" lon="15.11572"><ele>121.0</ele><time>2026-04-18T06:51:23.961Z</time></trkpt><trkpt lat="40.613605" lon="15.1157333"><ele>121.0</ele><time>2026-04-18T06:51:24.961Z</time></trkpt><trkpt lat="40.6137133" lon="15.115735"><ele>121.0</ele><time>2026-04-18T06:51:25.961Z</time></trkpt><trkpt lat="40.61381" lon="15.1157267"><ele>121.0</ele><time>2026-04-18T06:51:26.961Z</time></trkpt><trkpt lat="40.6138983" lon="15.1157183"><ele>121.0</ele><time>2026-04-18T06:51:27.961Z</time></trkpt><trkpt lat="40.61397" lon="15.1157033"><ele>121.0</ele><time>2026-04-18T06:51:28.961Z</time></trkpt><trkpt lat="40.6140817" lon="15.115735"><ele>121.00000000000001</ele><time>2026-04-18T06:51:30.961Z</time></trkpt><trkpt lat="40.61413" lon="15.1158767"><ele>121.0</ele><time>2026-04-18T06:51:32.961Z</time></trkpt><trkpt lat="40.6141533" lon="15.1159717"><ele>121.0</ele><time>2026-04-18T06:51:33.961Z</time></trkpt><trkpt lat="40.6141833" lon="15.1160717"><ele>121.0</ele><time>2026-04-18T06:51:34.961Z</time></trkpt><trkpt lat="40.614205" lon="15.11617"><ele>121.00000000000001</ele><time>2026-04-18T06:51:35.961Z</time></trkpt><trkpt lat="40.6142317" lon="15.11627"><ele>121.0</ele><time>2026-04-18T06:51:36.961Z</time></trkpt><trkpt lat="40.614265" lon="15.1163717"><ele>121.0</ele><time>2026-04-18T06:51:37.961Z</time></trkpt><trkpt lat="40.6143017" lon="15.11649"><ele>121.0</ele><time>2026-04-18T06:51:38.961Z</time></trkpt><trkpt lat="40.61435" lon="15.11662"><ele>121.0</ele><time>2026-04-18T06:51:39.961Z</time></trkpt><trkpt lat="40.6144017" lon="15.1167483"><ele>121.0</ele><time>2026-04-18T06:51:40.961Z</time></trkpt><trkpt lat="40.6144567" lon="15.11689"><ele>121.0</ele><time>2026-04-18T06:51:41.961Z</time></trkpt><trkpt lat="40.61452" lon="15.1170433"><ele>121.0</ele><time>2026-04-18T06:51:42.961Z</time></trkpt><trkpt lat="40.6145917" lon="15.117205"><ele>121.0</ele><time>2026-04-18T06:51:43.961Z</time></trkpt><trkpt lat="40.6146567" lon="15.117375"><ele>121.0</ele><time>2026-04-18T06:51:44.961Z</time></trkpt><trkpt lat="40.61472" lon="15.117535"><ele>121.0</ele><time>2026-04-18T06:51:45.961Z</time></trkpt><trkpt lat="40.61478" lon="15.1176967"><ele>121.0</ele><time>2026-04-18T06:51:46.961Z</time></trkpt><trkpt lat="40.6148317" lon="15.1178567"><ele>121.0</ele><time>2026-04-18T06:51:47.961Z</time></trkpt><trkpt lat="40.61488" lon="15.118025"><ele>121.0</ele><time>2026-04-18T06:51:48.961Z</time></trkpt><trkpt lat="40.6149183" lon="15.1182"><ele>121.0</ele><time>2026-04-18T06:51:49.961Z</time></trkpt><trkpt lat="40.614955" lon="15.1183867"><ele>121.25</ele><time>2026-04-18T06:51:50.962Z</time></trkpt><trkpt lat="40.6149833" lon="15.1185767"><ele>121.5</ele><time>2026-04-18T06:51:51.961Z</time></trkpt><trkpt lat="40.615005" lon="15.1187617"><ele>121.75</ele><time>2026-04-18T06:51:52.961Z</time></trkpt><trkpt lat="40.6150283" lon="15.1189367"><ele>122.0</ele><time>2026-04-18T06:51:53.961Z</time></trkpt><trkpt lat="40.615045" lon="15.119105"><ele>121.0</ele><time>2026-04-18T06:51:54.961Z</time></trkpt><trkpt lat="40.6150683" lon="15.1192633"><ele>120.0</ele><time>2026-04-18T06:51:55.961Z</time></trkpt><trkpt lat="40.6150967" lon="15.1194167"><ele>119.0</ele><time>2026-04-18T06:51:56.961Z</time></trkpt><trkpt lat="40.6151367" lon="15.1195733"><ele>118.0</ele><time>2026-04-18T06:51:57.961Z</time></trkpt><trkpt lat="40.6151817" lon="15.1197183"><ele>118.0</ele><time>2026-04-18T06:51:58.961Z</time></trkpt><trkpt lat="40.6152217" lon="15.1198633"><ele>118.0</ele><time>2026-04-18T06:51:59.961Z</time></trkpt><trkpt lat="40.6152683" lon="15.1200083"><ele>118.0</ele><time>2026-04-18T06:52:00.961Z</time></trkpt><trkpt lat="40.615305" lon="15.120165"><ele>118.0</ele><time>2026-04-18T06:52:01.961Z</time></trkpt><trkpt lat="40.6153383" lon="15.12032"><ele>119.0</ele><time>2026-04-18T06:52:02.961Z</time></trkpt><trkpt lat="40.615375" lon="15.12047"><ele>120.0</ele><time>2026-04-18T06:52:03.961Z</time></trkpt><trkpt lat="40.6154133" lon="15.1206317"><ele>121.0</ele><time>2026-04-18T06:52:04.961Z</time></trkpt><trkpt lat="40.6154433" lon="15.12079"><ele>122.0</ele><time>2026-04-18T06:52:05.961Z</time></trkpt><trkpt lat="40.6154717" lon="15.1209633"><ele>122.0</ele><time>2026-04-18T06:52:06.961Z</time></trkpt><trkpt lat="40.6154867" lon="15.121135"><ele>122.0</ele><time>2026-04-18T06:52:07.961Z</time></trkpt><trkpt lat="40.6155" lon="15.1213083"><ele>122.0</ele><time>2026-04-18T06:52:08.961Z</time></trkpt><trkpt lat="40.6155167" lon="15.1214767"><ele>122.0</ele><time>2026-04-18T06:52:09.961Z</time></trkpt><trkpt lat="40.61552" lon="15.1216383"><ele>119.5</ele><time>2026-04-18T06:52:10.961Z</time></trkpt><trkpt lat="40.6155267" lon="15.1218117"><ele>117.0</ele><time>2026-04-18T06:52:11.961Z</time></trkpt><trkpt lat="40.6155217" lon="15.1219867"><ele>114.5</ele><time>2026-04-18T06:52:12.961Z</time></trkpt><trkpt lat="40.6155033" lon="15.1221583"><ele>112.0</ele><time>2026-04-18T06:52:13.961Z</time></trkpt><trkpt lat="40.615475" lon="15.122325"><ele>111.75</ele><time>2026-04-18T06:52:14.961Z</time></trkpt><trkpt lat="40.61543" lon="15.1224917"><ele>111.5</ele><time>2026-04-18T06:52:15.961Z</time></trkpt><trkpt lat="40.6153767" lon="15.1226533"><ele>111.25</ele><time>2026-04-18T06:52:16.961Z</time></trkpt><trkpt lat="40.61531" lon="15.1228083"><ele>111.0</ele><time>2026-04-18T06:52:17.961Z</time></trkpt><trkpt lat="40.61524" lon="15.1229617"><ele>111.0</ele><time>2026-04-18T06:52:18.961Z</time></trkpt><trkpt lat="40.6151617" lon="15.1231083"><ele>111.0</ele><time>2026-04-18T06:52:19.961Z</time></trkpt><trkpt lat="40.615075" lon="15.1232417"><ele>111.0</ele><time>2026-04-18T06:52:20.961Z</time></trkpt><trkpt lat="40.61498" lon="15.1233667"><ele>111.0</ele><time>2026-04-18T06:52:21.961Z</time></trkpt><trkpt lat="40.6148733" lon="15.12349"><ele>107.0</ele><time>2026-04-18T06:52:22.961Z</time></trkpt><trkpt lat="40.61478" lon="15.12362"><ele>103.0</ele><time>2026-04-18T06:52:23.962Z</time></trkpt><trkpt lat="40.614685" lon="15.1237467"><ele>99.0</ele><time>2026-04-18T06:52:24.961Z</time></trkpt><trkpt lat="40.6145917" lon="15.12387"><ele>95.0</ele><time>2026-04-18T06:52:25.962Z</time></trkpt><trkpt lat="40.6144983" lon="15.1239833"><ele>93.75</ele><time>2026-04-18T06:52:26.961Z</time></trkpt><trkpt lat="40.6144083" lon="15.1240833"><ele>92.5</ele><time>2026-04-18T06:52:27.961Z</time></trkpt><trkpt lat="40.61431" lon="15.1241667"><ele>91.25</ele><time>2026-04-18T06:52:28.961Z</time></trkpt><trkpt lat="40.6141967" lon="15.1242367"><ele>90.0</ele><time>2026-04-18T06:52:29.961Z</time></trkpt><trkpt lat="40.6140833" lon="15.124305"><ele>90.0</ele><time>2026-04-18T06:52:30.961Z</time></trkpt><trkpt lat="40.613965" lon="15.1243717"><ele>90.0</ele><time>2026-04-18T06:52:31.961Z</time></trkpt><trkpt lat="40.6138517" lon="15.1244433"><ele>90.0</ele><time>2026-04-18T06:52:32.961Z</time></trkpt><trkpt lat="40.6137417" lon="15.124535"><ele>90.0</ele><time>2026-04-18T06:52:33.961Z</time></trkpt><trkpt lat="40.6136433" lon="15.1246483"><ele>88.75</ele><time>2026-04-18T06:52:34.961Z</time></trkpt><trkpt lat="40.6135483" lon="15.1247633"><ele>87.5</ele><time>2026-04-18T06:52:35.961Z</time></trkpt><trkpt lat="40.6134483" lon="15.124885"><ele>86.25</ele><time>2026-04-18T06:52:36.962Z</time></trkpt><trkpt lat="40.6133383" lon="15.1250067"><ele>85.0</ele><time>2026-04-18T06:52:37.961Z</time></trkpt><trkpt lat="40.6132267" lon="15.1251317"><ele>85.0</ele><time>2026-04-18T06:52:38.961Z</time></trkpt><trkpt lat="40.6131233" lon="15.125265"><ele>85.0</ele><time>2026-04-18T06:52:39.961Z</time></trkpt><trkpt lat="40.61302" lon="15.125395"><ele>85.0</ele><time>2026-04-18T06:52:40.961Z</time></trkpt><trkpt lat="40.6129133" lon="15.1255183"><ele>85.0</ele><time>2026-04-18T06:52:41.961Z</time></trkpt><trkpt lat="40.6128033" lon="15.1256383"><ele>83.25</ele><time>2026-04-18T06:52:42.961Z</time></trkpt><trkpt lat="40.61269" lon="15.1257567"><ele>81.5</ele><time>2026-04-18T06:52:43.961Z</time></trkpt><trkpt lat="40.6125617" lon="15.1258467"><ele>79.75</ele><time>2026-04-18T06:52:44.961Z</time></trkpt><trkpt lat="40.6124283" lon="15.1259133"><ele>78.0</ele><time>2026-04-18T06:52:45.961Z</time></trkpt><trkpt lat="40.6122767" lon="15.1259617"><ele>78.0</ele><time>2026-04-18T06:52:46.961Z</time></trkpt><trkpt lat="40.6121267" lon="15.1260083"><ele>78.0</ele><time>2026-04-18T06:52:47.961Z</time></trkpt><trkpt lat="40.6119817" lon="15.12606"><ele>78.0</ele><time>2026-04-18T06:52:48.961Z</time></trkpt><trkpt lat="40.6118417" lon="15.126135"><ele>80.0</ele><time>2026-04-18T06:52:49.962Z</time></trkpt><trkpt lat="40.6117133" lon="15.1262383"><ele>82.0</ele><time>2026-04-18T06:52:50.962Z</time></trkpt><trkpt lat="40.61159" lon="15.1263533"><ele>84.0</ele><time>2026-04-18T06:52:51.961Z</time></trkpt><trkpt lat="40.61147" lon="15.1264567"><ele>86.0</ele><time>2026-04-18T06:52:52.961Z</time></trkpt><trkpt lat="40.611345" lon="15.126545"><ele>82.25</ele><time>2026-04-18T06:52:53.961Z</time></trkpt><trkpt lat="40.611215" lon="15.12663"><ele>78.5</ele><time>2026-04-18T06:52:54.961Z</time></trkpt><trkpt lat="40.6110867" lon="15.12671"><ele>74.75</ele><time>2026-04-18T06:52:55.961Z</time></trkpt><trkpt lat="40.610965" lon="15.1267733"><ele>71.0</ele><time>2026-04-18T06:52:56.961Z</time></trkpt><trkpt lat="40.61085" lon="15.1268317"><ele>71.0</ele><time>2026-04-18T06:52:57.961Z</time></trkpt><trkpt lat="40.6107367" lon="15.1268917"><ele>71.0</ele><time>2026-04-18T06:52:58.961Z</time></trkpt><trkpt lat="40.61063" lon="15.1269517"><ele>71.0</ele><time>2026-04-18T06:52:59.961Z</time></trkpt><trkpt lat="40.6105233" lon="15.1270167"><ele>71.0</ele><time>2026-04-18T06:53:00.961Z</time></trkpt><trkpt lat="40.6104117" lon="15.12708"><ele>69.0</ele><time>2026-04-18T06:53:01.961Z</time></trkpt><trkpt lat="40.610305" lon="15.1271633"><ele>67.0</ele><time>2026-04-18T06:53:02.962Z</time></trkpt><trkpt lat="40.6102067" lon="15.1272533"><ele>65.0</ele><time>2026-04-18T06:53:03.961Z</time></trkpt><trkpt lat="40.6101017" lon="15.1273517"><ele>63.0</ele><time>2026-04-18T06:53:04.961Z</time></trkpt><trkpt lat="40.6100167" lon="15.1274517"><ele>63.0</ele><time>2026-04-18T06:53:05.961Z</time></trkpt><trkpt lat="40.6099433" lon="15.1275667"><ele>63.0</ele><time>2026-04-18T06:53:06.962Z</time></trkpt><trkpt lat="40.6098817" lon="15.12769"><ele>63.0</ele><time>2026-04-18T06:53:07.961Z</time></trkpt><trkpt lat="40.6098233" lon="15.1278083"><ele>63.0</ele><time>2026-04-18T06:53:08.961Z</time></trkpt><trkpt lat="40.6097683" lon="15.1279383"><ele>63.0</ele><time>2026-04-18T06:53:09.962Z</time></trkpt><trkpt lat="40.60972" lon="15.1280767"><ele>63.0</ele><time>2026-04-18T06:53:10.961Z</time></trkpt><trkpt lat="40.60967" lon="15.1282167"><ele>63.0</ele><time>2026-04-18T06:53:11.961Z</time></trkpt><trkpt lat="40.6096217" lon="15.1283617"><ele>63.0</ele><time>2026-04-18T06:53:12.962Z</time></trkpt><trkpt lat="40.6095867" lon="15.128505"><ele>63.0</ele><time>2026-04-18T06:53:13.961Z</time></trkpt><trkpt lat="40.6095567" lon="15.12865"><ele>62.0</ele><time>2026-04-18T06:53:14.961Z</time></trkpt><trkpt lat="40.6095267" lon="15.1287983"><ele>61.0</ele><time>2026-04-18T06:53:15.961Z</time></trkpt><trkpt lat="40.6095" lon="15.1289383"><ele>60.0</ele><time>2026-04-18T06:53:16.961Z</time></trkpt><trkpt lat="40.6094733" lon="15.1290733"><ele>59.0</ele><time>2026-04-18T06:53:17.962Z</time></trkpt><trkpt lat="40.60946" lon="15.1292083"><ele>58.0</ele><time>2026-04-18T06:53:18.961Z</time></trkpt><trkpt lat="40.60946" lon="15.129345"><ele>57.99999999999999</ele><time>2026-04-18T06:53:19.961Z</time></trkpt><trkpt lat="40.6094783" lon="15.1294683"><ele>58.0</ele><time>2026-04-18T06:53:20.961Z</time></trkpt><trkpt lat="40.609515" lon="15.129585"><ele>58.0</ele><time>2026-04-18T06:53:21.961Z</time></trkpt><trkpt lat="40.60956" lon="15.1296833"><ele>58.0</ele><time>2026-04-18T06:53:22.961Z</time></trkpt><trkpt lat="40.6096033" lon="15.1297617"><ele>57.99999999999999</ele><time>2026-04-18T06:53:23.962Z</time></trkpt><trkpt lat="40.6096383" lon="15.1298483"><ele>58.0</ele><time>2026-04-18T06:53:24.961Z</time></trkpt><trkpt lat="40.609655" lon="15.12995"><ele>57.83333333333333</ele><time>2026-04-18T06:53:25.961Z</time></trkpt><trkpt lat="40.6096517" lon="15.130055"><ele>57.666666666666664</ele><time>2026-04-18T06:53:26.961Z</time></trkpt><trkpt lat="40.60962" lon="15.1301483"><ele>57.5</ele><time>2026-04-18T06:53:27.961Z</time></trkpt><trkpt lat="40.6095683" lon="15.1302167"><ele>57.33333333333333</ele><time>2026-04-18T06:53:28.961Z</time></trkpt><trkpt lat="40.6095033" lon="15.130265"><ele>57.166666666666664</ele><time>2026-04-18T06:53:29.961Z</time></trkpt><trkpt lat="40.6094167" lon="15.1302867"><ele>57.0</ele><time>2026-04-18T06:53:30.961Z</time></trkpt><trkpt lat="40.60932" lon="15.1302867"><ele>57.0</ele><time>2026-04-18T06:53:31.962Z</time></trkpt><trkpt lat="40.60922" lon="15.1302817"><ele>57.0</ele><time>2026-04-18T06:53:32.961Z</time></trkpt><trkpt lat="40.6091233" lon="15.1302767"><ele>57.0</ele><time>2026-04-18T06:53:33.961Z</time></trkpt><trkpt lat="40.60902" lon="15.1302783"><ele>57.0</ele><time>2026-04-18T06:53:34.961Z</time></trkpt><trkpt lat="40.608875" lon="15.13028"><ele>57.0</ele><time>2026-04-18T06:53:35.961Z</time></trkpt><trkpt lat="40.60869" lon="15.1303033"><ele>56.75</ele><time>2026-04-18T06:53:36.961Z</time></trkpt><trkpt lat="40.6085117" lon="15.130305"><ele>56.5</ele><time>2026-04-18T06:53:37.961Z</time></trkpt><trkpt lat="40.60838" lon="15.1303033"><ele>56.25</ele><time>2026-04-18T06:53:38.961Z</time></trkpt><trkpt lat="40.608275" lon="15.13031"><ele>56.0</ele><time>2026-04-18T06:53:39.962Z</time></trkpt><trkpt lat="40.6081817" lon="15.130315"><ele>56.00000000000001</ele><time>2026-04-18T06:53:40.961Z</time></trkpt><trkpt lat="40.6081017" lon="15.1303217"><ele>56.0</ele><time>2026-04-18T06:53:41.962Z</time></trkpt><trkpt lat="40.6080367" lon="15.1303317"><ele>56.0</ele><time>2026-04-18T06:53:42.961Z</time></trkpt><trkpt lat="40.6079217" lon="15.1303967"><ele>56.0</ele><time>2026-04-18T06:53:44.961Z</time></trkpt><trkpt lat="40.6078667" lon="15.1304533"><ele>56.00000000000001</ele><time>2026-04-18T06:53:45.961Z</time></trkpt><trkpt lat="40.6078133" lon="15.1305167"><ele>56.0</ele><time>2026-04-18T06:53:46.961Z</time></trkpt><trkpt lat="40.60776" lon="15.1305817"><ele>55.57142857142857</ele><time>2026-04-18T06:53:47.961Z</time></trkpt><trkpt lat="40.607715" lon="15.1306433"><ele>55.14285714285714</ele><time>2026-04-18T06:53:48.961Z</time></trkpt><trkpt lat="40.607675" lon="15.13071"><ele>54.714285714285715</ele><time>2026-04-18T06:53:49.961Z</time></trkpt><trkpt lat="40.6076433" lon="15.1307817"><ele>54.285714285714285</ele><time>2026-04-18T06:53:50.961Z</time></trkpt><trkpt lat="40.6076267" lon="15.1308683"><ele>53.857142857142854</ele><time>2026-04-18T06:53:51.961Z</time></trkpt><trkpt lat="40.6076167" lon="15.1309617"><ele>53.42857142857143</ele><time>2026-04-18T06:53:52.961Z</time></trkpt><trkpt lat="40.6076083" lon="15.1310617"><ele>53.0</ele><time>2026-04-18T06:53:53.961Z</time></trkpt><trkpt lat="40.6075967" lon="15.1311633"><ele>54.66666666666667</ele><time>2026-04-18T06:53:54.961Z</time></trkpt><trkpt lat="40.6075767" lon="15.1312667"><ele>56.333333333333336</ele><time>2026-04-18T06:53:55.961Z</time></trkpt><trkpt lat="40.6075417" lon="15.131365"><ele>58.0</ele><time>2026-04-18T06:53:56.961Z</time></trkpt><trkpt lat="40.6074933" lon="15.1314517"><ele>59.66666666666667</ele><time>2026-04-18T06:53:57.961Z</time></trkpt><trkpt lat="40.6074367" lon="15.1315283"><ele>61.333333333333336</ele><time>2026-04-18T06:53:58.961Z</time></trkpt><trkpt lat="40.6073667" lon="15.1316"><ele>63.0</ele><time>2026-04-18T06:53:59.961Z</time></trkpt><trkpt lat="40.6073033" lon="15.1316667"><ele>63.166666666666664</ele><time>2026-04-18T06:54:00.961Z</time></trkpt><trkpt lat="40.6072417" lon="15.1317317"><ele>63.33333333333333</ele><time>2026-04-18T06:54:01.961Z</time></trkpt><trkpt lat="40.607185" lon="15.1317933"><ele>63.5</ele><time>2026-04-18T06:54:02.961Z</time></trkpt><trkpt lat="40.6071267" lon="15.1318533"><ele>63.666666666666664</ele><time>2026-04-18T06:54:03.961Z</time></trkpt><trkpt lat="40.60708" lon="15.13191"><ele>63.83333333333333</ele><time>2026-04-18T06:54:04.961Z</time></trkpt><trkpt lat="40.60703" lon="15.1319633"><ele>64.0</ele><time>2026-04-18T06:54:05.961Z</time></trkpt><trkpt lat="40.6069517" lon="15.1320667"><ele>64.0</ele><time>2026-04-18T06:54:07.961Z</time></trkpt><trkpt lat="40.606925" lon="15.132175"><ele>64.0</ele><time>2026-04-18T06:54:09.962Z</time></trkpt><trkpt lat="40.60696" lon="15.1323083"><ele>64.0</ele><time>2026-04-18T06:54:11.961Z</time></trkpt><trkpt lat="40.6070467" lon="15.1323833"><ele>64.0</ele><time>2026-04-18T06:54:13.962Z</time></trkpt><trkpt lat="40.6071683" lon="15.1323933"><ele>64.0</ele><time>2026-04-18T06:54:15.961Z</time></trkpt><trkpt lat="40.607245" lon="15.1323733"><ele>66.4</ele><time>2026-04-18T06:54:16.961Z</time></trkpt><trkpt lat="40.6073267" lon="15.13234"><ele>68.80000000000001</ele><time>2026-04-18T06:54:17.961Z</time></trkpt><trkpt lat="40.60741" lon="15.13231"><ele>71.19999999999999</ele><time>2026-04-18T06:54:18.961Z</time></trkpt><trkpt lat="40.6075017" lon="15.13228"><ele>73.6</ele><time>2026-04-18T06:54:19.961Z</time></trkpt><trkpt lat="40.6075917" lon="15.1322417"><ele>76.0</ele><time>2026-04-18T06:54:20.961Z</time></trkpt><trkpt lat="40.60768" lon="15.1322083"><ele>76.0</ele><time>2026-04-18T06:54:21.961Z</time></trkpt><trkpt lat="40.6077667" lon="15.13219"><ele>76.0</ele><time>2026-04-18T06:54:22.961Z</time></trkpt><trkpt lat="40.60785" lon="15.1321883"><ele>76.0</ele><time>2026-04-18T06:54:23.962Z</time></trkpt><trkpt lat="40.6079283" lon="15.1321933"><ele>76.0</ele><time>2026-04-18T06:54:24.961Z</time></trkpt><trkpt lat="40.6080033" lon="15.132195"><ele>76.0</ele><time>2026-04-18T06:54:25.961Z</time></trkpt><trkpt lat="40.6080733" lon="15.1322017"><ele>76.0</ele><time>2026-04-18T06:54:26.961Z</time></trkpt><trkpt lat="40.6081417" lon="15.1322083"><ele>77.16666666666666</ele><time>2026-04-18T06:54:27.961Z</time></trkpt><trkpt lat="40.6082133" lon="15.1322133"><ele>78.33333333333333</ele><time>2026-04-18T06:54:28.961Z</time></trkpt><trkpt lat="40.608285" lon="15.1322417"><ele>79.5</ele><time>2026-04-18T06:54:29.961Z</time></trkpt><trkpt lat="40.608355" lon="15.1322883"><ele>80.66666666666667</ele><time>2026-04-18T06:54:30.961Z</time></trkpt><trkpt lat="40.6084117" lon="15.1323517"><ele>81.83333333333334</ele><time>2026-04-18T06:54:31.961Z</time></trkpt><trkpt lat="40.60846" lon="15.1324333"><ele>83.0</ele><time>2026-04-18T06:54:32.961Z</time></trkpt><trkpt lat="40.6084967" lon="15.132535"><ele>85.33333333333334</ele><time>2026-04-18T06:54:33.961Z</time></trkpt><trkpt lat="40.6085267" lon="15.132645"><ele>87.66666666666667</ele><time>2026-04-18T06:54:34.961Z</time></trkpt><trkpt lat="40.6085633" lon="15.132755"><ele>90.0</ele><time>2026-04-18T06:54:35.961Z</time></trkpt><trkpt lat="40.6085933" lon="15.1328617"><ele>92.33333333333334</ele><time>2026-04-18T06:54:36.961Z</time></trkpt><trkpt lat="40.608625" lon="15.1329733"><ele>94.66666666666667</ele><time>2026-04-18T06:54:37.961Z</time></trkpt><trkpt lat="40.6086567" lon="15.1330817"><ele>97.0</ele><time>2026-04-18T06:54:38.961Z</time></trkpt><trkpt lat="40.60869" lon="15.13319"><ele>97.00000000000001</ele><time>2026-04-18T06:54:39.961Z</time></trkpt><trkpt lat="40.60872" lon="15.1332983"><ele>97.0</ele><time>2026-04-18T06:54:40.961Z</time></trkpt><trkpt lat="40.608765" lon="15.1333983"><ele>97.0</ele><time>2026-04-18T06:54:41.961Z</time></trkpt><trkpt lat="40.608825" lon="15.1334883"><ele>97.0</ele><time>2026-04-18T06:54:42.961Z</time></trkpt><trkpt lat="40.6088867" lon="15.1335633"><ele>97.00000000000001</ele><time>2026-04-18T06:54:43.962Z</time></trkpt><trkpt lat="40.60896" lon="15.13362"><ele>97.0</ele><time>2026-04-18T06:54:44.961Z</time></trkpt><trkpt lat="40.6090417" lon="15.1336667"><ele>97.0</ele><time>2026-04-18T06:54:45.961Z</time></trkpt><trkpt lat="40.6091267" lon="15.1337067"><ele>97.0</ele><time>2026-04-18T06:54:46.961Z</time></trkpt><trkpt lat="40.6092183" lon="15.13374"><ele>97.0</ele><time>2026-04-18T06:54:47.961Z</time></trkpt><trkpt lat="40.6093117" lon="15.1337817"><ele>97.0</ele><time>2026-04-18T06:54:48.961Z</time></trkpt><trkpt lat="40.6094117" lon="15.1338133"><ele>97.0</ele><time>2026-04-18T06:54:49.961Z</time></trkpt><trkpt lat="40.6095083" lon="15.13385"><ele>97.8</ele><time>2026-04-18T06:54:50.961Z</time></trkpt><trkpt lat="40.6096067" lon="15.1338717"><ele>98.6</ele><time>2026-04-18T06:54:51.961Z</time></trkpt><trkpt lat="40.6097033" lon="15.1338883"><ele>99.39999999999999</ele><time>2026-04-18T06:54:52.961Z</time></trkpt><trkpt lat="40.6097967" lon="15.133895"><ele>100.19999999999999</ele><time>2026-04-18T06:54:53.962Z</time></trkpt><trkpt lat="40.6098933" lon="15.133895"><ele>101.0</ele><time>2026-04-18T06:54:54.961Z</time></trkpt><trkpt lat="40.60999" lon="15.1338983"><ele>101.0</ele><time>2026-04-18T06:54:55.961Z</time></trkpt><trkpt lat="40.6100933" lon="15.1339017"><ele>101.0</ele><time>2026-04-18T06:54:56.961Z</time></trkpt><trkpt lat="40.6101983" lon="15.1339167"><ele>101.0</ele><time>2026-04-18T06:54:57.961Z</time></trkpt><trkpt lat="40.610295" lon="15.1339483"><ele>101.0</ele><time>2026-04-18T06:54:58.961Z</time></trkpt><trkpt lat="40.610385" lon="15.1339983"><ele>101.0</ele><time>2026-04-18T06:54:59.961Z</time></trkpt><trkpt lat="40.6104683" lon="15.13406"><ele>99.6</ele><time>2026-04-18T06:55:00.961Z</time></trkpt><trkpt lat="40.6105433" lon="15.134145"><ele>98.19999999999999</ele><time>2026-04-18T06:55:01.961Z</time></trkpt><trkpt lat="40.6106067" lon="15.134245"><ele>96.80000000000001</ele><time>2026-04-18T06:55:02.961Z</time></trkpt><trkpt lat="40.6106617" lon="15.13434"><ele>95.4</ele><time>2026-04-18T06:55:03.961Z</time></trkpt><trkpt lat="40.6107133" lon="15.13444"><ele>94.0</ele><time>2026-04-18T06:55:04.961Z</time></trkpt><trkpt lat="40.61076" lon="15.1345517"><ele>94.0</ele><time>2026-04-18T06:55:05.961Z</time></trkpt><trkpt lat="40.610805" lon="15.1346617"><ele>94.0</ele><time>2026-04-18T06:55:06.961Z</time></trkpt><trkpt lat="40.6108483" lon="15.13477"><ele>94.0</ele><time>2026-04-18T06:55:07.961Z</time></trkpt><trkpt lat="40.6109067" lon="15.1348733"><ele>94.0</ele><time>2026-04-18T06:55:08.961Z</time></trkpt><trkpt lat="40.610975" lon="15.1349567"><ele>94.0</ele><time>2026-04-18T06:55:09.961Z</time></trkpt><trkpt lat="40.6110467" lon="15.13503"><ele>92.16666666666666</ele><time>2026-04-18T06:55:10.961Z</time></trkpt><trkpt lat="40.61111" lon="15.1350933"><ele>90.33333333333333</ele><time>2026-04-18T06:55:11.961Z</time></trkpt><trkpt lat="40.61117" lon="15.1351533"><ele>88.5</ele><time>2026-04-18T06:55:12.962Z</time></trkpt><trkpt lat="40.6112283" lon="15.135225"><ele>86.66666666666667</ele><time>2026-04-18T06:55:13.962Z</time></trkpt><trkpt lat="40.6112717" lon="15.135315"><ele>84.83333333333334</ele><time>2026-04-18T06:55:14.961Z</time></trkpt><trkpt lat="40.6112983" lon="15.1354167"><ele>83.0</ele><time>2026-04-18T06:55:15.961Z</time></trkpt><trkpt lat="40.6113167" lon="15.1355317"><ele>82.66666666666667</ele><time>2026-04-18T06:55:16.962Z</time></trkpt><trkpt lat="40.6113517" lon="15.1356533"><ele>82.33333333333334</ele><time>2026-04-18T06:55:17.961Z</time></trkpt><trkpt lat="40.611395" lon="15.1357717"><ele>82.0</ele><time>2026-04-18T06:55:18.961Z</time></trkpt><trkpt lat="40.611435" lon="15.13587"><ele>81.66666666666667</ele><time>2026-04-18T06:55:19.962Z</time></trkpt><trkpt lat="40.6114617" lon="15.1359533"><ele>81.33333333333333</ele><time>2026-04-18T06:55:20.961Z</time></trkpt><trkpt lat="40.6114983" lon="15.136065"><ele>81.0</ele><time>2026-04-18T06:55:22.961Z</time></trkpt><trkpt lat="40.61155" lon="15.1361833"><ele>80.0</ele><time>2026-04-18T06:55:30.961Z</time></trkpt><trkpt lat="40.611585" lon="15.13628"><ele>79.0</ele><time>2026-04-18T06:55:32.961Z</time></trkpt><trkpt lat="40.611645" lon="15.1364117"><ele>78.0</ele><time>2026-04-18T06:55:34.961Z</time></trkpt><trkpt lat="40.61168" lon="15.1364867"><ele>77.0</ele><time>2026-04-18T06:55:35.961Z</time></trkpt><trkpt lat="40.6117067" lon="15.13658"><ele>76.0</ele><time>2026-04-18T06:55:36.961Z</time></trkpt><trkpt lat="40.611735" lon="15.1366817"><ele>75.0</ele><time>2026-04-18T06:55:37.961Z</time></trkpt><trkpt lat="40.6117583" lon="15.1367767"><ele>74.0</ele><time>2026-04-18T06:55:38.961Z</time></trkpt><trkpt lat="40.6117867" lon="15.136875"><ele>73.0</ele><time>2026-04-18T06:55:39.961Z</time></trkpt><trkpt lat="40.6118083" lon="15.1369833"><ele>72.0</ele><time>2026-04-18T06:55:40.961Z</time></trkpt><trkpt lat="40.6118333" lon="15.1371"><ele>71.0</ele><time>2026-04-18T06:55:41.961Z</time></trkpt><trkpt lat="40.6118633" lon="15.1372167"><ele>70.0</ele><time>2026-04-18T06:55:42.961Z</time></trkpt><trkpt lat="40.6118983" lon="15.1373267"><ele>69.0</ele><time>2026-04-18T06:55:43.961Z</time></trkpt><trkpt lat="40.6119317" lon="15.1374317"><ele>68.60000000000001</ele><time>2026-04-18T06:55:44.961Z</time></trkpt><trkpt lat="40.611975" lon="15.13754"><ele>68.2</ele><time>2026-04-18T06:55:45.961Z</time></trkpt><trkpt lat="40.61202" lon="15.1376533"><ele>67.80000000000001</ele><time>2026-04-18T06:55:46.961Z</time></trkpt><trkpt lat="40.612075" lon="15.1377783"><ele>67.4</ele><time>2026-04-18T06:55:47.961Z</time></trkpt><trkpt lat="40.612135" lon="15.1379083"><ele>67.0</ele><time>2026-04-18T06:55:48.961Z</time></trkpt><trkpt lat="40.6121933" lon="15.1380483"><ele>69.25</ele><time>2026-04-18T06:55:49.962Z</time></trkpt><trkpt lat="40.6122433" lon="15.138195"><ele>71.5</ele><time>2026-04-18T06:55:50.962Z</time></trkpt><trkpt lat="40.6123" lon="15.13834"><ele>73.75</ele><time>2026-04-18T06:55:51.962Z</time></trkpt><trkpt lat="40.6123633" lon="15.1384833"><ele>76.0</ele><time>2026-04-18T06:55:52.961Z</time></trkpt><trkpt lat="40.61243" lon="15.13862"><ele>76.0</ele><time>2026-04-18T06:55:53.961Z</time></trkpt><trkpt lat="40.6124917" lon="15.1387583"><ele>76.0</ele><time>2026-04-18T06:55:54.961Z</time></trkpt><trkpt lat="40.61255" lon="15.138895"><ele>76.0</ele><time>2026-04-18T06:55:55.961Z</time></trkpt><trkpt lat="40.6126117" lon="15.13903"><ele>76.0</ele><time>2026-04-18T06:55:56.961Z</time></trkpt><trkpt lat="40.612675" lon="15.1391683"><ele>75.2</ele><time>2026-04-18T06:55:57.961Z</time></trkpt><trkpt lat="40.6127417" lon="15.1393033"><ele>74.39999999999999</ele><time>2026-04-18T06:55:58.961Z</time></trkpt><trkpt lat="40.6128" lon="15.1394283"><ele>73.6</ele><time>2026-04-18T06:55:59.961Z</time></trkpt><trkpt lat="40.61285" lon="15.139555"><ele>72.8</ele><time>2026-04-18T06:56:00.961Z</time></trkpt><trkpt lat="40.612895" lon="15.1396717"><ele>72.0</ele><time>2026-04-18T06:56:01.961Z</time></trkpt><trkpt lat="40.6129383" lon="15.1397817"><ele>74.0</ele><time>2026-04-18T06:56:02.961Z</time></trkpt><trkpt lat="40.61299" lon="15.1398983"><ele>76.0</ele><time>2026-04-18T06:56:03.961Z</time></trkpt><trkpt lat="40.6130367" lon="15.14002"><ele>78.0</ele><time>2026-04-18T06:56:04.961Z</time></trkpt><trkpt lat="40.613085" lon="15.1401417"><ele>80.0</ele><time>2026-04-18T06:56:05.961Z</time></trkpt><trkpt lat="40.6131333" lon="15.14026"><ele>82.0</ele><time>2026-04-18T06:56:06.961Z</time></trkpt><trkpt lat="40.6131767" lon="15.1403817"><ele>82.0</ele><time>2026-04-18T06:56:07.961Z</time></trkpt><trkpt lat="40.6132217" lon="15.1405067"><ele>82.0</ele><time>2026-04-18T06:56:08.961Z</time></trkpt><trkpt lat="40.613255" lon="15.14064"><ele>82.0</ele><time>2026-04-18T06:56:09.961Z</time></trkpt><trkpt lat="40.6132817" lon="15.14079"><ele>82.0</ele><time>2026-04-18T06:56:10.961Z</time></trkpt><trkpt lat="40.613315" lon="15.1409417"><ele>82.0</ele><time>2026-04-18T06:56:11.961Z</time></trkpt><trkpt lat="40.6133533" lon="15.141095"><ele>80.25</ele><time>2026-04-18T06:56:12.961Z</time></trkpt><trkpt lat="40.6133867" lon="15.1412617"><ele>78.5</ele><time>2026-04-18T06:56:13.961Z</time></trkpt><trkpt lat="40.61342" lon="15.1414333"><ele>76.75</ele><time>2026-04-18T06:56:14.961Z</time></trkpt><trkpt lat="40.613455" lon="15.1416067"><ele>75.0</ele><time>2026-04-18T06:56:15.961Z</time></trkpt><trkpt lat="40.6135017" lon="15.14178"><ele>74.5</ele><time>2026-04-18T06:56:16.961Z</time></trkpt><trkpt lat="40.613545" lon="15.1419667"><ele>74.0</ele><time>2026-04-18T06:56:17.961Z</time></trkpt><trkpt lat="40.6135833" lon="15.1421533"><ele>73.5</ele><time>2026-04-18T06:56:18.961Z</time></trkpt><trkpt lat="40.6136167" lon="15.1423433"><ele>73.0</ele><time>2026-04-18T06:56:19.961Z</time></trkpt><trkpt lat="40.61366" lon="15.1425317"><ele>73.0</ele><time>2026-04-18T06:56:20.961Z</time></trkpt><trkpt lat="40.6137" lon="15.1427183"><ele>73.0</ele><time>2026-04-18T06:56:21.961Z</time></trkpt><trkpt lat="40.6137367" lon="15.1429"><ele>73.0</ele><time>2026-04-18T06:56:22.961Z</time></trkpt><trkpt lat="40.6137733" lon="15.1430817"><ele>73.0</ele><time>2026-04-18T06:56:23.961Z</time></trkpt><trkpt lat="40.6138067" lon="15.1432517"><ele>72.5</ele><time>2026-04-18T06:56:24.961Z</time></trkpt><trkpt lat="40.6138333" lon="15.143415"><ele>72.0</ele><time>2026-04-18T06:56:25.961Z</time></trkpt><trkpt lat="40.6138667" lon="15.143565"><ele>71.5</ele><time>2026-04-18T06:56:26.961Z</time></trkpt><trkpt lat="40.613895" lon="15.1437133"><ele>71.0</ele><time>2026-04-18T06:56:27.961Z</time></trkpt><trkpt lat="40.6139283" lon="15.1438617"><ele>71.0</ele><time>2026-04-18T06:56:28.96Z</time></trkpt><trkpt lat="40.6139517" lon="15.14401"><ele>71.0</ele><time>2026-04-18T06:56:29.96Z</time></trkpt><trkpt lat="40.6139733" lon="15.1441483"><ele>71.0</ele><time>2026-04-18T06:56:30.96Z</time></trkpt><trkpt lat="40.61399" lon="15.1442867"><ele>71.0</ele><time>2026-04-18T06:56:31.96Z</time></trkpt><trkpt lat="40.6139917" lon="15.1444333"><ele>71.0</ele><time>2026-04-18T06:56:32.961Z</time></trkpt><trkpt lat="40.6139833" lon="15.1445867"><ele>70.0</ele><time>2026-04-18T06:56:33.96Z</time></trkpt><trkpt lat="40.6139633" lon="15.144745"><ele>69.0</ele><time>2026-04-18T06:56:34.96Z</time></trkpt><trkpt lat="40.6139483" lon="15.144915"><ele>68.0</ele><time>2026-04-18T06:56:35.96Z</time></trkpt><trkpt lat="40.6139333" lon="15.1450817"><ele>67.0</ele><time>2026-04-18T06:56:36.96Z</time></trkpt><trkpt lat="40.6139033" lon="15.1452567"><ele>67.0</ele><time>2026-04-18T06:56:37.96Z</time></trkpt><trkpt lat="40.6138867" lon="15.1454283"><ele>67.0</ele><time>2026-04-18T06:56:38.96Z</time></trkpt><trkpt lat="40.613865" lon="15.1456033"><ele>67.0</ele><time>2026-04-18T06:56:39.96Z</time></trkpt><trkpt lat="40.6138517" lon="15.14577"><ele>67.0</ele><time>2026-04-18T06:56:40.96Z</time></trkpt><trkpt lat="40.61384" lon="15.1459367"><ele>67.75</ele><time>2026-04-18T06:56:41.96Z</time></trkpt><trkpt lat="40.61383" lon="15.1461017"><ele>68.5</ele><time>2026-04-18T06:56:42.96Z</time></trkpt><trkpt lat="40.6138133" lon="15.1462667"><ele>69.25</ele><time>2026-04-18T06:56:43.96Z</time></trkpt><trkpt lat="40.613795" lon="15.1464233"><ele>70.0</ele><time>2026-04-18T06:56:44.96Z</time></trkpt><trkpt lat="40.6137767" lon="15.1465783"><ele>71.5</ele><time>2026-04-18T06:56:45.96Z</time></trkpt><trkpt lat="40.6137617" lon="15.14674"><ele>73.0</ele><time>2026-04-18T06:56:46.96Z</time></trkpt><trkpt lat="40.6137483" lon="15.146905"><ele>74.5</ele><time>2026-04-18T06:56:47.961Z</time></trkpt><trkpt lat="40.6137317" lon="15.1470767"><ele>76.0</ele><time>2026-04-18T06:56:48.96Z</time></trkpt><trkpt lat="40.6137117" lon="15.1472567"><ele>77.0</ele><time>2026-04-18T06:56:49.96Z</time></trkpt><trkpt lat="40.6136933" lon="15.1474367"><ele>78.0</ele><time>2026-04-18T06:56:50.96Z</time></trkpt><trkpt lat="40.6136767" lon="15.1476167"><ele>79.0</ele><time>2026-04-18T06:56:51.961Z</time></trkpt><trkpt lat="40.6136667" lon="15.1478"><ele>80.0</ele><time>2026-04-18T06:56:52.96Z</time></trkpt><trkpt lat="40.61366" lon="15.1479817"><ele>80.0</ele><time>2026-04-18T06:56:53.96Z</time></trkpt><trkpt lat="40.6136583" lon="15.1481667"><ele>80.0</ele><time>2026-04-18T06:56:54.96Z</time></trkpt><trkpt lat="40.6136617" lon="15.1483467"><ele>80.0</ele><time>2026-04-18T06:56:55.96Z</time></trkpt><trkpt lat="40.6136633" lon="15.1485267"><ele>80.0</ele><time>2026-04-18T06:56:56.96Z</time></trkpt><trkpt lat="40.61367" lon="15.1487017"><ele>80.0</ele><time>2026-04-18T06:56:57.96Z</time></trkpt><trkpt lat="40.613685" lon="15.1488733"><ele>80.0</ele><time>2026-04-18T06:56:58.96Z</time></trkpt><trkpt lat="40.6136967" lon="15.1490467"><ele>80.0</ele><time>2026-04-18T06:56:59.96Z</time></trkpt><trkpt lat="40.6137117" lon="15.1492167"><ele>80.0</ele><time>2026-04-18T06:57:00.96Z</time></trkpt><trkpt lat="40.6137267" lon="15.14939"><ele>79.0</ele><time>2026-04-18T06:57:01.961Z</time></trkpt><trkpt lat="40.613745" lon="15.1495733"><ele>78.0</ele><time>2026-04-18T06:57:02.96Z</time></trkpt><trkpt lat="40.613765" lon="15.1497567"><ele>77.0</ele><time>2026-04-18T06:57:03.961Z</time></trkpt><trkpt lat="40.6137883" lon="15.1499433"><ele>76.0</ele><time>2026-04-18T06:57:04.96Z</time></trkpt><trkpt lat="40.61381" lon="15.150125"><ele>75.75</ele><time>2026-04-18T06:57:05.96Z</time></trkpt><trkpt lat="40.613835" lon="15.150305"><ele>75.5</ele><time>2026-04-18T06:57:06.96Z</time></trkpt><trkpt lat="40.6138617" lon="15.1504833"><ele>75.25</ele><time>2026-04-18T06:57:07.96Z</time></trkpt><trkpt lat="40.6138867" lon="15.1506617"><ele>75.0</ele><time>2026-04-18T06:57:08.96Z</time></trkpt><trkpt lat="40.61392" lon="15.1508367"><ele>75.0</ele><time>2026-04-18T06:57:09.96Z</time></trkpt><trkpt lat="40.6139583" lon="15.1510017"><ele>75.0</ele><time>2026-04-18T06:57:10.96Z</time></trkpt><trkpt lat="40.6140017" lon="15.151155"><ele>75.0</ele><time>2026-04-18T06:57:11.96Z</time></trkpt><trkpt lat="40.6140533" lon="15.15129"><ele>75.0</ele><time>2026-04-18T06:57:12.96Z</time></trkpt><trkpt lat="40.6141067" lon="15.15142"><ele>73.4</ele><time>2026-04-18T06:57:13.96Z</time></trkpt><trkpt lat="40.61416" lon="15.1515417"><ele>71.8</ele><time>2026-04-18T06:57:14.96Z</time></trkpt><trkpt lat="40.6142117" lon="15.1516583"><ele>70.2</ele><time>2026-04-18T06:57:15.96Z</time></trkpt><trkpt lat="40.6142517" lon="15.1517767"><ele>68.6</ele><time>2026-04-18T06:57:16.96Z</time></trkpt><trkpt lat="40.6142833" lon="15.1518883"><ele>67.0</ele><time>2026-04-18T06:57:17.96Z</time></trkpt><trkpt lat="40.6143067" lon="15.1519833"><ele>67.0</ele><time>2026-04-18T06:57:18.96Z</time></trkpt><trkpt lat="40.6143233" lon="15.1520633"><ele>67.0</ele><time>2026-04-18T06:57:19.96Z</time></trkpt><trkpt lat="40.6143667" lon="15.152165"><ele>67.0</ele><time>2026-04-18T06:57:21.96Z</time></trkpt><trkpt lat="40.614445" lon="15.1522133"><ele>67.0</ele><time>2026-04-18T06:57:23.96Z</time></trkpt><trkpt lat="40.6145533" lon="15.1522317"><ele>67.0</ele><time>2026-04-18T06:57:25.96Z</time></trkpt><trkpt lat="40.61462" lon="15.152235"><ele>67.0</ele><time>2026-04-18T06:57:26.96Z</time></trkpt><trkpt lat="40.6146917" lon="15.1522417"><ele>69.0</ele><time>2026-04-18T06:57:27.961Z</time></trkpt><trkpt lat="40.6147683" lon="15.15224"><ele>71.0</ele><time>2026-04-18T06:57:28.96Z</time></trkpt><trkpt lat="40.61485" lon="15.1522367"><ele>73.0</ele><time>2026-04-18T06:57:29.96Z</time></trkpt><trkpt lat="40.614935" lon="15.1522333"><ele>75.0</ele><time>2026-04-18T06:57:30.96Z</time></trkpt><trkpt lat="40.6150167" lon="15.1522617"><ele>77.0</ele><time>2026-04-18T06:57:31.96Z</time></trkpt><trkpt lat="40.6150867" lon="15.1523233"><ele>79.0</ele><time>2026-04-18T06:57:32.96Z</time></trkpt><trkpt lat="40.6151417" lon="15.1523933"><ele>79.0</ele><time>2026-04-18T06:57:33.961Z</time></trkpt><trkpt lat="40.6151883" lon="15.1524567"><ele>79.0</ele><time>2026-04-18T06:57:34.96Z</time></trkpt><trkpt lat="40.615285" lon="15.1525467"><ele>79.0</ele><time>2026-04-18T06:57:36.96Z</time></trkpt><trkpt lat="40.6153817" lon="15.15263"><ele>79.0</ele><time>2026-04-18T06:57:38.96Z</time></trkpt><trkpt lat="40.6154617" lon="15.152615"><ele>79.0</ele><time>2026-04-18T06:57:40.96Z</time></trkpt><trkpt lat="40.6154633" lon="15.1525067"><ele>83.5</ele><time>2026-04-18T06:57:43.96Z</time></trkpt><trkpt lat="40.6154383" lon="15.15241"><ele>88.0</ele><time>2026-04-18T06:57:46.96Z</time></trkpt><trkpt lat="40.615415" lon="15.15232"><ele>92.5</ele><time>2026-04-18T06:57:48.96Z</time></trkpt><trkpt lat="40.61539" lon="15.1521983"><ele>97.0</ele><time>2026-04-18T06:57:50.96Z</time></trkpt><trkpt lat="40.615425" lon="15.1521117"><ele>101.50000000000001</ele><time>2026-04-18T06:57:52.96Z</time></trkpt><trkpt lat="40.6155133" lon="15.15219"><ele>106.0</ele><time>2026-04-18T06:57:54.961Z</time></trkpt><trkpt lat="40.6155517" lon="15.152275"><ele>106.00000000000001</ele><time>2026-04-18T06:57:55.96Z</time></trkpt><trkpt lat="40.6155817" lon="15.1523483"><ele>106.0</ele><time>2026-04-18T06:57:56.96Z</time></trkpt><trkpt lat="40.6156533" lon="15.1524233"><ele>106.0</ele><time>2026-04-18T06:57:58.96Z</time></trkpt><trkpt lat="40.6156883" lon="15.1523183"><ele>106.0</ele><time>2026-04-18T06:58:01.96Z</time></trkpt><trkpt lat="40.6156333" lon="15.15217"><ele>106.00000000000001</ele><time>2026-04-18T06:58:03.96Z</time></trkpt><trkpt lat="40.6156017" lon="15.1520767"><ele>106.0</ele><time>2026-04-18T06:58:04.96Z</time></trkpt><trkpt lat="40.61557" lon="15.1519733"><ele>107.19999999999999</ele><time>2026-04-18T06:58:05.96Z</time></trkpt><trkpt lat="40.6155567" lon="15.1518583"><ele>108.39999999999999</ele><time>2026-04-18T06:58:06.96Z</time></trkpt><trkpt lat="40.61555" lon="15.1517383"><ele>109.6</ele><time>2026-04-18T06:58:07.96Z</time></trkpt><trkpt lat="40.6155483" lon="15.1516033"><ele>110.8</ele><time>2026-04-18T06:58:08.96Z</time></trkpt><trkpt lat="40.615545" lon="15.15147"><ele>112.0</ele><time>2026-04-18T06:58:09.96Z</time></trkpt><trkpt lat="40.6155367" lon="15.151345"><ele>112.71428571428572</ele><time>2026-04-18T06:58:10.96Z</time></trkpt><trkpt lat="40.6155283" lon="15.15124"><ele>113.42857142857143</ele><time>2026-04-18T06:58:11.96Z</time></trkpt><trkpt lat="40.6155483" lon="15.1511567"><ele>114.14285714285714</ele><time>2026-04-18T06:58:12.96Z</time></trkpt><trkpt lat="40.6155867" lon="15.1510883"><ele>114.85714285714286</ele><time>2026-04-18T06:58:13.96Z</time></trkpt><trkpt lat="40.61564" lon="15.1510333"><ele>115.57142857142858</ele><time>2026-04-18T06:58:14.96Z</time></trkpt><trkpt lat="40.6157067" lon="15.1509867"><ele>116.28571428571429</ele><time>2026-04-18T06:58:15.96Z</time></trkpt><trkpt lat="40.615775" lon="15.1509433"><ele>117.0</ele><time>2026-04-18T06:58:16.96Z</time></trkpt><trkpt lat="40.6158417" lon="15.1508883"><ele>117.0</ele><time>2026-04-18T06:58:17.96Z</time></trkpt><trkpt lat="40.6158833" lon="15.1508217"><ele>117.00000000000001</ele><time>2026-04-18T06:58:18.96Z</time></trkpt><trkpt lat="40.6159083" lon="15.1507433"><ele>117.0</ele><time>2026-04-18T06:58:19.96Z</time></trkpt><trkpt lat="40.6159217" lon="15.150655"><ele>117.0</ele><time>2026-04-18T06:58:20.96Z</time></trkpt><trkpt lat="40.6159417" lon="15.1505633"><ele>117.00000000000001</ele><time>2026-04-18T06:58:21.96Z</time></trkpt><trkpt lat="40.6159833" lon="15.1504867"><ele>117.0</ele><time>2026-04-18T06:58:22.96Z</time></trkpt><trkpt lat="40.6160467" lon="15.1504283"><ele>117.0</ele><time>2026-04-18T06:58:23.96Z</time></trkpt><trkpt lat="40.61612" lon="15.15038"><ele>118.66666666666667</ele><time>2026-04-18T06:58:24.96Z</time></trkpt><trkpt lat="40.6162067" lon="15.1503267"><ele>120.33333333333334</ele><time>2026-04-18T06:58:25.96Z</time></trkpt><trkpt lat="40.6162867" lon="15.1502733"><ele>122.0</ele><time>2026-04-18T06:58:26.961Z</time></trkpt><trkpt lat="40.61636" lon="15.15023"><ele>123.66666666666667</ele><time>2026-04-18T06:58:27.96Z</time></trkpt><trkpt lat="40.6164267" lon="15.1501867"><ele>125.33333333333334</ele><time>2026-04-18T06:58:28.96Z</time></trkpt><trkpt lat="40.6164917" lon="15.1501467"><ele>127.0</ele><time>2026-04-18T06:58:29.96Z</time></trkpt><trkpt lat="40.616585" lon="15.1500867"><ele>127.00000000000001</ele><time>2026-04-18T06:58:31.96Z</time></trkpt><trkpt lat="40.6166667" lon="15.150035"><ele>127.0</ele><time>2026-04-18T06:58:33.96Z</time></trkpt><trkpt lat="40.6167467" lon="15.14998"><ele>127.0</ele><time>2026-04-18T06:58:35.96Z</time></trkpt><trkpt lat="40.616845" lon="15.14992"><ele>127.0</ele><time>2026-04-18T06:58:37.96Z</time></trkpt><trkpt lat="40.616905" lon="15.1498867"><ele>127.00000000000001</ele><time>2026-04-18T06:58:38.961Z</time></trkpt><trkpt lat="40.6169667" lon="15.149845"><ele>127.0</ele><time>2026-04-18T06:58:39.961Z</time></trkpt><trkpt lat="40.6170333" lon="15.1497983"><ele>127.83333333333334</ele><time>2026-04-18T06:58:40.96Z</time></trkpt><trkpt lat="40.6171067" lon="15.1497517"><ele>128.66666666666669</ele><time>2026-04-18T06:58:41.96Z</time></trkpt><trkpt lat="40.6171833" lon="15.1497"><ele>129.5</ele><time>2026-04-18T06:58:42.96Z</time></trkpt><trkpt lat="40.617265" lon="15.1496467"><ele>130.33333333333334</ele><time>2026-04-18T06:58:43.961Z</time></trkpt><trkpt lat="40.6173467" lon="15.1495933"><ele>131.16666666666666</ele><time>2026-04-18T06:58:44.96Z</time></trkpt><trkpt lat="40.6174283" lon="15.1495383"><ele>132.0</ele><time>2026-04-18T06:58:45.96Z</time></trkpt><trkpt lat="40.617505" lon="15.1494867"><ele>132.0</ele><time>2026-04-18T06:58:46.96Z</time></trkpt><trkpt lat="40.6175833" lon="15.1494367"><ele>132.0</ele><time>2026-04-18T06:58:47.96Z</time></trkpt><trkpt lat="40.6176567" lon="15.149385"><ele>132.0</ele><time>2026-04-18T06:58:48.96Z</time></trkpt><trkpt lat="40.6177383" lon="15.1493417"><ele>132.0</ele><time>2026-04-18T06:58:49.96Z</time></trkpt><trkpt lat="40.6178167" lon="15.149295"><ele>132.0</ele><time>2026-04-18T06:58:50.96Z</time></trkpt><trkpt lat="40.6178983" lon="15.14925"><ele>132.0</ele><time>2026-04-18T06:58:51.96Z</time></trkpt><trkpt lat="40.61798" lon="15.1492"><ele>133.0</ele><time>2026-04-18T06:58:52.96Z</time></trkpt><trkpt lat="40.61805" lon="15.1491533"><ele>134.0</ele><time>2026-04-18T06:58:53.96Z</time></trkpt><trkpt lat="40.6181117" lon="15.1491233"><ele>135.0</ele><time>2026-04-18T06:58:54.96Z</time></trkpt><trkpt lat="40.6182" lon="15.1491467"><ele>136.0</ele><time>2026-04-18T06:58:56.96Z</time></trkpt><trkpt lat="40.6182333" lon="15.14929"><ele>137.0</ele><time>2026-04-18T06:58:58.96Z</time></trkpt><trkpt lat="40.61825" lon="15.1493883"><ele>138.0</ele><time>2026-04-18T06:58:59.96Z</time></trkpt><trkpt lat="40.6182717" lon="15.1494883"><ele>138.0</ele><time>2026-04-18T06:59:00.96Z</time></trkpt><trkpt lat="40.6182967" lon="15.149585"><ele>138.0</ele><time>2026-04-18T06:59:01.96Z</time></trkpt><trkpt lat="40.618315" lon="15.1496883"><ele>138.0</ele><time>2026-04-18T06:59:02.96Z</time></trkpt><trkpt lat="40.6183417" lon="15.1497867"><ele>138.0</ele><time>2026-04-18T06:59:03.961Z</time></trkpt><trkpt lat="40.6183683" lon="15.1498867"><ele>138.0</ele><time>2026-04-18T06:59:04.96Z</time></trkpt><trkpt lat="40.618395" lon="15.1499917"><ele>138.0</ele><time>2026-04-18T06:59:05.96Z</time></trkpt><trkpt lat="40.61842" lon="15.1500983"><ele>138.5</ele><time>2026-04-18T06:59:06.96Z</time></trkpt><trkpt lat="40.6184433" lon="15.1502067"><ele>139.0</ele><time>2026-04-18T06:59:07.96Z</time></trkpt><trkpt lat="40.618475" lon="15.1503117"><ele>139.5</ele><time>2026-04-18T06:59:08.96Z</time></trkpt><trkpt lat="40.6185033" lon="15.15041"><ele>140.0</ele><time>2026-04-18T06:59:09.96Z</time></trkpt><trkpt lat="40.618545" lon="15.1504883"><ele>140.5</ele><time>2026-04-18T06:59:10.96Z</time></trkpt><trkpt lat="40.6186517" lon="15.1505417"><ele>141.0</ele><time>2026-04-18T06:59:12.96Z</time></trkpt><trkpt lat="40.618715" lon="15.15054"><ele>141.71428571428572</ele><time>2026-04-18T06:59:13.96Z</time></trkpt><trkpt lat="40.6187783" lon="15.1505433"><ele>142.42857142857142</ele><time>2026-04-18T06:59:14.961Z</time></trkpt><trkpt lat="40.618845" lon="15.1505417"><ele>143.14285714285714</ele><time>2026-04-18T06:59:15.96Z</time></trkpt><trkpt lat="40.61892" lon="15.1505433"><ele>143.85714285714286</ele><time>2026-04-18T06:59:16.96Z</time></trkpt><trkpt lat="40.6189967" lon="15.1505483"><ele>144.57142857142858</ele><time>2026-04-18T06:59:17.96Z</time></trkpt><trkpt lat="40.619075" lon="15.1505533"><ele>145.28571428571428</ele><time>2026-04-18T06:59:18.96Z</time></trkpt><trkpt lat="40.6191533" lon="15.15056"><ele>146.0</ele><time>2026-04-18T06:59:19.96Z</time></trkpt><trkpt lat="40.61923" lon="15.15057"><ele>146.0</ele><time>2026-04-18T06:59:20.96Z</time></trkpt><trkpt lat="40.6193133" lon="15.1505683"><ele>146.0</ele><time>2026-04-18T06:59:21.96Z</time></trkpt><trkpt lat="40.619395" lon="15.1505733"><ele>146.0</ele><time>2026-04-18T06:59:22.96Z</time></trkpt><trkpt lat="40.6194783" lon="15.1505767"><ele>146.0</ele><time>2026-04-18T06:59:23.961Z</time></trkpt><trkpt lat="40.6195633" lon="15.1505833"><ele>146.0</ele><time>2026-04-18T06:59:24.96Z</time></trkpt><trkpt lat="40.61965" lon="15.1505833"><ele>146.0</ele><time>2026-04-18T06:59:25.96Z</time></trkpt><trkpt lat="40.6197383" lon="15.15059"><ele>147.0</ele><time>2026-04-18T06:59:26.96Z</time></trkpt><trkpt lat="40.6198267" lon="15.15059"><ele>148.0</ele><time>2026-04-18T06:59:27.96Z</time></trkpt><trkpt lat="40.6199167" lon="15.150595"><ele>149.0</ele><time>2026-04-18T06:59:28.961Z</time></trkpt><trkpt lat="40.6200117" lon="15.1505883"><ele>150.0</ele><time>2026-04-18T06:59:29.96Z</time></trkpt><trkpt lat="40.620105" lon="15.150585"><ele>151.0</ele><time>2026-04-18T06:59:30.961Z</time></trkpt><trkpt lat="40.62019" lon="15.1505617"><ele>151.0</ele><time>2026-04-18T06:59:31.96Z</time></trkpt><trkpt lat="40.62027" lon="15.150505"><ele>151.0</ele><time>2026-04-18T06:59:32.961Z</time></trkpt><trkpt lat="40.6203433" lon="15.1504167"><ele>151.0</ele><time>2026-04-18T06:59:33.96Z</time></trkpt><trkpt lat="40.6204233" lon="15.1503183"><ele>151.0</ele><time>2026-04-18T06:59:34.96Z</time></trkpt><trkpt lat="40.6205083" lon="15.1502133"><ele>151.0</ele><time>2026-04-18T06:59:35.96Z</time></trkpt><trkpt lat="40.620595" lon="15.1501183"><ele>152.0</ele><time>2026-04-18T06:59:36.96Z</time></trkpt><trkpt lat="40.620675" lon="15.1500183"><ele>153.0</ele><time>2026-04-18T06:59:37.961Z</time></trkpt><trkpt lat="40.6207483" lon="15.149915"><ele>154.0</ele><time>2026-04-18T06:59:38.96Z</time></trkpt><trkpt lat="40.62083" lon="15.1498317"><ele>155.0</ele><time>2026-04-18T06:59:39.96Z</time></trkpt><trkpt lat="40.6209083" lon="15.14975"><ele>156.0</ele><time>2026-04-18T06:59:40.96Z</time></trkpt><trkpt lat="40.6209767" lon="15.1496733"><ele>156.0</ele><time>2026-04-18T06:59:41.96Z</time></trkpt><trkpt lat="40.621045" lon="15.1495983"><ele>156.0</ele><time>2026-04-18T06:59:42.96Z</time></trkpt><trkpt lat="40.6211217" lon="15.1495417"><ele>156.0</ele><time>2026-04-18T06:59:43.96Z</time></trkpt><trkpt lat="40.6212017" lon="15.1494967"><ele>156.0</ele><time>2026-04-18T06:59:44.96Z</time></trkpt><trkpt lat="40.6212883" lon="15.1494617"><ele>156.0</ele><time>2026-04-18T06:59:45.96Z</time></trkpt><trkpt lat="40.6213817" lon="15.1494233"><ele>157.0</ele><time>2026-04-18T06:59:46.96Z</time></trkpt><trkpt lat="40.6214733" lon="15.149385"><ele>158.0</ele><time>2026-04-18T06:59:47.961Z</time></trkpt><trkpt lat="40.6215633" lon="15.1493517"><ele>159.0</ele><time>2026-04-18T06:59:48.96Z</time></trkpt><trkpt lat="40.6216567" lon="15.1493217"><ele>160.0</ele><time>2026-04-18T06:59:49.96Z</time></trkpt><trkpt lat="40.6217467" lon="15.1492967"><ele>161.0</ele><time>2026-04-18T06:59:50.96Z</time></trkpt><trkpt lat="40.6218283" lon="15.1492733"><ele>161.0</ele><time>2026-04-18T06:59:51.96Z</time></trkpt><trkpt lat="40.6219167" lon="15.1492383"><ele>161.0</ele><time>2026-04-18T06:59:52.961Z</time></trkpt><trkpt lat="40.62201" lon="15.1492117"><ele>161.0</ele><time>2026-04-18T06:59:53.96Z</time></trkpt><trkpt lat="40.6221017" lon="15.149185"><ele>161.0</ele><time>2026-04-18T06:59:54.96Z</time></trkpt><trkpt lat="40.6221967" lon="15.1491633"><ele>161.0</ele><time>2026-04-18T06:59:55.96Z</time></trkpt><trkpt lat="40.622285" lon="15.14913"><ele>162.0</ele><time>2026-04-18T06:59:56.96Z</time></trkpt><trkpt lat="40.622365" lon="15.1491083"><ele>163.0</ele><time>2026-04-18T06:59:57.96Z</time></trkpt><trkpt lat="40.6224333" lon="15.14909"><ele>164.0</ele><time>2026-04-18T06:59:58.96Z</time></trkpt><trkpt lat="40.622535" lon="15.149065"><ele>165.0</ele><time>2026-04-18T07:00:00.96Z</time></trkpt><trkpt lat="40.6226067" lon="15.1489967"><ele>166.0</ele><time>2026-04-18T07:00:02.96Z</time></trkpt><trkpt lat="40.6226783" lon="15.1488583"><ele>166.0</ele><time>2026-04-18T07:00:04.96Z</time></trkpt><trkpt lat="40.62272" lon="15.1487767"><ele>166.0</ele><time>2026-04-18T07:00:05.96Z</time></trkpt><trkpt lat="40.62276" lon="15.1486867"><ele>166.0</ele><time>2026-04-18T07:00:06.96Z</time></trkpt><trkpt lat="40.6228033" lon="15.1485983"><ele>166.0</ele><time>2026-04-18T07:00:07.961Z</time></trkpt><trkpt lat="40.6228467" lon="15.1485033"><ele>166.0</ele><time>2026-04-18T07:00:08.96Z</time></trkpt><trkpt lat="40.62289" lon="15.1484167"><ele>166.0</ele><time>2026-04-18T07:00:09.96Z</time></trkpt><trkpt lat="40.622935" lon="15.14833"><ele>166.5</ele><time>2026-04-18T07:00:10.96Z</time></trkpt><trkpt lat="40.6229783" lon="15.1482433"><ele>167.0</ele><time>2026-04-18T07:00:11.96Z</time></trkpt><trkpt lat="40.6230267" lon="15.1481567"><ele>167.5</ele><time>2026-04-18T07:00:12.96Z</time></trkpt><trkpt lat="40.6230733" lon="15.1480667"><ele>168.0</ele><time>2026-04-18T07:00:13.96Z</time></trkpt><trkpt lat="40.62312" lon="15.1479767"><ele>168.5</ele><time>2026-04-18T07:00:14.96Z</time></trkpt><trkpt lat="40.6231683" lon="15.147885"><ele>169.0</ele><time>2026-04-18T07:00:15.96Z</time></trkpt><trkpt lat="40.623215" lon="15.147795"><ele>169.0</ele><time>2026-04-18T07:00:16.96Z</time></trkpt><trkpt lat="40.62326" lon="15.1477017"><ele>169.0</ele><time>2026-04-18T07:00:17.961Z</time></trkpt><trkpt lat="40.6233117" lon="15.1476083"><ele>169.0</ele><time>2026-04-18T07:00:18.96Z</time></trkpt><trkpt lat="40.62337" lon="15.1475217"><ele>169.0</ele><time>2026-04-18T07:00:19.96Z</time></trkpt><trkpt lat="40.6234267" lon="15.1474367"><ele>169.0</ele><time>2026-04-18T07:00:20.96Z</time></trkpt><trkpt lat="40.6234917" lon="15.1473617"><ele>169.0</ele><time>2026-04-18T07:00:21.96Z</time></trkpt><trkpt lat="40.623555" lon="15.1472783"><ele>169.0</ele><time>2026-04-18T07:00:22.96Z</time></trkpt><trkpt lat="40.6236233" lon="15.1472017"><ele>169.0</ele><time>2026-04-18T07:00:23.96Z</time></trkpt><trkpt lat="40.6236967" lon="15.14713"><ele>169.0</ele><time>2026-04-18T07:00:24.96Z</time></trkpt><trkpt lat="40.6237683" lon="15.1470533"><ele>169.0</ele><time>2026-04-18T07:00:25.96Z</time></trkpt><trkpt lat="40.62384" lon="15.1469767"><ele>169.0</ele><time>2026-04-18T07:00:26.96Z</time></trkpt><trkpt lat="40.6239133" lon="15.1469"><ele>169.66666666666669</ele><time>2026-04-18T07:00:27.96Z</time></trkpt><trkpt lat="40.6239833" lon="15.1468233"><ele>170.33333333333334</ele><time>2026-04-18T07:00:28.96Z</time></trkpt><trkpt lat="40.624055" lon="15.1467517"><ele>171.0</ele><time>2026-04-18T07:00:29.96Z</time></trkpt><trkpt lat="40.624125" lon="15.14668"><ele>171.66666666666666</ele><time>2026-04-18T07:00:30.96Z</time></trkpt><trkpt lat="40.6241917" lon="15.1466067"><ele>172.33333333333331</ele><time>2026-04-18T07:00:31.96Z</time></trkpt><trkpt lat="40.6242567" lon="15.14653"><ele>173.0</ele><time>2026-04-18T07:00:32.96Z</time></trkpt><trkpt lat="40.62432" lon="15.1464533"><ele>173.0</ele><time>2026-04-18T07:00:33.96Z</time></trkpt><trkpt lat="40.624385" lon="15.1463733"><ele>173.0</ele><time>2026-04-18T07:00:34.96Z</time></trkpt><trkpt lat="40.6244583" lon="15.1462867"><ele>173.0</ele><time>2026-04-18T07:00:35.96Z</time></trkpt><trkpt lat="40.6245333" lon="15.1461983"><ele>173.0</ele><time>2026-04-18T07:00:36.96Z</time></trkpt><trkpt lat="40.624605" lon="15.1461067"><ele>173.0</ele><time>2026-04-18T07:00:37.96Z</time></trkpt><trkpt lat="40.624685" lon="15.1460083"><ele>172.75</ele><time>2026-04-18T07:00:38.96Z</time></trkpt><trkpt lat="40.62477" lon="15.1459117"><ele>172.5</ele><time>2026-04-18T07:00:39.96Z</time></trkpt><trkpt lat="40.62486" lon="15.1458133"><ele>172.25</ele><time>2026-04-18T07:00:40.961Z</time></trkpt><trkpt lat="40.6249467" lon="15.145715"><ele>172.0</ele><time>2026-04-18T07:00:41.96Z</time></trkpt><trkpt lat="40.6250333" lon="15.145625"><ele>172.0</ele><time>2026-04-18T07:00:42.96Z</time></trkpt><trkpt lat="40.62512" lon="15.145525"><ele>172.0</ele><time>2026-04-18T07:00:43.96Z</time></trkpt><trkpt lat="40.6252017" lon="15.1454267"><ele>172.0</ele><time>2026-04-18T07:00:44.96Z</time></trkpt><trkpt lat="40.6252667" lon="15.1453317"><ele>172.0</ele><time>2026-04-18T07:00:45.96Z</time></trkpt><trkpt lat="40.6253333" lon="15.1452283"><ele>172.0</ele><time>2026-04-18T07:00:46.96Z</time></trkpt><trkpt lat="40.6253883" lon="15.14512"><ele>172.0</ele><time>2026-04-18T07:00:47.96Z</time></trkpt><trkpt lat="40.625435" lon="15.1449983"><ele>172.0</ele><time>2026-04-18T07:00:48.96Z</time></trkpt><trkpt lat="40.62548" lon="15.14487"><ele>172.0</ele><time>2026-04-18T07:00:49.96Z</time></trkpt><trkpt lat="40.6255217" lon="15.1447267"><ele>172.0</ele><time>2026-04-18T07:00:50.96Z</time></trkpt><trkpt lat="40.6255583" lon="15.1445833"><ele>172.0</ele><time>2026-04-18T07:00:51.96Z</time></trkpt><trkpt lat="40.62559" lon="15.14444"><ele>172.0</ele><time>2026-04-18T07:00:52.96Z</time></trkpt><trkpt lat="40.625615" lon="15.14431"><ele>172.0</ele><time>2026-04-18T07:00:53.96Z</time></trkpt><trkpt lat="40.6256317" lon="15.1441767"><ele>172.0</ele><time>2026-04-18T07:00:54.96Z</time></trkpt><trkpt lat="40.625655" lon="15.144055"><ele>172.0</ele><time>2026-04-18T07:00:55.96Z</time></trkpt><trkpt lat="40.6256867" lon="15.1439333"><ele>172.0</ele><time>2026-04-18T07:00:56.96Z</time></trkpt><trkpt lat="40.6257233" lon="15.143815"><ele>171.33333333333334</ele><time>2026-04-18T07:00:57.96Z</time></trkpt><trkpt lat="40.6257617" lon="15.1437083"><ele>170.66666666666669</ele><time>2026-04-18T07:00:58.96Z</time></trkpt><trkpt lat="40.6257933" lon="15.1436067"><ele>170.0</ele><time>2026-04-18T07:00:59.96Z</time></trkpt><trkpt lat="40.62582" lon="15.143505"><ele>169.33333333333334</ele><time>2026-04-18T07:01:00.96Z</time></trkpt><trkpt lat="40.6258383" lon="15.143405"><ele>168.66666666666666</ele><time>2026-04-18T07:01:01.96Z</time></trkpt><trkpt lat="40.625865" lon="15.1432983"><ele>168.0</ele><time>2026-04-18T07:01:02.96Z</time></trkpt><trkpt lat="40.6259" lon="15.143195"><ele>167.5</ele><time>2026-04-18T07:01:03.96Z</time></trkpt><trkpt lat="40.625935" lon="15.1430967"><ele>167.0</ele><time>2026-04-18T07:01:04.96Z</time></trkpt><trkpt lat="40.6259867" lon="15.143015"><ele>166.5</ele><time>2026-04-18T07:01:05.96Z</time></trkpt><trkpt lat="40.6260567" lon="15.1429633"><ele>166.0</ele><time>2026-04-18T07:01:06.96Z</time></trkpt><trkpt lat="40.6261517" lon="15.1429317"><ele>165.5</ele><time>2026-04-18T07:01:07.96Z</time></trkpt><trkpt lat="40.6262483" lon="15.1429083"><ele>165.0</ele><time>2026-04-18T07:01:08.96Z</time></trkpt><trkpt lat="40.6263333" lon="15.142855"><ele>165.0</ele><time>2026-04-18T07:01:09.96Z</time></trkpt><trkpt lat="40.6264" lon="15.1427817"><ele>165.0</ele><time>2026-04-18T07:01:10.96Z</time></trkpt><trkpt lat="40.62645" lon="15.1426867"><ele>165.0</ele><time>2026-04-18T07:01:11.96Z</time></trkpt><trkpt lat="40.62649" lon="15.1425717"><ele>165.0</ele><time>2026-04-18T07:01:12.96Z</time></trkpt><trkpt lat="40.6265133" lon="15.1424483"><ele>165.0</ele><time>2026-04-18T07:01:13.96Z</time></trkpt><trkpt lat="40.6265383" lon="15.1423183"><ele>166.2</ele><time>2026-04-18T07:01:14.96Z</time></trkpt><trkpt lat="40.6265667" lon="15.1421983"><ele>167.4</ele><time>2026-04-18T07:01:15.96Z</time></trkpt><trkpt lat="40.626605" lon="15.1420767"><ele>168.60000000000002</ele><time>2026-04-18T07:01:16.96Z</time></trkpt><trkpt lat="40.6266467" lon="15.1419633"><ele>169.8</ele><time>2026-04-18T07:01:17.96Z</time></trkpt><trkpt lat="40.626695" lon="15.1418533"><ele>171.0</ele><time>2026-04-18T07:01:18.96Z</time></trkpt><trkpt lat="40.626755" lon="15.1417467"><ele>171.0</ele><time>2026-04-18T07:01:19.96Z</time></trkpt><trkpt lat="40.6268333" lon="15.1416517"><ele>171.0</ele><time>2026-04-18T07:01:20.96Z</time></trkpt><trkpt lat="40.626915" lon="15.1415533"><ele>171.0</ele><time>2026-04-18T07:01:21.96Z</time></trkpt><trkpt lat="40.626995" lon="15.141445"><ele>171.0</ele><time>2026-04-18T07:01:22.96Z</time></trkpt><trkpt lat="40.62707" lon="15.1413317"><ele>171.0</ele><time>2026-04-18T07:01:23.96Z</time></trkpt><trkpt lat="40.6271483" lon="15.1412217"><ele>173.20000000000002</ele><time>2026-04-18T07:01:24.96Z</time></trkpt><trkpt lat="40.6272217" lon="15.14111"><ele>175.4</ele><time>2026-04-18T07:01:25.96Z</time></trkpt><trkpt lat="40.627295" lon="15.1409933"><ele>177.6</ele><time>2026-04-18T07:01:26.96Z</time></trkpt><trkpt lat="40.627365" lon="15.14088"><ele>179.8</ele><time>2026-04-18T07:01:27.96Z</time></trkpt><trkpt lat="40.6274267" lon="15.1407617"><ele>182.0</ele><time>2026-04-18T07:01:28.96Z</time></trkpt><trkpt lat="40.6274867" lon="15.1406317"><ele>182.25</ele><time>2026-04-18T07:01:29.96Z</time></trkpt><trkpt lat="40.6275483" lon="15.1405"><ele>182.5</ele><time>2026-04-18T07:01:30.961Z</time></trkpt><trkpt lat="40.6276133" lon="15.1403717"><ele>182.75</ele><time>2026-04-18T07:01:31.96Z</time></trkpt><trkpt lat="40.6276833" lon="15.1402467"><ele>183.0</ele><time>2026-04-18T07:01:32.96Z</time></trkpt><trkpt lat="40.6277567" lon="15.1401267"><ele>184.25</ele><time>2026-04-18T07:01:33.96Z</time></trkpt><trkpt lat="40.62783" lon="15.14"><ele>185.5</ele><time>2026-04-18T07:01:34.96Z</time></trkpt><trkpt lat="40.6279033" lon="15.1398783"><ele>186.75</ele><time>2026-04-18T07:01:35.96Z</time></trkpt><trkpt lat="40.6279817" lon="15.1397617"><ele>188.0</ele><time>2026-04-18T07:01:36.96Z</time></trkpt><trkpt lat="40.6280617" lon="15.1396517"><ele>188.4</ele><time>2026-04-18T07:01:37.96Z</time></trkpt><trkpt lat="40.6281383" lon="15.1395483"><ele>188.8</ele><time>2026-04-18T07:01:38.96Z</time></trkpt><trkpt lat="40.628215" lon="15.1394533"><ele>189.2</ele><time>2026-04-18T07:01:39.96Z</time></trkpt><trkpt lat="40.628285" lon="15.1393617"><ele>189.6</ele><time>2026-04-18T07:01:40.96Z</time></trkpt><trkpt lat="40.6283583" lon="15.1392733"><ele>190.0</ele><time>2026-04-18T07:01:41.96Z</time></trkpt><trkpt lat="40.62842" lon="15.1391933"><ele>190.0</ele><time>2026-04-18T07:01:42.96Z</time></trkpt><trkpt lat="40.6284817" lon="15.1391267"><ele>190.0</ele><time>2026-04-18T07:01:43.961Z</time></trkpt><trkpt lat="40.6285433" lon="15.1390633"><ele>190.0</ele><time>2026-04-18T07:01:44.96Z</time></trkpt><trkpt lat="40.6286083" lon="15.1390083"><ele>190.0</ele><time>2026-04-18T07:01:45.96Z</time></trkpt><trkpt lat="40.6286733" lon="15.13895"><ele>190.0</ele><time>2026-04-18T07:01:46.96Z</time></trkpt><trkpt lat="40.62873" lon="15.1389"><ele>190.0</ele><time>2026-04-18T07:01:47.961Z</time></trkpt><trkpt lat="40.6288167" lon="15.1388067"><ele>189.83333333333334</ele><time>2026-04-18T07:01:49.96Z</time></trkpt><trkpt lat="40.628905" lon="15.1387167"><ele>189.66666666666669</ele><time>2026-04-18T07:01:51.96Z</time></trkpt><trkpt lat="40.6289267" lon="15.1386233"><ele>189.5</ele><time>2026-04-18T07:01:54.96Z</time></trkpt><trkpt lat="40.6288433" lon="15.1385983"><ele>189.33333333333334</ele><time>2026-04-18T07:01:57.96Z</time></trkpt><trkpt lat="40.6287567" lon="15.138605"><ele>189.16666666666666</ele><time>2026-04-18T07:02:00.96Z</time></trkpt><trkpt lat="40.628685" lon="15.1386017"><ele>189.0</ele><time>2026-04-18T07:02:02.96Z</time></trkpt><trkpt lat="40.6285417" lon="15.1386083"><ele>189.0</ele><time>2026-04-18T07:02:04.96Z</time></trkpt><trkpt lat="40.6284517" lon="15.138615"><ele>189.0</ele><time>2026-04-18T07:02:05.96Z</time></trkpt><trkpt lat="40.6283633" lon="15.1386167"><ele>189.0</ele><time>2026-04-18T07:02:06.96Z</time></trkpt><trkpt lat="40.628285" lon="15.1386233"><ele>189.0</ele><time>2026-04-18T07:02:07.96Z</time></trkpt><trkpt lat="40.628205" lon="15.138625"><ele>189.0</ele><time>2026-04-18T07:02:08.96Z</time></trkpt><trkpt lat="40.6281283" lon="15.1386333"><ele>189.0</ele><time>2026-04-18T07:02:09.961Z</time></trkpt><trkpt lat="40.6280533" lon="15.1386383"><ele>189.0</ele><time>2026-04-18T07:02:10.96Z</time></trkpt><trkpt lat="40.6279833" lon="15.1386417"><ele>189.0</ele><time>2026-04-18T07:02:11.96Z</time></trkpt><trkpt lat="40.627905" lon="15.1386483"><ele>189.0</ele><time>2026-04-18T07:02:12.96Z</time></trkpt><trkpt lat="40.6278233" lon="15.1386533"><ele>189.0</ele><time>2026-04-18T07:02:13.961Z</time></trkpt><trkpt lat="40.62774" lon="15.1386567"><ele>189.0</ele><time>2026-04-18T07:02:14.961Z</time></trkpt><trkpt lat="40.6276533" lon="15.1386583"><ele>189.0</ele><time>2026-04-18T07:02:15.961Z</time></trkpt><trkpt lat="40.6275683" lon="15.138655"><ele>188.0</ele><time>2026-04-18T07:02:16.96Z</time></trkpt><trkpt lat="40.6274783" lon="15.1386483"><ele>187.0</ele><time>2026-04-18T07:02:17.96Z</time></trkpt><trkpt lat="40.62739" lon="15.1386483"><ele>186.0</ele><time>2026-04-18T07:02:18.96Z</time></trkpt><trkpt lat="40.6273" lon="15.1386517"><ele>185.0</ele><time>2026-04-18T07:02:19.96Z</time></trkpt><trkpt lat="40.6272017" lon="15.1386517"><ele>184.0</ele><time>2026-04-18T07:02:20.96Z</time></trkpt><trkpt lat="40.627105" lon="15.1386567"><ele>184.0</ele><time>2026-04-18T07:02:21.96Z</time></trkpt><trkpt lat="40.62701" lon="15.138665"><ele>184.0</ele><time>2026-04-18T07:02:22.96Z</time></trkpt><trkpt lat="40.62691" lon="15.1386767"><ele>184.0</ele><time>2026-04-18T07:02:23.96Z</time></trkpt><trkpt lat="40.6268067" lon="15.1386983"><ele>184.0</ele><time>2026-04-18T07:02:24.96Z</time></trkpt><trkpt lat="40.6266967" lon="15.138725"><ele>184.0</ele><time>2026-04-18T07:02:25.96Z</time></trkpt><trkpt lat="40.62658" lon="15.1387433"><ele>182.0</ele><time>2026-04-18T07:02:26.96Z</time></trkpt><trkpt lat="40.6264617" lon="15.1387517"><ele>180.0</ele><time>2026-04-18T07:02:27.96Z</time></trkpt><trkpt lat="40.6263417" lon="15.1387467"><ele>178.0</ele><time>2026-04-18T07:02:28.96Z</time></trkpt><trkpt lat="40.6262233" lon="15.1387383"><ele>176.0</ele><time>2026-04-18T07:02:29.96Z</time></trkpt><trkpt lat="40.62611" lon="15.1387283"><ele>174.60000000000002</ele><time>2026-04-18T07:02:30.96Z</time></trkpt><trkpt lat="40.6259983" lon="15.1387167"><ele>173.2</ele><time>2026-04-18T07:02:31.961Z</time></trkpt><trkpt lat="40.62589" lon="15.138705"><ele>171.8</ele><time>2026-04-18T07:02:32.96Z</time></trkpt><trkpt lat="40.6257917" lon="15.1386917"><ele>170.39999999999998</ele><time>2026-04-18T07:02:33.96Z</time></trkpt><trkpt lat="40.6256983" lon="15.1386733"><ele>169.0</ele><time>2026-04-18T07:02:34.96Z</time></trkpt><trkpt lat="40.625605" lon="15.1386583"><ele>169.0</ele><time>2026-04-18T07:02:35.96Z</time></trkpt><trkpt lat="40.62551" lon="15.1386383"><ele>169.0</ele><time>2026-04-18T07:02:36.96Z</time></trkpt><trkpt lat="40.625415" lon="15.1386267"><ele>169.0</ele><time>2026-04-18T07:02:37.96Z</time></trkpt><trkpt lat="40.6253217" lon="15.1386167"><ele>169.0</ele><time>2026-04-18T07:02:38.96Z</time></trkpt><trkpt lat="40.6252283" lon="15.13861"><ele>169.0</ele><time>2026-04-18T07:02:39.96Z</time></trkpt><trkpt lat="40.6251333" lon="15.138605"><ele>167.79999999999998</ele><time>2026-04-18T07:02:40.96Z</time></trkpt><trkpt lat="40.6250383" lon="15.1386"><ele>166.6</ele><time>2026-04-18T07:02:41.96Z</time></trkpt><trkpt lat="40.6249383" lon="15.1385983"><ele>165.4</ele><time>2026-04-18T07:02:42.961Z</time></trkpt><trkpt lat="40.6248467" lon="15.13858"><ele>164.2</ele><time>2026-04-18T07:02:43.96Z</time></trkpt><trkpt lat="40.6247567" lon="15.1385583"><ele>163.0</ele><time>2026-04-18T07:02:44.96Z</time></trkpt><trkpt lat="40.6246717" lon="15.1385317"><ele>163.0</ele><time>2026-04-18T07:02:45.96Z</time></trkpt><trkpt lat="40.6245883" lon="15.1384983"><ele>163.0</ele><time>2026-04-18T07:02:46.96Z</time></trkpt><trkpt lat="40.6245117" lon="15.1384633"><ele>163.0</ele><time>2026-04-18T07:02:47.96Z</time></trkpt><trkpt lat="40.62443" lon="15.1384333"><ele>163.0</ele><time>2026-04-18T07:02:48.96Z</time></trkpt><trkpt lat="40.6243383" lon="15.1384067"><ele>163.0</ele><time>2026-04-18T07:02:49.96Z</time></trkpt><trkpt lat="40.624235" lon="15.138375"><ele>162.0</ele><time>2026-04-18T07:02:50.959Z</time></trkpt><trkpt lat="40.624125" lon="15.138335"><ele>161.0</ele><time>2026-04-18T07:02:51.959Z</time></trkpt><trkpt lat="40.6240217" lon="15.1383017"><ele>160.0</ele><time>2026-04-18T07:02:52.959Z</time></trkpt><trkpt lat="40.623925" lon="15.1382717"><ele>159.0</ele><time>2026-04-18T07:02:53.959Z</time></trkpt><trkpt lat="40.62384" lon="15.1382433"><ele>158.0</ele><time>2026-04-18T07:02:54.959Z</time></trkpt><trkpt lat="40.6237683" lon="15.13822"><ele>158.0</ele><time>2026-04-18T07:02:55.959Z</time></trkpt><trkpt lat="40.6236767" lon="15.1381833"><ele>158.0</ele><time>2026-04-18T07:02:57.959Z</time></trkpt><trkpt lat="40.6236067" lon="15.13822"><ele>158.0</ele><time>2026-04-18T07:03:00.959Z</time></trkpt><trkpt lat="40.6235767" lon="15.138295"><ele>158.0</ele><time>2026-04-18T07:03:03.959Z</time></trkpt><trkpt lat="40.6235283" lon="15.1384317"><ele>158.0</ele><time>2026-04-18T07:03:06.959Z</time></trkpt><trkpt lat="40.6235067" lon="15.1385167"><ele>158.0</ele><time>2026-04-18T07:03:07.959Z</time></trkpt><trkpt lat="40.623485" lon="15.138605"><ele>157.57142857142858</ele><time>2026-04-18T07:03:08.959Z</time></trkpt><trkpt lat="40.623465" lon="15.1386883"><ele>157.14285714285714</ele><time>2026-04-18T07:03:09.959Z</time></trkpt><trkpt lat="40.6234417" lon="15.1387767"><ele>156.71428571428572</ele><time>2026-04-18T07:03:10.959Z</time></trkpt><trkpt lat="40.6234217" lon="15.1388717"><ele>156.28571428571428</ele><time>2026-04-18T07:03:11.959Z</time></trkpt><trkpt lat="40.62341" lon="15.1389617"><ele>155.85714285714286</ele><time>2026-04-18T07:03:12.959Z</time></trkpt><trkpt lat="40.6233933" lon="15.1390633"><ele>155.42857142857144</ele><time>2026-04-18T07:03:13.959Z</time></trkpt><trkpt lat="40.62337" lon="15.13917"><ele>155.0</ele><time>2026-04-18T07:03:14.959Z</time></trkpt><trkpt lat="40.623345" lon="15.1392733"><ele>155.0</ele><time>2026-04-18T07:03:15.959Z</time></trkpt><trkpt lat="40.6233233" lon="15.1393733"><ele>155.0</ele><time>2026-04-18T07:03:16.959Z</time></trkpt><trkpt lat="40.6233033" lon="15.1394633"><ele>155.0</ele><time>2026-04-18T07:03:17.959Z</time></trkpt><trkpt lat="40.6232733" lon="15.1395917"><ele>155.0</ele><time>2026-04-18T07:03:19.959Z</time></trkpt><trkpt lat="40.62326" lon="15.139675"><ele>155.0</ele><time>2026-04-18T07:03:58.959Z</time></trkpt><trkpt lat="40.6232183" lon="15.139835"><ele>155.0</ele><time>2026-04-18T07:04:00.96Z</time></trkpt><trkpt lat="40.6231933" lon="15.1399217"><ele>154.4</ele><time>2026-04-18T07:04:01.959Z</time></trkpt><trkpt lat="40.6231583" lon="15.140075"><ele>153.8</ele><time>2026-04-18T07:04:03.959Z</time></trkpt><trkpt lat="40.6231233" lon="15.1402033"><ele>153.2</ele><time>2026-04-18T07:04:05.959Z</time></trkpt><trkpt lat="40.62307" lon="15.14031"><ele>152.6</ele><time>2026-04-18T07:04:07.959Z</time></trkpt><trkpt lat="40.623005" lon="15.14039"><ele>152.0</ele><time>2026-04-18T07:04:09.959Z</time></trkpt><trkpt lat="40.622935" lon="15.1404733"><ele>152.0</ele><time>2026-04-18T07:04:11.959Z</time></trkpt><trkpt lat="40.6228817" lon="15.1405383"><ele>152.0</ele><time>2026-04-18T07:04:13.959Z</time></trkpt><trkpt lat="40.6228417" lon="15.1406783"><ele>152.0</ele><time>2026-04-18T07:04:26.959Z</time></trkpt><trkpt lat="40.6228167" lon="15.1408167"><ele>152.0</ele><time>2026-04-18T07:04:28.959Z</time></trkpt><trkpt lat="40.6227683" lon="15.1409533"><ele>152.0</ele><time>2026-04-18T07:04:30.959Z</time></trkpt><trkpt lat="40.6227017" lon="15.1410667"><ele>149.79999999999998</ele><time>2026-04-18T07:04:32.959Z</time></trkpt><trkpt lat="40.6226217" lon="15.1411517"><ele>147.6</ele><time>2026-04-18T07:04:34.959Z</time></trkpt><trkpt lat="40.622535" lon="15.1412433"><ele>145.39999999999998</ele><time>2026-04-18T07:04:36.959Z</time></trkpt><trkpt lat="40.6224467" lon="15.14133"><ele>143.2</ele><time>2026-04-18T07:04:38.959Z</time></trkpt><trkpt lat="40.6223417" lon="15.1414"><ele>141.0</ele><time>2026-04-18T07:04:40.959Z</time></trkpt><trkpt lat="40.6222333" lon="15.1414583"><ele>141.0</ele><time>2026-04-18T07:04:42.959Z</time></trkpt><trkpt lat="40.6221183" lon="15.1414967"><ele>141.0</ele><time>2026-04-18T07:04:44.959Z</time></trkpt><trkpt lat="40.622005" lon="15.141525"><ele>141.0</ele><time>2026-04-18T07:04:46.959Z</time></trkpt><trkpt lat="40.621885" lon="15.141555"><ele>141.0</ele><time>2026-04-18T07:04:48.959Z</time></trkpt><trkpt lat="40.621785" lon="15.1416283"><ele>141.66666666666666</ele><time>2026-04-18T07:04:50.959Z</time></trkpt><trkpt lat="40.62174" lon="15.1416867"><ele>142.33333333333334</ele><time>2026-04-18T07:04:51.959Z</time></trkpt><trkpt lat="40.6216983" lon="15.1417533"><ele>143.0</ele><time>2026-04-18T07:04:52.959Z</time></trkpt><trkpt lat="40.6216567" lon="15.141825"><ele>143.66666666666669</ele><time>2026-04-18T07:04:53.959Z</time></trkpt><trkpt lat="40.62158" lon="15.1419417"><ele>144.33333333333334</ele><time>2026-04-18T07:04:55.959Z</time></trkpt><trkpt lat="40.6215" lon="15.1420317"><ele>145.0</ele><time>2026-04-18T07:04:57.959Z</time></trkpt><trkpt lat="40.6214233" lon="15.14213"><ele>145.0</ele><time>2026-04-18T07:04:59.959Z</time></trkpt><trkpt lat="40.621335" lon="15.1422417"><ele>145.0</ele><time>2026-04-18T07:05:01.959Z</time></trkpt><trkpt lat="40.62128" lon="15.1423017"><ele>145.0</ele><time>2026-04-18T07:05:02.959Z</time></trkpt><trkpt lat="40.621225" lon="15.142365"><ele>145.0</ele><time>2026-04-18T07:05:03.959Z</time></trkpt><trkpt lat="40.6211667" lon="15.1424283"><ele>145.0</ele><time>2026-04-18T07:05:04.959Z</time></trkpt><trkpt lat="40.6211117" lon="15.1424917"><ele>145.0</ele><time>2026-04-18T07:05:05.959Z</time></trkpt><trkpt lat="40.6210583" lon="15.1425517"><ele>144.85714285714286</ele><time>2026-04-18T07:05:06.96Z</time></trkpt><trkpt lat="40.6210067" lon="15.1426117"><ele>144.71428571428572</ele><time>2026-04-18T07:05:07.959Z</time></trkpt><trkpt lat="40.6209517" lon="15.1426767"><ele>144.57142857142858</ele><time>2026-04-18T07:05:08.959Z</time></trkpt><trkpt lat="40.6208983" lon="15.1427383"><ele>144.42857142857144</ele><time>2026-04-18T07:05:09.959Z</time></trkpt><trkpt lat="40.620835" lon="15.14279"><ele>144.28571428571428</ele><time>2026-04-18T07:05:10.959Z</time></trkpt><trkpt lat="40.6207733" lon="15.14285"><ele>144.14285714285717</ele><time>2026-04-18T07:05:11.959Z</time></trkpt><trkpt lat="40.6207167" lon="15.14291"><ele>144.0</ele><time>2026-04-18T07:05:12.959Z</time></trkpt><trkpt lat="40.6206567" lon="15.142975"><ele>144.0</ele><time>2026-04-18T07:05:13.959Z</time></trkpt><trkpt lat="40.620565" lon="15.1430883"><ele>144.0</ele><time>2026-04-18T07:05:15.959Z</time></trkpt><trkpt lat="40.6204717" lon="15.14319"><ele>144.0</ele><time>2026-04-18T07:05:17.959Z</time></trkpt><trkpt lat="40.6204183" lon="15.1432467"><ele>144.0</ele><time>2026-04-18T07:05:18.959Z</time></trkpt><trkpt lat="40.620335" lon="15.143355"><ele>144.0</ele><time>2026-04-18T07:05:20.959Z</time></trkpt><trkpt lat="40.620265" lon="15.1434383"><ele>143.33333333333334</ele><time>2026-04-18T07:05:22.959Z</time></trkpt><trkpt lat="40.6201933" lon="15.1434267"><ele>142.66666666666666</ele><time>2026-04-18T07:05:25.959Z</time></trkpt><trkpt lat="40.6201417" lon="15.143355"><ele>142.0</ele><time>2026-04-18T07:05:30.959Z</time></trkpt><trkpt lat="40.620035" lon="15.1432683"><ele>141.33333333333331</ele><time>2026-04-18T07:05:32.959Z</time></trkpt><trkpt lat="40.6199767" lon="15.1432233"><ele>140.66666666666666</ele><time>2026-04-18T07:05:33.959Z</time></trkpt><trkpt lat="40.6199183" lon="15.1431817"><ele>140.0</ele><time>2026-04-18T07:05:34.959Z</time></trkpt><trkpt lat="40.6198533" lon="15.1431367"><ele>139.6</ele><time>2026-04-18T07:05:35.959Z</time></trkpt><trkpt lat="40.6197883" lon="15.1430917"><ele>139.2</ele><time>2026-04-18T07:05:36.959Z</time></trkpt><trkpt lat="40.6197267" lon="15.1430417"><ele>138.8</ele><time>2026-04-18T07:05:37.959Z</time></trkpt><trkpt lat="40.6196167" lon="15.14297"><ele>138.4</ele><time>2026-04-18T07:05:39.959Z</time></trkpt><trkpt lat="40.6195133" lon="15.1429167"><ele>138.0</ele><time>2026-04-18T07:05:41.96Z</time></trkpt><trkpt lat="40.6194167" lon="15.142845"><ele>137.25</ele><time>2026-04-18T07:05:43.959Z</time></trkpt><trkpt lat="40.6193333" lon="15.14278"><ele>136.5</ele><time>2026-04-18T07:05:45.959Z</time></trkpt><trkpt lat="40.619235" lon="15.1427"><ele>135.75</ele><time>2026-04-18T07:05:47.959Z</time></trkpt><trkpt lat="40.6191317" lon="15.1426167"><ele>135.0</ele><time>2026-04-18T07:05:49.959Z</time></trkpt><trkpt lat="40.6190233" lon="15.14253"><ele>135.0</ele><time>2026-04-18T07:05:51.959Z</time></trkpt><trkpt lat="40.6189267" lon="15.142435"><ele>135.0</ele><time>2026-04-18T07:05:53.959Z</time></trkpt><trkpt lat="40.6188317" lon="15.1423583"><ele>135.0</ele><time>2026-04-18T07:05:55.96Z</time></trkpt><trkpt lat="40.61874" lon="15.14228"><ele>135.0</ele><time>2026-04-18T07:05:57.959Z</time></trkpt><trkpt lat="40.6186817" lon="15.1422433"><ele>135.0</ele><time>2026-04-18T07:05:58.959Z</time></trkpt><trkpt lat="40.61862" lon="15.1422"><ele>133.66666666666666</ele><time>2026-04-18T07:05:59.959Z</time></trkpt><trkpt lat="40.61856" lon="15.142155"><ele>132.33333333333334</ele><time>2026-04-18T07:06:00.959Z</time></trkpt><trkpt lat="40.6184933" lon="15.1421067"><ele>131.0</ele><time>2026-04-18T07:06:01.959Z</time></trkpt><trkpt lat="40.6184283" lon="15.14205"><ele>129.66666666666669</ele><time>2026-04-18T07:06:02.959Z</time></trkpt><trkpt lat="40.618365" lon="15.1419933"><ele>128.33333333333334</ele><time>2026-04-18T07:06:03.959Z</time></trkpt><trkpt lat="40.6182983" lon="15.14194"><ele>127.0</ele><time>2026-04-18T07:06:04.959Z</time></trkpt><trkpt lat="40.6182333" lon="15.1418933"><ele>127.0</ele><time>2026-04-18T07:06:05.96Z</time></trkpt><trkpt lat="40.6181667" lon="15.14184"><ele>127.0</ele><time>2026-04-18T07:06:06.959Z</time></trkpt><trkpt lat="40.6181033" lon="15.14179"><ele>127.0</ele><time>2026-04-18T07:06:07.959Z</time></trkpt><trkpt lat="40.618045" lon="15.1417417"><ele>127.0</ele><time>2026-04-18T07:06:08.959Z</time></trkpt><trkpt lat="40.61799" lon="15.1416983"><ele>127.0</ele><time>2026-04-18T07:06:09.959Z</time></trkpt><trkpt lat="40.6179333" lon="15.141655"><ele>127.0</ele><time>2026-04-18T07:06:10.959Z</time></trkpt><trkpt lat="40.6178783" lon="15.1416083"><ele>127.0</ele><time>2026-04-18T07:06:11.959Z</time></trkpt><trkpt lat="40.617825" lon="15.14156"><ele>125.66666666666667</ele><time>2026-04-18T07:06:12.959Z</time></trkpt><trkpt lat="40.617745" lon="15.1414967"><ele>124.33333333333334</ele><time>2026-04-18T07:06:14.959Z</time></trkpt><trkpt lat="40.6177067" lon="15.1414233"><ele>123.0</ele><time>2026-04-18T07:06:16.959Z</time></trkpt><trkpt lat="40.617725" lon="15.1413417"><ele>121.66666666666666</ele><time>2026-04-18T07:06:18.959Z</time></trkpt><trkpt lat="40.6177583" lon="15.1412367"><ele>120.33333333333333</ele><time>2026-04-18T07:06:20.959Z</time></trkpt><trkpt lat="40.61779" lon="15.14114"><ele>119.0</ele><time>2026-04-18T07:06:22.959Z</time></trkpt><trkpt lat="40.6178033" lon="15.1410483"><ele>119.6</ele><time>2026-04-18T07:06:24.959Z</time></trkpt><trkpt lat="40.6178317" lon="15.1409483"><ele>120.2</ele><time>2026-04-18T07:06:26.959Z</time></trkpt><trkpt lat="40.61786" lon="15.14084"><ele>120.79999999999998</ele><time>2026-04-18T07:06:28.959Z</time></trkpt><trkpt lat="40.617885" lon="15.1407267"><ele>121.39999999999999</ele><time>2026-04-18T07:06:30.959Z</time></trkpt><trkpt lat="40.6179183" lon="15.1405933"><ele>122.0</ele><time>2026-04-18T07:06:32.959Z</time></trkpt><trkpt lat="40.6179733" lon="15.1404533"><ele>121.99999999999999</ele><time>2026-04-18T07:06:34.959Z</time></trkpt><trkpt lat="40.6180633" lon="15.14036"><ele>122.0</ele><time>2026-04-18T07:06:36.96Z</time></trkpt><trkpt lat="40.6181217" lon="15.1403183"><ele>122.0</ele><time>2026-04-18T07:06:37.959Z</time></trkpt><trkpt lat="40.6181817" lon="15.14028"><ele>122.0</ele><time>2026-04-18T07:06:38.959Z</time></trkpt><trkpt lat="40.6182433" lon="15.1402433"><ele>121.99999999999999</ele><time>2026-04-18T07:06:39.959Z</time></trkpt><trkpt lat="40.6183467" lon="15.1401767"><ele>122.0</ele><time>2026-04-18T07:06:41.959Z</time></trkpt><trkpt lat="40.6184183" lon="15.1401317"><ele>121.99999999999999</ele><time>2026-04-18T07:06:43.959Z</time></trkpt><trkpt lat="40.6184817" lon="15.140085"><ele>122.0</ele><time>2026-04-18T07:06:45.959Z</time></trkpt><trkpt lat="40.61856" lon="15.1400283"><ele>122.0</ele><time>2026-04-18T07:06:47.959Z</time></trkpt><trkpt lat="40.618665" lon="15.1399567"><ele>122.0</ele><time>2026-04-18T07:06:49.959Z</time></trkpt><trkpt lat="40.618725" lon="15.1399183"><ele>121.99999999999999</ele><time>2026-04-18T07:06:50.959Z</time></trkpt><trkpt lat="40.61879" lon="15.139875"><ele>122.0</ele><time>2026-04-18T07:06:51.959Z</time></trkpt><trkpt lat="40.6188567" lon="15.1398267"><ele>121.99999999999999</ele><time>2026-04-18T07:06:52.96Z</time></trkpt><trkpt lat="40.61892" lon="15.1397833"><ele>122.0</ele><time>2026-04-18T07:06:53.959Z</time></trkpt><trkpt lat="40.618985" lon="15.13974"><ele>122.0</ele><time>2026-04-18T07:06:54.959Z</time></trkpt><trkpt lat="40.6190533" lon="15.1397"><ele>122.0</ele><time>2026-04-18T07:06:55.959Z</time></trkpt><trkpt lat="40.6191183" lon="15.139655"><ele>121.99999999999999</ele><time>2026-04-18T07:06:56.959Z</time></trkpt><trkpt lat="40.61919" lon="15.13961"><ele>122.0</ele><time>2026-04-18T07:06:57.959Z</time></trkpt><trkpt lat="40.619265" lon="15.1395583"><ele>121.99999999999999</ele><time>2026-04-18T07:06:58.959Z</time></trkpt><trkpt lat="40.6193383" lon="15.1395117"><ele>122.0</ele><time>2026-04-18T07:06:59.959Z</time></trkpt><trkpt lat="40.619415" lon="15.1394633"><ele>122.0</ele><time>2026-04-18T07:07:00.959Z</time></trkpt><trkpt lat="40.6194933" lon="15.1394133"><ele>122.0</ele><time>2026-04-18T07:07:01.959Z</time></trkpt><trkpt lat="40.6195667" lon="15.1393733"><ele>121.99999999999999</ele><time>2026-04-18T07:07:02.959Z</time></trkpt><trkpt lat="40.6196333" lon="15.1393317"><ele>122.0</ele><time>2026-04-18T07:07:03.959Z</time></trkpt><trkpt lat="40.6196983" lon="15.1392883"><ele>122.7142857142857</ele><time>2026-04-18T07:07:04.959Z</time></trkpt><trkpt lat="40.6197617" lon="15.13924"><ele>123.42857142857142</ele><time>2026-04-18T07:07:05.959Z</time></trkpt><trkpt lat="40.6198283" lon="15.13919"><ele>124.14285714285714</ele><time>2026-04-18T07:07:06.959Z</time></trkpt><trkpt lat="40.6198833" lon="15.139125"><ele>124.85714285714285</ele><time>2026-04-18T07:07:07.959Z</time></trkpt><trkpt lat="40.6199217" lon="15.1390433"><ele>125.57142857142856</ele><time>2026-04-18T07:07:08.959Z</time></trkpt><trkpt lat="40.6199483" lon="15.1389483"><ele>126.28571428571429</ele><time>2026-04-18T07:07:09.959Z</time></trkpt><trkpt lat="40.6199583" lon="15.1388517"><ele>127.0</ele><time>2026-04-18T07:07:10.959Z</time></trkpt><trkpt lat="40.61996" lon="15.138755"><ele>127.66666666666667</ele><time>2026-04-18T07:07:11.959Z</time></trkpt><trkpt lat="40.6199433" lon="15.13866"><ele>128.33333333333334</ele><time>2026-04-18T07:07:12.959Z</time></trkpt><trkpt lat="40.6199117" lon="15.13856"><ele>129.0</ele><time>2026-04-18T07:07:13.96Z</time></trkpt><trkpt lat="40.6198833" lon="15.1384567"><ele>129.66666666666666</ele><time>2026-04-18T07:07:14.959Z</time></trkpt><trkpt lat="40.61985" lon="15.1383583"><ele>130.33333333333331</ele><time>2026-04-18T07:07:15.959Z</time></trkpt><trkpt lat="40.6198033" lon="15.13827"><ele>131.0</ele><time>2026-04-18T07:07:16.959Z</time></trkpt><trkpt lat="40.61974" lon="15.13822"><ele>131.0</ele><time>2026-04-18T07:07:17.96Z</time></trkpt><trkpt lat="40.619665" lon="15.1382183"><ele>131.0</ele><time>2026-04-18T07:07:18.96Z</time></trkpt><trkpt lat="40.61958" lon="15.1382083"><ele>131.0</ele><time>2026-04-18T07:07:19.959Z</time></trkpt><trkpt lat="40.61948" lon="15.1381167"><ele>131.0</ele><time>2026-04-18T07:07:21.959Z</time></trkpt><trkpt lat="40.61945" lon="15.13804"><ele>131.0</ele><time>2026-04-18T07:07:22.959Z</time></trkpt><trkpt lat="40.6194467" lon="15.1378767"><ele>131.16666666666666</ele><time>2026-04-18T07:07:24.959Z</time></trkpt><trkpt lat="40.6194867" lon="15.1377733"><ele>131.33333333333331</ele><time>2026-04-18T07:07:26.959Z</time></trkpt><trkpt lat="40.619455" lon="15.13769"><ele>131.5</ele><time>2026-04-18T07:07:30.959Z</time></trkpt><trkpt lat="40.619375" lon="15.1376483"><ele>131.66666666666666</ele><time>2026-04-18T07:07:34.959Z</time></trkpt><trkpt lat="40.6192733" lon="15.13757"><ele>131.83333333333334</ele><time>2026-04-18T07:07:36.959Z</time></trkpt><trkpt lat="40.6192183" lon="15.1375167"><ele>132.0</ele><time>2026-04-18T07:07:37.959Z</time></trkpt><trkpt lat="40.6191633" lon="15.1374383"><ele>132.14285714285714</ele><time>2026-04-18T07:07:38.959Z</time></trkpt><trkpt lat="40.6191183" lon="15.1373633"><ele>132.28571428571428</ele><time>2026-04-18T07:07:39.959Z</time></trkpt><trkpt lat="40.6190683" lon="15.137295"><ele>132.42857142857144</ele><time>2026-04-18T07:07:40.959Z</time></trkpt><trkpt lat="40.6190333" lon="15.137215"><ele>132.57142857142856</ele><time>2026-04-18T07:07:41.959Z</time></trkpt><trkpt lat="40.619" lon="15.1371317"><ele>132.71428571428572</ele><time>2026-04-18T07:07:42.959Z</time></trkpt><trkpt lat="40.6189583" lon="15.1370483"><ele>132.85714285714286</ele><time>2026-04-18T07:07:43.959Z</time></trkpt><trkpt lat="40.6189233" lon="15.1369667"><ele>133.0</ele><time>2026-04-18T07:07:44.959Z</time></trkpt><trkpt lat="40.6188883" lon="15.13689"><ele>133.0</ele><time>2026-04-18T07:07:45.959Z</time></trkpt><trkpt lat="40.6188517" lon="15.1368083"><ele>133.0</ele><time>2026-04-18T07:07:46.959Z</time></trkpt><trkpt lat="40.618815" lon="15.1367183"><ele>133.0</ele><time>2026-04-18T07:07:47.959Z</time></trkpt><trkpt lat="40.61878" lon="15.1366267"><ele>133.0</ele><time>2026-04-18T07:07:48.959Z</time></trkpt><trkpt lat="40.6187483" lon="15.1365317"><ele>133.0</ele><time>2026-04-18T07:07:49.959Z</time></trkpt><trkpt lat="40.6187217" lon="15.1364283"><ele>133.0</ele><time>2026-04-18T07:07:50.959Z</time></trkpt><trkpt lat="40.6187033" lon="15.136335"><ele>133.0</ele><time>2026-04-18T07:07:51.959Z</time></trkpt><trkpt lat="40.6186883" lon="15.1362367"><ele>133.0</ele><time>2026-04-18T07:07:52.959Z</time></trkpt><trkpt lat="40.6186783" lon="15.1361333"><ele>133.0</ele><time>2026-04-18T07:07:53.959Z</time></trkpt><trkpt lat="40.6186717" lon="15.1360417"><ele>133.0</ele><time>2026-04-18T07:07:54.959Z</time></trkpt><trkpt lat="40.618665" lon="15.135955"><ele>133.0</ele><time>2026-04-18T07:07:55.959Z</time></trkpt><trkpt lat="40.6186633" lon="15.1358617"><ele>133.0</ele><time>2026-04-18T07:07:56.959Z</time></trkpt><trkpt lat="40.6186717" lon="15.1357667"><ele>133.0</ele><time>2026-04-18T07:07:57.959Z</time></trkpt><trkpt lat="40.6186867" lon="15.1356733"><ele>132.83333333333334</ele><time>2026-04-18T07:07:58.959Z</time></trkpt><trkpt lat="40.6187083" lon="15.135595"><ele>132.66666666666669</ele><time>2026-04-18T07:07:59.96Z</time></trkpt><trkpt lat="40.6187667" lon="15.13545"><ele>132.5</ele><time>2026-04-18T07:08:01.959Z</time></trkpt><trkpt lat="40.6188067" lon="15.135375"><ele>132.33333333333334</ele><time>2026-04-18T07:08:02.959Z</time></trkpt><trkpt lat="40.61885" lon="15.1353"><ele>132.16666666666666</ele><time>2026-04-18T07:08:03.959Z</time></trkpt><trkpt lat="40.6188967" lon="15.13522"><ele>132.0</ele><time>2026-04-18T07:08:04.959Z</time></trkpt><trkpt lat="40.61894" lon="15.13515"><ele>132.0</ele><time>2026-04-18T07:08:05.959Z</time></trkpt><trkpt lat="40.6189717" lon="15.1350767"><ele>132.0</ele><time>2026-04-18T07:08:06.959Z</time></trkpt><trkpt lat="40.6189967" lon="15.1349883"><ele>132.0</ele><time>2026-04-18T07:08:07.959Z</time></trkpt><trkpt lat="40.619" lon="15.134895"><ele>132.0</ele><time>2026-04-18T07:08:08.959Z</time></trkpt><trkpt lat="40.6189883" lon="15.134805"><ele>132.0</ele><time>2026-04-18T07:08:09.959Z</time></trkpt><trkpt lat="40.61897" lon="15.134725"><ele>132.0</ele><time>2026-04-18T07:08:10.959Z</time></trkpt><trkpt lat="40.6189417" lon="15.1345933"><ele>132.0</ele><time>2026-04-18T07:08:12.959Z</time></trkpt><trkpt lat="40.61897" lon="15.1344433"><ele>131.85714285714286</ele><time>2026-04-18T07:08:14.959Z</time></trkpt><trkpt lat="40.6189867" lon="15.1343583"><ele>131.71428571428572</ele><time>2026-04-18T07:08:15.96Z</time></trkpt><trkpt lat="40.6189983" lon="15.1342733"><ele>131.57142857142858</ele><time>2026-04-18T07:08:16.959Z</time></trkpt><trkpt lat="40.6190183" lon="15.1341817"><ele>131.42857142857144</ele><time>2026-04-18T07:08:17.959Z</time></trkpt><trkpt lat="40.61904" lon="15.1340933"><ele>131.2857142857143</ele><time>2026-04-18T07:08:18.959Z</time></trkpt><trkpt lat="40.6190633" lon="15.1339967"><ele>131.14285714285714</ele><time>2026-04-18T07:08:19.959Z</time></trkpt><trkpt lat="40.61908" lon="15.13388"><ele>131.0</ele><time>2026-04-18T07:08:20.959Z</time></trkpt><trkpt lat="40.6190883" lon="15.1337733"><ele>130.83333333333331</ele><time>2026-04-18T07:08:21.959Z</time></trkpt><trkpt lat="40.6191" lon="15.13367"><ele>130.66666666666666</ele><time>2026-04-18T07:08:22.959Z</time></trkpt><trkpt lat="40.619115" lon="15.13357"><ele>130.5</ele><time>2026-04-18T07:08:23.959Z</time></trkpt><trkpt lat="40.6191383" lon="15.1334733"><ele>130.33333333333334</ele><time>2026-04-18T07:08:24.959Z</time></trkpt><trkpt lat="40.61915" lon="15.1333783"><ele>130.16666666666669</ele><time>2026-04-18T07:08:25.959Z</time></trkpt><trkpt lat="40.6191683" lon="15.1332833"><ele>130.0</ele><time>2026-04-18T07:08:26.959Z</time></trkpt><trkpt lat="40.61919" lon="15.13319"><ele>129.71428571428572</ele><time>2026-04-18T07:08:27.959Z</time></trkpt><trkpt lat="40.61921" lon="15.1330983"><ele>129.42857142857144</ele><time>2026-04-18T07:08:28.959Z</time></trkpt><trkpt lat="40.6192317" lon="15.1330067"><ele>129.14285714285714</ele><time>2026-04-18T07:08:29.959Z</time></trkpt><trkpt lat="40.6192567" lon="15.1329117"><ele>128.85714285714286</ele><time>2026-04-18T07:08:30.959Z</time></trkpt><trkpt lat="40.6192767" lon="15.1328117"><ele>128.57142857142856</ele><time>2026-04-18T07:08:31.959Z</time></trkpt><trkpt lat="40.6193017" lon="15.1327167"><ele>128.28571428571428</ele><time>2026-04-18T07:08:32.959Z</time></trkpt><trkpt lat="40.619325" lon="15.1326267"><ele>128.0</ele><time>2026-04-18T07:08:33.959Z</time></trkpt><trkpt lat="40.6193483" lon="15.13254"><ele>127.99999999999999</ele><time>2026-04-18T07:08:34.959Z</time></trkpt><trkpt lat="40.6193683" lon="15.132455"><ele>128.0</ele><time>2026-04-18T07:08:35.959Z</time></trkpt><trkpt lat="40.6194133" lon="15.1323"><ele>128.0</ele><time>2026-04-18T07:08:37.96Z</time></trkpt><trkpt lat="40.6194383" lon="15.1322233"><ele>128.0</ele><time>2026-04-18T07:08:38.959Z</time></trkpt><trkpt lat="40.6194683" lon="15.13214"><ele>127.99999999999999</ele><time>2026-04-18T07:08:39.959Z</time></trkpt><trkpt lat="40.6194967" lon="15.1320583"><ele>128.0</ele><time>2026-04-18T07:08:40.959Z</time></trkpt><trkpt lat="40.6195317" lon="15.131975"><ele>128.0</ele><time>2026-04-18T07:08:41.959Z</time></trkpt><trkpt lat="40.6195667" lon="15.131895"><ele>127.99999999999999</ele><time>2026-04-18T07:08:42.959Z</time></trkpt><trkpt lat="40.6195983" lon="15.1318217"><ele>128.0</ele><time>2026-04-18T07:08:43.959Z</time></trkpt><trkpt lat="40.6196367" lon="15.13175"><ele>128.0</ele><time>2026-04-18T07:08:44.959Z</time></trkpt><trkpt lat="40.6196833" lon="15.131685"><ele>127.99999999999999</ele><time>2026-04-18T07:08:45.959Z</time></trkpt><trkpt lat="40.6197383" lon="15.131615"><ele>128.0</ele><time>2026-04-18T07:08:46.959Z</time></trkpt><trkpt lat="40.619795" lon="15.1315467"><ele>128.0</ele><time>2026-04-18T07:08:47.959Z</time></trkpt><trkpt lat="40.61985" lon="15.1314817"><ele>127.99999999999999</ele><time>2026-04-18T07:08:48.959Z</time></trkpt><trkpt lat="40.61991" lon="15.1314133"><ele>128.0</ele><time>2026-04-18T07:08:49.959Z</time></trkpt><trkpt lat="40.61997" lon="15.1313483"><ele>128.0</ele><time>2026-04-18T07:08:50.959Z</time></trkpt><trkpt lat="40.6200383" lon="15.1312867"><ele>128.0</ele><time>2026-04-18T07:08:51.959Z</time></trkpt><trkpt lat="40.62011" lon="15.1312317"><ele>127.99999999999999</ele><time>2026-04-18T07:08:52.959Z</time></trkpt><trkpt lat="40.6201867" lon="15.1311733"><ele>128.0</ele><time>2026-04-18T07:08:53.959Z</time></trkpt><trkpt lat="40.6202567" lon="15.13111"><ele>128.33333333333331</ele><time>2026-04-18T07:08:54.959Z</time></trkpt><trkpt lat="40.620325" lon="15.1310433"><ele>128.66666666666666</ele><time>2026-04-18T07:08:55.959Z</time></trkpt><trkpt lat="40.6203933" lon="15.1309767"><ele>129.0</ele><time>2026-04-18T07:08:56.959Z</time></trkpt><trkpt lat="40.620455" lon="15.130895"><ele>129.33333333333334</ele><time>2026-04-18T07:08:57.959Z</time></trkpt><trkpt lat="40.62051" lon="15.130805"><ele>129.66666666666669</ele><time>2026-04-18T07:08:58.959Z</time></trkpt><trkpt lat="40.6205617" lon="15.130725"><ele>130.0</ele><time>2026-04-18T07:08:59.959Z</time></trkpt><trkpt lat="40.6206167" lon="15.1306483"><ele>130.0</ele><time>2026-04-18T07:09:00.959Z</time></trkpt><trkpt lat="40.62067" lon="15.1305667"><ele>130.0</ele><time>2026-04-18T07:09:01.96Z</time></trkpt><trkpt lat="40.6207283" lon="15.1304967"><ele>130.0</ele><time>2026-04-18T07:09:02.959Z</time></trkpt><trkpt lat="40.620785" lon="15.1304333"><ele>130.0</ele><time>2026-04-18T07:09:03.959Z</time></trkpt><trkpt lat="40.6208417" lon="15.1303633"><ele>130.0</ele><time>2026-04-18T07:09:04.959Z</time></trkpt><trkpt lat="40.6208983" lon="15.1302867"><ele>130.0</ele><time>2026-04-18T07:09:05.959Z</time></trkpt><trkpt lat="40.6209533" lon="15.1302167"><ele>130.0</ele><time>2026-04-18T07:09:06.959Z</time></trkpt><trkpt lat="40.621015" lon="15.130145"><ele>130.0</ele><time>2026-04-18T07:09:07.959Z</time></trkpt><trkpt lat="40.6210833" lon="15.1300833"><ele>130.0</ele><time>2026-04-18T07:09:08.959Z</time></trkpt><trkpt lat="40.6211567" lon="15.1300217"><ele>130.0</ele><time>2026-04-18T07:09:09.959Z</time></trkpt><trkpt lat="40.6212317" lon="15.12996"><ele>130.0</ele><time>2026-04-18T07:09:10.959Z</time></trkpt><trkpt lat="40.62131" lon="15.1299017"><ele>130.0</ele><time>2026-04-18T07:09:11.959Z</time></trkpt><trkpt lat="40.621385" lon="15.129855"><ele>130.0</ele><time>2026-04-18T07:09:12.959Z</time></trkpt><trkpt lat="40.6214517" lon="15.12982"><ele>130.0</ele><time>2026-04-18T07:09:13.959Z</time></trkpt><trkpt lat="40.6215217" lon="15.1297917"><ele>130.0</ele><time>2026-04-18T07:09:14.959Z</time></trkpt><trkpt lat="40.6215933" lon="15.1297633"><ele>130.0</ele><time>2026-04-18T07:09:15.959Z</time></trkpt><trkpt lat="40.6216767" lon="15.1297333"><ele>130.0</ele><time>2026-04-18T07:09:16.959Z</time></trkpt><trkpt lat="40.621765" lon="15.1297017"><ele>130.0</ele><time>2026-04-18T07:09:17.959Z</time></trkpt><trkpt lat="40.6218533" lon="15.1296683"><ele>130.0</ele><time>2026-04-18T07:09:18.959Z</time></trkpt><trkpt lat="40.6219433" lon="15.129625"><ele>130.0</ele><time>2026-04-18T07:09:19.959Z</time></trkpt><trkpt lat="40.6220267" lon="15.1295817"><ele>130.0</ele><time>2026-04-18T07:09:20.959Z</time></trkpt><trkpt lat="40.62211" lon="15.129535"><ele>130.0</ele><time>2026-04-18T07:09:21.959Z</time></trkpt><trkpt lat="40.6221933" lon="15.1294817"><ele>130.0</ele><time>2026-04-18T07:09:22.959Z</time></trkpt><trkpt lat="40.6222667" lon="15.12942"><ele>130.0</ele><time>2026-04-18T07:09:23.959Z</time></trkpt><trkpt lat="40.62234" lon="15.1293533"><ele>130.0</ele><time>2026-04-18T07:09:24.959Z</time></trkpt><trkpt lat="40.622405" lon="15.1292733"><ele>130.0</ele><time>2026-04-18T07:09:25.958Z</time></trkpt><trkpt lat="40.6224633" lon="15.129185"><ele>130.0</ele><time>2026-04-18T07:09:26.958Z</time></trkpt><trkpt lat="40.6225183" lon="15.1291"><ele>130.0</ele><time>2026-04-18T07:09:27.958Z</time></trkpt><trkpt lat="40.6225717" lon="15.1290183"><ele>130.0</ele><time>2026-04-18T07:09:28.958Z</time></trkpt><trkpt lat="40.62262" lon="15.1289467"><ele>130.0</ele><time>2026-04-18T07:09:29.958Z</time></trkpt><trkpt lat="40.6226667" lon="15.1288767"><ele>130.0</ele><time>2026-04-18T07:09:30.958Z</time></trkpt><trkpt lat="40.62272" lon="15.1288033"><ele>130.0</ele><time>2026-04-18T07:09:31.958Z</time></trkpt><trkpt lat="40.622775" lon="15.128745"><ele>130.0</ele><time>2026-04-18T07:09:32.958Z</time></trkpt><trkpt lat="40.6228283" lon="15.128685"><ele>130.0</ele><time>2026-04-18T07:09:33.958Z</time></trkpt><trkpt lat="40.622915" lon="15.128605"><ele>130.0</ele><time>2026-04-18T07:09:35.958Z</time></trkpt><trkpt lat="40.6229683" lon="15.128555"><ele>130.5</ele><time>2026-04-18T07:09:37.958Z</time></trkpt><trkpt lat="40.62303" lon="15.1285317"><ele>131.0</ele><time>2026-04-18T07:09:39.958Z</time></trkpt><trkpt lat="40.6231433" lon="15.12853"><ele>131.5</ele><time>2026-04-18T07:09:41.958Z</time></trkpt><trkpt lat="40.6232283" lon="15.12852"><ele>132.0</ele><time>2026-04-18T07:09:42.958Z</time></trkpt><trkpt lat="40.6233167" lon="15.1285117"><ele>132.5</ele><time>2026-04-18T07:09:43.958Z</time></trkpt><trkpt lat="40.6234083" lon="15.1285067"><ele>133.0</ele><time>2026-04-18T07:09:44.958Z</time></trkpt><trkpt lat="40.623505" lon="15.1284917"><ele>133.0</ele><time>2026-04-18T07:09:45.958Z</time></trkpt><trkpt lat="40.6235967" lon="15.1284817"><ele>133.0</ele><time>2026-04-18T07:09:46.958Z</time></trkpt><trkpt lat="40.6237" lon="15.1284583"><ele>133.0</ele><time>2026-04-18T07:09:47.958Z</time></trkpt><trkpt lat="40.6238117" lon="15.1284217"><ele>133.0</ele><time>2026-04-18T07:09:48.958Z</time></trkpt><trkpt lat="40.6239233" lon="15.1283733"><ele>133.0</ele><time>2026-04-18T07:09:49.958Z</time></trkpt><trkpt lat="40.6240283" lon="15.1283083"><ele>133.4</ele><time>2026-04-18T07:09:50.959Z</time></trkpt><trkpt lat="40.6241283" lon="15.1282317"><ele>133.8</ele><time>2026-04-18T07:09:51.958Z</time></trkpt><trkpt lat="40.6242167" lon="15.128165"><ele>134.2</ele><time>2026-04-18T07:09:52.958Z</time></trkpt><trkpt lat="40.6243" lon="15.1281217"><ele>134.6</ele><time>2026-04-18T07:09:53.958Z</time></trkpt><trkpt lat="40.624395" lon="15.1281033"><ele>135.0</ele><time>2026-04-18T07:09:54.958Z</time></trkpt><trkpt lat="40.6244917" lon="15.1281"><ele>135.75</ele><time>2026-04-18T07:09:55.958Z</time></trkpt><trkpt lat="40.6245983" lon="15.1281083"><ele>136.5</ele><time>2026-04-18T07:09:56.958Z</time></trkpt><trkpt lat="40.6247133" lon="15.12811"><ele>137.25</ele><time>2026-04-18T07:09:57.958Z</time></trkpt><trkpt lat="40.6248317" lon="15.12811"><ele>138.0</ele><time>2026-04-18T07:09:58.958Z</time></trkpt><trkpt lat="40.62495" lon="15.128115"><ele>138.0</ele><time>2026-04-18T07:09:59.958Z</time></trkpt><trkpt lat="40.6250683" lon="15.1281033"><ele>138.0</ele><time>2026-04-18T07:10:00.958Z</time></trkpt><trkpt lat="40.6251867" lon="15.128075"><ele>138.0</ele><time>2026-04-18T07:10:01.958Z</time></trkpt><trkpt lat="40.62531" lon="15.128025"><ele>138.0</ele><time>2026-04-18T07:10:02.958Z</time></trkpt><trkpt lat="40.6254183" lon="15.1279567"><ele>138.5</ele><time>2026-04-18T07:10:03.958Z</time></trkpt><trkpt lat="40.6255333" lon="15.1278933"><ele>139.0</ele><time>2026-04-18T07:10:04.958Z</time></trkpt><trkpt lat="40.6256417" lon="15.1278317"><ele>139.5</ele><time>2026-04-18T07:10:05.958Z</time></trkpt><trkpt lat="40.625755" lon="15.127775"><ele>140.0</ele><time>2026-04-18T07:10:06.958Z</time></trkpt><trkpt lat="40.62587" lon="15.1277283"><ele>140.0</ele><time>2026-04-18T07:10:07.958Z</time></trkpt><trkpt lat="40.625985" lon="15.1276867"><ele>140.0</ele><time>2026-04-18T07:10:08.958Z</time></trkpt><trkpt lat="40.6261067" lon="15.127655"><ele>140.0</ele><time>2026-04-18T07:10:09.958Z</time></trkpt><trkpt lat="40.6262333" lon="15.127635"><ele>140.0</ele><time>2026-04-18T07:10:10.959Z</time></trkpt><trkpt lat="40.6263617" lon="15.12762"><ele>141.25</ele><time>2026-04-18T07:10:11.958Z</time></trkpt><trkpt lat="40.6264967" lon="15.127615"><ele>142.5</ele><time>2026-04-18T07:10:12.959Z</time></trkpt><trkpt lat="40.626625" lon="15.1276117"><ele>143.75</ele><time>2026-04-18T07:10:13.958Z</time></trkpt><trkpt lat="40.6267333" lon="15.1276067"><ele>145.0</ele><time>2026-04-18T07:10:14.958Z</time></trkpt><trkpt lat="40.6268317" lon="15.1275933"><ele>145.0</ele><time>2026-04-18T07:10:15.958Z</time></trkpt><trkpt lat="40.62692" lon="15.1275517"><ele>145.0</ele><time>2026-04-18T07:10:16.958Z</time></trkpt><trkpt lat="40.6270017" lon="15.1275"><ele>145.0</ele><time>2026-04-18T07:10:17.958Z</time></trkpt><trkpt lat="40.627075" lon="15.1274417"><ele>145.0</ele><time>2026-04-18T07:10:18.958Z</time></trkpt><trkpt lat="40.627145" lon="15.1273733"><ele>145.0</ele><time>2026-04-18T07:10:19.958Z</time></trkpt><trkpt lat="40.62721" lon="15.127285"><ele>145.4</ele><time>2026-04-18T07:10:20.958Z</time></trkpt><trkpt lat="40.6272783" lon="15.12719"><ele>145.8</ele><time>2026-04-18T07:10:21.958Z</time></trkpt><trkpt lat="40.62735" lon="15.1271017"><ele>146.2</ele><time>2026-04-18T07:10:22.958Z</time></trkpt><trkpt lat="40.6274167" lon="15.127015"><ele>146.6</ele><time>2026-04-18T07:10:23.958Z</time></trkpt><trkpt lat="40.6274967" lon="15.1269383"><ele>147.0</ele><time>2026-04-18T07:10:24.958Z</time></trkpt><trkpt lat="40.62759" lon="15.1268617"><ele>147.0</ele><time>2026-04-18T07:10:25.958Z</time></trkpt><trkpt lat="40.6276967" lon="15.12678"><ele>147.0</ele><time>2026-04-18T07:10:26.958Z</time></trkpt><trkpt lat="40.6278033" lon="15.1266983"><ele>147.0</ele><time>2026-04-18T07:10:27.958Z</time></trkpt><trkpt lat="40.6279167" lon="15.12661"><ele>147.0</ele><time>2026-04-18T07:10:28.958Z</time></trkpt><trkpt lat="40.6280333" lon="15.1265367"><ele>146.25</ele><time>2026-04-18T07:10:29.958Z</time></trkpt><trkpt lat="40.6281467" lon="15.1264767"><ele>145.5</ele><time>2026-04-18T07:10:30.958Z</time></trkpt><trkpt lat="40.6282467" lon="15.1264217"><ele>144.75</ele><time>2026-04-18T07:10:31.958Z</time></trkpt><trkpt lat="40.62836" lon="15.1263717"><ele>144.0</ele><time>2026-04-18T07:10:32.958Z</time></trkpt><trkpt lat="40.628465" lon="15.126345"><ele>144.0</ele><time>2026-04-18T07:10:33.958Z</time></trkpt><trkpt lat="40.62857" lon="15.12635"><ele>144.0</ele><time>2026-04-18T07:10:34.958Z</time></trkpt><trkpt lat="40.6286783" lon="15.1263717"><ele>144.0</ele><time>2026-04-18T07:10:35.958Z</time></trkpt><trkpt lat="40.6287917" lon="15.1264067"><ele>144.0</ele><time>2026-04-18T07:10:36.958Z</time></trkpt><trkpt lat="40.6289083" lon="15.1264433"><ele>143.75</ele><time>2026-04-18T07:10:37.958Z</time></trkpt><trkpt lat="40.6290217" lon="15.12647"><ele>143.5</ele><time>2026-04-18T07:10:38.958Z</time></trkpt><trkpt lat="40.6291383" lon="15.1264983"><ele>143.25</ele><time>2026-04-18T07:10:39.958Z</time></trkpt><trkpt lat="40.6292567" lon="15.1265367"><ele>143.0</ele><time>2026-04-18T07:10:40.958Z</time></trkpt><trkpt lat="40.6293767" lon="15.126575"><ele>145.5</ele><time>2026-04-18T07:10:41.958Z</time></trkpt><trkpt lat="40.6294967" lon="15.1266083"><ele>148.0</ele><time>2026-04-18T07:10:42.959Z</time></trkpt><trkpt lat="40.6296267" lon="15.1266367"><ele>150.5</ele><time>2026-04-18T07:10:43.958Z</time></trkpt><trkpt lat="40.6297583" lon="15.1266583"><ele>153.0</ele><time>2026-04-18T07:10:44.958Z</time></trkpt><trkpt lat="40.629885" lon="15.1266683"><ele>153.0</ele><time>2026-04-18T07:10:45.958Z</time></trkpt><trkpt lat="40.6300083" lon="15.12668"><ele>153.0</ele><time>2026-04-18T07:10:46.958Z</time></trkpt><trkpt lat="40.63012" lon="15.1266717"><ele>153.0</ele><time>2026-04-18T07:10:47.958Z</time></trkpt><trkpt lat="40.63023" lon="15.1266767"><ele>153.0</ele><time>2026-04-18T07:10:48.958Z</time></trkpt><trkpt lat="40.630345" lon="15.126695"><ele>153.5</ele><time>2026-04-18T07:10:49.958Z</time></trkpt><trkpt lat="40.6304533" lon="15.1267317"><ele>154.0</ele><time>2026-04-18T07:10:50.958Z</time></trkpt><trkpt lat="40.63057" lon="15.1267567"><ele>154.5</ele><time>2026-04-18T07:10:51.958Z</time></trkpt><trkpt lat="40.6306917" lon="15.1267733"><ele>155.0</ele><time>2026-04-18T07:10:52.958Z</time></trkpt><trkpt lat="40.630815" lon="15.126785"><ele>155.0</ele><time>2026-04-18T07:10:53.958Z</time></trkpt><trkpt lat="40.6309367" lon="15.1267917"><ele>155.0</ele><time>2026-04-18T07:10:54.958Z</time></trkpt><trkpt lat="40.6310567" lon="15.126795"><ele>155.0</ele><time>2026-04-18T07:10:55.958Z</time></trkpt><trkpt lat="40.6311767" lon="15.1268017"><ele>155.0</ele><time>2026-04-18T07:10:56.958Z</time></trkpt><trkpt lat="40.631295" lon="15.126815"><ele>155.0</ele><time>2026-04-18T07:10:57.958Z</time></trkpt><trkpt lat="40.6314167" lon="15.12683"><ele>155.0</ele><time>2026-04-18T07:10:58.959Z</time></trkpt><trkpt lat="40.63154" lon="15.1268383"><ele>155.0</ele><time>2026-04-18T07:10:59.958Z</time></trkpt><trkpt lat="40.6316633" lon="15.12685"><ele>155.0</ele><time>2026-04-18T07:11:00.958Z</time></trkpt><trkpt lat="40.6317767" lon="15.126855"><ele>155.0</ele><time>2026-04-18T07:11:01.958Z</time></trkpt><trkpt lat="40.631865" lon="15.1268633"><ele>155.0</ele><time>2026-04-18T07:11:02.958Z</time></trkpt><trkpt lat="40.6319367" lon="15.1268667"><ele>155.0</ele><time>2026-04-18T07:11:03.958Z</time></trkpt><trkpt lat="40.6320583" lon="15.1268583"><ele>155.0</ele><time>2026-04-18T07:11:05.958Z</time></trkpt><trkpt lat="40.6321217" lon="15.1268567"><ele>155.0</ele><time>2026-04-18T07:11:06.958Z</time></trkpt><trkpt lat="40.6321867" lon="15.1268533"><ele>155.0</ele><time>2026-04-18T07:11:07.958Z</time></trkpt><trkpt lat="40.632255" lon="15.12685"><ele>155.8</ele><time>2026-04-18T07:11:08.958Z</time></trkpt><trkpt lat="40.6323417" lon="15.1268367"><ele>156.6</ele><time>2026-04-18T07:11:09.958Z</time></trkpt><trkpt lat="40.632445" lon="15.1268117"><ele>157.4</ele><time>2026-04-18T07:11:10.958Z</time></trkpt><trkpt lat="40.6325567" lon="15.1267933"><ele>158.2</ele><time>2026-04-18T07:11:11.958Z</time></trkpt><trkpt lat="40.6326767" lon="15.1267783"><ele>159.0</ele><time>2026-04-18T07:11:12.958Z</time></trkpt><trkpt lat="40.6328067" lon="15.1267583"><ele>159.5</ele><time>2026-04-18T07:11:13.958Z</time></trkpt><trkpt lat="40.6329233" lon="15.1267283"><ele>160.0</ele><time>2026-04-18T07:11:14.958Z</time></trkpt><trkpt lat="40.6330383" lon="15.126705"><ele>160.5</ele><time>2026-04-18T07:11:15.958Z</time></trkpt><trkpt lat="40.6331567" lon="15.126685"><ele>161.0</ele><time>2026-04-18T07:11:16.958Z</time></trkpt><trkpt lat="40.633275" lon="15.126675"><ele>161.0</ele><time>2026-04-18T07:11:17.958Z</time></trkpt><trkpt lat="40.6333883" lon="15.1266533"><ele>161.0</ele><time>2026-04-18T07:11:18.958Z</time></trkpt><trkpt lat="40.6334983" lon="15.1266467"><ele>161.0</ele><time>2026-04-18T07:11:19.958Z</time></trkpt><trkpt lat="40.6336083" lon="15.1266483"><ele>161.0</ele><time>2026-04-18T07:11:20.958Z</time></trkpt><trkpt lat="40.63372" lon="15.126665"><ele>161.0</ele><time>2026-04-18T07:11:21.958Z</time></trkpt><trkpt lat="40.6338283" lon="15.1266883"><ele>161.75</ele><time>2026-04-18T07:11:22.959Z</time></trkpt><trkpt lat="40.6339367" lon="15.1267233"><ele>162.5</ele><time>2026-04-18T07:11:23.959Z</time></trkpt><trkpt lat="40.6340533" lon="15.126765"><ele>163.25</ele><time>2026-04-18T07:11:24.958Z</time></trkpt><trkpt lat="40.6341833" lon="15.12679"><ele>164.0</ele><time>2026-04-18T07:11:25.958Z</time></trkpt><trkpt lat="40.6343117" lon="15.1268033"><ele>164.0</ele><time>2026-04-18T07:11:26.958Z</time></trkpt><trkpt lat="40.6344217" lon="15.1268017"><ele>164.0</ele><time>2026-04-18T07:11:27.958Z</time></trkpt><trkpt lat="40.6344967" lon="15.1267983"><ele>164.0</ele><time>2026-04-18T07:11:28.958Z</time></trkpt><trkpt lat="40.6345833" lon="15.12683"><ele>164.0</ele><time>2026-04-18T07:11:30.958Z</time></trkpt><trkpt lat="40.6345383" lon="15.1269067"><ele>164.0</ele><time>2026-04-18T07:11:33.958Z</time></trkpt><trkpt lat="40.6344683" lon="15.1269633"><ele>164.0</ele><time>2026-04-18T07:11:36.959Z</time></trkpt><trkpt lat="40.6343717" lon="15.1270483"><ele>164.0</ele><time>2026-04-18T07:11:38.958Z</time></trkpt><trkpt lat="40.6343133" lon="15.1271083"><ele>164.0</ele><time>2026-04-18T07:11:39.958Z</time></trkpt><trkpt lat="40.63425" lon="15.1271717"><ele>164.0</ele><time>2026-04-18T07:11:40.959Z</time></trkpt><trkpt lat="40.6341883" lon="15.127235"><ele>164.0</ele><time>2026-04-18T07:11:41.958Z</time></trkpt><trkpt lat="40.63413" lon="15.1273"><ele>164.0</ele><time>2026-04-18T07:11:42.958Z</time></trkpt><trkpt lat="40.63407" lon="15.1273683"><ele>164.0</ele><time>2026-04-18T07:11:43.958Z</time></trkpt><trkpt lat="40.634005" lon="15.1274533"><ele>165.2</ele><time>2026-04-18T07:11:44.958Z</time></trkpt><trkpt lat="40.6339383" lon="15.1275417"><ele>166.39999999999998</ele><time>2026-04-18T07:11:45.958Z</time></trkpt><trkpt lat="40.6338733" lon="15.1276233"><ele>167.6</ele><time>2026-04-18T07:11:46.958Z</time></trkpt><trkpt lat="40.6338017" lon="15.1277017"><ele>168.8</ele><time>2026-04-18T07:11:47.958Z</time></trkpt><trkpt lat="40.6337283" lon="15.1277717"><ele>170.0</ele><time>2026-04-18T07:11:48.958Z</time></trkpt><trkpt lat="40.63366" lon="15.1278317"><ele>169.5</ele><time>2026-04-18T07:11:49.958Z</time></trkpt><trkpt lat="40.6335817" lon="15.1278783"><ele>169.0</ele><time>2026-04-18T07:11:50.958Z</time></trkpt><trkpt lat="40.6335067" lon="15.12792"><ele>168.5</ele><time>2026-04-18T07:11:51.958Z</time></trkpt><trkpt lat="40.633435" lon="15.1279583"><ele>168.0</ele><time>2026-04-18T07:11:52.958Z</time></trkpt><trkpt lat="40.6333667" lon="15.1279933"><ele>167.5</ele><time>2026-04-18T07:11:53.958Z</time></trkpt><trkpt lat="40.6333033" lon="15.1280317"><ele>167.0</ele><time>2026-04-18T07:11:54.959Z</time></trkpt><trkpt lat="40.6332" lon="15.1280967"><ele>167.0</ele><time>2026-04-18T07:11:56.958Z</time></trkpt><trkpt lat="40.6331283" lon="15.1281367"><ele>167.0</ele><time>2026-04-18T07:11:58.958Z</time></trkpt><trkpt lat="40.6331383" lon="15.1282617"><ele>167.0</ele><time>2026-04-18T07:12:02.958Z</time></trkpt><trkpt lat="40.6331767" lon="15.1284017"><ele>167.0</ele><time>2026-04-18T07:12:04.958Z</time></trkpt><trkpt lat="40.6331983" lon="15.128485"><ele>167.0</ele><time>2026-04-18T07:12:05.958Z</time></trkpt><trkpt lat="40.63322" lon="15.1285767"><ele>167.0</ele><time>2026-04-18T07:12:06.958Z</time></trkpt><trkpt lat="40.63323" lon="15.1286633"><ele>167.83333333333331</ele><time>2026-04-18T07:12:07.958Z</time></trkpt><trkpt lat="40.633245" lon="15.12875"><ele>168.66666666666666</ele><time>2026-04-18T07:12:08.958Z</time></trkpt><trkpt lat="40.6332683" lon="15.1288383"><ele>169.5</ele><time>2026-04-18T07:12:09.958Z</time></trkpt><trkpt lat="40.633295" lon="15.1289167"><ele>170.33333333333334</ele><time>2026-04-18T07:12:10.958Z</time></trkpt><trkpt lat="40.6333433" lon="15.1290667"><ele>171.16666666666669</ele><time>2026-04-18T07:12:12.958Z</time></trkpt><trkpt lat="40.6333617" lon="15.1291483"><ele>172.0</ele><time>2026-04-18T07:12:13.958Z</time></trkpt><trkpt lat="40.63338" lon="15.12923"><ele>172.71428571428572</ele><time>2026-04-18T07:12:14.958Z</time></trkpt><trkpt lat="40.6334" lon="15.1293117"><ele>173.42857142857144</ele><time>2026-04-18T07:12:15.958Z</time></trkpt><trkpt lat="40.6334267" lon="15.1293933"><ele>174.14285714285717</ele><time>2026-04-18T07:12:16.958Z</time></trkpt><trkpt lat="40.63346" lon="15.1294817"><ele>174.85714285714286</ele><time>2026-04-18T07:12:17.958Z</time></trkpt><trkpt lat="40.63349" lon="15.1295667"><ele>175.57142857142856</ele><time>2026-04-18T07:12:18.958Z</time></trkpt><trkpt lat="40.63352" lon="15.1296483"><ele>176.2857142857143</ele><time>2026-04-18T07:12:19.958Z</time></trkpt><trkpt lat="40.6335567" lon="15.129725"><ele>177.0</ele><time>2026-04-18T07:12:20.958Z</time></trkpt><trkpt lat="40.633595" lon="15.1298033"><ele>177.0</ele><time>2026-04-18T07:12:21.959Z</time></trkpt><trkpt lat="40.63362" lon="15.12988"><ele>177.0</ele><time>2026-04-18T07:12:22.958Z</time></trkpt><trkpt lat="40.6336217" lon="15.130045"><ele>177.0</ele><time>2026-04-18T07:12:24.958Z</time></trkpt><trkpt lat="40.6336283" lon="15.130135"><ele>177.0</ele><time>2026-04-18T07:12:25.958Z</time></trkpt><trkpt lat="40.6336483" lon="15.1302317"><ele>177.0</ele><time>2026-04-18T07:12:26.958Z</time></trkpt><trkpt lat="40.6336833" lon="15.1303317"><ele>177.0</ele><time>2026-04-18T07:12:27.958Z</time></trkpt><trkpt lat="40.6337233" lon="15.130445"><ele>177.8</ele><time>2026-04-18T07:12:28.958Z</time></trkpt><trkpt lat="40.6337583" lon="15.13057"><ele>178.6</ele><time>2026-04-18T07:12:29.958Z</time></trkpt><trkpt lat="40.6337783" lon="15.1306817"><ele>179.4</ele><time>2026-04-18T07:12:30.958Z</time></trkpt><trkpt lat="40.6337933" lon="15.1307783"><ele>180.20000000000002</ele><time>2026-04-18T07:12:31.958Z</time></trkpt><trkpt lat="40.633835" lon="15.1309167"><ele>181.0</ele><time>2026-04-18T07:12:33.958Z</time></trkpt><trkpt lat="40.6338883" lon="15.1310183"><ele>182.0</ele><time>2026-04-18T07:12:35.958Z</time></trkpt><trkpt lat="40.6339283" lon="15.1311117"><ele>183.0</ele><time>2026-04-18T07:12:37.958Z</time></trkpt><trkpt lat="40.6339617" lon="15.1312083"><ele>184.0</ele><time>2026-04-18T07:12:39.958Z</time></trkpt><trkpt lat="40.6339967" lon="15.1313117"><ele>185.0</ele><time>2026-04-18T07:12:41.958Z</time></trkpt><trkpt lat="40.634045" lon="15.131445"><ele>186.0</ele><time>2026-04-18T07:12:43.958Z</time></trkpt><trkpt lat="40.6340717" lon="15.1315317"><ele>187.0</ele><time>2026-04-18T07:12:44.958Z</time></trkpt><trkpt lat="40.6341033" lon="15.13162"><ele>187.66666666666669</ele><time>2026-04-18T07:12:45.959Z</time></trkpt><trkpt lat="40.6341283" lon="15.1317217"><ele>188.33333333333334</ele><time>2026-04-18T07:12:46.958Z</time></trkpt><trkpt lat="40.6341533" lon="15.1318233"><ele>189.0</ele><time>2026-04-18T07:12:47.958Z</time></trkpt><trkpt lat="40.63419" lon="15.131925"><ele>189.66666666666666</ele><time>2026-04-18T07:12:48.958Z</time></trkpt><trkpt lat="40.6342267" lon="15.1320233"><ele>190.33333333333331</ele><time>2026-04-18T07:12:49.958Z</time></trkpt><trkpt lat="40.6342533" lon="15.1321183"><ele>191.0</ele><time>2026-04-18T07:12:50.958Z</time></trkpt><trkpt lat="40.6342767" lon="15.1322133"><ele>191.0</ele><time>2026-04-18T07:12:51.958Z</time></trkpt><trkpt lat="40.6343033" lon="15.1323033"><ele>191.0</ele><time>2026-04-18T07:12:52.958Z</time></trkpt><trkpt lat="40.6343267" lon="15.1323867"><ele>191.0</ele><time>2026-04-18T07:12:53.958Z</time></trkpt><trkpt lat="40.6343517" lon="15.132465"><ele>191.0</ele><time>2026-04-18T07:12:54.958Z</time></trkpt><trkpt lat="40.6343717" lon="15.1325467"><ele>191.0</ele><time>2026-04-18T07:12:55.958Z</time></trkpt><trkpt lat="40.6344067" lon="15.1326683"><ele>191.0</ele><time>2026-04-18T07:12:57.958Z</time></trkpt><trkpt lat="40.6344067" lon="15.13285"><ele>191.66666666666666</ele><time>2026-04-18T07:13:48.959Z</time></trkpt><trkpt lat="40.63437" lon="15.1329333"><ele>192.33333333333331</ele><time>2026-04-18T07:13:49.958Z</time></trkpt><trkpt lat="40.6343483" lon="15.133055"><ele>193.0</ele><time>2026-04-18T07:13:51.958Z</time></trkpt><trkpt lat="40.63444" lon="15.1330917"><ele>193.66666666666666</ele><time>2026-04-18T07:13:54.958Z</time></trkpt><trkpt lat="40.634525" lon="15.1330983"><ele>194.33333333333334</ele><time>2026-04-18T07:13:56.958Z</time></trkpt><trkpt lat="40.63462" lon="15.1330883"><ele>195.0</ele><time>2026-04-18T07:13:58.958Z</time></trkpt><trkpt lat="40.634685" lon="15.1330783"><ele>195.5</ele><time>2026-04-18T07:13:59.958Z</time></trkpt><trkpt lat="40.6347617" lon="15.13306"><ele>196.0</ele><time>2026-04-18T07:14:00.958Z</time></trkpt><trkpt lat="40.6348433" lon="15.133015"><ele>196.5</ele><time>2026-04-18T07:14:01.958Z</time></trkpt><trkpt lat="40.6349183" lon="15.1329617"><ele>197.0</ele><time>2026-04-18T07:14:02.958Z</time></trkpt><trkpt lat="40.63499" lon="15.1329"><ele>197.5</ele><time>2026-04-18T07:14:03.958Z</time></trkpt><trkpt lat="40.6350583" lon="15.1328483"><ele>198.0</ele><time>2026-04-18T07:14:04.958Z</time></trkpt><trkpt lat="40.6351183" lon="15.1328"><ele>198.0</ele><time>2026-04-18T07:14:05.958Z</time></trkpt><trkpt lat="40.635205" lon="15.1326917"><ele>198.0</ele><time>2026-04-18T07:14:07.958Z</time></trkpt><trkpt lat="40.6352617" lon="15.1326317"><ele>198.0</ele><time>2026-04-18T07:14:09.958Z</time></trkpt><trkpt lat="40.6353233" lon="15.1327083"><ele>198.0</ele><time>2026-04-18T07:14:12.958Z</time></trkpt><trkpt lat="40.635375" lon="15.1328267"><ele>198.0</ele><time>2026-04-18T07:14:14.958Z</time></trkpt><trkpt lat="40.6354333" lon="15.132955"><ele>198.2</ele><time>2026-04-18T07:14:16.959Z</time></trkpt><trkpt lat="40.6354567" lon="15.1330333"><ele>198.4</ele><time>2026-04-18T07:14:17.958Z</time></trkpt><trkpt lat="40.63551" lon="15.1331767"><ele>198.6</ele><time>2026-04-18T07:14:19.958Z</time></trkpt><trkpt lat="40.63557" lon="15.133315"><ele>198.79999999999998</ele><time>2026-04-18T07:14:21.959Z</time></trkpt><trkpt lat="40.6356183" lon="15.1334483"><ele>199.0</ele><time>2026-04-18T07:14:23.958Z</time></trkpt><trkpt lat="40.6356217" lon="15.1335883"><ele>199.79999999999998</ele><time>2026-04-18T07:14:25.958Z</time></trkpt><trkpt lat="40.6356517" lon="15.1337417"><ele>200.6</ele><time>2026-04-18T07:14:27.958Z</time></trkpt><trkpt lat="40.6356983" lon="15.13388"><ele>201.4</ele><time>2026-04-18T07:14:29.958Z</time></trkpt><trkpt lat="40.6357617" lon="15.1340117"><ele>202.2</ele><time>2026-04-18T07:14:31.958Z</time></trkpt><trkpt lat="40.6358" lon="15.1340783"><ele>203.0</ele><time>2026-04-18T07:14:32.958Z</time></trkpt><trkpt lat="40.63587" lon="15.1342067"><ele>203.60000000000002</ele><time>2026-04-18T07:14:34.958Z</time></trkpt><trkpt lat="40.6359067" lon="15.1343533"><ele>204.20000000000002</ele><time>2026-04-18T07:14:36.958Z</time></trkpt><trkpt lat="40.6359317" lon="15.1344333"><ele>204.8</ele><time>2026-04-18T07:14:37.958Z</time></trkpt><trkpt lat="40.6359583" lon="15.13451"><ele>205.4</ele><time>2026-04-18T07:14:38.958Z</time></trkpt><trkpt lat="40.6360333" lon="15.1346267"><ele>206.0</ele><time>2026-04-18T07:14:40.958Z</time></trkpt><trkpt lat="40.6361483" lon="15.134685"><ele>206.5</ele><time>2026-04-18T07:14:42.958Z</time></trkpt><trkpt lat="40.6362567" lon="15.1347517"><ele>207.0</ele><time>2026-04-18T07:14:44.958Z</time></trkpt><trkpt lat="40.6363617" lon="15.1348083"><ele>207.5</ele><time>2026-04-18T07:14:46.958Z</time></trkpt><trkpt lat="40.63646" lon="15.1348783"><ele>208.0</ele><time>2026-04-18T07:14:48.958Z</time></trkpt><trkpt lat="40.6365717" lon="15.1349283"><ele>208.66666666666666</ele><time>2026-04-18T07:14:50.958Z</time></trkpt><trkpt lat="40.63663" lon="15.13496"><ele>209.33333333333331</ele><time>2026-04-18T07:14:51.959Z</time></trkpt><trkpt lat="40.6367383" lon="15.1350133"><ele>210.0</ele><time>2026-04-18T07:14:53.958Z</time></trkpt><trkpt lat="40.6368033" lon="15.1350517"><ele>210.66666666666669</ele><time>2026-04-18T07:14:55.958Z</time></trkpt><trkpt lat="40.6368567" lon="15.13511"><ele>211.33333333333334</ele><time>2026-04-18T07:14:58.959Z</time></trkpt><trkpt lat="40.6369083" lon="15.135205"><ele>212.0</ele><time>2026-04-18T07:15:01.958Z</time></trkpt><trkpt lat="40.6369433" lon="15.1352783"><ele>212.33333333333334</ele><time>2026-04-18T07:15:03.958Z</time></trkpt><trkpt lat="40.637005" lon="15.1353667"><ele>212.66666666666669</ele><time>2026-04-18T07:15:06.959Z</time></trkpt><trkpt lat="40.6370533" lon="15.1354583"><ele>213.0</ele><time>2026-04-18T07:15:09.958Z</time></trkpt><trkpt lat="40.63711" lon="15.135585"><ele>213.33333333333331</ele><time>2026-04-18T07:18:47.957Z</time></trkpt><trkpt lat="40.63715" lon="15.1356767"><ele>213.66666666666666</ele><time>2026-04-18T07:18:49.958Z</time></trkpt><trkpt lat="40.637185" lon="15.1357467"><ele>214.0</ele><time>2026-04-18T07:18:51.957Z</time></trkpt><trkpt lat="40.6372467" lon="15.1357267"><ele>214.0</ele><time>2026-04-18T07:18:53.957Z</time></trkpt><trkpt lat="40.63731" lon="15.135675"><ele>213.99999999999997</ele><time>2026-04-18T07:18:54.957Z</time></trkpt><trkpt lat="40.63739" lon="15.135605"><ele>213.99999999999997</ele><time>2026-04-18T07:18:55.957Z</time></trkpt><trkpt lat="40.6374867" lon="15.1355333"><ele>214.0</ele><time>2026-04-18T07:18:56.957Z</time></trkpt><trkpt lat="40.6375783" lon="15.1354767"><ele>214.0</ele><time>2026-04-18T07:18:57.957Z</time></trkpt><trkpt lat="40.637665" lon="15.13541"><ele>213.99999999999997</ele><time>2026-04-18T07:18:58.957Z</time></trkpt><trkpt lat="40.6377517" lon="15.1353583"><ele>214.0</ele><time>2026-04-18T07:18:59.957Z</time></trkpt><trkpt lat="40.6378217" lon="15.1353183"><ele>214.0</ele><time>2026-04-18T07:19:00.957Z</time></trkpt><trkpt lat="40.6378867" lon="15.1352783"><ele>214.0</ele><time>2026-04-18T07:19:01.957Z</time></trkpt><trkpt lat="40.63795" lon="15.1352"><ele>213.99999999999997</ele><time>2026-04-18T07:19:03.957Z</time></trkpt><trkpt lat="40.6379167" lon="15.1350983"><ele>214.0</ele><time>2026-04-18T07:19:06.957Z</time></trkpt><trkpt lat="40.6378417" lon="15.13508"><ele>214.0</ele><time>2026-04-18T07:19:08.957Z</time></trkpt><trkpt lat="40.6377317" lon="15.1351217"><ele>214.0</ele><time>2026-04-18T07:19:10.957Z</time></trkpt><trkpt lat="40.63765" lon="15.1351817"><ele>214.0</ele><time>2026-04-18T07:19:11.957Z</time></trkpt><trkpt lat="40.6375417" lon="15.1352633"><ele>214.0</ele><time>2026-04-18T07:19:12.957Z</time></trkpt><trkpt lat="40.63743" lon="15.135345"><ele>214.0</ele><time>2026-04-18T07:19:13.957Z</time></trkpt><trkpt lat="40.63733" lon="15.13542"><ele>213.99999999999997</ele><time>2026-04-18T07:19:14.957Z</time></trkpt><trkpt lat="40.6372583" lon="15.13547"><ele>213.99999999999997</ele><time>2026-04-18T07:19:15.958Z</time></trkpt><trkpt lat="40.6371733" lon="15.1355283"><ele>214.0</ele><time>2026-04-18T07:19:17.957Z</time></trkpt><trkpt lat="40.6371367" lon="15.1356667"><ele>214.0</ele><time>2026-04-18T07:21:02.957Z</time></trkpt><trkpt lat="40.6371683" lon="15.1357733"><ele>215.25</ele><time>2026-04-18T07:21:03.957Z</time></trkpt><trkpt lat="40.6372083" lon="15.1359183"><ele>216.5</ele><time>2026-04-18T07:21:04.957Z</time></trkpt><trkpt lat="40.6372517" lon="15.1360883"><ele>217.75</ele><time>2026-04-18T07:21:05.957Z</time></trkpt><trkpt lat="40.6373067" lon="15.1362667"><ele>219.0</ele><time>2026-04-18T07:21:06.957Z</time></trkpt><trkpt lat="40.6373533" lon="15.1364317"><ele>219.79999999999998</ele><time>2026-04-18T07:21:07.957Z</time></trkpt><trkpt lat="40.637385" lon="15.1365717"><ele>220.59999999999997</ele><time>2026-04-18T07:21:08.957Z</time></trkpt><trkpt lat="40.6374183" lon="15.136695"><ele>221.4</ele><time>2026-04-18T07:21:09.957Z</time></trkpt><trkpt lat="40.637455" lon="15.13679"><ele>222.2</ele><time>2026-04-18T07:21:10.957Z</time></trkpt><trkpt lat="40.6374867" lon="15.13687"><ele>223.0</ele><time>2026-04-18T07:21:11.957Z</time></trkpt><trkpt lat="40.6375333" lon="15.1369883"><ele>222.99999999999997</ele><time>2026-04-18T07:21:13.957Z</time></trkpt><trkpt lat="40.6376017" lon="15.13702"><ele>223.0</ele><time>2026-04-18T07:21:15.957Z</time></trkpt><trkpt lat="40.6376767" lon="15.13698"><ele>223.0</ele><time>2026-04-18T07:21:17.957Z</time></trkpt><trkpt lat="40.6377617" lon="15.13693"><ele>223.0</ele><time>2026-04-18T07:21:19.957Z</time></trkpt><trkpt lat="40.6378533" lon="15.1368883"><ele>222.99999999999997</ele><time>2026-04-18T07:21:21.957Z</time></trkpt><trkpt lat="40.6379333" lon="15.1368567"><ele>223.0</ele><time>2026-04-18T07:21:23.957Z</time></trkpt><trkpt lat="40.6380017" lon="15.136885"><ele>223.4</ele><time>2026-04-18T07:21:25.957Z</time></trkpt><trkpt lat="40.6380467" lon="15.1369617"><ele>223.8</ele><time>2026-04-18T07:21:27.957Z</time></trkpt><trkpt lat="40.6380833" lon="15.1370517"><ele>224.2</ele><time>2026-04-18T07:21:29.957Z</time></trkpt><trkpt lat="40.63814" lon="15.1371733"><ele>224.6</ele><time>2026-04-18T07:21:47.957Z</time></trkpt><trkpt lat="40.63823" lon="15.1372467"><ele>225.0</ele><time>2026-04-18T07:21:49.957Z</time></trkpt><trkpt lat="40.6383533" lon="15.1371917"><ele>225.0</ele><time>2026-04-18T07:21:51.957Z</time></trkpt><trkpt lat="40.6384217" lon="15.137155"><ele>225.0</ele><time>2026-04-18T07:21:52.957Z</time></trkpt><trkpt lat="40.6385017" lon="15.1371133"><ele>225.0</ele><time>2026-04-18T07:21:53.957Z</time></trkpt><trkpt lat="40.63858" lon="15.137065"><ele>225.0</ele><time>2026-04-18T07:21:54.957Z</time></trkpt><trkpt lat="40.6386567" lon="15.1370067"><ele>225.0</ele><time>2026-04-18T07:21:55.957Z</time></trkpt><trkpt lat="40.638735" lon="15.1369417"><ele>225.0</ele><time>2026-04-18T07:21:56.957Z</time></trkpt><trkpt lat="40.6388133" lon="15.1368733"><ele>225.16666666666666</ele><time>2026-04-18T07:21:57.957Z</time></trkpt><trkpt lat="40.6388917" lon="15.1368033"><ele>225.33333333333331</ele><time>2026-04-18T07:21:58.957Z</time></trkpt><trkpt lat="40.63896" lon="15.1367283"><ele>225.5</ele><time>2026-04-18T07:21:59.957Z</time></trkpt><trkpt lat="40.639025" lon="15.13666"><ele>225.66666666666666</ele><time>2026-04-18T07:22:00.957Z</time></trkpt><trkpt lat="40.6390833" lon="15.136605"><ele>225.83333333333331</ele><time>2026-04-18T07:22:01.957Z</time></trkpt><trkpt lat="40.639135" lon="15.1365517"><ele>226.0</ele><time>2026-04-18T07:22:02.957Z</time></trkpt><trkpt lat="40.6392167" lon="15.1364717"><ele>225.33333333333331</ele><time>2026-04-18T07:22:04.957Z</time></trkpt><trkpt lat="40.6392867" lon="15.1364117"><ele>224.66666666666666</ele><time>2026-04-18T07:22:06.957Z</time></trkpt><trkpt lat="40.6393783" lon="15.1363417"><ele>224.0</ele><time>2026-04-18T07:22:08.957Z</time></trkpt><trkpt lat="40.6394417" lon="15.1362967"><ele>223.33333333333331</ele><time>2026-04-18T07:22:09.957Z</time></trkpt><trkpt lat="40.6395083" lon="15.1362633"><ele>222.66666666666666</ele><time>2026-04-18T07:22:10.957Z</time></trkpt><trkpt lat="40.6395983" lon="15.136255"><ele>222.0</ele><time>2026-04-18T07:22:12.957Z</time></trkpt><trkpt lat="40.6396567" lon="15.1363417"><ele>222.0</ele><time>2026-04-18T07:22:14.957Z</time></trkpt><trkpt lat="40.6397067" lon="15.1365067"><ele>222.0</ele><time>2026-04-18T07:22:16.957Z</time></trkpt><trkpt lat="40.6397333" lon="15.1366133"><ele>222.0</ele><time>2026-04-18T07:22:17.958Z</time></trkpt><trkpt lat="40.6397667" lon="15.136725"><ele>222.0</ele><time>2026-04-18T07:22:18.957Z</time></trkpt><trkpt lat="40.6398017" lon="15.136825"><ele>222.0</ele><time>2026-04-18T07:22:19.957Z</time></trkpt><trkpt lat="40.6398283" lon="15.1369067"><ele>223.0</ele><time>2026-04-18T07:22:20.957Z</time></trkpt><trkpt lat="40.6398683" lon="15.1369933"><ele>224.0</ele><time>2026-04-18T07:22:22.957Z</time></trkpt><trkpt lat="40.639895" lon="15.1370733"><ele>225.0</ele><time>2026-04-18T07:22:25.957Z</time></trkpt><trkpt lat="40.6398533" lon="15.1371567"><ele>226.0</ele><time>2026-04-18T07:22:36.958Z</time></trkpt><trkpt lat="40.6398267" lon="15.1372383"><ele>227.0</ele><time>2026-04-18T07:22:37.957Z</time></trkpt><trkpt lat="40.6397883" lon="15.1373533"><ele>228.0</ele><time>2026-04-18T07:22:38.957Z</time></trkpt><trkpt lat="40.6397433" lon="15.1374933"><ele>228.75</ele><time>2026-04-18T07:22:39.957Z</time></trkpt><trkpt lat="40.639685" lon="15.1376583"><ele>229.5</ele><time>2026-04-18T07:22:40.957Z</time></trkpt><trkpt lat="40.6396183" lon="15.1378267"><ele>230.25</ele><time>2026-04-18T07:22:41.957Z</time></trkpt><trkpt lat="40.639535" lon="15.138005"><ele>231.0</ele><time>2026-04-18T07:22:42.957Z</time></trkpt><trkpt lat="40.6394533" lon="15.1381717"><ele>232.0</ele><time>2026-04-18T07:22:43.957Z</time></trkpt><trkpt lat="40.6393867" lon="15.1383283"><ele>233.0</ele><time>2026-04-18T07:22:44.958Z</time></trkpt><trkpt lat="40.6393283" lon="15.1384717"><ele>234.0</ele><time>2026-04-18T07:22:45.957Z</time></trkpt><trkpt lat="40.6392717" lon="15.1385983"><ele>235.0</ele><time>2026-04-18T07:22:46.957Z</time></trkpt><trkpt lat="40.6392033" lon="15.1387167"><ele>235.0</ele><time>2026-04-18T07:22:47.957Z</time></trkpt><trkpt lat="40.6391317" lon="15.13883"><ele>235.0</ele><time>2026-04-18T07:22:48.957Z</time></trkpt><trkpt lat="40.63906" lon="15.138945"><ele>235.0</ele><time>2026-04-18T07:22:49.957Z</time></trkpt><trkpt lat="40.6389917" lon="15.13906"><ele>235.0</ele><time>2026-04-18T07:22:50.957Z</time></trkpt><trkpt lat="40.6389283" lon="15.1391767"><ele>235.0</ele><time>2026-04-18T07:22:51.957Z</time></trkpt><trkpt lat="40.6388633" lon="15.13929"><ele>234.8</ele><time>2026-04-18T07:22:52.957Z</time></trkpt><trkpt lat="40.6387967" lon="15.1394117"><ele>234.6</ele><time>2026-04-18T07:22:53.957Z</time></trkpt><trkpt lat="40.6387333" lon="15.1395333"><ele>234.39999999999998</ele><time>2026-04-18T07:22:54.957Z</time></trkpt><trkpt lat="40.638665" lon="15.1396483"><ele>234.2</ele><time>2026-04-18T07:22:55.957Z</time></trkpt><trkpt lat="40.6385983" lon="15.1397633"><ele>234.0</ele><time>2026-04-18T07:22:56.957Z</time></trkpt><trkpt lat="40.6385283" lon="15.1398667"><ele>235.0</ele><time>2026-04-18T07:22:57.957Z</time></trkpt><trkpt lat="40.6384533" lon="15.139965"><ele>235.99999999999997</ele><time>2026-04-18T07:22:58.957Z</time></trkpt><trkpt lat="40.63838" lon="15.1400717"><ele>236.99999999999997</ele><time>2026-04-18T07:22:59.957Z</time></trkpt><trkpt lat="40.6383117" lon="15.1401883"><ele>238.0</ele><time>2026-04-18T07:23:00.957Z</time></trkpt><trkpt lat="40.638245" lon="15.1402883"><ele>239.0</ele><time>2026-04-18T07:23:01.957Z</time></trkpt><trkpt lat="40.6381783" lon="15.1403817"><ele>239.00000000000003</ele><time>2026-04-18T07:23:02.957Z</time></trkpt><trkpt lat="40.6381167" lon="15.140465"><ele>239.0</ele><time>2026-04-18T07:23:03.958Z</time></trkpt><trkpt lat="40.638035" lon="15.1405317"><ele>239.0</ele><time>2026-04-18T07:23:04.958Z</time></trkpt><trkpt lat="40.63797" lon="15.1406"><ele>239.0</ele><time>2026-04-18T07:23:05.957Z</time></trkpt><trkpt lat="40.6378967" lon="15.1406667"><ele>239.00000000000003</ele><time>2026-04-18T07:23:06.957Z</time></trkpt><trkpt lat="40.6378233" lon="15.1407383"><ele>239.0</ele><time>2026-04-18T07:23:07.957Z</time></trkpt><trkpt lat="40.63775" lon="15.1408"><ele>239.33333333333334</ele><time>2026-04-18T07:23:08.957Z</time></trkpt><trkpt lat="40.63768" lon="15.14087"><ele>239.66666666666669</ele><time>2026-04-18T07:23:09.957Z</time></trkpt><trkpt lat="40.63761" lon="15.1409417"><ele>240.0</ele><time>2026-04-18T07:23:10.957Z</time></trkpt><trkpt lat="40.637545" lon="15.1410133"><ele>240.33333333333331</ele><time>2026-04-18T07:23:11.957Z</time></trkpt><trkpt lat="40.637485" lon="15.1410817"><ele>240.66666666666666</ele><time>2026-04-18T07:23:12.957Z</time></trkpt><trkpt lat="40.6374233" lon="15.1411533"><ele>241.0</ele><time>2026-04-18T07:23:13.957Z</time></trkpt><trkpt lat="40.6373567" lon="15.14123"><ele>241.0</ele><time>2026-04-18T07:23:14.956Z</time></trkpt><trkpt lat="40.6372917" lon="15.1413067"><ele>241.00000000000003</ele><time>2026-04-18T07:23:15.956Z</time></trkpt><trkpt lat="40.6372433" lon="15.1413683"><ele>241.00000000000003</ele><time>2026-04-18T07:23:16.956Z</time></trkpt><trkpt lat="40.6371783" lon="15.1414283"><ele>241.0</ele><time>2026-04-18T07:23:18.956Z</time></trkpt><trkpt lat="40.6372333" lon="15.1415417"><ele>241.0</ele><time>2026-04-18T07:23:27.956Z</time></trkpt><trkpt lat="40.6373283" lon="15.1416617"><ele>241.49999999999997</ele><time>2026-04-18T07:23:29.956Z</time></trkpt><trkpt lat="40.6373917" lon="15.141735"><ele>242.0</ele><time>2026-04-18T07:23:30.956Z</time></trkpt><trkpt lat="40.63744" lon="15.1418167"><ele>242.5</ele><time>2026-04-18T07:23:31.956Z</time></trkpt><trkpt lat="40.6374867" lon="15.1418917"><ele>243.0</ele><time>2026-04-18T07:23:32.956Z</time></trkpt><trkpt lat="40.6375333" lon="15.141965"><ele>243.49999999999997</ele><time>2026-04-18T07:23:33.957Z</time></trkpt><trkpt lat="40.63758" lon="15.1420467"><ele>244.0</ele><time>2026-04-18T07:23:34.957Z</time></trkpt><trkpt lat="40.6376217" lon="15.14212"><ele>243.99999999999997</ele><time>2026-04-18T07:23:35.956Z</time></trkpt><trkpt lat="40.6376567" lon="15.1421917"><ele>244.0</ele><time>2026-04-18T07:23:36.956Z</time></trkpt><trkpt lat="40.6376917" lon="15.1422667"><ele>244.0</ele><time>2026-04-18T07:23:37.956Z</time></trkpt><trkpt lat="40.6377583" lon="15.1424067"><ele>244.0</ele><time>2026-04-18T07:23:39.956Z</time></trkpt><trkpt lat="40.6377933" lon="15.1424817"><ele>243.99999999999997</ele><time>2026-04-18T07:23:40.957Z</time></trkpt><trkpt lat="40.6378333" lon="15.1425633"><ele>244.0</ele><time>2026-04-18T07:23:41.956Z</time></trkpt><trkpt lat="40.63788" lon="15.1426367"><ele>245.16666666666666</ele><time>2026-04-18T07:23:42.956Z</time></trkpt><trkpt lat="40.637935" lon="15.142705"><ele>246.33333333333331</ele><time>2026-04-18T07:23:43.956Z</time></trkpt><trkpt lat="40.6379883" lon="15.1427767"><ele>247.5</ele><time>2026-04-18T07:23:44.957Z</time></trkpt><trkpt lat="40.63805" lon="15.142855"><ele>248.66666666666669</ele><time>2026-04-18T07:23:45.956Z</time></trkpt><trkpt lat="40.638115" lon="15.1429267"><ele>249.83333333333334</ele><time>2026-04-18T07:23:46.956Z</time></trkpt><trkpt lat="40.638185" lon="15.1430067"><ele>251.0</ele><time>2026-04-18T07:23:47.956Z</time></trkpt><trkpt lat="40.638245" lon="15.14309"><ele>251.00000000000003</ele><time>2026-04-18T07:23:48.956Z</time></trkpt><trkpt lat="40.6383" lon="15.14318"><ele>251.0</ele><time>2026-04-18T07:23:49.956Z</time></trkpt><trkpt lat="40.6383483" lon="15.1432667"><ele>251.0</ele><time>2026-04-18T07:23:50.957Z</time></trkpt><trkpt lat="40.6384017" lon="15.143345"><ele>251.0</ele><time>2026-04-18T07:23:51.956Z</time></trkpt><trkpt lat="40.63847" lon="15.1434117"><ele>251.00000000000003</ele><time>2026-04-18T07:23:52.957Z</time></trkpt><trkpt lat="40.63854" lon="15.143475"><ele>251.0</ele><time>2026-04-18T07:23:53.956Z</time></trkpt><trkpt lat="40.63862" lon="15.1435233"><ele>252.00000000000003</ele><time>2026-04-18T07:23:54.956Z</time></trkpt><trkpt lat="40.6387033" lon="15.1435783"><ele>253.0</ele><time>2026-04-18T07:23:55.956Z</time></trkpt><trkpt lat="40.63878" lon="15.14364"><ele>254.0</ele><time>2026-04-18T07:23:56.956Z</time></trkpt><trkpt lat="40.6388533" lon="15.14371"><ele>255.0</ele><time>2026-04-18T07:23:57.956Z</time></trkpt><trkpt lat="40.63893" lon="15.1437667"><ele>256.0</ele><time>2026-04-18T07:23:58.956Z</time></trkpt><trkpt lat="40.6389983" lon="15.143815"><ele>257.0</ele><time>2026-04-18T07:23:59.956Z</time></trkpt><trkpt lat="40.6390583" lon="15.143865"><ele>257.0</ele><time>2026-04-18T07:24:00.956Z</time></trkpt><trkpt lat="40.639115" lon="15.1439133"><ele>257.0</ele><time>2026-04-18T07:24:01.956Z</time></trkpt><trkpt lat="40.6391683" lon="15.1439633"><ele>257.0</ele><time>2026-04-18T07:24:02.957Z</time></trkpt><trkpt lat="40.6392217" lon="15.14401"><ele>257.0</ele><time>2026-04-18T07:24:03.956Z</time></trkpt><trkpt lat="40.6392917" lon="15.1440817"><ele>257.0</ele><time>2026-04-18T07:24:05.956Z</time></trkpt><trkpt lat="40.6393533" lon="15.1440133"><ele>257.0</ele><time>2026-04-18T07:24:09.957Z</time></trkpt><trkpt lat="40.6393833" lon="15.1439283"><ele>257.0</ele><time>2026-04-18T07:24:11.956Z</time></trkpt><trkpt lat="40.639415" lon="15.1438517"><ele>257.0</ele><time>2026-04-18T07:24:14.956Z</time></trkpt><trkpt lat="40.6394617" lon="15.1437717"><ele>257.0</ele><time>2026-04-18T07:24:16.957Z</time></trkpt><trkpt lat="40.6395367" lon="15.14366"><ele>257.0</ele><time>2026-04-18T07:24:18.956Z</time></trkpt><trkpt lat="40.6396083" lon="15.14356"><ele>257.0</ele><time>2026-04-18T07:24:20.956Z</time></trkpt><trkpt lat="40.6396967" lon="15.1434317"><ele>257.0</ele><time>2026-04-18T07:24:22.956Z</time></trkpt><trkpt lat="40.6397533" lon="15.1433533"><ele>257.1666666666667</ele><time>2026-04-18T07:24:23.956Z</time></trkpt><trkpt lat="40.6398167" lon="15.1432633"><ele>257.33333333333337</ele><time>2026-04-18T07:24:24.956Z</time></trkpt><trkpt lat="40.639875" lon="15.1431733"><ele>257.5</ele><time>2026-04-18T07:24:25.956Z</time></trkpt><trkpt lat="40.6399333" lon="15.1430883"><ele>257.6666666666667</ele><time>2026-04-18T07:24:26.956Z</time></trkpt><trkpt lat="40.6399883" lon="15.143"><ele>257.8333333333333</ele><time>2026-04-18T07:24:27.957Z</time></trkpt><trkpt lat="40.6400417" lon="15.1429233"><ele>258.0</ele><time>2026-04-18T07:24:28.956Z</time></trkpt><trkpt lat="40.6400883" lon="15.1428633"><ele>258.0</ele><time>2026-04-18T07:24:29.956Z</time></trkpt><trkpt lat="40.6401683" lon="15.1427683"><ele>258.0</ele><time>2026-04-18T07:24:31.956Z</time></trkpt><trkpt lat="40.6402133" lon="15.142705"><ele>258.0</ele><time>2026-04-18T07:24:32.956Z</time></trkpt><trkpt lat="40.6402617" lon="15.1426367"><ele>258.0</ele><time>2026-04-18T07:24:33.956Z</time></trkpt><trkpt lat="40.640315" lon="15.1425567"><ele>258.0</ele><time>2026-04-18T07:24:34.957Z</time></trkpt><trkpt lat="40.640365" lon="15.142475"><ele>258.0</ele><time>2026-04-18T07:24:35.956Z</time></trkpt><trkpt lat="40.6404067" lon="15.14238"><ele>257.8333333333333</ele><time>2026-04-18T07:24:36.956Z</time></trkpt><trkpt lat="40.6404417" lon="15.1422783"><ele>257.6666666666667</ele><time>2026-04-18T07:24:37.956Z</time></trkpt><trkpt lat="40.640475" lon="15.1421767"><ele>257.5</ele><time>2026-04-18T07:24:38.956Z</time></trkpt><trkpt lat="40.6405133" lon="15.1420783"><ele>257.33333333333337</ele><time>2026-04-18T07:24:39.956Z</time></trkpt><trkpt lat="40.6405517" lon="15.1419833"><ele>257.1666666666667</ele><time>2026-04-18T07:24:40.956Z</time></trkpt><trkpt lat="40.64059" lon="15.1418933"><ele>257.0</ele><time>2026-04-18T07:24:41.956Z</time></trkpt><trkpt lat="40.6406267" lon="15.141805"><ele>257.0</ele><time>2026-04-18T07:24:42.957Z</time></trkpt><trkpt lat="40.6406667" lon="15.1417217"><ele>257.0</ele><time>2026-04-18T07:24:43.956Z</time></trkpt><trkpt lat="40.6407033" lon="15.1416367"><ele>257.0</ele><time>2026-04-18T07:24:44.956Z</time></trkpt><trkpt lat="40.64074" lon="15.14156"><ele>257.0</ele><time>2026-04-18T07:24:45.956Z</time></trkpt><trkpt lat="40.640785" lon="15.141485"><ele>257.0</ele><time>2026-04-18T07:24:46.956Z</time></trkpt><trkpt lat="40.6408417" lon="15.14141"><ele>257.0</ele><time>2026-04-18T07:24:47.956Z</time></trkpt><trkpt lat="40.64091" lon="15.1413283"><ele>256.83333333333337</ele><time>2026-04-18T07:24:48.956Z</time></trkpt><trkpt lat="40.6409767" lon="15.1412517"><ele>256.6666666666667</ele><time>2026-04-18T07:24:49.956Z</time></trkpt><trkpt lat="40.6410433" lon="15.14118"><ele>256.5</ele><time>2026-04-18T07:24:50.956Z</time></trkpt><trkpt lat="40.641105" lon="15.141115"><ele>256.3333333333333</ele><time>2026-04-18T07:24:51.956Z</time></trkpt><trkpt lat="40.6411667" lon="15.1410467"><ele>256.16666666666663</ele><time>2026-04-18T07:24:52.956Z</time></trkpt><trkpt lat="40.6412233" lon="15.140985"><ele>256.0</ele><time>2026-04-18T07:24:53.956Z</time></trkpt><trkpt lat="40.64129" lon="15.1409283"><ele>255.99999999999997</ele><time>2026-04-18T07:24:54.956Z</time></trkpt><trkpt lat="40.6413583" lon="15.14088"><ele>256.0</ele><time>2026-04-18T07:24:55.956Z</time></trkpt><trkpt lat="40.6414283" lon="15.14083"><ele>256.0</ele><time>2026-04-18T07:24:56.956Z</time></trkpt><trkpt lat="40.6414983" lon="15.1407817"><ele>256.0</ele><time>2026-04-18T07:24:57.956Z</time></trkpt><trkpt lat="40.6415717" lon="15.1407417"><ele>255.99999999999997</ele><time>2026-04-18T07:24:58.956Z</time></trkpt><trkpt lat="40.64165" lon="15.1407067"><ele>256.0</ele><time>2026-04-18T07:24:59.956Z</time></trkpt><trkpt lat="40.6417317" lon="15.1406767"><ele>255.66666666666666</ele><time>2026-04-18T07:25:00.956Z</time></trkpt><trkpt lat="40.641815" lon="15.1406433"><ele>255.33333333333331</ele><time>2026-04-18T07:25:01.956Z</time></trkpt><trkpt lat="40.6418933" lon="15.1406017"><ele>255.0</ele><time>2026-04-18T07:25:02.956Z</time></trkpt><trkpt lat="40.6419767" lon="15.1405567"><ele>254.66666666666669</ele><time>2026-04-18T07:25:03.956Z</time></trkpt><trkpt lat="40.64206" lon="15.1405083"><ele>254.33333333333334</ele><time>2026-04-18T07:25:04.956Z</time></trkpt><trkpt lat="40.6421467" lon="15.1404717"><ele>254.0</ele><time>2026-04-18T07:25:05.956Z</time></trkpt><trkpt lat="40.6422333" lon="15.1404317"><ele>254.00000000000003</ele><time>2026-04-18T07:25:06.956Z</time></trkpt><trkpt lat="40.6423" lon="15.1403867"><ele>254.0</ele><time>2026-04-18T07:25:07.956Z</time></trkpt><trkpt lat="40.6423567" lon="15.1403467"><ele>254.0</ele><time>2026-04-18T07:25:08.956Z</time></trkpt><trkpt lat="40.642455" lon="15.1402767"><ele>254.0</ele><time>2026-04-18T07:25:10.956Z</time></trkpt><trkpt lat="40.64253" lon="15.1402483"><ele>254.00000000000003</ele><time>2026-04-18T07:25:13.956Z</time></trkpt><trkpt lat="40.6425783" lon="15.1403483"><ele>254.0</ele><time>2026-04-18T07:25:16.956Z</time></trkpt><trkpt lat="40.6426333" lon="15.1404767"><ele>254.0</ele><time>2026-04-18T07:25:18.956Z</time></trkpt><trkpt lat="40.64267" lon="15.1405467"><ele>254.0</ele><time>2026-04-18T07:25:19.956Z</time></trkpt><trkpt lat="40.6427133" lon="15.14062"><ele>254.0</ele><time>2026-04-18T07:25:20.956Z</time></trkpt><trkpt lat="40.6427567" lon="15.1406917"><ele>254.0</ele><time>2026-04-18T07:25:21.956Z</time></trkpt><trkpt lat="40.6427967" lon="15.1407667"><ele>254.0</ele><time>2026-04-18T07:25:22.956Z</time></trkpt><trkpt lat="40.6428333" lon="15.1408433"><ele>254.0</ele><time>2026-04-18T07:25:23.956Z</time></trkpt><trkpt lat="40.6428733" lon="15.1409217"><ele>254.0</ele><time>2026-04-18T07:25:24.956Z</time></trkpt><trkpt lat="40.6429117" lon="15.1409983"><ele>255.14285714285717</ele><time>2026-04-18T07:25:25.956Z</time></trkpt><trkpt lat="40.6429483" lon="15.1410717"><ele>256.2857142857143</ele><time>2026-04-18T07:25:26.956Z</time></trkpt><trkpt lat="40.6429833" lon="15.1411517"><ele>257.42857142857144</ele><time>2026-04-18T07:25:27.956Z</time></trkpt><trkpt lat="40.6430167" lon="15.141235"><ele>258.57142857142856</ele><time>2026-04-18T07:25:28.956Z</time></trkpt><trkpt lat="40.6430517" lon="15.1413167"><ele>259.7142857142857</ele><time>2026-04-18T07:25:29.957Z</time></trkpt><trkpt lat="40.6430817" lon="15.141405"><ele>260.8571428571429</ele><time>2026-04-18T07:25:30.956Z</time></trkpt><trkpt lat="40.6431083" lon="15.14149"><ele>262.0</ele><time>2026-04-18T07:25:31.956Z</time></trkpt><trkpt lat="40.6431367" lon="15.1415767"><ele>262.66666666666663</ele><time>2026-04-18T07:25:32.956Z</time></trkpt><trkpt lat="40.6431667" lon="15.141665"><ele>263.3333333333333</ele><time>2026-04-18T07:25:33.956Z</time></trkpt><trkpt lat="40.6431967" lon="15.1417567"><ele>264.0</ele><time>2026-04-18T07:25:34.956Z</time></trkpt><trkpt lat="40.6432267" lon="15.1418483"><ele>264.6666666666667</ele><time>2026-04-18T07:25:35.957Z</time></trkpt><trkpt lat="40.6432633" lon="15.1419383"><ele>265.33333333333337</ele><time>2026-04-18T07:25:36.956Z</time></trkpt><trkpt lat="40.6432983" lon="15.1420233"><ele>266.0</ele><time>2026-04-18T07:25:37.956Z</time></trkpt><trkpt lat="40.6433383" lon="15.1421083"><ele>266.0</ele><time>2026-04-18T07:25:38.956Z</time></trkpt><trkpt lat="40.6433867" lon="15.1421933"><ele>266.0</ele><time>2026-04-18T07:25:39.956Z</time></trkpt><trkpt lat="40.64343" lon="15.1422767"><ele>266.0</ele><time>2026-04-18T07:25:40.956Z</time></trkpt><trkpt lat="40.64347" lon="15.1423583"><ele>266.0</ele><time>2026-04-18T07:25:41.956Z</time></trkpt><trkpt lat="40.6435117" lon="15.14244"><ele>266.0</ele><time>2026-04-18T07:25:42.956Z</time></trkpt><trkpt lat="40.6435633" lon="15.1425067"><ele>266.0</ele><time>2026-04-18T07:25:43.956Z</time></trkpt><trkpt lat="40.643635" lon="15.1426417"><ele>267.83333333333337</ele><time>2026-04-18T07:25:45.956Z</time></trkpt><trkpt lat="40.6436633" lon="15.1427317"><ele>269.6666666666667</ele><time>2026-04-18T07:25:46.956Z</time></trkpt><trkpt lat="40.643695" lon="15.1428383"><ele>271.5</ele><time>2026-04-18T07:25:47.956Z</time></trkpt><trkpt lat="40.6437283" lon="15.14294"><ele>273.3333333333333</ele><time>2026-04-18T07:25:48.956Z</time></trkpt><trkpt lat="40.643755" lon="15.14302"><ele>275.16666666666663</ele><time>2026-04-18T07:25:49.956Z</time></trkpt><trkpt lat="40.6438017" lon="15.1431233"><ele>277.0</ele><time>2026-04-18T07:25:51.956Z</time></trkpt><trkpt lat="40.6438767" lon="15.14311"><ele>277.0</ele><time>2026-04-18T07:25:53.956Z</time></trkpt><trkpt lat="40.6439367" lon="15.1430817"><ele>277.0</ele><time>2026-04-18T07:25:55.957Z</time></trkpt><trkpt lat="40.6440017" lon="15.1430717"><ele>277.0</ele><time>2026-04-18T07:28:31.956Z</time></trkpt><trkpt lat="40.6440717" lon="15.143105"><ele>277.0</ele><time>2026-04-18T07:28:33.956Z</time></trkpt><trkpt lat="40.64413" lon="15.1432067"><ele>277.0</ele><time>2026-04-18T07:28:35.956Z</time></trkpt><trkpt lat="40.6442067" lon="15.1433183"><ele>277.0</ele><time>2026-04-18T07:28:37.956Z</time></trkpt><trkpt lat="40.6442967" lon="15.1434117"><ele>277.8333333333333</ele><time>2026-04-18T07:28:39.956Z</time></trkpt><trkpt lat="40.6443867" lon="15.143485"><ele>278.66666666666663</ele><time>2026-04-18T07:28:41.956Z</time></trkpt><trkpt lat="40.6444683" lon="15.1435833"><ele>279.5</ele><time>2026-04-18T07:28:43.956Z</time></trkpt><trkpt lat="40.64451" lon="15.1436517"><ele>280.3333333333333</ele><time>2026-04-18T07:28:44.956Z</time></trkpt><trkpt lat="40.6445533" lon="15.1437283"><ele>281.1666666666667</ele><time>2026-04-18T07:28:45.957Z</time></trkpt><trkpt lat="40.6445983" lon="15.14381"><ele>282.0</ele><time>2026-04-18T07:28:46.957Z</time></trkpt><trkpt lat="40.6446417" lon="15.1438983"><ele>282.5</ele><time>2026-04-18T07:28:47.956Z</time></trkpt><trkpt lat="40.64468" lon="15.1439883"><ele>283.0</ele><time>2026-04-18T07:28:48.956Z</time></trkpt><trkpt lat="40.6447267" lon="15.1440867"><ele>283.5</ele><time>2026-04-18T07:28:49.956Z</time></trkpt><trkpt lat="40.6447667" lon="15.144175"><ele>284.0</ele><time>2026-04-18T07:28:50.956Z</time></trkpt><trkpt lat="40.644805" lon="15.1442533"><ele>284.5</ele><time>2026-04-18T07:28:51.956Z</time></trkpt><trkpt lat="40.644845" lon="15.1443333"><ele>285.0</ele><time>2026-04-18T07:28:52.956Z</time></trkpt><trkpt lat="40.6448767" lon="15.1444117"><ele>286.0</ele><time>2026-04-18T07:28:53.956Z</time></trkpt><trkpt lat="40.644915" lon="15.1444983"><ele>287.0</ele><time>2026-04-18T07:28:54.956Z</time></trkpt><trkpt lat="40.644965" lon="15.1445983"><ele>288.0</ele><time>2026-04-18T07:28:55.956Z</time></trkpt><trkpt lat="40.6450217" lon="15.144705"><ele>289.0</ele><time>2026-04-18T07:28:56.956Z</time></trkpt><trkpt lat="40.6450767" lon="15.1447967"><ele>290.0</ele><time>2026-04-18T07:28:57.956Z</time></trkpt><trkpt lat="40.64513" lon="15.14488"><ele>291.0</ele><time>2026-04-18T07:28:58.956Z</time></trkpt><trkpt lat="40.6451867" lon="15.1449633"><ele>292.1666666666667</ele><time>2026-04-18T07:28:59.956Z</time></trkpt><trkpt lat="40.6452317" lon="15.1450433"><ele>293.3333333333333</ele><time>2026-04-18T07:29:00.957Z</time></trkpt><trkpt lat="40.645275" lon="15.1451183"><ele>294.5</ele><time>2026-04-18T07:29:01.956Z</time></trkpt><trkpt lat="40.6453183" lon="15.1451883"><ele>295.66666666666663</ele><time>2026-04-18T07:29:02.956Z</time></trkpt><trkpt lat="40.6453917" lon="15.14529"><ele>296.8333333333333</ele><time>2026-04-18T07:29:04.956Z</time></trkpt><trkpt lat="40.6454383" lon="15.145365"><ele>298.0</ele><time>2026-04-18T07:29:06.956Z</time></trkpt><trkpt lat="40.6454583" lon="15.145465"><ele>298.5</ele><time>2026-04-18T07:29:08.956Z</time></trkpt><trkpt lat="40.6454533" lon="15.145585"><ele>299.0</ele><time>2026-04-18T07:29:10.956Z</time></trkpt><trkpt lat="40.6454433" lon="15.1456683"><ele>299.5</ele><time>2026-04-18T07:29:11.956Z</time></trkpt><trkpt lat="40.6454233" lon="15.1457683"><ele>300.0</ele><time>2026-04-18T07:29:12.956Z</time></trkpt><trkpt lat="40.6453967" lon="15.1458733"><ele>300.5</ele><time>2026-04-18T07:29:13.956Z</time></trkpt><trkpt lat="40.6453733" lon="15.1459717"><ele>301.0</ele><time>2026-04-18T07:29:14.955Z</time></trkpt><trkpt lat="40.6453533" lon="15.1460567"><ele>301.8333333333333</ele><time>2026-04-18T07:29:15.955Z</time></trkpt><trkpt lat="40.6453267" lon="15.1462033"><ele>302.66666666666663</ele><time>2026-04-18T07:29:17.955Z</time></trkpt><trkpt lat="40.6453333" lon="15.1462883"><ele>303.5</ele><time>2026-04-18T07:29:18.955Z</time></trkpt><trkpt lat="40.6453467" lon="15.1463967"><ele>304.3333333333333</ele><time>2026-04-18T07:29:19.955Z</time></trkpt><trkpt lat="40.6453783" lon="15.1465167"><ele>305.1666666666667</ele><time>2026-04-18T07:29:20.955Z</time></trkpt><trkpt lat="40.6454067" lon="15.1466267"><ele>306.0</ele><time>2026-04-18T07:29:21.955Z</time></trkpt><trkpt lat="40.6454317" lon="15.1467183"><ele>307.0</ele><time>2026-04-18T07:29:22.955Z</time></trkpt><trkpt lat="40.645455" lon="15.1468483"><ele>308.0</ele><time>2026-04-18T07:29:24.955Z</time></trkpt><trkpt lat="40.6454767" lon="15.14698"><ele>309.0</ele><time>2026-04-18T07:29:48.955Z</time></trkpt><trkpt lat="40.64549" lon="15.14708"><ele>310.0</ele><time>2026-04-18T07:29:49.955Z</time></trkpt><trkpt lat="40.645505" lon="15.1471733"><ele>311.0</ele><time>2026-04-18T07:29:50.955Z</time></trkpt><trkpt lat="40.6455217" lon="15.1472567"><ele>312.0</ele><time>2026-04-18T07:29:51.955Z</time></trkpt><trkpt lat="40.6455533" lon="15.1473933"><ele>312.1666666666667</ele><time>2026-04-18T07:29:53.955Z</time></trkpt><trkpt lat="40.645585" lon="15.1474817"><ele>312.3333333333333</ele><time>2026-04-18T07:29:55.955Z</time></trkpt><trkpt lat="40.645635" lon="15.1475783"><ele>312.5</ele><time>2026-04-18T07:29:59.955Z</time></trkpt><trkpt lat="40.6457117" lon="15.1476083"><ele>312.66666666666663</ele><time>2026-04-18T07:30:01.955Z</time></trkpt><trkpt lat="40.6458233" lon="15.1476567"><ele>312.8333333333333</ele><time>2026-04-18T07:30:03.955Z</time></trkpt><trkpt lat="40.645885" lon="15.147675"><ele>313.0</ele><time>2026-04-18T07:30:04.955Z</time></trkpt><trkpt lat="40.6459533" lon="15.147685"><ele>313.0</ele><time>2026-04-18T07:30:05.955Z</time></trkpt><trkpt lat="40.6460217" lon="15.1477"><ele>313.0</ele><time>2026-04-18T07:30:06.956Z</time></trkpt><trkpt lat="40.6460967" lon="15.1477267"><ele>313.0</ele><time>2026-04-18T07:30:07.956Z</time></trkpt><trkpt lat="40.6461683" lon="15.1477433"><ele>313.0</ele><time>2026-04-18T07:30:08.956Z</time></trkpt><trkpt lat="40.6462833" lon="15.14778"><ele>313.0</ele><time>2026-04-18T07:30:10.955Z</time></trkpt><trkpt lat="40.6463617" lon="15.1477967"><ele>313.0</ele><time>2026-04-18T07:30:12.956Z</time></trkpt><trkpt lat="40.6464317" lon="15.1478033"><ele>314.6</ele><time>2026-04-18T07:30:16.955Z</time></trkpt><trkpt lat="40.646495" lon="15.1478133"><ele>316.20000000000005</ele><time>2026-04-18T07:30:57.955Z</time></trkpt><trkpt lat="40.64661" lon="15.1478417"><ele>317.8</ele><time>2026-04-18T07:30:59.955Z</time></trkpt><trkpt lat="40.6467333" lon="15.14786"><ele>319.40000000000003</ele><time>2026-04-18T07:31:01.955Z</time></trkpt><trkpt lat="40.64685" lon="15.147875"><ele>321.0</ele><time>2026-04-18T07:31:03.955Z</time></trkpt><trkpt lat="40.64696" lon="15.147895"><ele>322.4</ele><time>2026-04-18T07:31:05.955Z</time></trkpt><trkpt lat="40.64706" lon="15.1479133"><ele>323.8</ele><time>2026-04-18T07:31:07.955Z</time></trkpt><trkpt lat="40.6471633" lon="15.1479333"><ele>325.2</ele><time>2026-04-18T07:31:09.955Z</time></trkpt><trkpt lat="40.6472683" lon="15.1479483"><ele>326.59999999999997</ele><time>2026-04-18T07:31:11.956Z</time></trkpt><trkpt lat="40.64738" lon="15.1479683"><ele>328.0</ele><time>2026-04-18T07:31:13.955Z</time></trkpt><trkpt lat="40.6474833" lon="15.147975"><ele>328.0</ele><time>2026-04-18T07:31:15.955Z</time></trkpt><trkpt lat="40.6475883" lon="15.14797"><ele>328.0</ele><time>2026-04-18T07:31:17.955Z</time></trkpt><trkpt lat="40.6476883" lon="15.14798"><ele>328.0</ele><time>2026-04-18T07:31:19.955Z</time></trkpt><trkpt lat="40.6477867" lon="15.1479883"><ele>328.0</ele><time>2026-04-18T07:31:21.955Z</time></trkpt><trkpt lat="40.6479067" lon="15.1479983"><ele>328.0</ele><time>2026-04-18T07:31:23.955Z</time></trkpt><trkpt lat="40.647985" lon="15.1480133"><ele>329.5</ele><time>2026-04-18T07:31:24.955Z</time></trkpt><trkpt lat="40.6480733" lon="15.1480333"><ele>331.0</ele><time>2026-04-18T07:31:25.955Z</time></trkpt><trkpt lat="40.6481817" lon="15.1480533"><ele>332.5</ele><time>2026-04-18T07:31:26.955Z</time></trkpt><trkpt lat="40.6483083" lon="15.1480817"><ele>334.0</ele><time>2026-04-18T07:31:27.955Z</time></trkpt><trkpt lat="40.6484417" lon="15.148125"><ele>334.0</ele><time>2026-04-18T07:31:28.955Z</time></trkpt><trkpt lat="40.6485567" lon="15.1481717"><ele>334.0</ele><time>2026-04-18T07:31:29.955Z</time></trkpt><trkpt lat="40.6486433" lon="15.1482217"><ele>334.0</ele><time>2026-04-18T07:31:30.955Z</time></trkpt><trkpt lat="40.6487117" lon="15.148245"><ele>334.0</ele><time>2026-04-18T07:31:31.955Z</time></trkpt><trkpt lat="40.648815" lon="15.1483"><ele>334.0</ele><time>2026-04-18T07:31:33.955Z</time></trkpt><trkpt lat="40.6489167" lon="15.1483267"><ele>335.79999999999995</ele><time>2026-04-18T07:31:35.955Z</time></trkpt><trkpt lat="40.6489883" lon="15.1483183"><ele>337.59999999999997</ele><time>2026-04-18T07:31:37.955Z</time></trkpt><trkpt lat="40.6490817" lon="15.1483383"><ele>339.4</ele><time>2026-04-18T07:31:40.955Z</time></trkpt><trkpt lat="40.6491783" lon="15.1483717"><ele>341.2</ele><time>2026-04-18T07:31:42.955Z</time></trkpt><trkpt lat="40.6492933" lon="15.1484167"><ele>343.0</ele><time>2026-04-18T07:31:44.955Z</time></trkpt><trkpt lat="40.6494117" lon="15.14845"><ele>343.59999999999997</ele><time>2026-04-18T07:31:46.955Z</time></trkpt><trkpt lat="40.649545" lon="15.14849"><ele>344.2</ele><time>2026-04-18T07:31:48.955Z</time></trkpt><trkpt lat="40.64963" lon="15.1485083"><ele>344.8</ele><time>2026-04-18T07:31:49.955Z</time></trkpt><trkpt lat="40.6497233" lon="15.148535"><ele>345.4</ele><time>2026-04-18T07:31:50.955Z</time></trkpt><trkpt lat="40.6498067" lon="15.14857"><ele>346.0</ele><time>2026-04-18T07:31:51.955Z</time></trkpt><trkpt lat="40.649885" lon="15.14859"><ele>346.0</ele><time>2026-04-18T07:31:52.955Z</time></trkpt><trkpt lat="40.6499517" lon="15.14861"><ele>346.0</ele><time>2026-04-18T07:31:53.955Z</time></trkpt><trkpt lat="40.65001" lon="15.14865"><ele>346.0</ele><time>2026-04-18T07:31:54.955Z</time></trkpt><trkpt lat="40.6500717" lon="15.1486883"><ele>346.0</ele><time>2026-04-18T07:31:55.955Z</time></trkpt><trkpt lat="40.6501317" lon="15.1487267"><ele>346.0</ele><time>2026-04-18T07:31:56.955Z</time></trkpt><trkpt lat="40.650195" lon="15.1487817"><ele>346.0</ele><time>2026-04-18T07:31:57.955Z</time></trkpt><trkpt lat="40.6502533" lon="15.14884"><ele>346.0</ele><time>2026-04-18T07:31:58.955Z</time></trkpt><trkpt lat="40.6503067" lon="15.1488917"><ele>346.16666666666663</ele><time>2026-04-18T07:31:59.955Z</time></trkpt><trkpt lat="40.6503183" lon="15.1489967"><ele>346.3333333333333</ele><time>2026-04-18T07:32:01.955Z</time></trkpt><trkpt lat="40.6502767" lon="15.1490633"><ele>346.5</ele><time>2026-04-18T07:32:02.955Z</time></trkpt><trkpt lat="40.6502417" lon="15.1491417"><ele>346.6666666666667</ele><time>2026-04-18T07:32:03.956Z</time></trkpt><trkpt lat="40.6502117" lon="15.14923"><ele>346.83333333333337</ele><time>2026-04-18T07:32:04.955Z</time></trkpt><trkpt lat="40.65019" lon="15.14934"><ele>347.0</ele><time>2026-04-18T07:32:05.955Z</time></trkpt><trkpt lat="40.6501783" lon="15.14947"><ele>348.1666666666667</ele><time>2026-04-18T07:32:06.955Z</time></trkpt><trkpt lat="40.65017" lon="15.1496067"><ele>349.33333333333337</ele><time>2026-04-18T07:32:07.955Z</time></trkpt><trkpt lat="40.650165" lon="15.1497383"><ele>350.5</ele><time>2026-04-18T07:32:08.955Z</time></trkpt><trkpt lat="40.6501633" lon="15.1498383"><ele>351.6666666666667</ele><time>2026-04-18T07:32:09.955Z</time></trkpt><trkpt lat="40.6501517" lon="15.1499417"><ele>352.8333333333333</ele><time>2026-04-18T07:32:11.955Z</time></trkpt><trkpt lat="40.650125" lon="15.150035"><ele>354.0</ele><time>2026-04-18T07:32:14.955Z</time></trkpt><trkpt lat="40.6500933" lon="15.15012"><ele>354.5</ele><time>2026-04-18T07:32:16.955Z</time></trkpt><trkpt lat="40.6500483" lon="15.1502417"><ele>355.0</ele><time>2026-04-18T07:32:18.955Z</time></trkpt><trkpt lat="40.65002" lon="15.1503167"><ele>355.5</ele><time>2026-04-18T07:32:19.955Z</time></trkpt><trkpt lat="40.64999" lon="15.1504067"><ele>356.0</ele><time>2026-04-18T07:32:20.955Z</time></trkpt><trkpt lat="40.6499683" lon="15.1505083"><ele>356.5</ele><time>2026-04-18T07:32:21.955Z</time></trkpt><trkpt lat="40.6499483" lon="15.15062"><ele>357.0</ele><time>2026-04-18T07:32:22.955Z</time></trkpt><trkpt lat="40.649925" lon="15.1507433"><ele>358.0</ele><time>2026-04-18T07:32:23.955Z</time></trkpt><trkpt lat="40.6498967" lon="15.1508683"><ele>359.0</ele><time>2026-04-18T07:32:24.955Z</time></trkpt><trkpt lat="40.6498633" lon="15.1510067"><ele>360.0</ele><time>2026-04-18T07:32:25.955Z</time></trkpt><trkpt lat="40.6498383" lon="15.1511533"><ele>361.0</ele><time>2026-04-18T07:32:26.955Z</time></trkpt><trkpt lat="40.6498183" lon="15.1513283"><ele>361.0</ele><time>2026-04-18T07:32:27.955Z</time></trkpt><trkpt lat="40.6498017" lon="15.151535"><ele>361.0</ele><time>2026-04-18T07:32:28.955Z</time></trkpt><trkpt lat="40.6497817" lon="15.1517617"><ele>361.0</ele><time>2026-04-18T07:32:29.955Z</time></trkpt><trkpt lat="40.6497817" lon="15.1519867"><ele>361.3333333333333</ele><time>2026-04-18T07:32:30.955Z</time></trkpt><trkpt lat="40.6497917" lon="15.1522067"><ele>361.6666666666667</ele><time>2026-04-18T07:32:31.955Z</time></trkpt><trkpt lat="40.6498133" lon="15.15243"><ele>362.0</ele><time>2026-04-18T07:32:32.955Z</time></trkpt><trkpt lat="40.6498367" lon="15.1526517"><ele>362.33333333333337</ele><time>2026-04-18T07:32:33.956Z</time></trkpt><trkpt lat="40.6498633" lon="15.15288"><ele>362.6666666666667</ele><time>2026-04-18T07:32:34.955Z</time></trkpt><trkpt lat="40.6498917" lon="15.1531133"><ele>363.0</ele><time>2026-04-18T07:32:35.955Z</time></trkpt><trkpt lat="40.64992" lon="15.153335"><ele>364.3333333333333</ele><time>2026-04-18T07:32:36.955Z</time></trkpt><trkpt lat="40.6499383" lon="15.1535617"><ele>365.66666666666663</ele><time>2026-04-18T07:32:37.956Z</time></trkpt><trkpt lat="40.6499517" lon="15.1538"><ele>367.0</ele><time>2026-04-18T07:32:38.955Z</time></trkpt><trkpt lat="40.6499467" lon="15.1540333"><ele>367.0</ele><time>2026-04-18T07:32:39.955Z</time></trkpt><trkpt lat="40.649945" lon="15.15426"><ele>367.0</ele><time>2026-04-18T07:32:40.955Z</time></trkpt><trkpt lat="40.649945" lon="15.1544583"><ele>367.0</ele><time>2026-04-18T07:32:41.955Z</time></trkpt><trkpt lat="40.649945" lon="15.1546483"><ele>367.0</ele><time>2026-04-18T07:32:42.955Z</time></trkpt><trkpt lat="40.649935" lon="15.15483"><ele>367.0</ele><time>2026-04-18T07:32:43.955Z</time></trkpt><trkpt lat="40.6499333" lon="15.1549967"><ele>367.0</ele><time>2026-04-18T07:32:44.955Z</time></trkpt><trkpt lat="40.64993" lon="15.1551667"><ele>367.0</ele><time>2026-04-18T07:32:45.955Z</time></trkpt><trkpt lat="40.6499283" lon="15.1553517"><ele>367.66666666666663</ele><time>2026-04-18T07:32:46.955Z</time></trkpt><trkpt lat="40.6499233" lon="15.1555383"><ele>368.3333333333333</ele><time>2026-04-18T07:32:47.955Z</time></trkpt><trkpt lat="40.64994" lon="15.1557333"><ele>369.0</ele><time>2026-04-18T07:32:48.955Z</time></trkpt><trkpt lat="40.6499633" lon="15.1559433"><ele>369.0</ele><time>2026-04-18T07:32:49.955Z</time></trkpt><trkpt lat="40.649995" lon="15.156155"><ele>369.0</ele><time>2026-04-18T07:32:50.955Z</time></trkpt><trkpt lat="40.650015" lon="15.156375"><ele>369.0</ele><time>2026-04-18T07:32:51.955Z</time></trkpt><trkpt lat="40.65002" lon="15.1565733"><ele>369.5</ele><time>2026-04-18T07:32:52.955Z</time></trkpt><trkpt lat="40.65001" lon="15.1567567"><ele>370.0</ele><time>2026-04-18T07:32:53.955Z</time></trkpt><trkpt lat="40.6499933" lon="15.156935"><ele>370.5</ele><time>2026-04-18T07:32:54.955Z</time></trkpt><trkpt lat="40.6499917" lon="15.15712"><ele>371.0</ele><time>2026-04-18T07:32:55.955Z</time></trkpt><trkpt lat="40.6500017" lon="15.1572967"><ele>371.20000000000005</ele><time>2026-04-18T07:32:56.955Z</time></trkpt><trkpt lat="40.6499983" lon="15.1574417"><ele>371.40000000000003</ele><time>2026-04-18T07:32:57.955Z</time></trkpt><trkpt lat="40.6499933" lon="15.157555"><ele>371.6</ele><time>2026-04-18T07:32:58.955Z</time></trkpt><trkpt lat="40.6499917" lon="15.1576733"><ele>371.8</ele><time>2026-04-18T07:33:00.955Z</time></trkpt><trkpt lat="40.650005" lon="15.1577917"><ele>372.0</ele><time>2026-04-18T07:33:03.955Z</time></trkpt><trkpt lat="40.65" lon="15.15789"><ele>372.0</ele><time>2026-04-18T07:33:05.955Z</time></trkpt><trkpt lat="40.649975" lon="15.15799"><ele>372.0</ele><time>2026-04-18T07:33:07.955Z</time></trkpt><trkpt lat="40.6499" lon="15.1581117"><ele>372.0</ele><time>2026-04-18T07:33:09.955Z</time></trkpt><trkpt lat="40.6498517" lon="15.1581833"><ele>372.0</ele><time>2026-04-18T07:33:10.956Z</time></trkpt><trkpt lat="40.6498067" lon="15.1582667"><ele>372.0</ele><time>2026-04-18T07:33:11.955Z</time></trkpt><trkpt lat="40.6497617" lon="15.1583533"><ele>372.0</ele><time>2026-04-18T07:33:12.955Z</time></trkpt><trkpt lat="40.6497267" lon="15.1584433"><ele>372.5714285714286</ele><time>2026-04-18T07:33:13.955Z</time></trkpt><trkpt lat="40.6497033" lon="15.1585333"><ele>373.14285714285717</ele><time>2026-04-18T07:33:14.955Z</time></trkpt><trkpt lat="40.6496833" lon="15.1586267"><ele>373.7142857142857</ele><time>2026-04-18T07:33:15.955Z</time></trkpt><trkpt lat="40.6496717" lon="15.1587167"><ele>374.28571428571433</ele><time>2026-04-18T07:33:16.955Z</time></trkpt><trkpt lat="40.64965" lon="15.1587967"><ele>374.85714285714283</ele><time>2026-04-18T07:33:17.955Z</time></trkpt><trkpt lat="40.6496283" lon="15.15892"><ele>375.42857142857144</ele><time>2026-04-18T07:33:19.956Z</time></trkpt><trkpt lat="40.6496267" lon="15.1590033"><ele>376.0</ele><time>2026-04-18T07:33:20.955Z</time></trkpt><trkpt lat="40.649625" lon="15.159095"><ele>376.6</ele><time>2026-04-18T07:33:21.955Z</time></trkpt><trkpt lat="40.6496217" lon="15.159205"><ele>377.20000000000005</ele><time>2026-04-18T07:33:22.955Z</time></trkpt><trkpt lat="40.64962" lon="15.159325"><ele>377.79999999999995</ele><time>2026-04-18T07:33:23.956Z</time></trkpt><trkpt lat="40.6496167" lon="15.1594517"><ele>378.4</ele><time>2026-04-18T07:33:24.955Z</time></trkpt><trkpt lat="40.6496217" lon="15.1595883"><ele>379.0</ele><time>2026-04-18T07:33:25.955Z</time></trkpt><trkpt lat="40.6496233" lon="15.1597283"><ele>379.0</ele><time>2026-04-18T07:33:26.955Z</time></trkpt><trkpt lat="40.64962" lon="15.1598733"><ele>379.0</ele><time>2026-04-18T07:33:27.955Z</time></trkpt><trkpt lat="40.6496167" lon="15.160025"><ele>379.0</ele><time>2026-04-18T07:33:28.955Z</time></trkpt><trkpt lat="40.6496183" lon="15.1601833"><ele>379.0</ele><time>2026-04-18T07:33:29.955Z</time></trkpt><trkpt lat="40.6496183" lon="15.1603433"><ele>379.0</ele><time>2026-04-18T07:33:30.955Z</time></trkpt><trkpt lat="40.6496217" lon="15.1604967"><ele>379.0</ele><time>2026-04-18T07:33:31.955Z</time></trkpt><trkpt lat="40.6496283" lon="15.16065"><ele>379.0</ele><time>2026-04-18T07:33:32.956Z</time></trkpt><trkpt lat="40.6496417" lon="15.1608083"><ele>379.0</ele><time>2026-04-18T07:33:33.956Z</time></trkpt><trkpt lat="40.6496633" lon="15.16098"><ele>379.0</ele><time>2026-04-18T07:33:34.955Z</time></trkpt><trkpt lat="40.649685" lon="15.1611467"><ele>379.0</ele><time>2026-04-18T07:33:35.956Z</time></trkpt><trkpt lat="40.6497017" lon="15.1613317"><ele>379.0</ele><time>2026-04-18T07:33:36.955Z</time></trkpt><trkpt lat="40.6497117" lon="15.1615267"><ele>379.0</ele><time>2026-04-18T07:33:37.955Z</time></trkpt><trkpt lat="40.6497133" lon="15.1617283"><ele>379.0</ele><time>2026-04-18T07:33:38.955Z</time></trkpt><trkpt lat="40.6497117" lon="15.16193"><ele>379.0</ele><time>2026-04-18T07:33:39.955Z</time></trkpt><trkpt lat="40.6497117" lon="15.1621283"><ele>379.0</ele><time>2026-04-18T07:33:40.955Z</time></trkpt><trkpt lat="40.649705" lon="15.162315"><ele>379.0</ele><time>2026-04-18T07:33:41.955Z</time></trkpt><trkpt lat="40.6497" lon="15.1625067"><ele>379.25</ele><time>2026-04-18T07:33:42.955Z</time></trkpt><trkpt lat="40.6496933" lon="15.1627"><ele>379.5</ele><time>2026-04-18T07:33:43.955Z</time></trkpt><trkpt lat="40.6496867" lon="15.16289"><ele>379.75</ele><time>2026-04-18T07:33:44.955Z</time></trkpt><trkpt lat="40.6496817" lon="15.163085"><ele>380.0</ele><time>2026-04-18T07:33:45.955Z</time></trkpt><trkpt lat="40.6496817" lon="15.1632833"><ele>379.33333333333337</ele><time>2026-04-18T07:33:46.955Z</time></trkpt><trkpt lat="40.6496817" lon="15.16349"><ele>378.6666666666667</ele><time>2026-04-18T07:33:47.955Z</time></trkpt><trkpt lat="40.6496833" lon="15.163705"><ele>378.0</ele><time>2026-04-18T07:33:48.955Z</time></trkpt><trkpt lat="40.6496917" lon="15.1639267"><ele>377.3333333333333</ele><time>2026-04-18T07:33:49.955Z</time></trkpt><trkpt lat="40.6496967" lon="15.1641533"><ele>376.66666666666663</ele><time>2026-04-18T07:33:50.955Z</time></trkpt><trkpt lat="40.6497033" lon="15.1643833"><ele>376.0</ele><time>2026-04-18T07:33:51.955Z</time></trkpt><trkpt lat="40.649705" lon="15.1646133"><ele>376.0</ele><time>2026-04-18T07:33:52.955Z</time></trkpt><trkpt lat="40.64971" lon="15.1648367"><ele>376.0</ele><time>2026-04-18T07:33:53.955Z</time></trkpt><trkpt lat="40.6497083" lon="15.1650583"><ele>376.0</ele><time>2026-04-18T07:33:54.955Z</time></trkpt><trkpt lat="40.6496983" lon="15.1652667"><ele>376.0</ele><time>2026-04-18T07:33:55.955Z</time></trkpt><trkpt lat="40.6496867" lon="15.1654683"><ele>376.0</ele><time>2026-04-18T07:33:56.955Z</time></trkpt><trkpt lat="40.6496767" lon="15.1656833"><ele>376.0</ele><time>2026-04-18T07:33:57.955Z</time></trkpt><trkpt lat="40.649665" lon="15.1658933"><ele>376.0</ele><time>2026-04-18T07:33:58.955Z</time></trkpt><trkpt lat="40.6496533" lon="15.166115"><ele>376.0</ele><time>2026-04-18T07:33:59.955Z</time></trkpt><trkpt lat="40.6496383" lon="15.1663317"><ele>376.0</ele><time>2026-04-18T07:34:00.955Z</time></trkpt><trkpt lat="40.6496333" lon="15.1665517"><ele>376.0</ele><time>2026-04-18T07:34:01.956Z</time></trkpt><trkpt lat="40.6496267" lon="15.16676"><ele>376.0</ele><time>2026-04-18T07:34:02.955Z</time></trkpt><trkpt lat="40.649615" lon="15.1669517"><ele>376.0</ele><time>2026-04-18T07:34:03.955Z</time></trkpt><trkpt lat="40.649615" lon="15.167135"><ele>376.0</ele><time>2026-04-18T07:34:04.955Z</time></trkpt><trkpt lat="40.6496383" lon="15.167315"><ele>376.0</ele><time>2026-04-18T07:34:05.955Z</time></trkpt><trkpt lat="40.6496767" lon="15.1675"><ele>376.0</ele><time>2026-04-18T07:34:06.956Z</time></trkpt><trkpt lat="40.6497383" lon="15.167675"><ele>376.0</ele><time>2026-04-18T07:34:07.955Z</time></trkpt><trkpt lat="40.6498083" lon="15.167855"><ele>376.0</ele><time>2026-04-18T07:34:08.955Z</time></trkpt><trkpt lat="40.6498817" lon="15.1680267"><ele>376.5</ele><time>2026-04-18T07:34:09.955Z</time></trkpt><trkpt lat="40.649955" lon="15.1682017"><ele>377.0</ele><time>2026-04-18T07:34:10.955Z</time></trkpt><trkpt lat="40.6500167" lon="15.1683783"><ele>377.5</ele><time>2026-04-18T07:34:11.955Z</time></trkpt><trkpt lat="40.6500667" lon="15.1685633"><ele>378.0</ele><time>2026-04-18T07:34:12.955Z</time></trkpt><trkpt lat="40.650115" lon="15.16875"><ele>378.0</ele><time>2026-04-18T07:34:13.955Z</time></trkpt><trkpt lat="40.6501583" lon="15.168925"><ele>378.0</ele><time>2026-04-18T07:34:14.955Z</time></trkpt><trkpt lat="40.6501933" lon="15.1690917"><ele>378.0</ele><time>2026-04-18T07:34:15.955Z</time></trkpt><trkpt lat="40.6502167" lon="15.1692533"><ele>378.0</ele><time>2026-04-18T07:34:16.955Z</time></trkpt><trkpt lat="40.650225" lon="15.16941"><ele>378.5</ele><time>2026-04-18T07:34:17.955Z</time></trkpt><trkpt lat="40.6502267" lon="15.1695733"><ele>379.0</ele><time>2026-04-18T07:34:18.955Z</time></trkpt><trkpt lat="40.6502233" lon="15.1697483"><ele>379.5</ele><time>2026-04-18T07:34:19.955Z</time></trkpt><trkpt lat="40.6502083" lon="15.1699233"><ele>380.0</ele><time>2026-04-18T07:34:20.955Z</time></trkpt><trkpt lat="40.6501983" lon="15.17009"><ele>380.0</ele><time>2026-04-18T07:34:21.955Z</time></trkpt><trkpt lat="40.6501917" lon="15.1702467"><ele>380.0</ele><time>2026-04-18T07:34:22.955Z</time></trkpt><trkpt lat="40.6502017" lon="15.1704017"><ele>380.0</ele><time>2026-04-18T07:34:23.955Z</time></trkpt><trkpt lat="40.6502283" lon="15.1705533"><ele>380.0</ele><time>2026-04-18T07:34:24.955Z</time></trkpt><trkpt lat="40.65027" lon="15.17071"><ele>379.5</ele><time>2026-04-18T07:34:25.955Z</time></trkpt><trkpt lat="40.6503283" lon="15.1708617"><ele>379.0</ele><time>2026-04-18T07:34:26.955Z</time></trkpt><trkpt lat="40.6503967" lon="15.171015"><ele>378.5</ele><time>2026-04-18T07:34:27.955Z</time></trkpt><trkpt lat="40.6504767" lon="15.1711733"><ele>378.0</ele><time>2026-04-18T07:34:28.955Z</time></trkpt><trkpt lat="40.65056" lon="15.1713417"><ele>378.0</ele><time>2026-04-18T07:34:29.955Z</time></trkpt><trkpt lat="40.6506583" lon="15.1715133"><ele>378.0</ele><time>2026-04-18T07:34:30.955Z</time></trkpt><trkpt lat="40.6507667" lon="15.171685"><ele>378.0</ele><time>2026-04-18T07:34:31.955Z</time></trkpt><trkpt lat="40.6508883" lon="15.1718483"><ele>377.3333333333333</ele><time>2026-04-18T07:34:32.955Z</time></trkpt><trkpt lat="40.651015" lon="15.1719867"><ele>376.66666666666663</ele><time>2026-04-18T07:34:33.955Z</time></trkpt><trkpt lat="40.6511367" lon="15.1721217"><ele>376.0</ele><time>2026-04-18T07:34:34.955Z</time></trkpt><trkpt lat="40.6512533" lon="15.1722433"><ele>376.0</ele><time>2026-04-18T07:34:35.955Z</time></trkpt><trkpt lat="40.6513467" lon="15.172385"><ele>376.0</ele><time>2026-04-18T07:34:36.955Z</time></trkpt><trkpt lat="40.6514167" lon="15.1725433"><ele>376.0</ele><time>2026-04-18T07:34:37.955Z</time></trkpt><trkpt lat="40.6514567" lon="15.1726983"><ele>376.0</ele><time>2026-04-18T07:34:38.955Z</time></trkpt><trkpt lat="40.6514867" lon="15.1728617"><ele>376.0</ele><time>2026-04-18T07:34:39.956Z</time></trkpt><trkpt lat="40.65151" lon="15.1730267"><ele>376.0</ele><time>2026-04-18T07:34:40.955Z</time></trkpt><trkpt lat="40.65153" lon="15.1731867"><ele>376.0</ele><time>2026-04-18T07:34:41.955Z</time></trkpt><trkpt lat="40.6515617" lon="15.1733533"><ele>376.0</ele><time>2026-04-18T07:34:42.955Z</time></trkpt><trkpt lat="40.651605" lon="15.1735267"><ele>375.25</ele><time>2026-04-18T07:34:43.955Z</time></trkpt><trkpt lat="40.6516717" lon="15.1736883"><ele>374.5</ele><time>2026-04-18T07:34:44.955Z</time></trkpt><trkpt lat="40.651755" lon="15.1738567"><ele>373.75</ele><time>2026-04-18T07:34:45.955Z</time></trkpt><trkpt lat="40.65185" lon="15.17402"><ele>373.0</ele><time>2026-04-18T07:34:46.955Z</time></trkpt><trkpt lat="40.65193" lon="15.1741817"><ele>374.75</ele><time>2026-04-18T07:34:47.955Z</time></trkpt><trkpt lat="40.651995" lon="15.174355"><ele>376.5</ele><time>2026-04-18T07:34:48.954Z</time></trkpt><trkpt lat="40.6520617" lon="15.1745217"><ele>378.25</ele><time>2026-04-18T07:34:49.954Z</time></trkpt><trkpt lat="40.6521383" lon="15.1746767"><ele>380.0</ele><time>2026-04-18T07:34:50.954Z</time></trkpt><trkpt lat="40.6522183" lon="15.174825"><ele>377.4</ele><time>2026-04-18T07:34:51.954Z</time></trkpt><trkpt lat="40.6523" lon="15.1749633"><ele>374.8</ele><time>2026-04-18T07:34:52.954Z</time></trkpt><trkpt lat="40.6523733" lon="15.1750767"><ele>372.20000000000005</ele><time>2026-04-18T07:34:53.954Z</time></trkpt><trkpt lat="40.6524283" lon="15.1751667"><ele>369.6</ele><time>2026-04-18T07:34:54.954Z</time></trkpt><trkpt lat="40.6524683" lon="15.1752383"><ele>367.0</ele><time>2026-04-18T07:34:55.954Z</time></trkpt><trkpt lat="40.6525067" lon="15.1753517"><ele>367.0</ele><time>2026-04-18T07:34:57.954Z</time></trkpt><trkpt lat="40.652525" lon="15.17544"><ele>367.0</ele><time>2026-04-18T07:35:00.954Z</time></trkpt><trkpt lat="40.6525533" lon="15.175545"><ele>367.0</ele><time>2026-04-18T07:35:02.954Z</time></trkpt><trkpt lat="40.6526083" lon="15.1757217"><ele>367.0</ele><time>2026-04-18T07:35:04.954Z</time></trkpt><trkpt lat="40.6526533" lon="15.17585"><ele>367.0</ele><time>2026-04-18T07:35:05.954Z</time></trkpt><trkpt lat="40.6527183" lon="15.1759783"><ele>368.75</ele><time>2026-04-18T07:35:06.954Z</time></trkpt><trkpt lat="40.6527933" lon="15.176095"><ele>370.5</ele><time>2026-04-18T07:35:07.954Z</time></trkpt><trkpt lat="40.652885" lon="15.1761933"><ele>372.25</ele><time>2026-04-18T07:35:08.954Z</time></trkpt><trkpt lat="40.6529767" lon="15.17631"><ele>374.0</ele><time>2026-04-18T07:35:09.955Z</time></trkpt><trkpt lat="40.6530767" lon="15.1764433"><ele>369.5</ele><time>2026-04-18T07:35:10.954Z</time></trkpt><trkpt lat="40.6531933" lon="15.17658"><ele>365.0</ele><time>2026-04-18T07:35:11.954Z</time></trkpt><trkpt lat="40.65331" lon="15.1766917"><ele>360.5</ele><time>2026-04-18T07:35:12.954Z</time></trkpt><trkpt lat="40.6534217" lon="15.1767867"><ele>356.0</ele><time>2026-04-18T07:35:13.954Z</time></trkpt><trkpt lat="40.65353" lon="15.1769033"><ele>356.0</ele><time>2026-04-18T07:35:14.954Z</time></trkpt><trkpt lat="40.6536083" lon="15.1770717"><ele>356.0</ele><time>2026-04-18T07:35:15.954Z</time></trkpt><trkpt lat="40.653665" lon="15.1772783"><ele>356.0</ele><time>2026-04-18T07:35:16.954Z</time></trkpt><trkpt lat="40.6537467" lon="15.1774983"><ele>357.0</ele><time>2026-04-18T07:35:17.954Z</time></trkpt><trkpt lat="40.65386" lon="15.1777183"><ele>358.0</ele><time>2026-04-18T07:35:18.955Z</time></trkpt><trkpt lat="40.653995" lon="15.1779333"><ele>359.0</ele><time>2026-04-18T07:35:19.954Z</time></trkpt><trkpt lat="40.6541317" lon="15.17815"><ele>358.6666666666667</ele><time>2026-04-18T07:35:20.954Z</time></trkpt><trkpt lat="40.6542583" lon="15.1783717"><ele>358.3333333333333</ele><time>2026-04-18T07:35:21.954Z</time></trkpt><trkpt lat="40.654375" lon="15.17859"><ele>358.0</ele><time>2026-04-18T07:35:22.954Z</time></trkpt><trkpt lat="40.6544833" lon="15.178795"><ele>358.0</ele><time>2026-04-18T07:35:23.954Z</time></trkpt><trkpt lat="40.65457" lon="15.1789983"><ele>358.0</ele><time>2026-04-18T07:35:24.954Z</time></trkpt><trkpt lat="40.6546333" lon="15.1791883"><ele>358.0</ele><time>2026-04-18T07:35:25.954Z</time></trkpt><trkpt lat="40.6546767" lon="15.17937"><ele>356.75</ele><time>2026-04-18T07:35:26.954Z</time></trkpt><trkpt lat="40.6547267" lon="15.1795333"><ele>355.5</ele><time>2026-04-18T07:35:27.954Z</time></trkpt><trkpt lat="40.6548117" lon="15.17968"><ele>354.25</ele><time>2026-04-18T07:35:28.954Z</time></trkpt><trkpt lat="40.6549333" lon="15.1798"><ele>353.0</ele><time>2026-04-18T07:35:29.954Z</time></trkpt><trkpt lat="40.65507" lon="15.1798967"><ele>354.0</ele><time>2026-04-18T07:35:30.954Z</time></trkpt><trkpt lat="40.6552217" lon="15.1799717"><ele>355.0</ele><time>2026-04-18T07:35:31.954Z</time></trkpt><trkpt lat="40.655385" lon="15.1800517"><ele>356.0</ele><time>2026-04-18T07:35:32.954Z</time></trkpt><trkpt lat="40.6555433" lon="15.1801367"><ele>356.0</ele><time>2026-04-18T07:35:33.954Z</time></trkpt><trkpt lat="40.6556883" lon="15.1802267"><ele>356.0</ele><time>2026-04-18T07:35:34.954Z</time></trkpt><trkpt lat="40.6558267" lon="15.180345"><ele>356.0</ele><time>2026-04-18T07:35:35.954Z</time></trkpt><trkpt lat="40.6559467" lon="15.18051"><ele>354.33333333333337</ele><time>2026-04-18T07:35:36.955Z</time></trkpt><trkpt lat="40.6560717" lon="15.1807133"><ele>352.6666666666667</ele><time>2026-04-18T07:35:37.954Z</time></trkpt><trkpt lat="40.6562217" lon="15.1809083"><ele>351.0</ele><time>2026-04-18T07:35:38.954Z</time></trkpt><trkpt lat="40.65638" lon="15.18107"><ele>351.0</ele><time>2026-04-18T07:35:39.954Z</time></trkpt><trkpt lat="40.6565283" lon="15.1811917"><ele>351.0</ele><time>2026-04-18T07:35:40.955Z</time></trkpt><trkpt lat="40.6566617" lon="15.1812867"><ele>351.0</ele><time>2026-04-18T07:35:41.954Z</time></trkpt><trkpt lat="40.65679" lon="15.1813433"><ele>351.0</ele><time>2026-04-18T07:35:42.954Z</time></trkpt><trkpt lat="40.6569267" lon="15.1813467"><ele>351.0</ele><time>2026-04-18T07:35:43.954Z</time></trkpt><trkpt lat="40.6570667" lon="15.1813083"><ele>351.0</ele><time>2026-04-18T07:35:44.954Z</time></trkpt><trkpt lat="40.65722" lon="15.1812383"><ele>351.0</ele><time>2026-04-18T07:35:45.954Z</time></trkpt><trkpt lat="40.6573783" lon="15.1811583"><ele>351.3333333333333</ele><time>2026-04-18T07:35:46.954Z</time></trkpt><trkpt lat="40.65754" lon="15.1810883"><ele>351.66666666666663</ele><time>2026-04-18T07:35:47.955Z</time></trkpt><trkpt lat="40.6577133" lon="15.1810667"><ele>352.0</ele><time>2026-04-18T07:35:48.954Z</time></trkpt><trkpt lat="40.6579" lon="15.1811083"><ele>350.3333333333333</ele><time>2026-04-18T07:35:49.954Z</time></trkpt><trkpt lat="40.6581" lon="15.1811667"><ele>348.6666666666667</ele><time>2026-04-18T07:35:50.954Z</time></trkpt><trkpt lat="40.6582883" lon="15.1812183"><ele>347.0</ele><time>2026-04-18T07:35:51.954Z</time></trkpt><trkpt lat="40.6584717" lon="15.1812567"><ele>344.6666666666667</ele><time>2026-04-18T07:35:52.954Z</time></trkpt><trkpt lat="40.658635" lon="15.1812833"><ele>342.3333333333333</ele><time>2026-04-18T07:35:53.954Z</time></trkpt><trkpt lat="40.65879" lon="15.1813233"><ele>340.0</ele><time>2026-04-18T07:35:54.954Z</time></trkpt><trkpt lat="40.658935" lon="15.1814133"><ele>337.3333333333333</ele><time>2026-04-18T07:35:55.954Z</time></trkpt><trkpt lat="40.6590833" lon="15.181555"><ele>334.6666666666667</ele><time>2026-04-18T07:35:56.954Z</time></trkpt><trkpt lat="40.65923" lon="15.1817383"><ele>332.0</ele><time>2026-04-18T07:35:57.954Z</time></trkpt><trkpt lat="40.6593817" lon="15.181925"><ele>337.0</ele><time>2026-04-18T07:35:58.954Z</time></trkpt><trkpt lat="40.6595233" lon="15.1821067"><ele>342.0</ele><time>2026-04-18T07:35:59.954Z</time></trkpt><trkpt lat="40.6596433" lon="15.182305"><ele>347.0</ele><time>2026-04-18T07:36:00.954Z</time></trkpt><trkpt lat="40.6597367" lon="15.1825483"><ele>347.0</ele><time>2026-04-18T07:36:01.954Z</time></trkpt><trkpt lat="40.6598133" lon="15.1828183"><ele>347.0</ele><time>2026-04-18T07:36:02.954Z</time></trkpt><trkpt lat="40.6598783" lon="15.1830633"><ele>347.0</ele><time>2026-04-18T07:36:03.954Z</time></trkpt><trkpt lat="40.659935" lon="15.1832683"><ele>346.0</ele><time>2026-04-18T07:36:04.954Z</time></trkpt><trkpt lat="40.659975" lon="15.1834367"><ele>345.0</ele><time>2026-04-18T07:36:05.954Z</time></trkpt><trkpt lat="40.6599983" lon="15.18359"><ele>344.0</ele><time>2026-04-18T07:36:06.954Z</time></trkpt><trkpt lat="40.6599783" lon="15.1837267"><ele>343.0</ele><time>2026-04-18T07:36:07.954Z</time></trkpt><trkpt lat="40.6599217" lon="15.183845"><ele>343.0</ele><time>2026-04-18T07:36:08.954Z</time></trkpt><trkpt lat="40.6598167" lon="15.1839567"><ele>343.0</ele><time>2026-04-18T07:36:09.954Z</time></trkpt><trkpt lat="40.65973" lon="15.1840883"><ele>343.0</ele><time>2026-04-18T07:36:10.954Z</time></trkpt><trkpt lat="40.65967" lon="15.18426"><ele>343.0</ele><time>2026-04-18T07:36:11.954Z</time></trkpt><trkpt lat="40.6596517" lon="15.1844467"><ele>344.25</ele><time>2026-04-18T07:36:12.954Z</time></trkpt><trkpt lat="40.659665" lon="15.18462"><ele>345.5</ele><time>2026-04-18T07:36:13.954Z</time></trkpt><trkpt lat="40.6597067" lon="15.1847867"><ele>346.75</ele><time>2026-04-18T07:36:14.954Z</time></trkpt><trkpt lat="40.659765" lon="15.1849433"><ele>348.0</ele><time>2026-04-18T07:36:15.954Z</time></trkpt><trkpt lat="40.6598217" lon="15.1851033"><ele>349.5</ele><time>2026-04-18T07:36:16.954Z</time></trkpt><trkpt lat="40.6598417" lon="15.1852717"><ele>351.0</ele><time>2026-04-18T07:36:17.954Z</time></trkpt><trkpt lat="40.6598333" lon="15.1854433"><ele>352.5</ele><time>2026-04-18T07:36:18.954Z</time></trkpt><trkpt lat="40.65979" lon="15.185625"><ele>354.0</ele><time>2026-04-18T07:36:19.954Z</time></trkpt><trkpt lat="40.6597183" lon="15.1858283"><ele>354.6666666666667</ele><time>2026-04-18T07:36:20.954Z</time></trkpt><trkpt lat="40.65964" lon="15.1860383"><ele>355.33333333333337</ele><time>2026-04-18T07:36:21.954Z</time></trkpt><trkpt lat="40.659565" lon="15.1862867"><ele>356.0</ele><time>2026-04-18T07:36:22.954Z</time></trkpt><trkpt lat="40.6594867" lon="15.18658"><ele>349.0</ele><time>2026-04-18T07:36:23.954Z</time></trkpt><trkpt lat="40.6594167" lon="15.1869117"><ele>342.0</ele><time>2026-04-18T07:36:24.954Z</time></trkpt><trkpt lat="40.659335" lon="15.1872467"><ele>345.0</ele><time>2026-04-18T07:36:25.954Z</time></trkpt><trkpt lat="40.659265" lon="15.1875433"><ele>348.0</ele><time>2026-04-18T07:36:26.954Z</time></trkpt><trkpt lat="40.6592017" lon="15.18779"><ele>351.0</ele><time>2026-04-18T07:36:27.954Z</time></trkpt><trkpt lat="40.6591483" lon="15.188035"><ele>353.6666666666667</ele><time>2026-04-18T07:36:28.954Z</time></trkpt><trkpt lat="40.6591167" lon="15.18829"><ele>356.33333333333337</ele><time>2026-04-18T07:36:29.954Z</time></trkpt><trkpt lat="40.65911" lon="15.1885433"><ele>359.0</ele><time>2026-04-18T07:36:30.954Z</time></trkpt><trkpt lat="40.6591033" lon="15.1887817"><ele>359.0</ele><time>2026-04-18T07:36:31.954Z</time></trkpt><trkpt lat="40.659085" lon="15.1890033"><ele>359.0</ele><time>2026-04-18T07:36:32.954Z</time></trkpt><trkpt lat="40.6590467" lon="15.18922"><ele>359.0</ele><time>2026-04-18T07:36:33.954Z</time></trkpt><trkpt lat="40.6589783" lon="15.18941"><ele>360.6666666666667</ele><time>2026-04-18T07:36:34.954Z</time></trkpt><trkpt lat="40.6588983" lon="15.1895983"><ele>362.3333333333333</ele><time>2026-04-18T07:36:35.954Z</time></trkpt><trkpt lat="40.65881" lon="15.1897933"><ele>364.0</ele><time>2026-04-18T07:36:36.954Z</time></trkpt><trkpt lat="40.6587383" lon="15.1900017"><ele>367.0</ele><time>2026-04-18T07:36:37.954Z</time></trkpt><trkpt lat="40.65869" lon="15.1902267"><ele>370.0</ele><time>2026-04-18T07:36:38.954Z</time></trkpt><trkpt lat="40.65866" lon="15.1904933"><ele>373.0</ele><time>2026-04-18T07:36:39.954Z</time></trkpt><trkpt lat="40.6586267" lon="15.1907533"><ele>368.0</ele><time>2026-04-18T07:36:40.954Z</time></trkpt><trkpt lat="40.6585817" lon="15.19098"><ele>363.0</ele><time>2026-04-18T07:36:41.954Z</time></trkpt><trkpt lat="40.6585367" lon="15.1911867"><ele>358.0</ele><time>2026-04-18T07:36:42.954Z</time></trkpt><trkpt lat="40.6585017" lon="15.1913717"><ele>358.75</ele><time>2026-04-18T07:36:43.954Z</time></trkpt><trkpt lat="40.6584867" lon="15.1915483"><ele>359.5</ele><time>2026-04-18T07:36:44.954Z</time></trkpt><trkpt lat="40.6584917" lon="15.1917133"><ele>360.25</ele><time>2026-04-18T07:36:45.954Z</time></trkpt><trkpt lat="40.6585017" lon="15.1918667"><ele>361.0</ele><time>2026-04-18T07:36:46.954Z</time></trkpt><trkpt lat="40.658515" lon="15.192005"><ele>361.0</ele><time>2026-04-18T07:36:47.955Z</time></trkpt><trkpt lat="40.6585317" lon="15.1921317"><ele>361.0</ele><time>2026-04-18T07:36:48.954Z</time></trkpt><trkpt lat="40.6585483" lon="15.19225"><ele>361.0</ele><time>2026-04-18T07:36:49.954Z</time></trkpt><trkpt lat="40.6585633" lon="15.1923483"><ele>361.0</ele><time>2026-04-18T07:36:50.954Z</time></trkpt><trkpt lat="40.6585733" lon="15.1924333"><ele>361.0</ele><time>2026-04-18T07:36:51.954Z</time></trkpt><trkpt lat="40.6585817" lon="15.1925533"><ele>361.0</ele><time>2026-04-18T07:36:53.955Z</time></trkpt><trkpt lat="40.65858" lon="15.19265"><ele>361.5</ele><time>2026-04-18T07:36:56.954Z</time></trkpt><trkpt lat="40.658575" lon="15.1928267"><ele>362.0</ele><time>2026-04-18T07:37:18.954Z</time></trkpt><trkpt lat="40.65857" lon="15.1929733"><ele>362.5</ele><time>2026-04-18T07:37:19.954Z</time></trkpt><trkpt lat="40.65857" lon="15.1931283"><ele>363.0</ele><time>2026-04-18T07:37:20.954Z</time></trkpt><trkpt lat="40.6585833" lon="15.19325"><ele>366.59999999999997</ele><time>2026-04-18T07:37:21.954Z</time></trkpt><trkpt lat="40.6586267" lon="15.1933267"><ele>370.2</ele><time>2026-04-18T07:37:22.954Z</time></trkpt><trkpt lat="40.6586933" lon="15.1933583"><ele>373.8</ele><time>2026-04-18T07:37:23.954Z</time></trkpt><trkpt lat="40.658775" lon="15.19331"><ele>377.4</ele><time>2026-04-18T07:37:24.954Z</time></trkpt><trkpt lat="40.65885" lon="15.193205"><ele>381.0</ele><time>2026-04-18T07:37:25.954Z</time></trkpt><trkpt lat="40.6589283" lon="15.193045"><ele>381.0</ele><time>2026-04-18T07:37:26.954Z</time></trkpt><trkpt lat="40.6590117" lon="15.1928483"><ele>381.0</ele><time>2026-04-18T07:37:27.954Z</time></trkpt><trkpt lat="40.65909" lon="15.1926283"><ele>381.0</ele><time>2026-04-18T07:37:28.955Z</time></trkpt><trkpt lat="40.6591533" lon="15.1924183"><ele>380.75</ele><time>2026-04-18T07:37:29.954Z</time></trkpt><trkpt lat="40.659195" lon="15.1922267"><ele>380.5</ele><time>2026-04-18T07:37:30.954Z</time></trkpt><trkpt lat="40.65921" lon="15.1920683"><ele>380.25</ele><time>2026-04-18T07:37:31.954Z</time></trkpt><trkpt lat="40.659195" lon="15.19192"><ele>380.0</ele><time>2026-04-18T07:37:32.954Z</time></trkpt><trkpt lat="40.6591367" lon="15.1917817"><ele>380.0</ele><time>2026-04-18T07:37:33.954Z</time></trkpt><trkpt lat="40.6590767" lon="15.1916583"><ele>380.0</ele><time>2026-04-18T07:37:34.954Z</time></trkpt><trkpt lat="40.6590467" lon="15.1915533"><ele>380.0</ele><time>2026-04-18T07:37:35.954Z</time></trkpt><trkpt lat="40.6590583" lon="15.19146"><ele>380.0</ele><time>2026-04-18T07:37:36.954Z</time></trkpt><trkpt lat="40.6591133" lon="15.191405"><ele>380.0</ele><time>2026-04-18T07:37:37.954Z</time></trkpt><trkpt lat="40.6591883" lon="15.1914083"><ele>380.0</ele><time>2026-04-18T07:37:38.954Z</time></trkpt><trkpt lat="40.6592767" lon="15.1914683"><ele>380.0</ele><time>2026-04-18T07:37:39.954Z</time></trkpt><trkpt lat="40.6593833" lon="15.191575"><ele>380.0</ele><time>2026-04-18T07:37:40.954Z</time></trkpt><trkpt lat="40.6595117" lon="15.191725"><ele>380.0</ele><time>2026-04-18T07:37:41.954Z</time></trkpt><trkpt lat="40.65964" lon="15.1918767"><ele>383.0</ele><time>2026-04-18T07:37:42.954Z</time></trkpt><trkpt lat="40.6597467" lon="15.191985"><ele>386.0</ele><time>2026-04-18T07:37:43.954Z</time></trkpt><trkpt lat="40.6598367" lon="15.19205"><ele>389.0</ele><time>2026-04-18T07:37:44.954Z</time></trkpt><trkpt lat="40.65993" lon="15.1920567"><ele>392.0</ele><time>2026-04-18T07:37:45.954Z</time></trkpt><trkpt lat="40.6600083" lon="15.1920167"><ele>395.0</ele><time>2026-04-18T07:37:46.954Z</time></trkpt><trkpt lat="40.6600567" lon="15.1919317"><ele>395.0</ele><time>2026-04-18T07:37:47.954Z</time></trkpt><trkpt lat="40.6600767" lon="15.1917867"><ele>395.0</ele><time>2026-04-18T07:37:48.954Z</time></trkpt><trkpt lat="40.6600967" lon="15.1915917"><ele>395.0</ele><time>2026-04-18T07:37:49.954Z</time></trkpt><trkpt lat="40.66011" lon="15.191385"><ele>395.0</ele><time>2026-04-18T07:37:50.954Z</time></trkpt><trkpt lat="40.6601333" lon="15.191225"><ele>395.3333333333333</ele><time>2026-04-18T07:37:51.954Z</time></trkpt><trkpt lat="40.6601683" lon="15.1911183"><ele>395.66666666666663</ele><time>2026-04-18T07:37:52.955Z</time></trkpt><trkpt lat="40.66022" lon="15.1910617"><ele>396.0</ele><time>2026-04-18T07:37:53.954Z</time></trkpt><trkpt lat="40.6602817" lon="15.1910883"><ele>396.33333333333337</ele><time>2026-04-18T07:37:54.954Z</time></trkpt><trkpt lat="40.6603383" lon="15.1911733"><ele>396.6666666666667</ele><time>2026-04-18T07:37:55.954Z</time></trkpt><trkpt lat="40.6603817" lon="15.1913233"><ele>397.0</ele><time>2026-04-18T07:37:56.954Z</time></trkpt><trkpt lat="40.6604283" lon="15.1915033"><ele>399.75</ele><time>2026-04-18T07:37:57.954Z</time></trkpt><trkpt lat="40.6604983" lon="15.1916583"><ele>402.5</ele><time>2026-04-18T07:37:58.954Z</time></trkpt><trkpt lat="40.6606067" lon="15.1917783"><ele>405.25</ele><time>2026-04-18T07:37:59.954Z</time></trkpt><trkpt lat="40.6607433" lon="15.1918633"><ele>408.0</ele><time>2026-04-18T07:38:00.954Z</time></trkpt><trkpt lat="40.6608867" lon="15.1919417"><ele>408.0</ele><time>2026-04-18T07:38:01.954Z</time></trkpt><trkpt lat="40.6609967" lon="15.1920017"><ele>408.0</ele><time>2026-04-18T07:38:02.955Z</time></trkpt><trkpt lat="40.6610817" lon="15.1920167"><ele>408.0</ele><time>2026-04-18T07:38:03.954Z</time></trkpt><trkpt lat="40.6611417" lon="15.1919783"><ele>408.0</ele><time>2026-04-18T07:38:04.954Z</time></trkpt><trkpt lat="40.6611633" lon="15.1918967"><ele>408.0</ele><time>2026-04-18T07:38:05.954Z</time></trkpt><trkpt lat="40.66113" lon="15.191785"><ele>408.0</ele><time>2026-04-18T07:38:06.954Z</time></trkpt><trkpt lat="40.6610733" lon="15.1916833"><ele>408.0</ele><time>2026-04-18T07:38:07.954Z</time></trkpt><trkpt lat="40.6610233" lon="15.1915817"><ele>408.0</ele><time>2026-04-18T07:38:08.954Z</time></trkpt><trkpt lat="40.6610133" lon="15.1914933"><ele>408.0</ele><time>2026-04-18T07:38:09.954Z</time></trkpt><trkpt lat="40.6610417" lon="15.1914083"><ele>408.0</ele><time>2026-04-18T07:38:10.954Z</time></trkpt><trkpt lat="40.6611083" lon="15.191355"><ele>408.0</ele><time>2026-04-18T07:38:11.954Z</time></trkpt><trkpt lat="40.6612217" lon="15.19134"><ele>408.0</ele><time>2026-04-18T07:38:12.954Z</time></trkpt><trkpt lat="40.6614217" lon="15.1913717"><ele>409.66666666666663</ele><time>2026-04-18T07:38:13.954Z</time></trkpt><trkpt lat="40.6616233" lon="15.1913767"><ele>411.3333333333333</ele><time>2026-04-18T07:38:14.954Z</time></trkpt><trkpt lat="40.66181" lon="15.19134"><ele>413.0</ele><time>2026-04-18T07:38:15.954Z</time></trkpt><trkpt lat="40.6619917" lon="15.1912333"><ele>415.0</ele><time>2026-04-18T07:38:16.954Z</time></trkpt><trkpt lat="40.6621767" lon="15.19109"><ele>417.0</ele><time>2026-04-18T07:38:17.954Z</time></trkpt><trkpt lat="40.662345" lon="15.1909317"><ele>419.0</ele><time>2026-04-18T07:38:18.954Z</time></trkpt><trkpt lat="40.6625" lon="15.1907767"><ele>419.3333333333333</ele><time>2026-04-18T07:38:19.954Z</time></trkpt><trkpt lat="40.6626433" lon="15.190625"><ele>419.66666666666663</ele><time>2026-04-18T07:38:20.954Z</time></trkpt><trkpt lat="40.6627717" lon="15.1904483"><ele>420.0</ele><time>2026-04-18T07:38:21.954Z</time></trkpt><trkpt lat="40.6628767" lon="15.1902533"><ele>421.66666666666663</ele><time>2026-04-18T07:38:22.954Z</time></trkpt><trkpt lat="40.6629667" lon="15.190055"><ele>423.3333333333333</ele><time>2026-04-18T07:38:23.954Z</time></trkpt><trkpt lat="40.66305" lon="15.1898617"><ele>425.0</ele><time>2026-04-18T07:38:24.954Z</time></trkpt><trkpt lat="40.663135" lon="15.1896667"><ele>426.0</ele><time>2026-04-18T07:38:25.954Z</time></trkpt><trkpt lat="40.6632183" lon="15.189475"><ele>427.0</ele><time>2026-04-18T07:38:26.954Z</time></trkpt><trkpt lat="40.6633083" lon="15.1892883"><ele>428.0</ele><time>2026-04-18T07:38:27.954Z</time></trkpt><trkpt lat="40.6634067" lon="15.1891017"><ele>427.66666666666663</ele><time>2026-04-18T07:38:28.954Z</time></trkpt><trkpt lat="40.66352" lon="15.1889183"><ele>427.33333333333337</ele><time>2026-04-18T07:38:29.954Z</time></trkpt><trkpt lat="40.663645" lon="15.1887433"><ele>427.0</ele><time>2026-04-18T07:38:30.954Z</time></trkpt><trkpt lat="40.6637833" lon="15.188575"><ele>428.33333333333337</ele><time>2026-04-18T07:38:31.954Z</time></trkpt><trkpt lat="40.663915" lon="15.1884117"><ele>429.66666666666663</ele><time>2026-04-18T07:38:32.954Z</time></trkpt><trkpt lat="40.6640383" lon="15.1882233"><ele>431.0</ele><time>2026-04-18T07:38:33.954Z</time></trkpt><trkpt lat="40.6641467" lon="15.188005"><ele>431.66666666666663</ele><time>2026-04-18T07:38:34.954Z</time></trkpt><trkpt lat="40.664245" lon="15.18776"><ele>432.33333333333337</ele><time>2026-04-18T07:38:35.954Z</time></trkpt><trkpt lat="40.66434" lon="15.1875067"><ele>433.0</ele><time>2026-04-18T07:38:36.954Z</time></trkpt><trkpt lat="40.66444" lon="15.187255"><ele>436.6666666666667</ele><time>2026-04-18T07:38:37.954Z</time></trkpt><trkpt lat="40.6645317" lon="15.18701"><ele>440.33333333333337</ele><time>2026-04-18T07:38:38.954Z</time></trkpt><trkpt lat="40.6646267" lon="15.1867683"><ele>444.0</ele><time>2026-04-18T07:38:39.954Z</time></trkpt><trkpt lat="40.6647183" lon="15.186535"><ele>445.0</ele><time>2026-04-18T07:38:40.954Z</time></trkpt><trkpt lat="40.6648017" lon="15.1863183"><ele>446.0</ele><time>2026-04-18T07:38:41.954Z</time></trkpt><trkpt lat="40.6648767" lon="15.1861333"><ele>447.0</ele><time>2026-04-18T07:38:42.954Z</time></trkpt><trkpt lat="40.6649683" lon="15.1859567"><ele>447.0</ele><time>2026-04-18T07:38:43.954Z</time></trkpt><trkpt lat="40.665075" lon="15.1857933"><ele>447.0</ele><time>2026-04-18T07:38:44.954Z</time></trkpt><trkpt lat="40.665205" lon="15.1856433"><ele>447.0</ele><time>2026-04-18T07:38:45.954Z</time></trkpt><trkpt lat="40.6653483" lon="15.1855033"><ele>448.0</ele><time>2026-04-18T07:38:46.954Z</time></trkpt><trkpt lat="40.6654967" lon="15.185365"><ele>449.0</ele><time>2026-04-18T07:38:47.954Z</time></trkpt><trkpt lat="40.6656417" lon="15.185245"><ele>450.0</ele><time>2026-04-18T07:38:48.954Z</time></trkpt><trkpt lat="40.6657767" lon="15.18513"><ele>450.0</ele><time>2026-04-18T07:38:49.954Z</time></trkpt><trkpt lat="40.6659117" lon="15.185015"><ele>450.0</ele><time>2026-04-18T07:38:50.954Z</time></trkpt><trkpt lat="40.6660383" lon="15.1849083"><ele>450.0</ele><time>2026-04-18T07:38:51.954Z</time></trkpt><trkpt lat="40.6661533" lon="15.1848117"><ele>450.0</ele><time>2026-04-18T07:38:52.954Z</time></trkpt><trkpt lat="40.66627" lon="15.18475"><ele>449.5</ele><time>2026-04-18T07:38:53.954Z</time></trkpt><trkpt lat="40.666395" lon="15.1847233"><ele>449.0</ele><time>2026-04-18T07:38:54.954Z</time></trkpt><trkpt lat="40.6665183" lon="15.184755"><ele>448.5</ele><time>2026-04-18T07:38:55.954Z</time></trkpt><trkpt lat="40.6666617" lon="15.18481"><ele>448.0</ele><time>2026-04-18T07:38:56.954Z</time></trkpt><trkpt lat="40.666825" lon="15.1848667"><ele>447.6666666666667</ele><time>2026-04-18T07:38:57.955Z</time></trkpt><trkpt lat="40.6669917" lon="15.1848967"><ele>447.33333333333337</ele><time>2026-04-18T07:38:58.954Z</time></trkpt><trkpt lat="40.6671567" lon="15.1849117"><ele>447.0</ele><time>2026-04-18T07:38:59.954Z</time></trkpt><trkpt lat="40.667315" lon="15.184925"><ele>447.0</ele><time>2026-04-18T07:39:00.954Z</time></trkpt><trkpt lat="40.6674717" lon="15.184935"><ele>447.0</ele><time>2026-04-18T07:39:01.954Z</time></trkpt><trkpt lat="40.66762" lon="15.1849417"><ele>447.0</ele><time>2026-04-18T07:39:02.954Z</time></trkpt><trkpt lat="40.66777" lon="15.1849483"><ele>447.66666666666663</ele><time>2026-04-18T07:39:03.954Z</time></trkpt><trkpt lat="40.6679267" lon="15.18496"><ele>448.3333333333333</ele><time>2026-04-18T07:39:04.955Z</time></trkpt><trkpt lat="40.6680917" lon="15.18499"><ele>449.0</ele><time>2026-04-18T07:39:05.954Z</time></trkpt><trkpt lat="40.668265" lon="15.1850317"><ele>449.0</ele><time>2026-04-18T07:39:06.954Z</time></trkpt><trkpt lat="40.6684367" lon="15.185065"><ele>449.0</ele><time>2026-04-18T07:39:07.954Z</time></trkpt><trkpt lat="40.6686117" lon="15.1851033"><ele>449.0</ele><time>2026-04-18T07:39:08.954Z</time></trkpt><trkpt lat="40.6687833" lon="15.18516"><ele>449.0</ele><time>2026-04-18T07:39:09.954Z</time></trkpt><trkpt lat="40.6689483" lon="15.185235"><ele>449.0</ele><time>2026-04-18T07:39:10.954Z</time></trkpt><trkpt lat="40.6691033" lon="15.1853183"><ele>449.0</ele><time>2026-04-18T07:39:11.954Z</time></trkpt><trkpt lat="40.6692433" lon="15.185385"><ele>449.0</ele><time>2026-04-18T07:39:12.954Z</time></trkpt><trkpt lat="40.6693733" lon="15.1854383"><ele>449.0</ele><time>2026-04-18T07:39:13.954Z</time></trkpt><trkpt lat="40.669485" lon="15.1854933"><ele>449.0</ele><time>2026-04-18T07:39:14.954Z</time></trkpt><trkpt lat="40.6695767" lon="15.1855567"><ele>449.0</ele><time>2026-04-18T07:39:15.954Z</time></trkpt><trkpt lat="40.6696333" lon="15.18565"><ele>450.25</ele><time>2026-04-18T07:39:16.954Z</time></trkpt><trkpt lat="40.6696683" lon="15.1857867"><ele>451.5</ele><time>2026-04-18T07:39:17.954Z</time></trkpt><trkpt lat="40.66969" lon="15.1859483"><ele>452.75</ele><time>2026-04-18T07:39:18.954Z</time></trkpt><trkpt lat="40.6697067" lon="15.1861217"><ele>454.0</ele><time>2026-04-18T07:39:19.954Z</time></trkpt><trkpt lat="40.669725" lon="15.1863"><ele>454.0</ele><time>2026-04-18T07:39:20.954Z</time></trkpt><trkpt lat="40.6697433" lon="15.1864817"><ele>454.0</ele><time>2026-04-18T07:39:21.954Z</time></trkpt><trkpt lat="40.6697633" lon="15.1866667"><ele>454.0</ele><time>2026-04-18T07:39:22.954Z</time></trkpt><trkpt lat="40.6697733" lon="15.1868517"><ele>454.0</ele><time>2026-04-18T07:39:23.954Z</time></trkpt><trkpt lat="40.66975" lon="15.1870317"><ele>454.33333333333337</ele><time>2026-04-18T07:39:24.954Z</time></trkpt><trkpt lat="40.66971" lon="15.1872217"><ele>454.66666666666663</ele><time>2026-04-18T07:39:25.954Z</time></trkpt><trkpt lat="40.669665" lon="15.187415"><ele>455.0</ele><time>2026-04-18T07:39:26.954Z</time></trkpt><trkpt lat="40.669625" lon="15.1876067"><ele>455.0</ele><time>2026-04-18T07:39:27.954Z</time></trkpt><trkpt lat="40.669605" lon="15.187815"><ele>455.0</ele><time>2026-04-18T07:39:28.954Z</time></trkpt><trkpt lat="40.6696017" lon="15.18803"><ele>455.0</ele><time>2026-04-18T07:39:29.954Z</time></trkpt><trkpt lat="40.669605" lon="15.188255"><ele>455.0</ele><time>2026-04-18T07:39:30.954Z</time></trkpt><trkpt lat="40.66961" lon="15.1884683"><ele>455.0</ele><time>2026-04-18T07:39:31.954Z</time></trkpt><trkpt lat="40.6696133" lon="15.188685"><ele>455.0</ele><time>2026-04-18T07:39:32.954Z</time></trkpt><trkpt lat="40.6696017" lon="15.1889"><ele>454.3333333333333</ele><time>2026-04-18T07:39:33.954Z</time></trkpt><trkpt lat="40.6695867" lon="15.1891083"><ele>453.66666666666663</ele><time>2026-04-18T07:39:34.954Z</time></trkpt><trkpt lat="40.6695617" lon="15.18931"><ele>453.0</ele><time>2026-04-18T07:39:35.954Z</time></trkpt><trkpt lat="40.6695317" lon="15.189495"><ele>453.0</ele><time>2026-04-18T07:39:36.954Z</time></trkpt><trkpt lat="40.669495" lon="15.1896667"><ele>453.0</ele><time>2026-04-18T07:39:37.954Z</time></trkpt><trkpt lat="40.66946" lon="15.1898233"><ele>453.0</ele><time>2026-04-18T07:39:38.954Z</time></trkpt><trkpt lat="40.6694283" lon="15.1899583"><ele>453.0</ele><time>2026-04-18T07:39:39.954Z</time></trkpt><trkpt lat="40.669425" lon="15.1901"><ele>451.0</ele><time>2026-04-18T07:39:40.954Z</time></trkpt><trkpt lat="40.6694617" lon="15.1902233"><ele>449.0</ele><time>2026-04-18T07:39:41.954Z</time></trkpt><trkpt lat="40.6695433" lon="15.1903233"><ele>447.0</ele><time>2026-04-18T07:39:42.954Z</time></trkpt><trkpt lat="40.6696483" lon="15.1903983"><ele>445.0</ele><time>2026-04-18T07:39:43.954Z</time></trkpt><trkpt lat="40.669775" lon="15.190445"><ele>445.0</ele><time>2026-04-18T07:39:44.954Z</time></trkpt><trkpt lat="40.6699267" lon="15.1904833"><ele>445.0</ele><time>2026-04-18T07:39:45.954Z</time></trkpt><trkpt lat="40.6700883" lon="15.190515"><ele>445.0</ele><time>2026-04-18T07:39:46.954Z</time></trkpt><trkpt lat="40.670255" lon="15.1905417"><ele>444.33333333333337</ele><time>2026-04-18T07:39:47.954Z</time></trkpt><trkpt lat="40.670415" lon="15.1905817"><ele>443.66666666666663</ele><time>2026-04-18T07:39:48.954Z</time></trkpt><trkpt lat="40.670575" lon="15.1905933"><ele>443.0</ele><time>2026-04-18T07:39:49.954Z</time></trkpt><trkpt lat="40.67073" lon="15.19058"><ele>443.0</ele><time>2026-04-18T07:39:50.954Z</time></trkpt><trkpt lat="40.670885" lon="15.1905217"><ele>443.0</ele><time>2026-04-18T07:39:51.955Z</time></trkpt><trkpt lat="40.67104" lon="15.1904383"><ele>443.0</ele><time>2026-04-18T07:39:52.954Z</time></trkpt><trkpt lat="40.6711683" lon="15.19034"><ele>440.5</ele><time>2026-04-18T07:39:53.954Z</time></trkpt><trkpt lat="40.6712867" lon="15.1902067"><ele>438.0</ele><time>2026-04-18T07:39:54.954Z</time></trkpt><trkpt lat="40.671395" lon="15.1900617"><ele>435.5</ele><time>2026-04-18T07:39:55.954Z</time></trkpt><trkpt lat="40.67149" lon="15.1899367"><ele>433.0</ele><time>2026-04-18T07:39:56.954Z</time></trkpt><trkpt lat="40.671595" lon="15.1898483"><ele>433.0</ele><time>2026-04-18T07:39:57.954Z</time></trkpt><trkpt lat="40.6716967" lon="15.1898033"><ele>432.99999999999994</ele><time>2026-04-18T07:39:58.954Z</time></trkpt><trkpt lat="40.6717883" lon="15.1898"><ele>432.99999999999994</ele><time>2026-04-18T07:39:59.954Z</time></trkpt><trkpt lat="40.671875" lon="15.1898483"><ele>433.0</ele><time>2026-04-18T07:40:00.955Z</time></trkpt><trkpt lat="40.67196" lon="15.1899467"><ele>433.0</ele><time>2026-04-18T07:40:01.954Z</time></trkpt><trkpt lat="40.672055" lon="15.1900967"><ele>433.0</ele><time>2026-04-18T07:40:02.954Z</time></trkpt><trkpt lat="40.672155" lon="15.1902617"><ele>433.0</ele><time>2026-04-18T07:40:03.954Z</time></trkpt><trkpt lat="40.672235" lon="15.1903783"><ele>433.0</ele><time>2026-04-18T07:40:04.954Z</time></trkpt><trkpt lat="40.6723183" lon="15.1904517"><ele>433.0</ele><time>2026-04-18T07:40:05.955Z</time></trkpt><trkpt lat="40.6723967" lon="15.19048"><ele>433.0</ele><time>2026-04-18T07:40:06.955Z</time></trkpt><trkpt lat="40.6724833" lon="15.1904667"><ele>432.99999999999994</ele><time>2026-04-18T07:40:07.954Z</time></trkpt><trkpt lat="40.6725617" lon="15.1904183"><ele>432.99999999999994</ele><time>2026-04-18T07:40:08.954Z</time></trkpt><trkpt lat="40.6726367" lon="15.1903317"><ele>433.0</ele><time>2026-04-18T07:40:09.954Z</time></trkpt><trkpt lat="40.6727133" lon="15.190225"><ele>433.0</ele><time>2026-04-18T07:40:10.954Z</time></trkpt><trkpt lat="40.6727917" lon="15.1901117"><ele>431.59999999999997</ele><time>2026-04-18T07:40:11.954Z</time></trkpt><trkpt lat="40.6728817" lon="15.19002"><ele>430.19999999999993</ele><time>2026-04-18T07:40:12.954Z</time></trkpt><trkpt lat="40.6729833" lon="15.18997"><ele>428.8</ele><time>2026-04-18T07:40:13.954Z</time></trkpt><trkpt lat="40.6730917" lon="15.1899433"><ele>427.4</ele><time>2026-04-18T07:40:14.954Z</time></trkpt><trkpt lat="40.673205" lon="15.1899417"><ele>426.0</ele><time>2026-04-18T07:40:15.954Z</time></trkpt><trkpt lat="40.6733183" lon="15.1899633"><ele>426.0</ele><time>2026-04-18T07:40:16.954Z</time></trkpt><trkpt lat="40.6734267" lon="15.19001"><ele>426.0</ele><time>2026-04-18T07:40:17.954Z</time></trkpt><trkpt lat="40.6735317" lon="15.190075"><ele>426.0</ele><time>2026-04-18T07:40:18.954Z</time></trkpt><trkpt lat="40.6736333" lon="15.190145"><ele>426.0</ele><time>2026-04-18T07:40:19.954Z</time></trkpt><trkpt lat="40.6737317" lon="15.19022"><ele>426.5</ele><time>2026-04-18T07:40:20.954Z</time></trkpt><trkpt lat="40.6738317" lon="15.1902933"><ele>427.0</ele><time>2026-04-18T07:40:21.954Z</time></trkpt><trkpt lat="40.6739317" lon="15.1903667"><ele>427.5</ele><time>2026-04-18T07:40:22.954Z</time></trkpt><trkpt lat="40.6740367" lon="15.1904317"><ele>428.0</ele><time>2026-04-18T07:40:23.954Z</time></trkpt><trkpt lat="40.6741467" lon="15.1904767"><ele>428.0</ele><time>2026-04-18T07:40:24.954Z</time></trkpt><trkpt lat="40.6742567" lon="15.1905067"><ele>427.99999999999994</ele><time>2026-04-18T07:40:25.954Z</time></trkpt><trkpt lat="40.674365" lon="15.19052"><ele>427.99999999999994</ele><time>2026-04-18T07:40:26.954Z</time></trkpt><trkpt lat="40.6744783" lon="15.19051"><ele>428.0</ele><time>2026-04-18T07:40:27.954Z</time></trkpt><trkpt lat="40.67459" lon="15.1904817"><ele>428.0</ele><time>2026-04-18T07:40:28.954Z</time></trkpt><trkpt lat="40.6746967" lon="15.19043"><ele>426.0</ele><time>2026-04-18T07:40:29.954Z</time></trkpt><trkpt lat="40.67479" lon="15.1903683"><ele>423.99999999999994</ele><time>2026-04-18T07:40:30.954Z</time></trkpt><trkpt lat="40.6748833" lon="15.1903"><ele>422.0</ele><time>2026-04-18T07:40:31.954Z</time></trkpt><trkpt lat="40.674975" lon="15.1902117"><ele>420.0</ele><time>2026-04-18T07:40:32.954Z</time></trkpt><trkpt lat="40.6750633" lon="15.1901283"><ele>418.0</ele><time>2026-04-18T07:40:33.954Z</time></trkpt><trkpt lat="40.6751383" lon="15.1900483"><ele>418.0</ele><time>2026-04-18T07:40:34.954Z</time></trkpt><trkpt lat="40.6752033" lon="15.1899517"><ele>418.0</ele><time>2026-04-18T07:40:35.954Z</time></trkpt><trkpt lat="40.6752667" lon="15.1898517"><ele>418.0</ele><time>2026-04-18T07:40:36.954Z</time></trkpt><trkpt lat="40.6753233" lon="15.1897517"><ele>418.0</ele><time>2026-04-18T07:40:37.954Z</time></trkpt><trkpt lat="40.6753817" lon="15.189655"><ele>418.0</ele><time>2026-04-18T07:40:38.954Z</time></trkpt><trkpt lat="40.6754417" lon="15.1895617"><ele>417.79999999999995</ele><time>2026-04-18T07:40:39.954Z</time></trkpt><trkpt lat="40.6755033" lon="15.189475"><ele>417.6</ele><time>2026-04-18T07:40:40.954Z</time></trkpt><trkpt lat="40.6755817" lon="15.1893917"><ele>417.4</ele><time>2026-04-18T07:40:41.954Z</time></trkpt><trkpt lat="40.6756633" lon="15.189315"><ele>417.20000000000005</ele><time>2026-04-18T07:40:42.954Z</time></trkpt><trkpt lat="40.6757417" lon="15.1892467"><ele>417.0</ele><time>2026-04-18T07:40:43.954Z</time></trkpt><trkpt lat="40.675815" lon="15.1891983"><ele>417.0</ele><time>2026-04-18T07:40:44.954Z</time></trkpt><trkpt lat="40.6758967" lon="15.1891717"><ele>417.0</ele><time>2026-04-18T07:40:45.955Z</time></trkpt><trkpt lat="40.6759833" lon="15.18917"><ele>417.0</ele><time>2026-04-18T07:40:46.954Z</time></trkpt><trkpt lat="40.6760667" lon="15.1891967"><ele>417.0</ele><time>2026-04-18T07:40:47.954Z</time></trkpt><trkpt lat="40.676145" lon="15.1892483"><ele>417.0</ele><time>2026-04-18T07:40:48.955Z</time></trkpt><trkpt lat="40.676215" lon="15.189325"><ele>417.0</ele><time>2026-04-18T07:40:49.954Z</time></trkpt><trkpt lat="40.6762783" lon="15.1894183"><ele>416.40000000000003</ele><time>2026-04-18T07:40:50.954Z</time></trkpt><trkpt lat="40.6763467" lon="15.189505"><ele>415.8</ele><time>2026-04-18T07:40:51.954Z</time></trkpt><trkpt lat="40.6764133" lon="15.189605"><ele>415.2</ele><time>2026-04-18T07:40:52.954Z</time></trkpt><trkpt lat="40.6764767" lon="15.1897017"><ele>414.6</ele><time>2026-04-18T07:40:53.954Z</time></trkpt><trkpt lat="40.6765433" lon="15.18979"><ele>414.0</ele><time>2026-04-18T07:40:54.954Z</time></trkpt><trkpt lat="40.6766" lon="15.1898833"><ele>414.0</ele><time>2026-04-18T07:40:55.954Z</time></trkpt><trkpt lat="40.67666" lon="15.18998"><ele>414.0</ele><time>2026-04-18T07:40:56.955Z</time></trkpt><trkpt lat="40.6767083" lon="15.1900867"><ele>414.0</ele><time>2026-04-18T07:40:57.954Z</time></trkpt><trkpt lat="40.6767333" lon="15.1901933"><ele>414.0</ele><time>2026-04-18T07:40:58.954Z</time></trkpt><trkpt lat="40.6767383" lon="15.1903083"><ele>414.0</ele><time>2026-04-18T07:40:59.954Z</time></trkpt><trkpt lat="40.6767267" lon="15.1904417"><ele>414.0</ele><time>2026-04-18T07:41:00.954Z</time></trkpt><trkpt lat="40.67671" lon="15.1906167"><ele>414.0</ele><time>2026-04-18T07:41:01.954Z</time></trkpt><trkpt lat="40.6766883" lon="15.190815"><ele>414.0</ele><time>2026-04-18T07:41:02.954Z</time></trkpt><trkpt lat="40.676655" lon="15.1910083"><ele>414.0</ele><time>2026-04-18T07:41:03.954Z</time></trkpt><trkpt lat="40.6766167" lon="15.1911883"><ele>412.6</ele><time>2026-04-18T07:41:04.954Z</time></trkpt><trkpt lat="40.6765833" lon="15.1913383"><ele>411.2</ele><time>2026-04-18T07:41:05.954Z</time></trkpt><trkpt lat="40.676575" lon="15.1914867"><ele>409.8</ele><time>2026-04-18T07:41:06.954Z</time></trkpt><trkpt lat="40.6766167" lon="15.191605"><ele>408.40000000000003</ele><time>2026-04-18T07:41:07.954Z</time></trkpt><trkpt lat="40.6766933" lon="15.1916883"><ele>407.0</ele><time>2026-04-18T07:41:08.954Z</time></trkpt><trkpt lat="40.676795" lon="15.1917233"><ele>406.49999999999994</ele><time>2026-04-18T07:41:09.954Z</time></trkpt><trkpt lat="40.6768983" lon="15.1917233"><ele>406.0</ele><time>2026-04-18T07:41:10.954Z</time></trkpt><trkpt lat="40.6769883" lon="15.19172"><ele>405.5</ele><time>2026-04-18T07:41:11.954Z</time></trkpt><trkpt lat="40.677065" lon="15.1917433"><ele>405.0</ele><time>2026-04-18T07:41:12.954Z</time></trkpt><trkpt lat="40.6771233" lon="15.1918"><ele>404.49999999999994</ele><time>2026-04-18T07:41:13.954Z</time></trkpt><trkpt lat="40.67717" lon="15.1919067"><ele>404.0</ele><time>2026-04-18T07:41:14.954Z</time></trkpt><trkpt lat="40.6772067" lon="15.1920533"><ele>404.0</ele><time>2026-04-18T07:41:15.954Z</time></trkpt><trkpt lat="40.677225" lon="15.1922383"><ele>404.0</ele><time>2026-04-18T07:41:16.955Z</time></trkpt><trkpt lat="40.6772467" lon="15.19245"><ele>404.0</ele><time>2026-04-18T07:41:17.954Z</time></trkpt><trkpt lat="40.6772817" lon="15.1926633"><ele>403.25</ele><time>2026-04-18T07:41:18.954Z</time></trkpt><trkpt lat="40.677315" lon="15.1928617"><ele>402.5</ele><time>2026-04-18T07:41:19.954Z</time></trkpt><trkpt lat="40.6773517" lon="15.193035"><ele>401.75</ele><time>2026-04-18T07:41:20.954Z</time></trkpt><trkpt lat="40.6774017" lon="15.193175"><ele>401.0</ele><time>2026-04-18T07:41:21.954Z</time></trkpt><trkpt lat="40.67748" lon="15.1932933"><ele>400.0</ele><time>2026-04-18T07:41:22.954Z</time></trkpt><trkpt lat="40.6775883" lon="15.1933933"><ele>399.0</ele><time>2026-04-18T07:41:23.954Z</time></trkpt><trkpt lat="40.6777167" lon="15.1934933"><ele>398.0</ele><time>2026-04-18T07:41:24.955Z</time></trkpt><trkpt lat="40.6778433" lon="15.193595"><ele>397.0</ele><time>2026-04-18T07:41:25.954Z</time></trkpt><trkpt lat="40.677965" lon="15.193695"><ele>397.0</ele><time>2026-04-18T07:41:26.954Z</time></trkpt><trkpt lat="40.6780817" lon="15.1937967"><ele>397.0</ele><time>2026-04-18T07:41:27.954Z</time></trkpt><trkpt lat="40.6781867" lon="15.1938867"><ele>397.0</ele><time>2026-04-18T07:41:28.954Z</time></trkpt><trkpt lat="40.678275" lon="15.193985"><ele>397.0</ele><time>2026-04-18T07:41:29.954Z</time></trkpt><trkpt lat="40.67834" lon="15.1941017"><ele>394.25</ele><time>2026-04-18T07:41:30.954Z</time></trkpt><trkpt lat="40.67839" lon="15.194255"><ele>391.5</ele><time>2026-04-18T07:41:31.954Z</time></trkpt><trkpt lat="40.67843" lon="15.194435"><ele>388.75</ele><time>2026-04-18T07:41:32.954Z</time></trkpt><trkpt lat="40.67847" lon="15.1946067"><ele>386.0</ele><time>2026-04-18T07:41:33.954Z</time></trkpt><trkpt lat="40.6785017" lon="15.1947867"><ele>384.5</ele><time>2026-04-18T07:41:34.954Z</time></trkpt><trkpt lat="40.678525" lon="15.19496"><ele>383.0</ele><time>2026-04-18T07:41:35.954Z</time></trkpt><trkpt lat="40.6785333" lon="15.1951267"><ele>381.5</ele><time>2026-04-18T07:41:36.954Z</time></trkpt><trkpt lat="40.67853" lon="15.1953017"><ele>380.0</ele><time>2026-04-18T07:41:37.954Z</time></trkpt><trkpt lat="40.6785083" lon="15.19548"><ele>378.33333333333337</ele><time>2026-04-18T07:41:38.954Z</time></trkpt><trkpt lat="40.6784767" lon="15.19568"><ele>376.6666666666667</ele><time>2026-04-18T07:41:39.955Z</time></trkpt><trkpt lat="40.6784367" lon="15.1958967"><ele>375.0</ele><time>2026-04-18T07:41:40.954Z</time></trkpt><trkpt lat="40.6783883" lon="15.1961133"><ele>375.0</ele><time>2026-04-18T07:41:41.954Z</time></trkpt><trkpt lat="40.678335" lon="15.196345"><ele>375.0</ele><time>2026-04-18T07:41:42.954Z</time></trkpt><trkpt lat="40.6782783" lon="15.1965583"><ele>375.0</ele><time>2026-04-18T07:41:43.954Z</time></trkpt><trkpt lat="40.67822" lon="15.19676"><ele>374.3333333333333</ele><time>2026-04-18T07:41:44.954Z</time></trkpt><trkpt lat="40.6781567" lon="15.1969617"><ele>373.66666666666663</ele><time>2026-04-18T07:41:45.954Z</time></trkpt><trkpt lat="40.6780983" lon="15.1971517"><ele>373.0</ele><time>2026-04-18T07:41:46.954Z</time></trkpt><trkpt lat="40.6780633" lon="15.1973483"><ele>371.66666666666663</ele><time>2026-04-18T07:41:47.954Z</time></trkpt><trkpt lat="40.6780517" lon="15.1975583"><ele>370.3333333333333</ele><time>2026-04-18T07:41:48.954Z</time></trkpt><trkpt lat="40.678055" lon="15.1977767"><ele>369.0</ele><time>2026-04-18T07:41:49.954Z</time></trkpt><trkpt lat="40.6780617" lon="15.1979933"><ele>369.0</ele><time>2026-04-18T07:41:50.954Z</time></trkpt><trkpt lat="40.678085" lon="15.1982233"><ele>369.0</ele><time>2026-04-18T07:41:51.954Z</time></trkpt><trkpt lat="40.67811" lon="15.1984517"><ele>369.0</ele><time>2026-04-18T07:41:52.954Z</time></trkpt><trkpt lat="40.6781383" lon="15.198665"><ele>369.0</ele><time>2026-04-18T07:41:53.954Z</time></trkpt><trkpt lat="40.67817" lon="15.1988667"><ele>369.0</ele><time>2026-04-18T07:41:54.954Z</time></trkpt><trkpt lat="40.6782" lon="15.19905"><ele>369.0</ele><time>2026-04-18T07:41:55.954Z</time></trkpt><trkpt lat="40.6782283" lon="15.1992133"><ele>369.0</ele><time>2026-04-18T07:41:56.954Z</time></trkpt><trkpt lat="40.6782683" lon="15.1993617"><ele>368.5</ele><time>2026-04-18T07:41:57.954Z</time></trkpt><trkpt lat="40.6783267" lon="15.1994967"><ele>368.0</ele><time>2026-04-18T07:41:58.954Z</time></trkpt><trkpt lat="40.6784117" lon="15.199615"><ele>367.5</ele><time>2026-04-18T07:41:59.954Z</time></trkpt><trkpt lat="40.67851" lon="15.1997033"><ele>367.0</ele><time>2026-04-18T07:42:00.954Z</time></trkpt><trkpt lat="40.67862" lon="15.1997833"><ele>365.75</ele><time>2026-04-18T07:42:01.954Z</time></trkpt><trkpt lat="40.6787417" lon="15.1998533"><ele>364.5</ele><time>2026-04-18T07:42:02.954Z</time></trkpt><trkpt lat="40.678865" lon="15.1999283"><ele>363.25</ele><time>2026-04-18T07:42:03.954Z</time></trkpt><trkpt lat="40.6789817" lon="15.1999967"><ele>362.0</ele><time>2026-04-18T07:42:04.954Z</time></trkpt><trkpt lat="40.6790883" lon="15.2000683"><ele>362.0</ele><time>2026-04-18T07:42:05.954Z</time></trkpt><trkpt lat="40.679185" lon="15.2001567"><ele>362.0</ele><time>2026-04-18T07:42:06.954Z</time></trkpt><trkpt lat="40.679255" lon="15.2002717"><ele>362.0</ele><time>2026-04-18T07:42:07.954Z</time></trkpt><trkpt lat="40.67931" lon="15.2004033"><ele>362.0</ele><time>2026-04-18T07:42:08.954Z</time></trkpt><trkpt lat="40.679365" lon="15.2005383"><ele>362.20000000000005</ele><time>2026-04-18T07:42:09.954Z</time></trkpt><trkpt lat="40.6794167" lon="15.200675"><ele>362.4</ele><time>2026-04-18T07:42:10.954Z</time></trkpt><trkpt lat="40.6794683" lon="15.2008083"><ele>362.6</ele><time>2026-04-18T07:42:11.954Z</time></trkpt><trkpt lat="40.6795217" lon="15.2009283"><ele>362.79999999999995</ele><time>2026-04-18T07:42:12.955Z</time></trkpt><trkpt lat="40.6795667" lon="15.201045"><ele>363.0</ele><time>2026-04-18T07:42:13.955Z</time></trkpt><trkpt lat="40.6796083" lon="15.20116"><ele>363.0</ele><time>2026-04-18T07:42:14.954Z</time></trkpt><trkpt lat="40.679645" lon="15.2012683"><ele>363.0</ele><time>2026-04-18T07:42:15.954Z</time></trkpt><trkpt lat="40.6796833" lon="15.20137"><ele>363.0</ele><time>2026-04-18T07:42:16.954Z</time></trkpt><trkpt lat="40.6797183" lon="15.20147"><ele>363.0</ele><time>2026-04-18T07:42:17.954Z</time></trkpt><trkpt lat="40.6797517" lon="15.2015633"><ele>363.0</ele><time>2026-04-18T07:42:18.954Z</time></trkpt><trkpt lat="40.6797933" lon="15.2016583"><ele>363.0</ele><time>2026-04-18T07:42:19.954Z</time></trkpt><trkpt lat="40.6798317" lon="15.2017533"><ele>362.0</ele><time>2026-04-18T07:42:20.954Z</time></trkpt><trkpt lat="40.6798633" lon="15.2018483"><ele>361.0</ele><time>2026-04-18T07:42:21.954Z</time></trkpt><trkpt lat="40.6798933" lon="15.201945"><ele>360.0</ele><time>2026-04-18T07:42:22.954Z</time></trkpt><trkpt lat="40.6799217" lon="15.2020433"><ele>359.0</ele><time>2026-04-18T07:42:23.954Z</time></trkpt><trkpt lat="40.679955" lon="15.2021433"><ele>358.0</ele><time>2026-04-18T07:42:24.954Z</time></trkpt><trkpt lat="40.6799883" lon="15.202235"><ele>357.0</ele><time>2026-04-18T07:42:25.954Z</time></trkpt><trkpt lat="40.6800217" lon="15.2023233"><ele>356.14285714285717</ele><time>2026-04-18T07:42:26.954Z</time></trkpt><trkpt lat="40.6800483" lon="15.20242"><ele>355.2857142857143</ele><time>2026-04-18T07:42:27.955Z</time></trkpt><trkpt lat="40.6800783" lon="15.202515"><ele>354.42857142857144</ele><time>2026-04-18T07:42:28.954Z</time></trkpt><trkpt lat="40.6801117" lon="15.2026017"><ele>353.57142857142856</ele><time>2026-04-18T07:42:29.954Z</time></trkpt><trkpt lat="40.68014" lon="15.2026783"><ele>352.7142857142857</ele><time>2026-04-18T07:42:30.954Z</time></trkpt><trkpt lat="40.6801667" lon="15.2027583"><ele>351.8571428571429</ele><time>2026-04-18T07:42:31.954Z</time></trkpt><trkpt lat="40.6802033" lon="15.2028433"><ele>351.0</ele><time>2026-04-18T07:42:32.954Z</time></trkpt><trkpt lat="40.6802467" lon="15.20292"><ele>350.8333333333333</ele><time>2026-04-18T07:42:33.954Z</time></trkpt><trkpt lat="40.6803083" lon="15.2029817"><ele>350.6666666666667</ele><time>2026-04-18T07:42:34.954Z</time></trkpt><trkpt lat="40.6803733" lon="15.2030267"><ele>350.5</ele><time>2026-04-18T07:42:35.954Z</time></trkpt><trkpt lat="40.680465" lon="15.2030917"><ele>350.33333333333337</ele><time>2026-04-18T07:42:37.954Z</time></trkpt><trkpt lat="40.6804367" lon="15.203235"><ele>350.1666666666667</ele><time>2026-04-18T07:42:48.954Z</time></trkpt><trkpt lat="40.68039" lon="15.2033067"><ele>350.0</ele><time>2026-04-18T07:42:49.954Z</time></trkpt><trkpt lat="40.6803317" lon="15.2034083"><ele>347.75</ele><time>2026-04-18T07:42:50.953Z</time></trkpt><trkpt lat="40.68026" lon="15.2035517"><ele>345.5</ele><time>2026-04-18T07:42:51.953Z</time></trkpt><trkpt lat="40.6802" lon="15.2037133"><ele>343.25</ele><time>2026-04-18T07:42:52.953Z</time></trkpt><trkpt lat="40.68016" lon="15.2038717"><ele>341.0</ele><time>2026-04-18T07:42:53.953Z</time></trkpt><trkpt lat="40.6801333" lon="15.204015"><ele>339.6</ele><time>2026-04-18T07:42:54.953Z</time></trkpt><trkpt lat="40.68011" lon="15.2041517"><ele>338.20000000000005</ele><time>2026-04-18T07:42:55.953Z</time></trkpt><trkpt lat="40.68009" lon="15.204285"><ele>336.79999999999995</ele><time>2026-04-18T07:42:56.953Z</time></trkpt><trkpt lat="40.6800583" lon="15.2044117"><ele>335.4</ele><time>2026-04-18T07:42:57.954Z</time></trkpt><trkpt lat="40.6800267" lon="15.2045367"><ele>334.0</ele><time>2026-04-18T07:42:58.954Z</time></trkpt><trkpt lat="40.67999" lon="15.2046633"><ele>334.0</ele><time>2026-04-18T07:42:59.953Z</time></trkpt><trkpt lat="40.679955" lon="15.204785"><ele>334.0</ele><time>2026-04-18T07:43:00.953Z</time></trkpt><trkpt lat="40.679915" lon="15.2049083"><ele>334.0</ele><time>2026-04-18T07:43:01.953Z</time></trkpt><trkpt lat="40.6798683" lon="15.2050217"><ele>334.0</ele><time>2026-04-18T07:43:02.954Z</time></trkpt><trkpt lat="40.67983" lon="15.205145"><ele>334.0</ele><time>2026-04-18T07:43:03.953Z</time></trkpt><trkpt lat="40.67978" lon="15.2052583"><ele>332.2</ele><time>2026-04-18T07:43:04.953Z</time></trkpt><trkpt lat="40.6797317" lon="15.2053683"><ele>330.4</ele><time>2026-04-18T07:43:05.953Z</time></trkpt><trkpt lat="40.6796733" lon="15.2054867"><ele>328.6</ele><time>2026-04-18T07:43:06.953Z</time></trkpt><trkpt lat="40.6796" lon="15.2055883"><ele>326.8</ele><time>2026-04-18T07:43:07.953Z</time></trkpt><trkpt lat="40.67953" lon="15.2056883"><ele>325.0</ele><time>2026-04-18T07:43:08.953Z</time></trkpt><trkpt lat="40.6794717" lon="15.205785"><ele>322.2</ele><time>2026-04-18T07:43:09.953Z</time></trkpt><trkpt lat="40.67942" lon="15.2058967"><ele>319.4</ele><time>2026-04-18T07:43:10.953Z</time></trkpt><trkpt lat="40.6793733" lon="15.2060067"><ele>316.6</ele><time>2026-04-18T07:43:11.953Z</time></trkpt><trkpt lat="40.6793283" lon="15.206115"><ele>313.8</ele><time>2026-04-18T07:43:12.953Z</time></trkpt><trkpt lat="40.6792817" lon="15.2062183"><ele>311.0</ele><time>2026-04-18T07:43:13.954Z</time></trkpt><trkpt lat="40.67923" lon="15.206305"><ele>311.0</ele><time>2026-04-18T07:43:14.953Z</time></trkpt><trkpt lat="40.679185" lon="15.2063717"><ele>311.0</ele><time>2026-04-18T07:43:15.953Z</time></trkpt><trkpt lat="40.6791633" lon="15.20645"><ele>311.0</ele><time>2026-04-18T07:43:17.953Z</time></trkpt><trkpt lat="40.679225" lon="15.2065067"><ele>311.0</ele><time>2026-04-18T07:43:21.953Z</time></trkpt><trkpt lat="40.6792817" lon="15.2065533"><ele>311.0</ele><time>2026-04-18T07:43:24.953Z</time></trkpt><trkpt lat="40.6793767" lon="15.2066133"><ele>311.0</ele><time>2026-04-18T07:43:45.953Z</time></trkpt><trkpt lat="40.6794783" lon="15.2066933"><ele>310.1428571428571</ele><time>2026-04-18T07:43:47.953Z</time></trkpt><trkpt lat="40.67953" lon="15.2067417"><ele>309.28571428571433</ele><time>2026-04-18T07:43:48.953Z</time></trkpt><trkpt lat="40.6795817" lon="15.206795"><ele>308.42857142857144</ele><time>2026-04-18T07:43:49.954Z</time></trkpt><trkpt lat="40.67963" lon="15.2068517"><ele>307.57142857142856</ele><time>2026-04-18T07:43:50.953Z</time></trkpt><trkpt lat="40.6796767" lon="15.20691"><ele>306.71428571428567</ele><time>2026-04-18T07:43:51.953Z</time></trkpt><trkpt lat="40.6797233" lon="15.20697"><ele>305.8571428571429</ele><time>2026-04-18T07:43:52.953Z</time></trkpt><trkpt lat="40.679805" lon="15.2070817"><ele>305.0</ele><time>2026-04-18T07:43:54.953Z</time></trkpt><trkpt lat="40.6798933" lon="15.207175"><ele>305.0</ele><time>2026-04-18T07:43:56.953Z</time></trkpt><trkpt lat="40.6799883" lon="15.2072333"><ele>305.0</ele><time>2026-04-18T07:43:58.953Z</time></trkpt><trkpt lat="40.68009" lon="15.2072817"><ele>305.0</ele><time>2026-04-18T07:44:00.953Z</time></trkpt><trkpt lat="40.6801867" lon="15.2073183"><ele>305.0</ele><time>2026-04-18T07:44:02.953Z</time></trkpt><trkpt lat="40.680265" lon="15.2073717"><ele>305.0</ele><time>2026-04-18T07:44:05.953Z</time></trkpt><trkpt lat="40.6803217" lon="15.2074533"><ele>303.6</ele><time>2026-04-18T07:44:07.953Z</time></trkpt><trkpt lat="40.680385" lon="15.2075583"><ele>302.2</ele><time>2026-04-18T07:44:09.953Z</time></trkpt><trkpt lat="40.6804717" lon="15.2076317"><ele>300.8</ele><time>2026-04-18T07:44:11.953Z</time></trkpt><trkpt lat="40.6805467" lon="15.2077133"><ele>299.4</ele><time>2026-04-18T07:44:13.954Z</time></trkpt><trkpt lat="40.6806" lon="15.207795"><ele>298.0</ele><time>2026-04-18T07:44:15.953Z</time></trkpt><trkpt lat="40.6806" lon="15.207905"><ele>298.0</ele><time>2026-04-18T07:44:17.953Z</time></trkpt><trkpt lat="40.6805817" lon="15.208025"><ele>298.0</ele><time>2026-04-18T07:44:19.953Z</time></trkpt><trkpt lat="40.680615" lon="15.208155"><ele>298.0</ele><time>2026-04-18T07:44:21.953Z</time></trkpt><trkpt lat="40.68065" lon="15.2082267"><ele>298.0</ele><time>2026-04-18T07:44:22.953Z</time></trkpt><trkpt lat="40.6806867" lon="15.208295"><ele>298.0</ele><time>2026-04-18T07:44:23.953Z</time></trkpt><trkpt lat="40.6807667" lon="15.2084033"><ele>298.0</ele><time>2026-04-18T07:44:25.953Z</time></trkpt><trkpt lat="40.6808683" lon="15.20848"><ele>297.5</ele><time>2026-04-18T07:44:27.953Z</time></trkpt><trkpt lat="40.6809283" lon="15.2085133"><ele>297.0</ele><time>2026-04-18T07:44:28.953Z</time></trkpt><trkpt lat="40.68099" lon="15.2085517"><ele>296.5</ele><time>2026-04-18T07:44:29.953Z</time></trkpt><trkpt lat="40.6810833" lon="15.20861"><ele>296.0</ele><time>2026-04-18T07:44:31.953Z</time></trkpt><trkpt lat="40.6811533" lon="15.2086517"><ele>295.5</ele><time>2026-04-18T07:44:33.953Z</time></trkpt><trkpt lat="40.681205" lon="15.208725"><ele>295.0</ele><time>2026-04-18T07:44:35.953Z</time></trkpt><trkpt lat="40.68123" lon="15.20884"><ele>293.8</ele><time>2026-04-18T07:44:37.953Z</time></trkpt><trkpt lat="40.6812317" lon="15.2090033"><ele>292.6</ele><time>2026-04-18T07:44:39.953Z</time></trkpt><trkpt lat="40.6812317" lon="15.20914"><ele>291.4</ele><time>2026-04-18T07:44:41.953Z</time></trkpt><trkpt lat="40.6812533" lon="15.20925"><ele>290.2</ele><time>2026-04-18T07:44:44.953Z</time></trkpt><trkpt lat="40.6812817" lon="15.209325"><ele>289.0</ele><time>2026-04-18T07:44:46.953Z</time></trkpt><trkpt lat="40.6813067" lon="15.2094317"><ele>289.0</ele><time>2026-04-18T07:44:48.954Z</time></trkpt><trkpt lat="40.681325" lon="15.209555"><ele>289.0</ele><time>2026-04-18T07:44:50.953Z</time></trkpt><trkpt lat="40.68137" lon="15.2096667"><ele>289.0</ele><time>2026-04-18T07:44:52.953Z</time></trkpt><trkpt lat="40.6814383" lon="15.2097283"><ele>289.0</ele><time>2026-04-18T07:44:54.953Z</time></trkpt><trkpt lat="40.6815167" lon="15.2097783"><ele>289.0</ele><time>2026-04-18T07:44:56.953Z</time></trkpt><trkpt lat="40.6816083" lon="15.2098117"><ele>289.0</ele><time>2026-04-18T07:44:58.953Z</time></trkpt><trkpt lat="40.68169" lon="15.2098117"><ele>289.0</ele><time>2026-04-18T07:45:00.953Z</time></trkpt><trkpt lat="40.681765" lon="15.209805"><ele>289.0</ele><time>2026-04-18T07:45:02.953Z</time></trkpt><trkpt lat="40.6818467" lon="15.2098067"><ele>289.0</ele><time>2026-04-18T07:45:05.953Z</time></trkpt><trkpt lat="40.681975" lon="15.2098667"><ele>289.0</ele><time>2026-04-18T07:45:07.953Z</time></trkpt><trkpt lat="40.6820433" lon="15.20989"><ele>289.0</ele><time>2026-04-18T07:45:08.953Z</time></trkpt><trkpt lat="40.6821167" lon="15.2098883"><ele>288.4</ele><time>2026-04-18T07:45:09.953Z</time></trkpt><trkpt lat="40.6821833" lon="15.20989"><ele>287.79999999999995</ele><time>2026-04-18T07:45:10.953Z</time></trkpt><trkpt lat="40.68231" lon="15.20994"><ele>287.20000000000005</ele><time>2026-04-18T07:45:12.953Z</time></trkpt><trkpt lat="40.6823633" lon="15.2099967"><ele>286.6</ele><time>2026-04-18T07:45:13.954Z</time></trkpt><trkpt lat="40.68243" lon="15.21013"><ele>286.0</ele><time>2026-04-18T07:45:15.953Z</time></trkpt><trkpt lat="40.6824783" lon="15.2102267"><ele>286.0</ele><time>2026-04-18T07:45:17.954Z</time></trkpt><trkpt lat="40.682555" lon="15.2102383"><ele>286.0</ele><time>2026-04-18T07:45:19.953Z</time></trkpt><trkpt lat="40.68266" lon="15.210225"><ele>286.0</ele><time>2026-04-18T07:45:21.953Z</time></trkpt><trkpt lat="40.68276" lon="15.2102133"><ele>286.0</ele><time>2026-04-18T07:45:23.953Z</time></trkpt><trkpt lat="40.6828433" lon="15.2102333"><ele>286.0</ele><time>2026-04-18T07:45:25.953Z</time></trkpt><trkpt lat="40.682915" lon="15.210335"><ele>286.8333333333333</ele><time>2026-04-18T07:45:27.953Z</time></trkpt><trkpt lat="40.6829467" lon="15.2104117"><ele>287.66666666666663</ele><time>2026-04-18T07:45:28.953Z</time></trkpt><trkpt lat="40.6830117" lon="15.2104967"><ele>288.5</ele><time>2026-04-18T07:45:30.953Z</time></trkpt><trkpt lat="40.6831033" lon="15.2105233"><ele>289.3333333333333</ele><time>2026-04-18T07:45:41.953Z</time></trkpt><trkpt lat="40.6831717" lon="15.2105567"><ele>290.1666666666667</ele><time>2026-04-18T07:45:42.953Z</time></trkpt><trkpt lat="40.6832533" lon="15.210605"><ele>291.0</ele><time>2026-04-18T07:45:43.953Z</time></trkpt><trkpt lat="40.683335" lon="15.210665"><ele>291.0</ele><time>2026-04-18T07:45:44.953Z</time></trkpt><trkpt lat="40.683415" lon="15.2107217"><ele>291.0</ele><time>2026-04-18T07:45:45.953Z</time></trkpt><trkpt lat="40.6834917" lon="15.210795"><ele>291.0</ele><time>2026-04-18T07:45:46.953Z</time></trkpt><trkpt lat="40.6835583" lon="15.2108767"><ele>291.0</ele><time>2026-04-18T07:45:47.954Z</time></trkpt><trkpt lat="40.6836083" lon="15.210965"><ele>291.0</ele><time>2026-04-18T07:45:48.953Z</time></trkpt><trkpt lat="40.6836583" lon="15.211055"><ele>291.0</ele><time>2026-04-18T07:45:49.953Z</time></trkpt><trkpt lat="40.683705" lon="15.21114"><ele>293.2</ele><time>2026-04-18T07:45:50.953Z</time></trkpt><trkpt lat="40.6837433" lon="15.211255"><ele>295.40000000000003</ele><time>2026-04-18T07:45:51.953Z</time></trkpt><trkpt lat="40.6837933" lon="15.2113683"><ele>297.6</ele><time>2026-04-18T07:45:52.953Z</time></trkpt><trkpt lat="40.6838717" lon="15.2114517"><ele>299.8</ele><time>2026-04-18T07:45:53.953Z</time></trkpt><trkpt lat="40.683975" lon="15.21152"><ele>302.0</ele><time>2026-04-18T07:45:54.953Z</time></trkpt><trkpt lat="40.6840967" lon="15.211585"><ele>302.0</ele><time>2026-04-18T07:45:55.953Z</time></trkpt><trkpt lat="40.684215" lon="15.2116717"><ele>302.0</ele><time>2026-04-18T07:45:56.954Z</time></trkpt><trkpt lat="40.684325" lon="15.211775"><ele>302.0</ele><time>2026-04-18T07:45:57.953Z</time></trkpt><trkpt lat="40.6844233" lon="15.2119133"><ele>302.0</ele><time>2026-04-18T07:45:58.953Z</time></trkpt><trkpt lat="40.6845317" lon="15.212065"><ele>306.33333333333337</ele><time>2026-04-18T07:45:59.953Z</time></trkpt><trkpt lat="40.684655" lon="15.2122083"><ele>310.6666666666667</ele><time>2026-04-18T07:46:00.954Z</time></trkpt><trkpt lat="40.6847883" lon="15.212335"><ele>315.0</ele><time>2026-04-18T07:46:01.953Z</time></trkpt><trkpt lat="40.6849017" lon="15.2124733"><ele>315.0</ele><time>2026-04-18T07:46:02.953Z</time></trkpt><trkpt lat="40.6849967" lon="15.212625"><ele>315.0</ele><time>2026-04-18T07:46:03.954Z</time></trkpt><trkpt lat="40.6850867" lon="15.2128033"><ele>315.0</ele><time>2026-04-18T07:46:04.953Z</time></trkpt><trkpt lat="40.6851667" lon="15.21297"><ele>315.0</ele><time>2026-04-18T07:46:05.953Z</time></trkpt><trkpt lat="40.6852217" lon="15.213115"><ele>315.0</ele><time>2026-04-18T07:46:06.953Z</time></trkpt><trkpt lat="40.6852717" lon="15.2132417"><ele>315.0</ele><time>2026-04-18T07:46:07.953Z</time></trkpt><trkpt lat="40.685315" lon="15.213345"><ele>315.0</ele><time>2026-04-18T07:46:08.953Z</time></trkpt><trkpt lat="40.685355" lon="15.2134317"><ele>315.0</ele><time>2026-04-18T07:46:09.953Z</time></trkpt><trkpt lat="40.6854017" lon="15.2135683"><ele>317.8333333333333</ele><time>2026-04-18T07:46:11.953Z</time></trkpt><trkpt lat="40.68544" lon="15.213655"><ele>320.6666666666667</ele><time>2026-04-18T07:46:13.953Z</time></trkpt><trkpt lat="40.6854983" lon="15.2137533"><ele>323.5</ele><time>2026-04-18T07:46:15.953Z</time></trkpt><trkpt lat="40.6855417" lon="15.2138233"><ele>326.33333333333337</ele><time>2026-04-18T07:46:16.953Z</time></trkpt><trkpt lat="40.6856017" lon="15.2138817"><ele>329.1666666666667</ele><time>2026-04-18T07:46:17.953Z</time></trkpt><trkpt lat="40.6856717" lon="15.2139217"><ele>332.0</ele><time>2026-04-18T07:46:18.953Z</time></trkpt><trkpt lat="40.6857467" lon="15.2139483"><ele>332.0</ele><time>2026-04-18T07:46:19.954Z</time></trkpt><trkpt lat="40.685835" lon="15.2139683"><ele>332.0</ele><time>2026-04-18T07:46:20.953Z</time></trkpt><trkpt lat="40.6859283" lon="15.2139867"><ele>332.0</ele><time>2026-04-18T07:46:21.953Z</time></trkpt><trkpt lat="40.6860467" lon="15.2140133"><ele>332.0</ele><time>2026-04-18T07:46:22.953Z</time></trkpt><trkpt lat="40.6862017" lon="15.21404"><ele>334.0</ele><time>2026-04-18T07:46:23.953Z</time></trkpt><trkpt lat="40.68633" lon="15.2140683"><ele>336.0</ele><time>2026-04-18T07:46:24.953Z</time></trkpt><trkpt lat="40.686395" lon="15.2140933"><ele>338.0</ele><time>2026-04-18T07:46:25.953Z</time></trkpt><trkpt lat="40.6864533" lon="15.21413"><ele>340.0</ele><time>2026-04-18T07:46:27.953Z</time></trkpt><trkpt lat="40.6864983" lon="15.2140517"><ele>342.0</ele><time>2026-04-18T07:46:30.954Z</time></trkpt><trkpt lat="40.6865017" lon="15.2139017"><ele>342.0</ele><time>2026-04-18T07:46:32.953Z</time></trkpt><trkpt lat="40.6865367" lon="15.213815"><ele>342.0</ele><time>2026-04-18T07:46:33.953Z</time></trkpt><trkpt lat="40.686595" lon="15.21373"><ele>342.0</ele><time>2026-04-18T07:46:34.953Z</time></trkpt><trkpt lat="40.686665" lon="15.213655"><ele>342.0</ele><time>2026-04-18T07:46:35.953Z</time></trkpt><trkpt lat="40.6867517" lon="15.2135883"><ele>342.0</ele><time>2026-04-18T07:46:36.953Z</time></trkpt><trkpt lat="40.686835" lon="15.21352"><ele>342.0</ele><time>2026-04-18T07:46:37.953Z</time></trkpt><trkpt lat="40.6869217" lon="15.2134517"><ele>342.0</ele><time>2026-04-18T07:46:38.953Z</time></trkpt><trkpt lat="40.687" lon="15.2133783"><ele>342.0</ele><time>2026-04-18T07:46:39.953Z</time></trkpt><trkpt lat="40.6870683" lon="15.213295"><ele>342.0</ele><time>2026-04-18T07:46:40.953Z</time></trkpt><trkpt lat="40.687125" lon="15.21321"><ele>342.0</ele><time>2026-04-18T07:46:41.953Z</time></trkpt><trkpt lat="40.6871717" lon="15.2131217"><ele>342.1666666666667</ele><time>2026-04-18T07:46:42.953Z</time></trkpt><trkpt lat="40.6872167" lon="15.2130283"><ele>342.3333333333333</ele><time>2026-04-18T07:46:43.953Z</time></trkpt><trkpt lat="40.6872583" lon="15.2129283"><ele>342.5</ele><time>2026-04-18T07:46:44.954Z</time></trkpt><trkpt lat="40.6873017" lon="15.212825"><ele>342.66666666666663</ele><time>2026-04-18T07:46:45.953Z</time></trkpt><trkpt lat="40.68735" lon="15.2127183"><ele>342.8333333333333</ele><time>2026-04-18T07:46:46.953Z</time></trkpt><trkpt lat="40.6874" lon="15.2126283"><ele>343.0</ele><time>2026-04-18T07:46:47.953Z</time></trkpt><trkpt lat="40.6874467" lon="15.2125683"><ele>343.0</ele><time>2026-04-18T07:46:48.953Z</time></trkpt><trkpt lat="40.687495" lon="15.2125"><ele>343.0</ele><time>2026-04-18T07:46:50.953Z</time></trkpt><trkpt lat="40.6875533" lon="15.2124067"><ele>343.0</ele><time>2026-04-18T07:46:52.953Z</time></trkpt><trkpt lat="40.6875983" lon="15.212325"><ele>343.0</ele><time>2026-04-18T07:46:53.953Z</time></trkpt><trkpt lat="40.687635" lon="15.2122267"><ele>343.0</ele><time>2026-04-18T07:46:54.953Z</time></trkpt><trkpt lat="40.6876683" lon="15.2121067"><ele>343.0</ele><time>2026-04-18T07:46:55.954Z</time></trkpt><trkpt lat="40.6876933" lon="15.211965"><ele>343.75</ele><time>2026-04-18T07:46:56.953Z</time></trkpt><trkpt lat="40.6877167" lon="15.2118183"><ele>344.5</ele><time>2026-04-18T07:46:57.953Z</time></trkpt><trkpt lat="40.6877733" lon="15.211675"><ele>345.25</ele><time>2026-04-18T07:46:58.953Z</time></trkpt><trkpt lat="40.68783" lon="15.2115317"><ele>346.0</ele><time>2026-04-18T07:46:59.953Z</time></trkpt><trkpt lat="40.687885" lon="15.211385"><ele>350.0</ele><time>2026-04-18T07:47:00.953Z</time></trkpt><trkpt lat="40.68792" lon="15.2112267"><ele>354.0</ele><time>2026-04-18T07:47:01.953Z</time></trkpt><trkpt lat="40.6879367" lon="15.2110567"><ele>358.0</ele><time>2026-04-18T07:47:02.953Z</time></trkpt><trkpt lat="40.6879483" lon="15.210885"><ele>362.0</ele><time>2026-04-18T07:47:03.953Z</time></trkpt><trkpt lat="40.6879567" lon="15.210725"><ele>363.5</ele><time>2026-04-18T07:47:04.953Z</time></trkpt><trkpt lat="40.687985" lon="15.21057"><ele>365.0</ele><time>2026-04-18T07:47:05.953Z</time></trkpt><trkpt lat="40.6880367" lon="15.2104283"><ele>366.5</ele><time>2026-04-18T07:47:06.953Z</time></trkpt><trkpt lat="40.6881017" lon="15.2102983"><ele>368.0</ele><time>2026-04-18T07:47:07.953Z</time></trkpt><trkpt lat="40.6881783" lon="15.2101683"><ele>368.0</ele><time>2026-04-18T07:47:08.953Z</time></trkpt><trkpt lat="40.688255" lon="15.2100383"><ele>368.0</ele><time>2026-04-18T07:47:09.954Z</time></trkpt><trkpt lat="40.6883283" lon="15.2099"><ele>368.0</ele><time>2026-04-18T07:47:10.953Z</time></trkpt><trkpt lat="40.6883933" lon="15.2097533"><ele>368.0</ele><time>2026-04-18T07:47:11.953Z</time></trkpt><trkpt lat="40.6884517" lon="15.2096033"><ele>370.0</ele><time>2026-04-18T07:47:12.953Z</time></trkpt><trkpt lat="40.6884967" lon="15.2094617"><ele>372.0</ele><time>2026-04-18T07:47:13.953Z</time></trkpt><trkpt lat="40.68853" lon="15.2093383"><ele>374.0</ele><time>2026-04-18T07:47:14.953Z</time></trkpt><trkpt lat="40.6885783" lon="15.2092317"><ele>376.0</ele><time>2026-04-18T07:47:15.953Z</time></trkpt><trkpt lat="40.6886467" lon="15.209155"><ele>378.0</ele><time>2026-04-18T07:47:16.953Z</time></trkpt><trkpt lat="40.688735" lon="15.209105"><ele>378.75</ele><time>2026-04-18T07:47:17.953Z</time></trkpt><trkpt lat="40.68884" lon="15.209055"><ele>379.5</ele><time>2026-04-18T07:47:18.953Z</time></trkpt><trkpt lat="40.6889517" lon="15.208995"><ele>380.25</ele><time>2026-04-18T07:47:19.953Z</time></trkpt><trkpt lat="40.6890583" lon="15.2089167"><ele>381.0</ele><time>2026-04-18T07:47:20.953Z</time></trkpt><trkpt lat="40.6891567" lon="15.2088133"><ele>382.5</ele><time>2026-04-18T07:47:21.953Z</time></trkpt><trkpt lat="40.689255" lon="15.2086983"><ele>384.0</ele><time>2026-04-18T07:47:22.954Z</time></trkpt><trkpt lat="40.6893483" lon="15.208585"><ele>385.5</ele><time>2026-04-18T07:47:23.953Z</time></trkpt><trkpt lat="40.689445" lon="15.20848"><ele>387.0</ele><time>2026-04-18T07:47:24.953Z</time></trkpt><trkpt lat="40.6895283" lon="15.208385"><ele>387.0</ele><time>2026-04-18T07:47:25.953Z</time></trkpt><trkpt lat="40.689605" lon="15.2083"><ele>387.0</ele><time>2026-04-18T07:47:26.953Z</time></trkpt><trkpt lat="40.6896733" lon="15.208225"><ele>387.0</ele><time>2026-04-18T07:47:27.953Z</time></trkpt><trkpt lat="40.689725" lon="15.20817"><ele>387.0</ele><time>2026-04-18T07:47:28.953Z</time></trkpt><trkpt lat="40.6897733" lon="15.2080967"><ele>387.0</ele><time>2026-04-18T07:47:30.953Z</time></trkpt><trkpt lat="40.6897533" lon="15.2080017"><ele>387.0</ele><time>2026-04-18T07:47:32.953Z</time></trkpt><trkpt lat="40.6897017" lon="15.207885"><ele>388.40000000000003</ele><time>2026-04-18T07:47:34.953Z</time></trkpt><trkpt lat="40.6896317" lon="15.2077917"><ele>389.8</ele><time>2026-04-18T07:47:36.954Z</time></trkpt><trkpt lat="40.68955" lon="15.2076983"><ele>391.2</ele><time>2026-04-18T07:47:38.953Z</time></trkpt><trkpt lat="40.68946" lon="15.2076083"><ele>392.6</ele><time>2026-04-18T07:47:40.953Z</time></trkpt><trkpt lat="40.6893617" lon="15.2075367"><ele>394.0</ele><time>2026-04-18T07:47:42.954Z</time></trkpt><trkpt lat="40.6892617" lon="15.20746"><ele>395.5</ele><time>2026-04-18T07:47:44.953Z</time></trkpt><trkpt lat="40.6891617" lon="15.2073917"><ele>397.0</ele><time>2026-04-18T07:47:46.953Z</time></trkpt><trkpt lat="40.6890633" lon="15.2073217"><ele>398.5</ele><time>2026-04-18T07:47:48.953Z</time></trkpt><trkpt lat="40.6889817" lon="15.2072183"><ele>400.0</ele><time>2026-04-18T07:47:50.953Z</time></trkpt><trkpt lat="40.6889583" lon="15.20707"><ele>400.42857142857144</ele><time>2026-04-18T07:47:52.953Z</time></trkpt><trkpt lat="40.6889667" lon="15.2069817"><ele>400.8571428571429</ele><time>2026-04-18T07:47:53.953Z</time></trkpt><trkpt lat="40.688975" lon="15.2068917"><ele>401.28571428571433</ele><time>2026-04-18T07:47:54.953Z</time></trkpt><trkpt lat="40.6889833" lon="15.206795"><ele>401.7142857142857</ele><time>2026-04-18T07:47:55.953Z</time></trkpt><trkpt lat="40.68899" lon="15.206695"><ele>402.1428571428571</ele><time>2026-04-18T07:47:56.954Z</time></trkpt><trkpt lat="40.688995" lon="15.2065917"><ele>402.5714285714286</ele><time>2026-04-18T07:47:57.954Z</time></trkpt><trkpt lat="40.6889983" lon="15.2064883"><ele>403.0</ele><time>2026-04-18T07:47:58.953Z</time></trkpt><trkpt lat="40.689" lon="15.20639"><ele>404.33333333333337</ele><time>2026-04-18T07:47:59.953Z</time></trkpt><trkpt lat="40.6890017" lon="15.2062983"><ele>405.6666666666667</ele><time>2026-04-18T07:48:00.953Z</time></trkpt><trkpt lat="40.689005" lon="15.20621"><ele>407.0</ele><time>2026-04-18T07:48:01.953Z</time></trkpt><trkpt lat="40.6890133" lon="15.2061217"><ele>408.33333333333337</ele><time>2026-04-18T07:48:02.953Z</time></trkpt><trkpt lat="40.6890183" lon="15.2060383"><ele>409.6666666666667</ele><time>2026-04-18T07:48:03.954Z</time></trkpt><trkpt lat="40.6890167" lon="15.2058833"><ele>411.0</ele><time>2026-04-18T07:48:05.953Z</time></trkpt><trkpt lat="40.6890317" lon="15.2057317"><ele>411.0</ele><time>2026-04-18T07:48:07.953Z</time></trkpt><trkpt lat="40.68902" lon="15.20559"><ele>411.0</ele><time>2026-04-18T07:48:09.953Z</time></trkpt><trkpt lat="40.689005" lon="15.2055083"><ele>411.0</ele><time>2026-04-18T07:48:11.953Z</time></trkpt><trkpt lat="40.689015" lon="15.2057617"><ele>411.0</ele><time>2026-04-18T07:48:41.953Z</time></trkpt><trkpt lat="40.68901" lon="15.2059383"><ele>411.0</ele><time>2026-04-18T07:48:42.953Z</time></trkpt><trkpt lat="40.689" lon="15.2061467"><ele>411.0</ele><time>2026-04-18T07:48:43.953Z</time></trkpt><trkpt lat="40.6889867" lon="15.2063567"><ele>411.0</ele><time>2026-04-18T07:48:44.953Z</time></trkpt><trkpt lat="40.688975" lon="15.2065417"><ele>409.4</ele><time>2026-04-18T07:48:45.953Z</time></trkpt><trkpt lat="40.6889617" lon="15.2067133"><ele>407.8</ele><time>2026-04-18T07:48:46.953Z</time></trkpt><trkpt lat="40.68895" lon="15.206865"><ele>406.2</ele><time>2026-04-18T07:48:47.953Z</time></trkpt><trkpt lat="40.6889417" lon="15.2070033"><ele>404.59999999999997</ele><time>2026-04-18T07:48:48.953Z</time></trkpt><trkpt lat="40.6889383" lon="15.2071067"><ele>403.0</ele><time>2026-04-18T07:48:49.954Z</time></trkpt><trkpt lat="40.6889367" lon="15.207215"><ele>403.0</ele><time>2026-04-18T07:48:51.953Z</time></trkpt><trkpt lat="40.6889533" lon="15.2071"><ele>403.0</ele><time>2026-04-18T07:49:16.953Z</time></trkpt><trkpt lat="40.6889567" lon="15.2069733"><ele>403.0</ele><time>2026-04-18T07:49:18.953Z</time></trkpt><trkpt lat="40.6889633" lon="15.2068833"><ele>403.0</ele><time>2026-04-18T07:49:19.953Z</time></trkpt><trkpt lat="40.6889733" lon="15.2067483"><ele>403.0</ele><time>2026-04-18T07:49:20.953Z</time></trkpt><trkpt lat="40.6889783" lon="15.206575"><ele>405.0</ele><time>2026-04-18T07:49:21.953Z</time></trkpt><trkpt lat="40.6889867" lon="15.2063967"><ele>407.0</ele><time>2026-04-18T07:49:22.953Z</time></trkpt><trkpt lat="40.6890017" lon="15.2062383"><ele>409.0</ele><time>2026-04-18T07:49:23.953Z</time></trkpt><trkpt lat="40.6890133" lon="15.2060883"><ele>411.0</ele><time>2026-04-18T07:49:24.953Z</time></trkpt><trkpt lat="40.68902" lon="15.20596"><ele>411.0</ele><time>2026-04-18T07:49:25.953Z</time></trkpt><trkpt lat="40.68903" lon="15.205835"><ele>411.0</ele><time>2026-04-18T07:49:26.953Z</time></trkpt><trkpt lat="40.6890267" lon="15.20572"><ele>411.0</ele><time>2026-04-18T07:49:27.953Z</time></trkpt><trkpt lat="40.6890133" lon="15.2056033"><ele>411.0</ele><time>2026-04-18T07:49:28.953Z</time></trkpt><trkpt lat="40.6889883" lon="15.205495"><ele>411.0</ele><time>2026-04-18T07:49:29.954Z</time></trkpt><trkpt lat="40.6889583" lon="15.2053867"><ele>411.0</ele><time>2026-04-18T07:49:30.954Z</time></trkpt><trkpt lat="40.688925" lon="15.2052783"><ele>411.6666666666667</ele><time>2026-04-18T07:49:31.953Z</time></trkpt><trkpt lat="40.6888983" lon="15.20517"><ele>412.33333333333337</ele><time>2026-04-18T07:49:32.953Z</time></trkpt><trkpt lat="40.688885" lon="15.2050683"><ele>413.0</ele><time>2026-04-18T07:49:33.953Z</time></trkpt><trkpt lat="40.688885" lon="15.2049583"><ele>413.6666666666667</ele><time>2026-04-18T07:49:34.953Z</time></trkpt><trkpt lat="40.6889017" lon="15.20484"><ele>414.33333333333337</ele><time>2026-04-18T07:49:35.953Z</time></trkpt><trkpt lat="40.6889233" lon="15.204715"><ele>415.0</ele><time>2026-04-18T07:49:36.953Z</time></trkpt><trkpt lat="40.688945" lon="15.2045917"><ele>415.6</ele><time>2026-04-18T07:49:37.953Z</time></trkpt><trkpt lat="40.6889767" lon="15.204465"><ele>416.2</ele><time>2026-04-18T07:49:38.953Z</time></trkpt><trkpt lat="40.68902" lon="15.2043367"><ele>416.79999999999995</ele><time>2026-04-18T07:49:39.953Z</time></trkpt><trkpt lat="40.68906" lon="15.2042017"><ele>417.4</ele><time>2026-04-18T07:49:40.953Z</time></trkpt><trkpt lat="40.6890983" lon="15.2040617"><ele>418.0</ele><time>2026-04-18T07:49:41.953Z</time></trkpt><trkpt lat="40.689135" lon="15.20392"><ele>419.2</ele><time>2026-04-18T07:49:42.953Z</time></trkpt><trkpt lat="40.68918" lon="15.20378"><ele>420.4</ele><time>2026-04-18T07:49:43.953Z</time></trkpt><trkpt lat="40.6892283" lon="15.2036467"><ele>421.59999999999997</ele><time>2026-04-18T07:49:44.953Z</time></trkpt><trkpt lat="40.6892717" lon="15.2035133"><ele>422.79999999999995</ele><time>2026-04-18T07:49:45.953Z</time></trkpt><trkpt lat="40.68931" lon="15.203375"><ele>424.0</ele><time>2026-04-18T07:49:46.953Z</time></trkpt><trkpt lat="40.6893433" lon="15.2032383"><ele>424.6</ele><time>2026-04-18T07:49:47.953Z</time></trkpt><trkpt lat="40.6893767" lon="15.2031067"><ele>425.2</ele><time>2026-04-18T07:49:48.954Z</time></trkpt><trkpt lat="40.6894067" lon="15.2029767"><ele>425.80000000000007</ele><time>2026-04-18T07:49:49.953Z</time></trkpt><trkpt lat="40.6894267" lon="15.2028483"><ele>426.40000000000003</ele><time>2026-04-18T07:49:50.953Z</time></trkpt><trkpt lat="40.6894317" lon="15.2027233"><ele>427.0</ele><time>2026-04-18T07:49:51.953Z</time></trkpt><trkpt lat="40.689415" lon="15.2025983"><ele>427.0</ele><time>2026-04-18T07:49:52.953Z</time></trkpt><trkpt lat="40.68939" lon="15.2024683"><ele>427.00000000000006</ele><time>2026-04-18T07:49:53.953Z</time></trkpt><trkpt lat="40.6893667" lon="15.2023333"><ele>427.00000000000006</ele><time>2026-04-18T07:49:54.954Z</time></trkpt><trkpt lat="40.689355" lon="15.2021867"><ele>427.0</ele><time>2026-04-18T07:49:55.953Z</time></trkpt><trkpt lat="40.68935" lon="15.2020433"><ele>427.0</ele><time>2026-04-18T07:49:56.953Z</time></trkpt><trkpt lat="40.6893417" lon="15.20189"><ele>427.8</ele><time>2026-04-18T07:49:57.953Z</time></trkpt><trkpt lat="40.68933" lon="15.2017433"><ele>428.6</ele><time>2026-04-18T07:49:58.953Z</time></trkpt><trkpt lat="40.6893183" lon="15.20161"><ele>429.40000000000003</ele><time>2026-04-18T07:49:59.953Z</time></trkpt><trkpt lat="40.68931" lon="15.2014933"><ele>430.20000000000005</ele><time>2026-04-18T07:50:00.953Z</time></trkpt><trkpt lat="40.6893083" lon="15.2013933"><ele>431.0</ele><time>2026-04-18T07:50:01.953Z</time></trkpt><trkpt lat="40.6893267" lon="15.201295"><ele>433.0</ele><time>2026-04-18T07:50:02.953Z</time></trkpt><trkpt lat="40.6893667" lon="15.2011967"><ele>435.0</ele><time>2026-04-18T07:50:03.953Z</time></trkpt><trkpt lat="40.6894267" lon="15.2011183"><ele>437.0</ele><time>2026-04-18T07:50:04.953Z</time></trkpt><trkpt lat="40.6895117" lon="15.2010667"><ele>439.0</ele><time>2026-04-18T07:50:05.953Z</time></trkpt><trkpt lat="40.689615" lon="15.2010467"><ele>441.0</ele><time>2026-04-18T07:50:06.953Z</time></trkpt><trkpt lat="40.6897233" lon="15.2010333"><ele>441.0</ele><time>2026-04-18T07:50:07.953Z</time></trkpt><trkpt lat="40.689825" lon="15.2010067"><ele>441.0</ele><time>2026-04-18T07:50:08.953Z</time></trkpt><trkpt lat="40.689915" lon="15.2009633"><ele>441.0</ele><time>2026-04-18T07:50:09.953Z</time></trkpt><trkpt lat="40.689985" lon="15.20091"><ele>441.0</ele><time>2026-04-18T07:50:10.953Z</time></trkpt><trkpt lat="40.6900283" lon="15.20084"><ele>441.0</ele><time>2026-04-18T07:50:11.953Z</time></trkpt><trkpt lat="40.6900167" lon="15.200705"><ele>443.0</ele><time>2026-04-18T07:50:13.953Z</time></trkpt><trkpt lat="40.6899583" lon="15.2006383"><ele>445.0</ele><time>2026-04-18T07:50:14.953Z</time></trkpt><trkpt lat="40.6898717" lon="15.2005633"><ele>447.0</ele><time>2026-04-18T07:50:15.953Z</time></trkpt><trkpt lat="40.689775" lon="15.2004817"><ele>449.0</ele><time>2026-04-18T07:50:16.953Z</time></trkpt><trkpt lat="40.6896783" lon="15.20041"><ele>451.0</ele><time>2026-04-18T07:50:17.953Z</time></trkpt><trkpt lat="40.6895833" lon="15.20035"><ele>451.0</ele><time>2026-04-18T07:50:18.953Z</time></trkpt><trkpt lat="40.6894917" lon="15.2003"><ele>451.0</ele><time>2026-04-18T07:50:19.953Z</time></trkpt><trkpt lat="40.689405" lon="15.2002433"><ele>451.0</ele><time>2026-04-18T07:50:20.953Z</time></trkpt><trkpt lat="40.6893417" lon="15.2001583"><ele>451.0</ele><time>2026-04-18T07:50:21.953Z</time></trkpt><trkpt lat="40.6893017" lon="15.20005"><ele>451.0</ele><time>2026-04-18T07:50:22.954Z</time></trkpt><trkpt lat="40.6892883" lon="15.1999383"><ele>452.4</ele><time>2026-04-18T07:50:23.953Z</time></trkpt><trkpt lat="40.6893" lon="15.1998217"><ele>453.8</ele><time>2026-04-18T07:50:24.953Z</time></trkpt><trkpt lat="40.68933" lon="15.1997017"><ele>455.19999999999993</ele><time>2026-04-18T07:50:25.953Z</time></trkpt><trkpt lat="40.6893567" lon="15.1995867"><ele>456.59999999999997</ele><time>2026-04-18T07:50:26.953Z</time></trkpt><trkpt lat="40.6893833" lon="15.1994717"><ele>458.0</ele><time>2026-04-18T07:50:27.953Z</time></trkpt><trkpt lat="40.689405" lon="15.1993583"><ele>458.2</ele><time>2026-04-18T07:50:28.953Z</time></trkpt><trkpt lat="40.6894283" lon="15.199245"><ele>458.4</ele><time>2026-04-18T07:50:29.953Z</time></trkpt><trkpt lat="40.6894483" lon="15.199125"><ele>458.59999999999997</ele><time>2026-04-18T07:50:30.953Z</time></trkpt><trkpt lat="40.6894667" lon="15.199"><ele>458.79999999999995</ele><time>2026-04-18T07:50:31.953Z</time></trkpt><trkpt lat="40.6894817" lon="15.1988633"><ele>459.0</ele><time>2026-04-18T07:50:32.953Z</time></trkpt><trkpt lat="40.6894867" lon="15.1987183"><ele>461.0</ele><time>2026-04-18T07:50:33.953Z</time></trkpt><trkpt lat="40.6895017" lon="15.1985733"><ele>463.0</ele><time>2026-04-18T07:50:34.953Z</time></trkpt><trkpt lat="40.6895267" lon="15.1984183"><ele>465.0</ele><time>2026-04-18T07:50:35.954Z</time></trkpt><trkpt lat="40.68956" lon="15.1982667"><ele>467.0</ele><time>2026-04-18T07:50:36.953Z</time></trkpt><trkpt lat="40.689605" lon="15.198115"><ele>469.25</ele><time>2026-04-18T07:50:37.953Z</time></trkpt><trkpt lat="40.68966" lon="15.1979717"><ele>471.5</ele><time>2026-04-18T07:50:38.953Z</time></trkpt><trkpt lat="40.6897217" lon="15.1978467"><ele>473.75</ele><time>2026-04-18T07:50:39.953Z</time></trkpt><trkpt lat="40.689785" lon="15.1977233"><ele>476.0</ele><time>2026-04-18T07:50:40.953Z</time></trkpt><trkpt lat="40.68985" lon="15.1976067"><ele>476.0</ele><time>2026-04-18T07:50:41.953Z</time></trkpt><trkpt lat="40.6899133" lon="15.1974983"><ele>476.0</ele><time>2026-04-18T07:50:42.953Z</time></trkpt><trkpt lat="40.6899783" lon="15.1974033"><ele>476.0</ele><time>2026-04-18T07:50:43.953Z</time></trkpt><trkpt lat="40.6900483" lon="15.1973183"><ele>476.0</ele><time>2026-04-18T07:50:44.953Z</time></trkpt><trkpt lat="40.6901167" lon="15.1972567"><ele>476.0</ele><time>2026-04-18T07:50:45.953Z</time></trkpt><trkpt lat="40.6901783" lon="15.1972083"><ele>477.66666666666663</ele><time>2026-04-18T07:50:46.954Z</time></trkpt><trkpt lat="40.6902417" lon="15.197185"><ele>479.3333333333333</ele><time>2026-04-18T07:50:47.953Z</time></trkpt><trkpt lat="40.6903133" lon="15.1971617"><ele>481.0</ele><time>2026-04-18T07:50:48.953Z</time></trkpt><trkpt lat="40.6903867" lon="15.1971367"><ele>482.66666666666663</ele><time>2026-04-18T07:50:49.953Z</time></trkpt><trkpt lat="40.6904483" lon="15.1970967"><ele>484.3333333333333</ele><time>2026-04-18T07:50:50.953Z</time></trkpt><trkpt lat="40.69049" lon="15.1970333"><ele>486.0</ele><time>2026-04-18T07:50:51.953Z</time></trkpt><trkpt lat="40.6904717" lon="15.1968833"><ele>486.5</ele><time>2026-04-18T07:50:53.953Z</time></trkpt><trkpt lat="40.69042" lon="15.1968233"><ele>487.0</ele><time>2026-04-18T07:50:54.953Z</time></trkpt><trkpt lat="40.690365" lon="15.1967533"><ele>487.5</ele><time>2026-04-18T07:50:55.953Z</time></trkpt><trkpt lat="40.690325" lon="15.1966633"><ele>488.0</ele><time>2026-04-18T07:50:56.953Z</time></trkpt><trkpt lat="40.6903167" lon="15.1965417"><ele>488.5</ele><time>2026-04-18T07:50:57.953Z</time></trkpt><trkpt lat="40.6903167" lon="15.19641"><ele>489.0</ele><time>2026-04-18T07:50:58.953Z</time></trkpt><trkpt lat="40.690325" lon="15.1962817"><ele>491.1666666666667</ele><time>2026-04-18T07:50:59.953Z</time></trkpt><trkpt lat="40.69034" lon="15.19617"><ele>493.33333333333337</ele><time>2026-04-18T07:51:00.953Z</time></trkpt><trkpt lat="40.6903517" lon="15.1960617"><ele>495.5</ele><time>2026-04-18T07:51:01.953Z</time></trkpt><trkpt lat="40.6903617" lon="15.19596"><ele>497.6666666666667</ele><time>2026-04-18T07:51:02.953Z</time></trkpt><trkpt lat="40.69037" lon="15.1958567"><ele>499.83333333333337</ele><time>2026-04-18T07:51:03.954Z</time></trkpt><trkpt lat="40.6903883" lon="15.19575"><ele>502.0</ele><time>2026-04-18T07:51:04.954Z</time></trkpt><trkpt lat="40.6904117" lon="15.1956367"><ele>503.6</ele><time>2026-04-18T07:51:05.953Z</time></trkpt><trkpt lat="40.69044" lon="15.1955167"><ele>505.20000000000005</ele><time>2026-04-18T07:51:06.953Z</time></trkpt><trkpt lat="40.6904767" lon="15.1953933"><ele>506.8</ele><time>2026-04-18T07:51:07.953Z</time></trkpt><trkpt lat="40.6905167" lon="15.19527"><ele>508.4</ele><time>2026-04-18T07:51:08.953Z</time></trkpt><trkpt lat="40.69055" lon="15.195145"><ele>510.0</ele><time>2026-04-18T07:51:09.953Z</time></trkpt><trkpt lat="40.6905817" lon="15.195025"><ele>510.0</ele><time>2026-04-18T07:51:10.954Z</time></trkpt><trkpt lat="40.690615" lon="15.1949017"><ele>510.0</ele><time>2026-04-18T07:51:11.953Z</time></trkpt><trkpt lat="40.6906517" lon="15.1947867"><ele>510.0</ele><time>2026-04-18T07:51:12.953Z</time></trkpt><trkpt lat="40.6906767" lon="15.1946633"><ele>510.0</ele><time>2026-04-18T07:51:13.953Z</time></trkpt><trkpt lat="40.690705" lon="15.1945417"><ele>510.0</ele><time>2026-04-18T07:51:14.953Z</time></trkpt><trkpt lat="40.6907217" lon="15.1944183"><ele>510.8</ele><time>2026-04-18T07:51:15.953Z</time></trkpt><trkpt lat="40.69072" lon="15.1942833"><ele>511.6</ele><time>2026-04-18T07:51:16.953Z</time></trkpt><trkpt lat="40.69071" lon="15.1941517"><ele>512.4</ele><time>2026-04-18T07:51:17.953Z</time></trkpt><trkpt lat="40.6906983" lon="15.19402"><ele>513.2</ele><time>2026-04-18T07:51:18.953Z</time></trkpt><trkpt lat="40.6906917" lon="15.1938833"><ele>514.0</ele><time>2026-04-18T07:51:19.952Z</time></trkpt><trkpt lat="40.6907017" lon="15.19374"><ele>516.4</ele><time>2026-04-18T07:51:20.953Z</time></trkpt><trkpt lat="40.69072" lon="15.1935967"><ele>518.8</ele><time>2026-04-18T07:51:21.952Z</time></trkpt><trkpt lat="40.690745" lon="15.1934633"><ele>521.2</ele><time>2026-04-18T07:51:22.952Z</time></trkpt><trkpt lat="40.6907683" lon="15.1933233"><ele>523.6</ele><time>2026-04-18T07:51:23.952Z</time></trkpt><trkpt lat="40.690785" lon="15.1931817"><ele>526.0</ele><time>2026-04-18T07:51:24.952Z</time></trkpt><trkpt lat="40.690785" lon="15.193035"><ele>527.5</ele><time>2026-04-18T07:51:25.952Z</time></trkpt><trkpt lat="40.6907683" lon="15.1928883"><ele>529.0</ele><time>2026-04-18T07:51:26.952Z</time></trkpt><trkpt lat="40.6907433" lon="15.1927467"><ele>530.5</ele><time>2026-04-18T07:51:27.952Z</time></trkpt><trkpt lat="40.6907133" lon="15.1926067"><ele>532.0</ele><time>2026-04-18T07:51:28.953Z</time></trkpt><trkpt lat="40.6906767" lon="15.19246"><ele>533.75</ele><time>2026-04-18T07:51:29.952Z</time></trkpt><trkpt lat="40.6906317" lon="15.192315"><ele>535.5</ele><time>2026-04-18T07:51:30.953Z</time></trkpt><trkpt lat="40.6905917" lon="15.1921717"><ele>537.25</ele><time>2026-04-18T07:51:31.952Z</time></trkpt><trkpt lat="40.6905483" lon="15.1920283"><ele>539.0</ele><time>2026-04-18T07:51:32.952Z</time></trkpt><trkpt lat="40.6904917" lon="15.191895"><ele>539.0</ele><time>2026-04-18T07:51:33.952Z</time></trkpt><trkpt lat="40.6904217" lon="15.1917633"><ele>539.0</ele><time>2026-04-18T07:51:34.953Z</time></trkpt><trkpt lat="40.6903483" lon="15.19164"><ele>539.0</ele><time>2026-04-18T07:51:35.952Z</time></trkpt><trkpt lat="40.69029" lon="15.191495"><ele>539.0</ele><time>2026-04-18T07:51:36.953Z</time></trkpt><trkpt lat="40.6902467" lon="15.1913333"><ele>540.0</ele><time>2026-04-18T07:51:37.952Z</time></trkpt><trkpt lat="40.6902133" lon="15.1911567"><ele>541.0</ele><time>2026-04-18T07:51:38.952Z</time></trkpt><trkpt lat="40.6901867" lon="15.1909767"><ele>542.0</ele><time>2026-04-18T07:51:39.953Z</time></trkpt><trkpt lat="40.6901667" lon="15.1908"><ele>543.0</ele><time>2026-04-18T07:51:40.952Z</time></trkpt><trkpt lat="40.690145" lon="15.1906283"><ele>544.5</ele><time>2026-04-18T07:51:41.952Z</time></trkpt><trkpt lat="40.6901333" lon="15.1904617"><ele>546.0</ele><time>2026-04-18T07:51:42.952Z</time></trkpt><trkpt lat="40.6901417" lon="15.190285"><ele>547.5</ele><time>2026-04-18T07:51:43.952Z</time></trkpt><trkpt lat="40.69016" lon="15.190105"><ele>549.0</ele><time>2026-04-18T07:51:44.952Z</time></trkpt><trkpt lat="40.6901817" lon="15.18993"><ele>551.5</ele><time>2026-04-18T07:51:45.952Z</time></trkpt><trkpt lat="40.6902067" lon="15.18977"><ele>554.0</ele><time>2026-04-18T07:51:46.952Z</time></trkpt><trkpt lat="40.69025" lon="15.189615"><ele>556.5</ele><time>2026-04-18T07:51:47.952Z</time></trkpt><trkpt lat="40.6903083" lon="15.189475"><ele>559.0</ele><time>2026-04-18T07:51:48.952Z</time></trkpt><trkpt lat="40.6903733" lon="15.1893617"><ele>559.5</ele><time>2026-04-18T07:51:49.952Z</time></trkpt><trkpt lat="40.6904433" lon="15.1892683"><ele>560.0</ele><time>2026-04-18T07:51:50.952Z</time></trkpt><trkpt lat="40.6905033" lon="15.189185"><ele>560.5</ele><time>2026-04-18T07:51:51.952Z</time></trkpt><trkpt lat="40.6905383" lon="15.1890933"><ele>561.0</ele><time>2026-04-18T07:51:52.952Z</time></trkpt><trkpt lat="40.6905367" lon="15.189"><ele>561.5</ele><time>2026-04-18T07:51:53.952Z</time></trkpt><trkpt lat="40.690515" lon="15.1888967"><ele>562.0</ele><time>2026-04-18T07:51:54.952Z</time></trkpt><trkpt lat="40.6905033" lon="15.18878"><ele>564.4</ele><time>2026-04-18T07:51:55.952Z</time></trkpt><trkpt lat="40.6905083" lon="15.1886483"><ele>566.8000000000001</ele><time>2026-04-18T07:51:56.952Z</time></trkpt><trkpt lat="40.6905333" lon="15.1885083"><ele>569.2</ele><time>2026-04-18T07:51:57.952Z</time></trkpt><trkpt lat="40.6905683" lon="15.1883733"><ele>571.6</ele><time>2026-04-18T07:51:58.952Z</time></trkpt><trkpt lat="40.6906033" lon="15.18824"><ele>574.0</ele><time>2026-04-18T07:51:59.952Z</time></trkpt><trkpt lat="40.69065" lon="15.1881167"><ele>575.2</ele><time>2026-04-18T07:52:00.953Z</time></trkpt><trkpt lat="40.690695" lon="15.18799"><ele>576.4</ele><time>2026-04-18T07:52:01.952Z</time></trkpt><trkpt lat="40.6907417" lon="15.1878667"><ele>577.6</ele><time>2026-04-18T07:52:02.953Z</time></trkpt><trkpt lat="40.6907883" lon="15.18774"><ele>578.8</ele><time>2026-04-18T07:52:03.953Z</time></trkpt><trkpt lat="40.6908333" lon="15.1876117"><ele>580.0</ele><time>2026-04-18T07:52:04.952Z</time></trkpt><trkpt lat="40.69088" lon="15.1874867"><ele>580.0</ele><time>2026-04-18T07:52:05.952Z</time></trkpt><trkpt lat="40.6909167" lon="15.1873567"><ele>580.0</ele><time>2026-04-18T07:52:06.952Z</time></trkpt><trkpt lat="40.69095" lon="15.1872333"><ele>580.0</ele><time>2026-04-18T07:52:07.952Z</time></trkpt><trkpt lat="40.6909767" lon="15.1871033"><ele>580.0</ele><time>2026-04-18T07:52:08.952Z</time></trkpt><trkpt lat="40.6909983" lon="15.1869683"><ele>580.0</ele><time>2026-04-18T07:52:09.952Z</time></trkpt><trkpt lat="40.691015" lon="15.1868283"><ele>581.0</ele><time>2026-04-18T07:52:10.952Z</time></trkpt><trkpt lat="40.6910217" lon="15.186695"><ele>582.0</ele><time>2026-04-18T07:52:11.952Z</time></trkpt><trkpt lat="40.6910217" lon="15.186555"><ele>583.0</ele><time>2026-04-18T07:52:12.952Z</time></trkpt><trkpt lat="40.6910117" lon="15.18642"><ele>584.0</ele><time>2026-04-18T07:52:13.953Z</time></trkpt><trkpt lat="40.6909833" lon="15.1862867"><ele>585.0</ele><time>2026-04-18T07:52:14.952Z</time></trkpt><trkpt lat="40.690955" lon="15.18615"><ele>586.2</ele><time>2026-04-18T07:52:15.952Z</time></trkpt><trkpt lat="40.69092" lon="15.1860183"><ele>587.4</ele><time>2026-04-18T07:52:16.952Z</time></trkpt><trkpt lat="40.6908833" lon="15.1858917"><ele>588.6</ele><time>2026-04-18T07:52:17.952Z</time></trkpt><trkpt lat="40.690835" lon="15.18577"><ele>589.8</ele><time>2026-04-18T07:52:18.953Z</time></trkpt><trkpt lat="40.6907833" lon="15.185655"><ele>591.0</ele><time>2026-04-18T07:52:19.952Z</time></trkpt><trkpt lat="40.6907183" lon="15.1855483"><ele>593.0</ele><time>2026-04-18T07:52:20.952Z</time></trkpt><trkpt lat="40.6906467" lon="15.1854567"><ele>595.0</ele><time>2026-04-18T07:52:21.952Z</time></trkpt><trkpt lat="40.6905733" lon="15.1853733"><ele>597.0</ele><time>2026-04-18T07:52:22.952Z</time></trkpt><trkpt lat="40.6904983" lon="15.1852933"><ele>599.0</ele><time>2026-04-18T07:52:23.952Z</time></trkpt><trkpt lat="40.69042" lon="15.1852033"><ele>601.0</ele><time>2026-04-18T07:52:24.953Z</time></trkpt><trkpt lat="40.6903483" lon="15.1850983"><ele>601.0</ele><time>2026-04-18T07:52:25.952Z</time></trkpt><trkpt lat="40.69027" lon="15.1849917"><ele>601.0</ele><time>2026-04-18T07:52:26.952Z</time></trkpt><trkpt lat="40.6901883" lon="15.184895"><ele>601.0</ele><time>2026-04-18T07:52:27.952Z</time></trkpt><trkpt lat="40.69011" lon="15.1848"><ele>601.0</ele><time>2026-04-18T07:52:28.952Z</time></trkpt><trkpt lat="40.6900367" lon="15.1847"><ele>601.0</ele><time>2026-04-18T07:52:29.952Z</time></trkpt><trkpt lat="40.689985" lon="15.1845933"><ele>604.3333333333334</ele><time>2026-04-18T07:52:30.952Z</time></trkpt><trkpt lat="40.68995" lon="15.1844917"><ele>607.6666666666667</ele><time>2026-04-18T07:52:31.952Z</time></trkpt><trkpt lat="40.68993" lon="15.184385"><ele>611.0</ele><time>2026-04-18T07:52:32.953Z</time></trkpt><trkpt lat="40.68991" lon="15.1842933"><ele>614.3333333333334</ele><time>2026-04-18T07:52:33.952Z</time></trkpt><trkpt lat="40.689885" lon="15.1841967"><ele>617.6666666666666</ele><time>2026-04-18T07:52:34.952Z</time></trkpt><trkpt lat="40.6898667" lon="15.184095"><ele>621.0</ele><time>2026-04-18T07:52:35.952Z</time></trkpt><trkpt lat="40.689845" lon="15.18398"><ele>623.25</ele><time>2026-04-18T07:52:36.952Z</time></trkpt><trkpt lat="40.68982" lon="15.1838417"><ele>625.5</ele><time>2026-04-18T07:52:37.952Z</time></trkpt><trkpt lat="40.689795" lon="15.18369"><ele>627.75</ele><time>2026-04-18T07:52:38.952Z</time></trkpt><trkpt lat="40.68977" lon="15.1835417"><ele>630.0</ele><time>2026-04-18T07:52:39.952Z</time></trkpt><trkpt lat="40.6897633" lon="15.183385"><ele>630.0</ele><time>2026-04-18T07:52:40.952Z</time></trkpt><trkpt lat="40.6897667" lon="15.1832383"><ele>630.0</ele><time>2026-04-18T07:52:41.952Z</time></trkpt><trkpt lat="40.6897783" lon="15.183095"><ele>630.0</ele><time>2026-04-18T07:52:42.952Z</time></trkpt><trkpt lat="40.6897867" lon="15.18296"><ele>630.0</ele><time>2026-04-18T07:52:43.952Z</time></trkpt><trkpt lat="40.6898017" lon="15.1828233"><ele>630.0</ele><time>2026-04-18T07:52:44.952Z</time></trkpt><trkpt lat="40.6898283" lon="15.18268"><ele>633.0</ele><time>2026-04-18T07:52:45.952Z</time></trkpt><trkpt lat="40.68986" lon="15.1825267"><ele>636.0</ele><time>2026-04-18T07:52:46.952Z</time></trkpt><trkpt lat="40.6898967" lon="15.1823783"><ele>639.0</ele><time>2026-04-18T07:52:47.952Z</time></trkpt><trkpt lat="40.6899383" lon="15.1822367"><ele>642.0</ele><time>2026-04-18T07:52:48.952Z</time></trkpt><trkpt lat="40.6899683" lon="15.1820933"><ele>644.0</ele><time>2026-04-18T07:52:49.952Z</time></trkpt><trkpt lat="40.6899883" lon="15.1819483"><ele>646.0</ele><time>2026-04-18T07:52:50.952Z</time></trkpt><trkpt lat="40.6900117" lon="15.1818133"><ele>648.0</ele><time>2026-04-18T07:52:51.952Z</time></trkpt><trkpt lat="40.69002" lon="15.1816967"><ele>650.0</ele><time>2026-04-18T07:52:52.952Z</time></trkpt><trkpt lat="40.69003" lon="15.1815667"><ele>652.0</ele><time>2026-04-18T07:52:53.952Z</time></trkpt><trkpt lat="40.690045" lon="15.1814483"><ele>653.2</ele><time>2026-04-18T07:52:54.952Z</time></trkpt><trkpt lat="40.6900717" lon="15.1813367"><ele>654.4000000000001</ele><time>2026-04-18T07:52:55.952Z</time></trkpt><trkpt lat="40.6901083" lon="15.181225"><ele>655.5999999999999</ele><time>2026-04-18T07:52:56.952Z</time></trkpt><trkpt lat="40.690145" lon="15.18111"><ele>656.8</ele><time>2026-04-18T07:52:57.952Z</time></trkpt><trkpt lat="40.6901817" lon="15.1809983"><ele>658.0</ele><time>2026-04-18T07:52:58.952Z</time></trkpt><trkpt lat="40.69021" lon="15.1808833"><ele>658.0</ele><time>2026-04-18T07:52:59.952Z</time></trkpt><trkpt lat="40.69023" lon="15.1807667"><ele>658.0</ele><time>2026-04-18T07:53:00.952Z</time></trkpt><trkpt lat="40.69024" lon="15.1806417"><ele>658.0</ele><time>2026-04-18T07:53:01.952Z</time></trkpt><trkpt lat="40.690245" lon="15.1805167"><ele>658.0</ele><time>2026-04-18T07:53:02.952Z</time></trkpt><trkpt lat="40.6902417" lon="15.1803883"><ele>658.0</ele><time>2026-04-18T07:53:03.952Z</time></trkpt><trkpt lat="40.6902433" lon="15.1802667"><ele>657.8</ele><time>2026-04-18T07:53:04.952Z</time></trkpt><trkpt lat="40.6902583" lon="15.1801333"><ele>657.5999999999999</ele><time>2026-04-18T07:53:05.952Z</time></trkpt><trkpt lat="40.6902717" lon="15.1800017"><ele>657.4000000000001</ele><time>2026-04-18T07:53:06.952Z</time></trkpt><trkpt lat="40.6902917" lon="15.1798817"><ele>657.2</ele><time>2026-04-18T07:53:07.952Z</time></trkpt><trkpt lat="40.6903083" lon="15.1797617"><ele>657.0</ele><time>2026-04-18T07:53:08.952Z</time></trkpt><trkpt lat="40.690325" lon="15.1796667"><ele>659.2</ele><time>2026-04-18T07:53:09.952Z</time></trkpt><trkpt lat="40.690355" lon="15.179525"><ele>661.4000000000001</ele><time>2026-04-18T07:53:11.952Z</time></trkpt><trkpt lat="40.6903833" lon="15.179405"><ele>663.5999999999999</ele><time>2026-04-18T07:53:13.952Z</time></trkpt><trkpt lat="40.6904" lon="15.1793183"><ele>665.8</ele><time>2026-04-18T07:53:15.952Z</time></trkpt><trkpt lat="40.6904167" lon="15.1792183"><ele>668.0</ele><time>2026-04-18T07:53:17.952Z</time></trkpt><trkpt lat="40.69044" lon="15.1790933"><ele>672.2</ele><time>2026-04-18T07:53:19.952Z</time></trkpt><trkpt lat="40.6904533" lon="15.1789633"><ele>676.4</ele><time>2026-04-18T07:53:21.952Z</time></trkpt><trkpt lat="40.69044" lon="15.17887"><ele>680.6</ele><time>2026-04-18T07:53:23.952Z</time></trkpt><trkpt lat="40.6904417" lon="15.1787183"><ele>684.8000000000001</ele><time>2026-04-18T07:53:34.952Z</time></trkpt><trkpt lat="40.690465" lon="15.17853"><ele>689.0</ele><time>2026-04-18T07:53:36.953Z</time></trkpt><trkpt lat="40.6904767" lon="15.1784017"><ele>689.0</ele><time>2026-04-18T07:53:37.952Z</time></trkpt><trkpt lat="40.6904917" lon="15.178285"><ele>689.0</ele><time>2026-04-18T07:53:38.952Z</time></trkpt><trkpt lat="40.6905133" lon="15.1781667"><ele>689.0</ele><time>2026-04-18T07:53:39.952Z</time></trkpt><trkpt lat="40.6905417" lon="15.1780483"><ele>689.0</ele><time>2026-04-18T07:53:40.952Z</time></trkpt><trkpt lat="40.69059" lon="15.1779283"><ele>689.0</ele><time>2026-04-18T07:53:41.952Z</time></trkpt><trkpt lat="40.69064" lon="15.1778283"><ele>691.5</ele><time>2026-04-18T07:53:42.952Z</time></trkpt><trkpt lat="40.6906767" lon="15.17775"><ele>694.0</ele><time>2026-04-18T07:53:43.953Z</time></trkpt><trkpt lat="40.690715" lon="15.1776317"><ele>696.5</ele><time>2026-04-18T07:53:45.952Z</time></trkpt><trkpt lat="40.6907133" lon="15.1775367"><ele>699.0</ele><time>2026-04-18T07:53:47.952Z</time></trkpt><trkpt lat="40.6907517" lon="15.1774283"><ele>701.5</ele><time>2026-04-18T07:53:49.952Z</time></trkpt><trkpt lat="40.69078" lon="15.17735"><ele>704.0</ele><time>2026-04-18T07:53:50.952Z</time></trkpt><trkpt lat="40.690815" lon="15.1772783"><ele>704.0</ele><time>2026-04-18T07:53:51.952Z</time></trkpt><trkpt lat="40.6908983" lon="15.1772067"><ele>704.0</ele><time>2026-04-18T07:53:53.952Z</time></trkpt><trkpt lat="40.6909767" lon="15.1772533"><ele>704.0</ele><time>2026-04-18T07:53:55.953Z</time></trkpt><trkpt lat="40.690995" lon="15.1774117"><ele>704.0</ele><time>2026-04-18T07:53:57.952Z</time></trkpt><trkpt lat="40.6910117" lon="15.1775233"><ele>704.0</ele><time>2026-04-18T07:53:58.952Z</time></trkpt><trkpt lat="40.6910383" lon="15.1776217"><ele>704.0</ele><time>2026-04-18T07:53:59.952Z</time></trkpt><trkpt lat="40.6910733" lon="15.1777083"><ele>704.0</ele><time>2026-04-18T07:54:00.952Z</time></trkpt><trkpt lat="40.6911167" lon="15.17778"><ele>704.0</ele><time>2026-04-18T07:54:01.952Z</time></trkpt><trkpt lat="40.6911733" lon="15.177835"><ele>704.0</ele><time>2026-04-18T07:54:02.952Z</time></trkpt><trkpt lat="40.6912433" lon="15.1778667"><ele>704.0</ele><time>2026-04-18T07:54:03.952Z</time></trkpt><trkpt lat="40.691315" lon="15.177875"><ele>704.0</ele><time>2026-04-18T07:54:04.952Z</time></trkpt><trkpt lat="40.691385" lon="15.17787"><ele>704.0</ele><time>2026-04-18T07:54:05.952Z</time></trkpt><trkpt lat="40.69145" lon="15.1778383"><ele>708.8000000000001</ele><time>2026-04-18T07:54:06.953Z</time></trkpt><trkpt lat="40.6915233" lon="15.1777283"><ele>713.6</ele><time>2026-04-18T07:54:08.952Z</time></trkpt><trkpt lat="40.691545" lon="15.1775583"><ele>718.4</ele><time>2026-04-18T07:54:10.952Z</time></trkpt><trkpt lat="40.6915517" lon="15.1774333"><ele>723.2</ele><time>2026-04-18T07:54:11.952Z</time></trkpt><trkpt lat="40.6915633" lon="15.1773133"><ele>728.0</ele><time>2026-04-18T07:54:12.952Z</time></trkpt><trkpt lat="40.691575" lon="15.1772217"><ele>730.1666666666666</ele><time>2026-04-18T07:54:13.952Z</time></trkpt><trkpt lat="40.6916083" lon="15.1771333"><ele>732.3333333333333</ele><time>2026-04-18T07:54:14.952Z</time></trkpt><trkpt lat="40.6916567" lon="15.177045"><ele>734.5</ele><time>2026-04-18T07:54:15.952Z</time></trkpt><trkpt lat="40.6917167" lon="15.17694"><ele>736.6666666666666</ele><time>2026-04-18T07:54:16.953Z</time></trkpt><trkpt lat="40.6917833" lon="15.1768367"><ele>738.8333333333334</ele><time>2026-04-18T07:54:17.952Z</time></trkpt><trkpt lat="40.691845" lon="15.17676"><ele>741.0</ele><time>2026-04-18T07:54:18.952Z</time></trkpt><trkpt lat="40.6919017" lon="15.176705"><ele>744.1428571428571</ele><time>2026-04-18T07:54:19.952Z</time></trkpt><trkpt lat="40.69196" lon="15.1766683"><ele>747.2857142857143</ele><time>2026-04-18T07:54:20.952Z</time></trkpt><trkpt lat="40.6920317" lon="15.17665"><ele>750.4285714285714</ele><time>2026-04-18T07:54:21.953Z</time></trkpt><trkpt lat="40.6921017" lon="15.17664"><ele>753.5714285714286</ele><time>2026-04-18T07:54:22.952Z</time></trkpt><trkpt lat="40.69217" lon="15.17665"><ele>756.7142857142858</ele><time>2026-04-18T07:54:23.952Z</time></trkpt><trkpt lat="40.6922333" lon="15.17668"><ele>759.8571428571429</ele><time>2026-04-18T07:54:24.952Z</time></trkpt><trkpt lat="40.6923133" lon="15.1767183"><ele>763.0</ele><time>2026-04-18T07:54:25.952Z</time></trkpt><trkpt lat="40.6923967" lon="15.17675"><ele>763.0</ele><time>2026-04-18T07:54:26.952Z</time></trkpt><trkpt lat="40.69247" lon="15.1767933"><ele>763.0</ele><time>2026-04-18T07:54:27.952Z</time></trkpt><trkpt lat="40.6925583" lon="15.1768867"><ele>763.0</ele><time>2026-04-18T07:54:29.952Z</time></trkpt><trkpt lat="40.692605" lon="15.1769933"><ele>763.0</ele><time>2026-04-18T07:54:31.952Z</time></trkpt><trkpt lat="40.69261" lon="15.1771217"><ele>763.0</ele><time>2026-04-18T07:54:33.952Z</time></trkpt><trkpt lat="40.69261" lon="15.17729"><ele>761.5</ele><time>2026-04-18T07:54:35.952Z</time></trkpt><trkpt lat="40.6926117" lon="15.177395"><ele>760.0</ele><time>2026-04-18T07:54:36.952Z</time></trkpt><trkpt lat="40.69264" lon="15.1775017"><ele>758.5</ele><time>2026-04-18T07:54:37.952Z</time></trkpt><trkpt lat="40.6926883" lon="15.1775867"><ele>757.0</ele><time>2026-04-18T07:54:38.952Z</time></trkpt><trkpt lat="40.6927483" lon="15.17767"><ele>755.5</ele><time>2026-04-18T07:54:39.952Z</time></trkpt><trkpt lat="40.6928267" lon="15.1777433"><ele>754.0</ele><time>2026-04-18T07:54:40.952Z</time></trkpt><trkpt lat="40.6929083" lon="15.1778067"><ele>757.8333333333334</ele><time>2026-04-18T07:54:41.952Z</time></trkpt><trkpt lat="40.692985" lon="15.1778633"><ele>761.6666666666667</ele><time>2026-04-18T07:54:42.952Z</time></trkpt><trkpt lat="40.6930683" lon="15.1779133"><ele>765.5</ele><time>2026-04-18T07:54:43.952Z</time></trkpt><trkpt lat="40.6931467" lon="15.1779567"><ele>769.3333333333334</ele><time>2026-04-18T07:54:44.952Z</time></trkpt><trkpt lat="40.6932267" lon="15.17799"><ele>773.1666666666666</ele><time>2026-04-18T07:54:45.952Z</time></trkpt><trkpt lat="40.693305" lon="15.1780167"><ele>777.0</ele><time>2026-04-18T07:54:46.953Z</time></trkpt><trkpt lat="40.6933817" lon="15.17803"><ele>777.0</ele><time>2026-04-18T07:54:47.952Z</time></trkpt><trkpt lat="40.6934633" lon="15.178035"><ele>777.0</ele><time>2026-04-18T07:54:48.952Z</time></trkpt><trkpt lat="40.69353" lon="15.178045"><ele>777.0</ele><time>2026-04-18T07:54:49.952Z</time></trkpt><trkpt lat="40.6936017" lon="15.1780567"><ele>777.0</ele><time>2026-04-18T07:54:50.953Z</time></trkpt><trkpt lat="40.6936733" lon="15.1780667"><ele>777.0</ele><time>2026-04-18T07:54:51.952Z</time></trkpt><trkpt lat="40.69374" lon="15.1780683"><ele>777.0</ele><time>2026-04-18T07:54:52.952Z</time></trkpt><trkpt lat="40.6938117" lon="15.1780717"><ele>777.0</ele><time>2026-04-18T07:54:53.952Z</time></trkpt><trkpt lat="40.6938883" lon="15.1780633"><ele>780.3333333333334</ele><time>2026-04-18T07:54:54.952Z</time></trkpt><trkpt lat="40.6939633" lon="15.1780483"><ele>783.6666666666667</ele><time>2026-04-18T07:54:55.952Z</time></trkpt><trkpt lat="40.694035" lon="15.1780133"><ele>787.0</ele><time>2026-04-18T07:54:56.952Z</time></trkpt><trkpt lat="40.694105" lon="15.1779617"><ele>790.3333333333334</ele><time>2026-04-18T07:54:57.952Z</time></trkpt><trkpt lat="40.69418" lon="15.1779017"><ele>793.6666666666667</ele><time>2026-04-18T07:54:58.952Z</time></trkpt><trkpt lat="40.6942533" lon="15.1778433"><ele>797.0</ele><time>2026-04-18T07:54:59.952Z</time></trkpt><trkpt lat="40.6943267" lon="15.17779"><ele>797.0000000000001</ele><time>2026-04-18T07:55:00.952Z</time></trkpt><trkpt lat="40.6944083" lon="15.1777517"><ele>797.0</ele><time>2026-04-18T07:55:01.952Z</time></trkpt><trkpt lat="40.69449" lon="15.177725"><ele>797.0</ele><time>2026-04-18T07:55:02.952Z</time></trkpt><trkpt lat="40.694575" lon="15.1777033"><ele>797.0</ele><time>2026-04-18T07:55:03.952Z</time></trkpt><trkpt lat="40.694655" lon="15.17769"><ele>797.0000000000001</ele><time>2026-04-18T07:55:04.952Z</time></trkpt><trkpt lat="40.6947367" lon="15.17767"><ele>797.0</ele><time>2026-04-18T07:55:05.952Z</time></trkpt><trkpt lat="40.694815" lon="15.1776583"><ele>800.8</ele><time>2026-04-18T07:55:06.952Z</time></trkpt><trkpt lat="40.6948967" lon="15.1776567"><ele>804.6</ele><time>2026-04-18T07:55:07.952Z</time></trkpt><trkpt lat="40.6949717" lon="15.177675"><ele>808.4</ele><time>2026-04-18T07:55:08.952Z</time></trkpt><trkpt lat="40.6950517" lon="15.1777017"><ele>812.1999999999999</ele><time>2026-04-18T07:55:09.952Z</time></trkpt><trkpt lat="40.6951633" lon="15.1777383"><ele>816.0</ele><time>2026-04-18T07:55:10.952Z</time></trkpt><trkpt lat="40.69529" lon="15.1777567"><ele>819.5999999999999</ele><time>2026-04-18T07:55:11.952Z</time></trkpt><trkpt lat="40.6954133" lon="15.1777833"><ele>823.2</ele><time>2026-04-18T07:55:12.952Z</time></trkpt><trkpt lat="40.6955283" lon="15.17781"><ele>826.8</ele><time>2026-04-18T07:55:13.952Z</time></trkpt><trkpt lat="40.6956267" lon="15.1778383"><ele>830.4000000000001</ele><time>2026-04-18T07:55:14.952Z</time></trkpt><trkpt lat="40.6957217" lon="15.177855"><ele>834.0</ele><time>2026-04-18T07:55:15.952Z</time></trkpt><trkpt lat="40.6958117" lon="15.1778633"><ele>834.0</ele><time>2026-04-18T07:55:16.952Z</time></trkpt><trkpt lat="40.6959017" lon="15.1778683"><ele>834.0</ele><time>2026-04-18T07:55:17.952Z</time></trkpt><trkpt lat="40.696005" lon="15.1778483"><ele>834.0</ele><time>2026-04-18T07:55:18.953Z</time></trkpt><trkpt lat="40.69611" lon="15.1778267"><ele>834.0</ele><time>2026-04-18T07:55:19.953Z</time></trkpt><trkpt lat="40.6962117" lon="15.177805"><ele>834.0</ele><time>2026-04-18T07:55:20.952Z</time></trkpt><trkpt lat="40.6963133" lon="15.1777667"><ele>833.8000000000001</ele><time>2026-04-18T07:55:21.952Z</time></trkpt><trkpt lat="40.69641" lon="15.1777217"><ele>833.6</ele><time>2026-04-18T07:55:22.952Z</time></trkpt><trkpt lat="40.6965017" lon="15.1776733"><ele>833.4</ele><time>2026-04-18T07:55:23.952Z</time></trkpt><trkpt lat="40.6965883" lon="15.1775983"><ele>833.2</ele><time>2026-04-18T07:55:24.952Z</time></trkpt><trkpt lat="40.696655" lon="15.1775217"><ele>833.0</ele><time>2026-04-18T07:55:25.952Z</time></trkpt><trkpt lat="40.6967217" lon="15.1774317"><ele>833.0</ele><time>2026-04-18T07:55:26.952Z</time></trkpt><trkpt lat="40.6967917" lon="15.1773533"><ele>833.0</ele><time>2026-04-18T07:55:27.952Z</time></trkpt><trkpt lat="40.69687" lon="15.1772917"><ele>833.0</ele><time>2026-04-18T07:55:28.952Z</time></trkpt><trkpt lat="40.69696" lon="15.1772467"><ele>833.0</ele><time>2026-04-18T07:55:29.952Z</time></trkpt><trkpt lat="40.6970583" lon="15.1772167"><ele>833.0</ele><time>2026-04-18T07:55:30.952Z</time></trkpt><trkpt lat="40.6971567" lon="15.1772"><ele>845.4</ele><time>2026-04-18T07:55:31.952Z</time></trkpt><trkpt lat="40.6972567" lon="15.1771883"><ele>857.8</ele><time>2026-04-18T07:55:32.952Z</time></trkpt><trkpt lat="40.69736" lon="15.1771883"><ele>870.2</ele><time>2026-04-18T07:55:33.952Z</time></trkpt><trkpt lat="40.6974633" lon="15.1771967"><ele>882.6</ele><time>2026-04-18T07:55:34.952Z</time></trkpt><trkpt lat="40.6975583" lon="15.1772033"><ele>895.0</ele><time>2026-04-18T07:55:35.952Z</time></trkpt><trkpt lat="40.6976417" lon="15.1772283"><ele>894.9999999999999</ele><time>2026-04-18T07:55:36.953Z</time></trkpt><trkpt lat="40.6977033" lon="15.177255"><ele>895.0</ele><time>2026-04-18T07:55:37.952Z</time></trkpt><trkpt lat="40.6978" lon="15.1773583"><ele>895.0</ele><time>2026-04-18T07:55:39.952Z</time></trkpt><trkpt lat="40.69785" lon="15.1774317"><ele>895.0</ele><time>2026-04-18T07:55:40.952Z</time></trkpt><trkpt lat="40.69791" lon="15.1774967"><ele>894.9999999999999</ele><time>2026-04-18T07:55:41.952Z</time></trkpt><trkpt lat="40.697975" lon="15.17755"><ele>895.0</ele><time>2026-04-18T07:55:42.952Z</time></trkpt><trkpt lat="40.6980417" lon="15.1775883"><ele>888.8333333333333</ele><time>2026-04-18T07:55:43.952Z</time></trkpt><trkpt lat="40.6981167" lon="15.17761"><ele>882.6666666666666</ele><time>2026-04-18T07:55:44.952Z</time></trkpt><trkpt lat="40.69819" lon="15.1776333"><ele>876.5</ele><time>2026-04-18T07:55:45.952Z</time></trkpt><trkpt lat="40.698265" lon="15.1776533"><ele>870.3333333333333</ele><time>2026-04-18T07:55:46.952Z</time></trkpt><trkpt lat="40.69834" lon="15.17768"><ele>864.1666666666666</ele><time>2026-04-18T07:55:47.952Z</time></trkpt><trkpt lat="40.6984217" lon="15.1777083"><ele>858.0</ele><time>2026-04-18T07:55:48.952Z</time></trkpt><trkpt lat="40.6984967" lon="15.1777367"><ele>858.0</ele><time>2026-04-18T07:55:49.952Z</time></trkpt><trkpt lat="40.6985683" lon="15.1777533"><ele>858.0</ele><time>2026-04-18T07:55:50.952Z</time></trkpt><trkpt lat="40.6986367" lon="15.1777467"><ele>858.0</ele><time>2026-04-18T07:55:51.952Z</time></trkpt><trkpt lat="40.698705" lon="15.177735"><ele>858.0</ele><time>2026-04-18T07:55:52.952Z</time></trkpt><trkpt lat="40.6987683" lon="15.1777183"><ele>858.0</ele><time>2026-04-18T07:55:53.952Z</time></trkpt><trkpt lat="40.6988683" lon="15.1776933"><ele>858.0</ele><time>2026-04-18T07:55:55.953Z</time></trkpt><trkpt lat="40.6989583" lon="15.177685"><ele>859.4</ele><time>2026-04-18T07:55:57.952Z</time></trkpt><trkpt lat="40.69904" lon="15.177705"><ele>860.8</ele><time>2026-04-18T07:55:59.952Z</time></trkpt><trkpt lat="40.6991217" lon="15.177755"><ele>862.2</ele><time>2026-04-18T07:56:01.952Z</time></trkpt><trkpt lat="40.6992033" lon="15.17783"><ele>863.6</ele><time>2026-04-18T07:56:03.952Z</time></trkpt><trkpt lat="40.6992833" lon="15.1779133"><ele>865.0</ele><time>2026-04-18T07:56:05.953Z</time></trkpt><trkpt lat="40.69936" lon="15.177985"><ele>865.0</ele><time>2026-04-18T07:56:07.952Z</time></trkpt><trkpt lat="40.6994417" lon="15.1780533"><ele>865.0</ele><time>2026-04-18T07:56:09.952Z</time></trkpt><trkpt lat="40.69952" lon="15.17813"><ele>865.0</ele><time>2026-04-18T07:56:11.952Z</time></trkpt><trkpt lat="40.6996083" lon="15.1782083"><ele>865.0</ele><time>2026-04-18T07:56:13.952Z</time></trkpt><trkpt lat="40.6996983" lon="15.178275"><ele>865.0</ele><time>2026-04-18T07:56:15.952Z</time></trkpt><trkpt lat="40.6997567" lon="15.178315"><ele>865.0</ele><time>2026-04-18T07:56:16.952Z</time></trkpt><trkpt lat="40.6998483" lon="15.1783783"><ele>865.0</ele><time>2026-04-18T07:56:18.952Z</time></trkpt><trkpt lat="40.6998883" lon="15.1784583"><ele>865.0</ele><time>2026-04-18T07:57:21.952Z</time></trkpt><trkpt lat="40.69997" lon="15.1785517"><ele>865.0</ele><time>2026-04-18T07:57:23.952Z</time></trkpt><trkpt lat="40.700025" lon="15.17866"><ele>865.0</ele><time>2026-04-18T07:57:25.952Z</time></trkpt><trkpt lat="40.700035" lon="15.178755"><ele>864.9999999999999</ele><time>2026-04-18T07:57:27.953Z</time></trkpt><trkpt lat="40.7000467" lon="15.1788683"><ele>865.0</ele><time>2026-04-18T07:57:29.952Z</time></trkpt><trkpt lat="40.70007" lon="15.1789567"><ele>865.0</ele><time>2026-04-18T07:57:31.952Z</time></trkpt><trkpt lat="40.700155" lon="15.1789817"><ele>865.0</ele><time>2026-04-18T07:57:34.952Z</time></trkpt><trkpt lat="40.70016" lon="15.1788983"><ele>864.9999999999999</ele><time>2026-04-18T07:57:37.952Z</time></trkpt><trkpt lat="40.7001183" lon="15.178835"><ele>865.0</ele><time>2026-04-18T07:57:39.952Z</time></trkpt><trkpt lat="40.7000767" lon="15.1787233"><ele>864.9999999999999</ele><time>2026-04-18T07:57:42.952Z</time></trkpt><trkpt lat="40.7000633" lon="15.1786267"><ele>865.0</ele><time>2026-04-18T07:57:44.952Z</time></trkpt><trkpt lat="40.700025" lon="15.1785283"><ele>865.0</ele><time>2026-04-18T07:57:46.953Z</time></trkpt><trkpt lat="40.6999767" lon="15.1784683"><ele>865.0</ele><time>2026-04-18T07:57:47.952Z</time></trkpt><trkpt lat="40.6999133" lon="15.1783967"><ele>864.9999999999999</ele><time>2026-04-18T07:57:48.952Z</time></trkpt><trkpt lat="40.6998333" lon="15.17833"><ele>865.0</ele><time>2026-04-18T07:57:49.952Z</time></trkpt><trkpt lat="40.6997533" lon="15.1782733"><ele>864.9999999999999</ele><time>2026-04-18T07:57:50.952Z</time></trkpt><trkpt lat="40.6996733" lon="15.17822"><ele>865.0</ele><time>2026-04-18T07:57:51.952Z</time></trkpt><trkpt lat="40.6995917" lon="15.1781617"><ele>865.0</ele><time>2026-04-18T07:57:52.952Z</time></trkpt><trkpt lat="40.6995183" lon="15.1781"><ele>865.0</ele><time>2026-04-18T07:57:53.952Z</time></trkpt><trkpt lat="40.6994567" lon="15.178035"><ele>864.9999999999999</ele><time>2026-04-18T07:57:54.952Z</time></trkpt><trkpt lat="40.6994033" lon="15.1779733"><ele>865.0</ele><time>2026-04-18T07:57:55.952Z</time></trkpt><trkpt lat="40.6993417" lon="15.1779017"><ele>865.0</ele><time>2026-04-18T07:57:56.952Z</time></trkpt><trkpt lat="40.69926" lon="15.1778317"><ele>865.0</ele><time>2026-04-18T07:57:57.953Z</time></trkpt><trkpt lat="40.69917" lon="15.1777583"><ele>865.0</ele><time>2026-04-18T07:57:58.952Z</time></trkpt><trkpt lat="40.6990833" lon="15.1777067"><ele>865.0</ele><time>2026-04-18T07:57:59.952Z</time></trkpt><trkpt lat="40.6989967" lon="15.177685"><ele>865.0</ele><time>2026-04-18T07:58:00.952Z</time></trkpt><trkpt lat="40.6989133" lon="15.1776883"><ele>865.0</ele><time>2026-04-18T07:58:01.952Z</time></trkpt><trkpt lat="40.698825" lon="15.1776833"><ele>865.0</ele><time>2026-04-18T07:58:02.952Z</time></trkpt><trkpt lat="40.69874" lon="15.1776933"><ele>865.0</ele><time>2026-04-18T07:58:03.952Z</time></trkpt><trkpt lat="40.6986467" lon="15.1776967"><ele>865.0</ele><time>2026-04-18T07:58:04.952Z</time></trkpt><trkpt lat="40.6985483" lon="15.1777017"><ele>865.0</ele><time>2026-04-18T07:58:05.953Z</time></trkpt><trkpt lat="40.6984233" lon="15.1776917"><ele>863.25</ele><time>2026-04-18T07:58:06.952Z</time></trkpt><trkpt lat="40.6983017" lon="15.177665"><ele>861.5</ele><time>2026-04-18T07:58:07.952Z</time></trkpt><trkpt lat="40.6981817" lon="15.1776317"><ele>859.75</ele><time>2026-04-18T07:58:08.952Z</time></trkpt><trkpt lat="40.6980633" lon="15.1776033"><ele>858.0</ele><time>2026-04-18T07:58:09.952Z</time></trkpt><trkpt lat="40.6979683" lon="15.1775667"><ele>858.0</ele><time>2026-04-18T07:58:10.952Z</time></trkpt><trkpt lat="40.6978867" lon="15.1775167"><ele>858.0</ele><time>2026-04-18T07:58:11.952Z</time></trkpt><trkpt lat="40.69782" lon="15.17743"><ele>858.0</ele><time>2026-04-18T07:58:12.952Z</time></trkpt><trkpt lat="40.6977667" lon="15.17734"><ele>858.0</ele><time>2026-04-18T07:58:13.952Z</time></trkpt><trkpt lat="40.6977017" lon="15.1772683"><ele>858.0</ele><time>2026-04-18T07:58:14.953Z</time></trkpt><trkpt lat="40.6976183" lon="15.1772283"><ele>858.0</ele><time>2026-04-18T07:58:15.952Z</time></trkpt><trkpt lat="40.697515" lon="15.177205"><ele>867.25</ele><time>2026-04-18T07:58:16.952Z</time></trkpt><trkpt lat="40.6973833" lon="15.177195"><ele>876.5</ele><time>2026-04-18T07:58:17.952Z</time></trkpt><trkpt lat="40.6972383" lon="15.1771983"><ele>885.75</ele><time>2026-04-18T07:58:18.952Z</time></trkpt><trkpt lat="40.6971017" lon="15.17721"><ele>895.0</ele><time>2026-04-18T07:58:19.952Z</time></trkpt><trkpt lat="40.6969783" lon="15.17724"><ele>892.2</ele><time>2026-04-18T07:58:20.952Z</time></trkpt><trkpt lat="40.6968733" lon="15.1772683"><ele>889.4</ele><time>2026-04-18T07:58:21.952Z</time></trkpt><trkpt lat="40.6967917" lon="15.1773233"><ele>886.5999999999999</ele><time>2026-04-18T07:58:22.952Z</time></trkpt><trkpt lat="40.6967183" lon="15.1774017"><ele>883.8</ele><time>2026-04-18T07:58:23.953Z</time></trkpt><trkpt lat="40.6966467" lon="15.1774783"><ele>881.0</ele><time>2026-04-18T07:58:24.952Z</time></trkpt><trkpt lat="40.696575" lon="15.1775667"><ele>869.0</ele><time>2026-04-18T07:58:25.953Z</time></trkpt><trkpt lat="40.6964817" lon="15.1776583"><ele>857.0</ele><time>2026-04-18T07:58:26.952Z</time></trkpt><trkpt lat="40.696365" lon="15.17774"><ele>845.0</ele><time>2026-04-18T07:58:27.952Z</time></trkpt><trkpt lat="40.6962383" lon="15.1777867"><ele>833.0</ele><time>2026-04-18T07:58:28.952Z</time></trkpt><trkpt lat="40.6961117" lon="15.1778183"><ele>833.2</ele><time>2026-04-18T07:58:29.951Z</time></trkpt><trkpt lat="40.696005" lon="15.17784"><ele>833.4</ele><time>2026-04-18T07:58:30.951Z</time></trkpt><trkpt lat="40.6959117" lon="15.1778583"><ele>833.6</ele><time>2026-04-18T07:58:31.951Z</time></trkpt><trkpt lat="40.695805" lon="15.1778683"><ele>833.8000000000001</ele><time>2026-04-18T07:58:32.951Z</time></trkpt><trkpt lat="40.69569" lon="15.1778733"><ele>834.0</ele><time>2026-04-18T07:58:33.951Z</time></trkpt><trkpt lat="40.6955683" lon="15.1778567"><ele>834.0</ele><time>2026-04-18T07:58:34.951Z</time></trkpt><trkpt lat="40.6954467" lon="15.1778417"><ele>834.0</ele><time>2026-04-18T07:58:35.951Z</time></trkpt><trkpt lat="40.6953333" lon="15.1778133"><ele>834.0</ele><time>2026-04-18T07:58:36.951Z</time></trkpt><trkpt lat="40.69523" lon="15.1777883"><ele>834.0</ele><time>2026-04-18T07:58:37.951Z</time></trkpt><trkpt lat="40.6951283" lon="15.177765"><ele>834.0</ele><time>2026-04-18T07:58:38.951Z</time></trkpt><trkpt lat="40.6950233" lon="15.1777483"><ele>831.0</ele><time>2026-04-18T07:58:39.951Z</time></trkpt><trkpt lat="40.6949417" lon="15.1777217"><ele>828.0</ele><time>2026-04-18T07:58:40.951Z</time></trkpt><trkpt lat="40.6948733" lon="15.177705"><ele>825.0</ele><time>2026-04-18T07:58:41.951Z</time></trkpt><trkpt lat="40.6948017" lon="15.1776983"><ele>822.0</ele><time>2026-04-18T07:58:42.951Z</time></trkpt><trkpt lat="40.6947283" lon="15.1777017"><ele>819.0</ele><time>2026-04-18T07:58:43.951Z</time></trkpt><trkpt lat="40.6946467" lon="15.177715"><ele>816.0</ele><time>2026-04-18T07:58:44.951Z</time></trkpt><trkpt lat="40.694565" lon="15.1777367"><ele>816.0</ele><time>2026-04-18T07:58:45.951Z</time></trkpt><trkpt lat="40.694485" lon="15.1777567"><ele>816.0</ele><time>2026-04-18T07:58:46.951Z</time></trkpt><trkpt lat="40.6944117" lon="15.1777817"><ele>816.0</ele><time>2026-04-18T07:58:47.951Z</time></trkpt><trkpt lat="40.694335" lon="15.177805"><ele>816.0</ele><time>2026-04-18T07:58:48.951Z</time></trkpt><trkpt lat="40.6942617" lon="15.1778417"><ele>816.0</ele><time>2026-04-18T07:58:49.951Z</time></trkpt><trkpt lat="40.6942033" lon="15.17788"><ele>816.0</ele><time>2026-04-18T07:58:50.951Z</time></trkpt><trkpt lat="40.694095" lon="15.1779467"><ele>812.8333333333334</ele><time>2026-04-18T07:58:52.951Z</time></trkpt><trkpt lat="40.693985" lon="15.1780067"><ele>809.6666666666667</ele><time>2026-04-18T07:58:54.951Z</time></trkpt><trkpt lat="40.6939133" lon="15.1780517"><ele>806.5</ele><time>2026-04-18T07:58:56.951Z</time></trkpt><trkpt lat="40.69385" lon="15.1780517"><ele>803.3333333333334</ele><time>2026-04-18T09:49:19.934Z</time></trkpt><trkpt lat="40.6937767" lon="15.1780433"><ele>800.1666666666667</ele><time>2026-04-18T09:49:21.934Z</time></trkpt><trkpt lat="40.6937017" lon="15.1780433"><ele>797.0</ele><time>2026-04-18T09:49:23.935Z</time></trkpt><trkpt lat="40.6936217" lon="15.1780417"><ele>793.6666666666667</ele><time>2026-04-18T09:49:25.934Z</time></trkpt><trkpt lat="40.6935367" lon="15.178045"><ele>790.3333333333334</ele><time>2026-04-18T09:49:27.934Z</time></trkpt><trkpt lat="40.6934617" lon="15.178035"><ele>787.0</ele><time>2026-04-18T09:49:34.934Z</time></trkpt><trkpt lat="40.693375" lon="15.178025"><ele>783.6666666666667</ele><time>2026-04-18T09:49:36.934Z</time></trkpt><trkpt lat="40.69331" lon="15.178015"><ele>780.3333333333334</ele><time>2026-04-18T09:49:37.934Z</time></trkpt><trkpt lat="40.6932433" lon="15.17799"><ele>777.0</ele><time>2026-04-18T09:49:38.934Z</time></trkpt><trkpt lat="40.693165" lon="15.1779433"><ele>777.0</ele><time>2026-04-18T09:49:39.934Z</time></trkpt><trkpt lat="40.693075" lon="15.177885"><ele>777.0</ele><time>2026-04-18T09:49:40.934Z</time></trkpt><trkpt lat="40.692975" lon="15.1778133"><ele>777.0</ele><time>2026-04-18T09:49:41.934Z</time></trkpt><trkpt lat="40.6928833" lon="15.1777383"><ele>777.0</ele><time>2026-04-18T09:49:42.934Z</time></trkpt><trkpt lat="40.6928017" lon="15.1776633"><ele>777.0</ele><time>2026-04-18T09:49:43.934Z</time></trkpt><trkpt lat="40.692735" lon="15.1776"><ele>774.2</ele><time>2026-04-18T09:49:44.935Z</time></trkpt><trkpt lat="40.692665" lon="15.1774617"><ele>771.4000000000001</ele><time>2026-04-18T09:49:46.934Z</time></trkpt><trkpt lat="40.692645" lon="15.177285"><ele>768.5999999999999</ele><time>2026-04-18T09:49:48.934Z</time></trkpt><trkpt lat="40.6926433" lon="15.17719"><ele>765.8</ele><time>2026-04-18T09:49:49.934Z</time></trkpt><trkpt lat="40.6926383" lon="15.1770933"><ele>763.0</ele><time>2026-04-18T09:49:50.934Z</time></trkpt><trkpt lat="40.6925917" lon="15.176955"><ele>763.0</ele><time>2026-04-18T09:49:52.934Z</time></trkpt><trkpt lat="40.6925267" lon="15.1768517"><ele>763.0</ele><time>2026-04-18T09:49:54.934Z</time></trkpt><trkpt lat="40.6924167" lon="15.1767767"><ele>763.0</ele><time>2026-04-18T09:49:56.934Z</time></trkpt><trkpt lat="40.6922917" lon="15.1767233"><ele>763.0</ele><time>2026-04-18T09:49:58.934Z</time></trkpt><trkpt lat="40.692215" lon="15.1766917"><ele>763.0</ele><time>2026-04-18T09:49:59.935Z</time></trkpt><trkpt lat="40.692145" lon="15.1766667"><ele>763.0</ele><time>2026-04-18T09:50:00.934Z</time></trkpt><trkpt lat="40.6920733" lon="15.17667"><ele>763.0</ele><time>2026-04-18T09:50:01.934Z</time></trkpt><trkpt lat="40.6920033" lon="15.1766883"><ele>763.0</ele><time>2026-04-18T09:50:02.934Z</time></trkpt><trkpt lat="40.691885" lon="15.1767433"><ele>763.0</ele><time>2026-04-18T09:50:04.934Z</time></trkpt><trkpt lat="40.6917733" lon="15.176845"><ele>763.0</ele><time>2026-04-18T09:50:06.934Z</time></trkpt><trkpt lat="40.691725" lon="15.1769267"><ele>759.3333333333334</ele><time>2026-04-18T09:50:07.934Z</time></trkpt><trkpt lat="40.69167" lon="15.1770033"><ele>755.6666666666667</ele><time>2026-04-18T09:50:08.934Z</time></trkpt><trkpt lat="40.6916167" lon="15.177095"><ele>752.0</ele><time>2026-04-18T09:50:09.934Z</time></trkpt><trkpt lat="40.6915767" lon="15.1771783"><ele>748.3333333333334</ele><time>2026-04-18T09:50:10.934Z</time></trkpt><trkpt lat="40.6915467" lon="15.1772683"><ele>744.6666666666666</ele><time>2026-04-18T09:50:11.934Z</time></trkpt><trkpt lat="40.691535" lon="15.1773583"><ele>741.0</ele><time>2026-04-18T09:50:12.934Z</time></trkpt><trkpt lat="40.69153" lon="15.1774433"><ele>738.8333333333334</ele><time>2026-04-18T09:50:13.934Z</time></trkpt><trkpt lat="40.6915267" lon="15.1775283"><ele>736.6666666666666</ele><time>2026-04-18T09:50:14.935Z</time></trkpt><trkpt lat="40.6915267" lon="15.17769"><ele>734.5</ele><time>2026-04-18T09:50:16.934Z</time></trkpt><trkpt lat="40.69151" lon="15.1778"><ele>732.3333333333333</ele><time>2026-04-18T09:50:18.934Z</time></trkpt><trkpt lat="40.6914583" lon="15.17787"><ele>730.1666666666666</ele><time>2026-04-18T09:50:20.934Z</time></trkpt><trkpt lat="40.691375" lon="15.1778717"><ele>728.0</ele><time>2026-04-18T09:50:22.934Z</time></trkpt><trkpt lat="40.6912733" lon="15.1778417"><ele>728.0</ele><time>2026-04-18T09:50:24.934Z</time></trkpt><trkpt lat="40.691165" lon="15.1777717"><ele>728.0</ele><time>2026-04-18T09:50:26.934Z</time></trkpt><trkpt lat="40.69109" lon="15.17767"><ele>728.0</ele><time>2026-04-18T09:50:28.934Z</time></trkpt><trkpt lat="40.6910533" lon="15.1775483"><ele>728.0</ele><time>2026-04-18T09:50:30.934Z</time></trkpt><trkpt lat="40.6910233" lon="15.17743"><ele>728.0</ele><time>2026-04-18T09:50:32.934Z</time></trkpt><trkpt lat="40.6909833" lon="15.17731"><ele>725.3333333333333</ele><time>2026-04-18T09:50:34.934Z</time></trkpt><trkpt lat="40.6909333" lon="15.17723"><ele>722.6666666666666</ele><time>2026-04-18T09:50:36.934Z</time></trkpt><trkpt lat="40.6908433" lon="15.17723"><ele>720.0</ele><time>2026-04-18T09:50:38.934Z</time></trkpt><trkpt lat="40.6907533" lon="15.177345"><ele>717.3333333333334</ele><time>2026-04-18T09:50:40.934Z</time></trkpt><trkpt lat="40.69073" lon="15.177425"><ele>714.6666666666667</ele><time>2026-04-18T09:50:41.934Z</time></trkpt><trkpt lat="40.6907133" lon="15.177525"><ele>712.0</ele><time>2026-04-18T09:50:42.934Z</time></trkpt><trkpt lat="40.6907" lon="15.1776233"><ele>710.6666666666667</ele><time>2026-04-18T09:50:43.934Z</time></trkpt><trkpt lat="40.6906983" lon="15.177725"><ele>709.3333333333334</ele><time>2026-04-18T09:50:44.934Z</time></trkpt><trkpt lat="40.6907033" lon="15.1778283"><ele>708.0</ele><time>2026-04-18T09:50:45.934Z</time></trkpt><trkpt lat="40.690715" lon="15.1779367"><ele>706.6666666666666</ele><time>2026-04-18T09:50:46.934Z</time></trkpt><trkpt lat="40.690745" lon="15.17804"><ele>705.3333333333333</ele><time>2026-04-18T09:50:47.934Z</time></trkpt><trkpt lat="40.6907883" lon="15.1781283"><ele>704.0</ele><time>2026-04-18T09:50:48.934Z</time></trkpt><trkpt lat="40.6908383" lon="15.17821"><ele>701.5</ele><time>2026-04-18T09:50:49.934Z</time></trkpt><trkpt lat="40.6908917" lon="15.178285"><ele>699.0</ele><time>2026-04-18T09:50:50.934Z</time></trkpt><trkpt lat="40.6909383" lon="15.1783517"><ele>696.5</ele><time>2026-04-18T09:50:51.934Z</time></trkpt><trkpt lat="40.6910017" lon="15.1784667"><ele>694.0</ele><time>2026-04-18T09:50:53.934Z</time></trkpt><trkpt lat="40.691" lon="15.17857"><ele>691.5</ele><time>2026-04-18T09:50:55.934Z</time></trkpt><trkpt lat="40.6909233" lon="15.178635"><ele>689.0</ele><time>2026-04-18T09:50:57.935Z</time></trkpt><trkpt lat="40.690855" lon="15.1786367"><ele>689.0</ele><time>2026-04-18T09:50:58.934Z</time></trkpt><trkpt lat="40.6907833" lon="15.1786367"><ele>689.0</ele><time>2026-04-18T09:50:59.934Z</time></trkpt><trkpt lat="40.690715" lon="15.17863"><ele>689.0</ele><time>2026-04-18T09:51:00.934Z</time></trkpt><trkpt lat="40.6905933" lon="15.1786383"><ele>689.0</ele><time>2026-04-18T09:51:02.934Z</time></trkpt><trkpt lat="40.69053" lon="15.1786683"><ele>689.0</ele><time>2026-04-18T09:51:03.934Z</time></trkpt><trkpt lat="40.6904717" lon="15.1787283"><ele>689.0</ele><time>2026-04-18T09:51:04.934Z</time></trkpt><trkpt lat="40.6904417" lon="15.1788167"><ele>689.0</ele><time>2026-04-18T09:51:05.934Z</time></trkpt><trkpt lat="40.69043" lon="15.1789233"><ele>689.0</ele><time>2026-04-18T09:51:06.934Z</time></trkpt><trkpt lat="40.69041" lon="15.1790517"><ele>689.0</ele><time>2026-04-18T09:51:07.934Z</time></trkpt><trkpt lat="40.6903933" lon="15.179225"><ele>689.0</ele><time>2026-04-18T09:51:08.934Z</time></trkpt><trkpt lat="40.6903683" lon="15.17942"><ele>683.75</ele><time>2026-04-18T09:51:09.934Z</time></trkpt><trkpt lat="40.6903433" lon="15.179595"><ele>678.5</ele><time>2026-04-18T09:51:10.934Z</time></trkpt><trkpt lat="40.69033" lon="15.1797667"><ele>673.25</ele><time>2026-04-18T09:51:11.934Z</time></trkpt><trkpt lat="40.6903167" lon="15.1799183"><ele>668.0</ele><time>2026-04-18T09:51:12.934Z</time></trkpt><trkpt lat="40.6902967" lon="15.1800817"><ele>665.25</ele><time>2026-04-18T09:51:13.934Z</time></trkpt><trkpt lat="40.690295" lon="15.1802567"><ele>662.5</ele><time>2026-04-18T09:51:14.935Z</time></trkpt><trkpt lat="40.6902783" lon="15.180415"><ele>659.75</ele><time>2026-04-18T09:51:15.934Z</time></trkpt><trkpt lat="40.6902717" lon="15.1805533"><ele>657.0</ele><time>2026-04-18T09:51:16.935Z</time></trkpt><trkpt lat="40.6902617" lon="15.18068"><ele>657.1666666666666</ele><time>2026-04-18T09:51:17.934Z</time></trkpt><trkpt lat="40.6902467" lon="15.1807933"><ele>657.3333333333334</ele><time>2026-04-18T09:51:18.934Z</time></trkpt><trkpt lat="40.6902267" lon="15.1808983"><ele>657.5</ele><time>2026-04-18T09:51:19.934Z</time></trkpt><trkpt lat="40.69019" lon="15.1809933"><ele>657.6666666666667</ele><time>2026-04-18T09:51:20.934Z</time></trkpt><trkpt lat="40.690155" lon="15.1810933"><ele>657.8333333333334</ele><time>2026-04-18T09:51:21.934Z</time></trkpt><trkpt lat="40.6901133" lon="15.181195"><ele>658.0</ele><time>2026-04-18T09:51:22.934Z</time></trkpt><trkpt lat="40.6900717" lon="15.1813017"><ele>658.0</ele><time>2026-04-18T09:51:23.934Z</time></trkpt><trkpt lat="40.6900483" lon="15.1814267"><ele>658.0</ele><time>2026-04-18T09:51:24.934Z</time></trkpt><trkpt lat="40.6900283" lon="15.181575"><ele>658.0</ele><time>2026-04-18T09:51:25.934Z</time></trkpt><trkpt lat="40.6900233" lon="15.1817217"><ele>658.0</ele><time>2026-04-18T09:51:26.934Z</time></trkpt><trkpt lat="40.6900083" lon="15.1818633"><ele>658.0</ele><time>2026-04-18T09:51:27.934Z</time></trkpt><trkpt lat="40.68999" lon="15.1820083"><ele>656.5</ele><time>2026-04-18T09:51:28.934Z</time></trkpt><trkpt lat="40.6899633" lon="15.18215"><ele>655.0</ele><time>2026-04-18T09:51:29.934Z</time></trkpt><trkpt lat="40.6899267" lon="15.182295"><ele>653.5</ele><time>2026-04-18T09:51:30.934Z</time></trkpt><trkpt lat="40.689885" lon="15.1824467"><ele>652.0</ele><time>2026-04-18T09:51:31.934Z</time></trkpt><trkpt lat="40.6898417" lon="15.1826033"><ele>649.5</ele><time>2026-04-18T09:51:32.934Z</time></trkpt><trkpt lat="40.689815" lon="15.1827617"><ele>647.0</ele><time>2026-04-18T09:51:33.935Z</time></trkpt><trkpt lat="40.6898" lon="15.182915"><ele>644.5</ele><time>2026-04-18T09:51:34.934Z</time></trkpt><trkpt lat="40.68979" lon="15.183055"><ele>642.0</ele><time>2026-04-18T09:51:35.934Z</time></trkpt><trkpt lat="40.6897733" lon="15.1831933"><ele>639.6</ele><time>2026-04-18T09:51:36.934Z</time></trkpt><trkpt lat="40.6897733" lon="15.1833267"><ele>637.2</ele><time>2026-04-18T09:51:37.935Z</time></trkpt><trkpt lat="40.68978" lon="15.1834683"><ele>634.8</ele><time>2026-04-18T09:51:38.934Z</time></trkpt><trkpt lat="40.6897917" lon="15.1836083"><ele>632.4</ele><time>2026-04-18T09:51:39.934Z</time></trkpt><trkpt lat="40.6898217" lon="15.183745"><ele>630.0</ele><time>2026-04-18T09:51:40.934Z</time></trkpt><trkpt lat="40.6898517" lon="15.1838683"><ele>630.0</ele><time>2026-04-18T09:51:41.935Z</time></trkpt><trkpt lat="40.68988" lon="15.1839867"><ele>630.0</ele><time>2026-04-18T09:51:42.934Z</time></trkpt><trkpt lat="40.6899033" lon="15.1840983"><ele>630.0</ele><time>2026-04-18T09:51:43.934Z</time></trkpt><trkpt lat="40.6899283" lon="15.18421"><ele>630.0</ele><time>2026-04-18T09:51:44.934Z</time></trkpt><trkpt lat="40.6899467" lon="15.1843133"><ele>630.0</ele><time>2026-04-18T09:51:45.934Z</time></trkpt><trkpt lat="40.6899667" lon="15.1844017"><ele>630.0</ele><time>2026-04-18T09:51:46.934Z</time></trkpt><trkpt lat="40.6899883" lon="15.1844817"><ele>627.75</ele><time>2026-04-18T09:51:47.934Z</time></trkpt><trkpt lat="40.6900567" lon="15.1846467"><ele>625.5</ele><time>2026-04-18T09:51:49.934Z</time></trkpt><trkpt lat="40.6901217" lon="15.1847517"><ele>623.25</ele><time>2026-04-18T09:51:50.934Z</time></trkpt><trkpt lat="40.6902083" lon="15.1848683"><ele>621.0</ele><time>2026-04-18T09:51:51.934Z</time></trkpt><trkpt lat="40.690295" lon="15.1849783"><ele>617.0</ele><time>2026-04-18T09:51:52.934Z</time></trkpt><trkpt lat="40.69037" lon="15.1850817"><ele>613.0</ele><time>2026-04-18T09:51:53.934Z</time></trkpt><trkpt lat="40.69044" lon="15.1851867"><ele>609.0</ele><time>2026-04-18T09:51:54.934Z</time></trkpt><trkpt lat="40.6905183" lon="15.1852833"><ele>605.0</ele><time>2026-04-18T09:51:55.934Z</time></trkpt><trkpt lat="40.6906" lon="15.1853767"><ele>601.0</ele><time>2026-04-18T09:51:56.934Z</time></trkpt><trkpt lat="40.69068" lon="15.1854633"><ele>601.0</ele><time>2026-04-18T09:51:57.934Z</time></trkpt><trkpt lat="40.6907533" lon="15.185555"><ele>601.0</ele><time>2026-04-18T09:51:58.934Z</time></trkpt><trkpt lat="40.6908167" lon="15.1856717"><ele>601.0</ele><time>2026-04-18T09:51:59.934Z</time></trkpt><trkpt lat="40.690875" lon="15.185815"><ele>601.0</ele><time>2026-04-18T09:52:00.934Z</time></trkpt><trkpt lat="40.6909317" lon="15.18596"><ele>599.0</ele><time>2026-04-18T09:52:01.934Z</time></trkpt><trkpt lat="40.6909717" lon="15.1860967"><ele>597.0</ele><time>2026-04-18T09:52:02.934Z</time></trkpt><trkpt lat="40.691" lon="15.1862283"><ele>595.0</ele><time>2026-04-18T09:52:03.934Z</time></trkpt><trkpt lat="40.6910233" lon="15.1863533"><ele>593.0</ele><time>2026-04-18T09:52:04.934Z</time></trkpt><trkpt lat="40.6910333" lon="15.18648"><ele>591.0</ele><time>2026-04-18T09:52:05.934Z</time></trkpt><trkpt lat="40.6910267" lon="15.1866133"><ele>589.5</ele><time>2026-04-18T09:52:06.934Z</time></trkpt><trkpt lat="40.6910167" lon="15.186775"><ele>588.0</ele><time>2026-04-18T09:52:07.935Z</time></trkpt><trkpt lat="40.691005" lon="15.186935"><ele>586.5</ele><time>2026-04-18T09:52:08.934Z</time></trkpt><trkpt lat="40.6909883" lon="15.187085"><ele>585.0</ele><time>2026-04-18T09:52:09.934Z</time></trkpt><trkpt lat="40.6909633" lon="15.18722"><ele>583.75</ele><time>2026-04-18T09:52:10.934Z</time></trkpt><trkpt lat="40.690915" lon="15.1873783"><ele>582.5</ele><time>2026-04-18T09:52:11.934Z</time></trkpt><trkpt lat="40.6908483" lon="15.18756"><ele>581.25</ele><time>2026-04-18T09:52:12.934Z</time></trkpt><trkpt lat="40.6907817" lon="15.187735"><ele>580.0</ele><time>2026-04-18T09:52:13.934Z</time></trkpt><trkpt lat="40.6907233" lon="15.1879017"><ele>580.0</ele><time>2026-04-18T09:52:14.934Z</time></trkpt><trkpt lat="40.6906717" lon="15.1880567"><ele>580.0</ele><time>2026-04-18T09:52:15.934Z</time></trkpt><trkpt lat="40.6906167" lon="15.188205"><ele>580.0</ele><time>2026-04-18T09:52:16.934Z</time></trkpt><trkpt lat="40.6905667" lon="15.1883483"><ele>580.0</ele><time>2026-04-18T09:52:17.935Z</time></trkpt><trkpt lat="40.69053" lon="15.1884883"><ele>579.0</ele><time>2026-04-18T09:52:18.934Z</time></trkpt><trkpt lat="40.6905067" lon="15.1886267"><ele>578.0</ele><time>2026-04-18T09:52:19.934Z</time></trkpt><trkpt lat="40.6904917" lon="15.1887533"><ele>577.0</ele><time>2026-04-18T09:52:20.934Z</time></trkpt><trkpt lat="40.6905033" lon="15.1888683"><ele>576.0</ele><time>2026-04-18T09:52:21.934Z</time></trkpt><trkpt lat="40.690525" lon="15.1889717"><ele>575.0</ele><time>2026-04-18T09:52:22.934Z</time></trkpt><trkpt lat="40.6905233" lon="15.18907"><ele>574.0</ele><time>2026-04-18T09:52:23.934Z</time></trkpt><trkpt lat="40.690495" lon="15.189165"><ele>571.0</ele><time>2026-04-18T09:52:24.934Z</time></trkpt><trkpt lat="40.69044" lon="15.189275"><ele>568.0</ele><time>2026-04-18T09:52:25.935Z</time></trkpt><trkpt lat="40.6903517" lon="15.1893933"><ele>565.0</ele><time>2026-04-18T09:52:26.934Z</time></trkpt><trkpt lat="40.6902733" lon="15.1895233"><ele>562.0</ele><time>2026-04-18T09:52:27.934Z</time></trkpt><trkpt lat="40.6902317" lon="15.1896633"><ele>561.25</ele><time>2026-04-18T09:52:28.934Z</time></trkpt><trkpt lat="40.6902067" lon="15.1898017"><ele>560.5</ele><time>2026-04-18T09:52:29.934Z</time></trkpt><trkpt lat="40.6901917" lon="15.1899567"><ele>559.75</ele><time>2026-04-18T09:52:30.934Z</time></trkpt><trkpt lat="40.6901717" lon="15.190115"><ele>559.0</ele><time>2026-04-18T09:52:31.934Z</time></trkpt><trkpt lat="40.69015" lon="15.1902933"><ele>556.5</ele><time>2026-04-18T09:52:32.934Z</time></trkpt><trkpt lat="40.69015" lon="15.1904933"><ele>554.0</ele><time>2026-04-18T09:52:33.934Z</time></trkpt><trkpt lat="40.69017" lon="15.190685"><ele>551.5</ele><time>2026-04-18T09:52:34.934Z</time></trkpt><trkpt lat="40.6901967" lon="15.1908633"><ele>549.0</ele><time>2026-04-18T09:52:35.934Z</time></trkpt><trkpt lat="40.690215" lon="15.1910267"><ele>547.5</ele><time>2026-04-18T09:52:36.934Z</time></trkpt><trkpt lat="40.6902317" lon="15.1911817"><ele>546.0</ele><time>2026-04-18T09:52:37.934Z</time></trkpt><trkpt lat="40.690255" lon="15.191325"><ele>544.5</ele><time>2026-04-18T09:52:38.934Z</time></trkpt><trkpt lat="40.6902983" lon="15.1914733"><ele>543.0</ele><time>2026-04-18T09:52:39.935Z</time></trkpt><trkpt lat="40.69036" lon="15.191615"><ele>542.1999999999999</ele><time>2026-04-18T09:52:40.934Z</time></trkpt><trkpt lat="40.6904267" lon="15.1917333"><ele>541.4</ele><time>2026-04-18T09:52:41.934Z</time></trkpt><trkpt lat="40.6904917" lon="15.1918467"><ele>540.5999999999999</ele><time>2026-04-18T09:52:42.934Z</time></trkpt><trkpt lat="40.6905467" lon="15.1919617"><ele>539.8</ele><time>2026-04-18T09:52:43.934Z</time></trkpt><trkpt lat="40.6905883" lon="15.1920833"><ele>539.0</ele><time>2026-04-18T09:52:44.934Z</time></trkpt><trkpt lat="40.690625" lon="15.1922067"><ele>539.0</ele><time>2026-04-18T09:52:45.934Z</time></trkpt><trkpt lat="40.6906583" lon="15.1923367"><ele>539.0</ele><time>2026-04-18T09:52:46.934Z</time></trkpt><trkpt lat="40.6906917" lon="15.19247"><ele>539.0</ele><time>2026-04-18T09:52:47.934Z</time></trkpt><trkpt lat="40.690725" lon="15.192605"><ele>539.0</ele><time>2026-04-18T09:52:48.934Z</time></trkpt><trkpt lat="40.6907517" lon="15.1927367"><ele>539.0</ele><time>2026-04-18T09:52:49.934Z</time></trkpt><trkpt lat="40.6907717" lon="15.1928717"><ele>537.25</ele><time>2026-04-18T09:52:50.934Z</time></trkpt><trkpt lat="40.6907833" lon="15.1930133"><ele>535.5</ele><time>2026-04-18T09:52:51.934Z</time></trkpt><trkpt lat="40.6907783" lon="15.19317"><ele>533.75</ele><time>2026-04-18T09:52:52.934Z</time></trkpt><trkpt lat="40.6907533" lon="15.19335"><ele>532.0</ele><time>2026-04-18T09:52:53.934Z</time></trkpt><trkpt lat="40.690715" lon="15.1935517"><ele>530.5</ele><time>2026-04-18T09:52:54.934Z</time></trkpt><trkpt lat="40.6907" lon="15.1937583"><ele>529.0</ele><time>2026-04-18T09:52:55.934Z</time></trkpt><trkpt lat="40.6907" lon="15.1939533"><ele>527.5</ele><time>2026-04-18T09:52:56.934Z</time></trkpt><trkpt lat="40.6907067" lon="15.19414"><ele>526.0</ele><time>2026-04-18T09:52:57.934Z</time></trkpt><trkpt lat="40.6907067" lon="15.194305"><ele>523.0</ele><time>2026-04-18T09:52:58.934Z</time></trkpt><trkpt lat="40.690695" lon="15.1944533"><ele>520.0</ele><time>2026-04-18T09:52:59.935Z</time></trkpt><trkpt lat="40.6906733" lon="15.1946033"><ele>517.0</ele><time>2026-04-18T09:53:00.934Z</time></trkpt><trkpt lat="40.69064" lon="15.194755"><ele>514.0</ele><time>2026-04-18T09:53:01.934Z</time></trkpt><trkpt lat="40.6906083" lon="15.194895"><ele>513.2</ele><time>2026-04-18T09:53:02.934Z</time></trkpt><trkpt lat="40.6905733" lon="15.1950183"><ele>512.4</ele><time>2026-04-18T09:53:03.934Z</time></trkpt><trkpt lat="40.6905383" lon="15.1951433"><ele>511.6</ele><time>2026-04-18T09:53:04.934Z</time></trkpt><trkpt lat="40.690505" lon="15.19526"><ele>510.8</ele><time>2026-04-18T09:53:05.934Z</time></trkpt><trkpt lat="40.6904717" lon="15.195365"><ele>510.0</ele><time>2026-04-18T09:53:06.934Z</time></trkpt><trkpt lat="40.6904467" lon="15.1954617"><ele>510.0</ele><time>2026-04-18T09:53:07.934Z</time></trkpt><trkpt lat="40.690425" lon="15.195545"><ele>510.0</ele><time>2026-04-18T09:53:08.934Z</time></trkpt><trkpt lat="40.6904117" lon="15.195635"><ele>510.0</ele><time>2026-04-18T09:53:09.934Z</time></trkpt><trkpt lat="40.6903983" lon="15.1957233"><ele>510.0</ele><time>2026-04-18T09:53:10.934Z</time></trkpt><trkpt lat="40.6903883" lon="15.1958117"><ele>510.0</ele><time>2026-04-18T09:53:11.934Z</time></trkpt><trkpt lat="40.6903617" lon="15.1959683"><ele>510.0</ele><time>2026-04-18T09:53:13.934Z</time></trkpt><trkpt lat="40.6903483" lon="15.196105"><ele>508.6666666666667</ele><time>2026-04-18T09:53:15.934Z</time></trkpt><trkpt lat="40.6903533" lon="15.19623"><ele>507.33333333333337</ele><time>2026-04-18T09:53:18.934Z</time></trkpt><trkpt lat="40.69033" lon="15.1963383"><ele>506.0</ele><time>2026-04-18T09:53:21.934Z</time></trkpt><trkpt lat="40.6903117" lon="15.1964267"><ele>504.6666666666667</ele><time>2026-04-18T09:53:23.934Z</time></trkpt><trkpt lat="40.6903033" lon="15.196525"><ele>503.33333333333337</ele><time>2026-04-18T09:53:25.934Z</time></trkpt><trkpt lat="40.690315" lon="15.1966267"><ele>502.0</ele><time>2026-04-18T09:53:27.934Z</time></trkpt><trkpt lat="40.6903617" lon="15.1967217"><ele>499.83333333333337</ele><time>2026-04-18T09:53:29.934Z</time></trkpt><trkpt lat="40.6904317" lon="15.196805"><ele>497.6666666666667</ele><time>2026-04-18T09:53:31.934Z</time></trkpt><trkpt lat="40.6904717" lon="15.1968733"><ele>495.5</ele><time>2026-04-18T09:53:33.934Z</time></trkpt><trkpt lat="40.6904767" lon="15.1969617"><ele>493.33333333333337</ele><time>2026-04-18T09:53:35.934Z</time></trkpt><trkpt lat="40.690425" lon="15.1970483"><ele>491.1666666666667</ele><time>2026-04-18T09:53:37.934Z</time></trkpt><trkpt lat="40.690335" lon="15.1970983"><ele>489.0</ele><time>2026-04-18T09:53:39.934Z</time></trkpt><trkpt lat="40.6902433" lon="15.197135"><ele>488.5</ele><time>2026-04-18T09:53:41.934Z</time></trkpt><trkpt lat="40.6901533" lon="15.1971817"><ele>488.0</ele><time>2026-04-18T09:53:43.934Z</time></trkpt><trkpt lat="40.6900533" lon="15.1972567"><ele>487.5</ele><time>2026-04-18T09:53:45.934Z</time></trkpt><trkpt lat="40.69" lon="15.1973067"><ele>487.0</ele><time>2026-04-18T09:53:46.934Z</time></trkpt><trkpt lat="40.68995" lon="15.1973633"><ele>486.5</ele><time>2026-04-18T09:53:47.934Z</time></trkpt><trkpt lat="40.6898967" lon="15.1974283"><ele>486.0</ele><time>2026-04-18T09:53:48.934Z</time></trkpt><trkpt lat="40.6898483" lon="15.1975033"><ele>484.3333333333333</ele><time>2026-04-18T09:53:49.935Z</time></trkpt><trkpt lat="40.6898083" lon="15.197585"><ele>482.66666666666663</ele><time>2026-04-18T09:53:50.934Z</time></trkpt><trkpt lat="40.6897667" lon="15.1976733"><ele>481.0</ele><time>2026-04-18T09:53:51.934Z</time></trkpt><trkpt lat="40.68972" lon="15.1977683"><ele>479.3333333333333</ele><time>2026-04-18T09:53:52.934Z</time></trkpt><trkpt lat="40.6896733" lon="15.19786"><ele>477.66666666666663</ele><time>2026-04-18T09:53:53.934Z</time></trkpt><trkpt lat="40.6896333" lon="15.1979533"><ele>476.0</ele><time>2026-04-18T09:53:54.934Z</time></trkpt><trkpt lat="40.6896017" lon="15.1980533"><ele>476.0</ele><time>2026-04-18T09:53:55.934Z</time></trkpt><trkpt lat="40.6895717" lon="15.1981483"><ele>476.0</ele><time>2026-04-18T09:53:56.934Z</time></trkpt><trkpt lat="40.6895483" lon="15.1982383"><ele>476.0</ele><time>2026-04-18T09:53:57.934Z</time></trkpt><trkpt lat="40.6895283" lon="15.198325"><ele>476.0</ele><time>2026-04-18T09:53:58.934Z</time></trkpt><trkpt lat="40.6895083" lon="15.198415"><ele>476.0</ele><time>2026-04-18T09:53:59.934Z</time></trkpt><trkpt lat="40.6894933" lon="15.1985133"><ele>476.0</ele><time>2026-04-18T09:54:00.934Z</time></trkpt><trkpt lat="40.6894817" lon="15.1986167"><ele>476.0</ele><time>2026-04-18T09:54:01.934Z</time></trkpt><trkpt lat="40.68947" lon="15.1987267"><ele>474.49999999999994</ele><time>2026-04-18T09:54:02.934Z</time></trkpt><trkpt lat="40.6894617" lon="15.1988383"><ele>473.0</ele><time>2026-04-18T09:54:03.934Z</time></trkpt><trkpt lat="40.689455" lon="15.19895"><ele>471.5</ele><time>2026-04-18T09:54:04.934Z</time></trkpt><trkpt lat="40.6894417" lon="15.1990667"><ele>470.0</ele><time>2026-04-18T09:54:05.934Z</time></trkpt><trkpt lat="40.6894183" lon="15.19918"><ele>468.49999999999994</ele><time>2026-04-18T09:54:06.934Z</time></trkpt><trkpt lat="40.6893983" lon="15.1992917"><ele>467.0</ele><time>2026-04-18T09:54:07.934Z</time></trkpt><trkpt lat="40.6893767" lon="15.1993933"><ele>465.49999999999994</ele><time>2026-04-18T09:54:08.934Z</time></trkpt><trkpt lat="40.6893533" lon="15.1994933"><ele>464.0</ele><time>2026-04-18T09:54:09.934Z</time></trkpt><trkpt lat="40.6893283" lon="15.1995917"><ele>462.5</ele><time>2026-04-18T09:54:10.934Z</time></trkpt><trkpt lat="40.6893067" lon="15.1996783"><ele>461.0</ele><time>2026-04-18T09:54:11.935Z</time></trkpt><trkpt lat="40.68929" lon="15.1997633"><ele>459.49999999999994</ele><time>2026-04-18T09:54:12.934Z</time></trkpt><trkpt lat="40.6892733" lon="15.19992"><ele>458.0</ele><time>2026-04-18T09:54:14.934Z</time></trkpt><trkpt lat="40.68929" lon="15.2000017"><ele>457.16666666666663</ele><time>2026-04-18T09:54:15.934Z</time></trkpt><trkpt lat="40.6893617" lon="15.2001417"><ele>456.3333333333333</ele><time>2026-04-18T09:54:17.934Z</time></trkpt><trkpt lat="40.6894117" lon="15.200195"><ele>455.5</ele><time>2026-04-18T09:54:18.934Z</time></trkpt><trkpt lat="40.6894683" lon="15.2002367"><ele>454.66666666666663</ele><time>2026-04-18T09:54:19.933Z</time></trkpt><trkpt lat="40.6895283" lon="15.2002817"><ele>453.8333333333333</ele><time>2026-04-18T09:54:20.933Z</time></trkpt><trkpt lat="40.6895883" lon="15.2003233"><ele>453.0</ele><time>2026-04-18T09:54:21.933Z</time></trkpt><trkpt lat="40.68965" lon="15.2003633"><ele>452.59999999999997</ele><time>2026-04-18T09:54:22.933Z</time></trkpt><trkpt lat="40.6897083" lon="15.2004"><ele>452.19999999999993</ele><time>2026-04-18T09:54:23.933Z</time></trkpt><trkpt lat="40.689765" lon="15.2004433"><ele>451.8</ele><time>2026-04-18T09:54:24.933Z</time></trkpt><trkpt lat="40.6898667" lon="15.20053"><ele>451.4</ele><time>2026-04-18T09:54:26.933Z</time></trkpt><trkpt lat="40.6899583" lon="15.2006167"><ele>451.0</ele><time>2026-04-18T09:54:28.933Z</time></trkpt><trkpt lat="40.69001" lon="15.2007183"><ele>449.57142857142856</ele><time>2026-04-18T09:54:30.933Z</time></trkpt><trkpt lat="40.689985" lon="15.20084"><ele>448.14285714285717</ele><time>2026-04-18T09:54:32.933Z</time></trkpt><trkpt lat="40.6899367" lon="15.2008967"><ele>446.7142857142857</ele><time>2026-04-18T09:54:33.933Z</time></trkpt><trkpt lat="40.689875" lon="15.2009383"><ele>445.2857142857143</ele><time>2026-04-18T09:54:34.933Z</time></trkpt><trkpt lat="40.6898117" lon="15.2009733"><ele>443.8571428571429</ele><time>2026-04-18T09:54:35.934Z</time></trkpt><trkpt lat="40.689745" lon="15.2009967"><ele>442.42857142857144</ele><time>2026-04-18T09:54:36.933Z</time></trkpt><trkpt lat="40.68968" lon="15.2010117"><ele>441.0</ele><time>2026-04-18T09:54:37.933Z</time></trkpt><trkpt lat="40.6895683" lon="15.2010283"><ele>441.0</ele><time>2026-04-18T09:54:39.933Z</time></trkpt><trkpt lat="40.6894667" lon="15.2010583"><ele>441.0</ele><time>2026-04-18T09:54:41.933Z</time></trkpt><trkpt lat="40.6893767" lon="15.2011383"><ele>441.0</ele><time>2026-04-18T09:54:43.933Z</time></trkpt><trkpt lat="40.6893167" lon="15.2012517"><ele>441.0</ele><time>2026-04-18T09:54:45.933Z</time></trkpt><trkpt lat="40.6893" lon="15.201375"><ele>441.0</ele><time>2026-04-18T09:54:47.933Z</time></trkpt><trkpt lat="40.6893133" lon="15.201525"><ele>438.5</ele><time>2026-04-18T09:54:49.933Z</time></trkpt><trkpt lat="40.6893317" lon="15.201685"><ele>436.0</ele><time>2026-04-18T09:54:51.933Z</time></trkpt><trkpt lat="40.6893417" lon="15.2018383"><ele>433.5</ele><time>2026-04-18T09:54:53.933Z</time></trkpt><trkpt lat="40.6893417" lon="15.20199"><ele>431.0</ele><time>2026-04-18T09:54:55.933Z</time></trkpt><trkpt lat="40.68935" lon="15.20215"><ele>431.0</ele><time>2026-04-18T09:54:57.933Z</time></trkpt><trkpt lat="40.6893683" lon="15.202315"><ele>431.0</ele><time>2026-04-18T09:54:59.933Z</time></trkpt><trkpt lat="40.6893833" lon="15.2024033"><ele>431.0</ele><time>2026-04-18T09:55:00.933Z</time></trkpt><trkpt lat="40.6893967" lon="15.2024883"><ele>431.0</ele><time>2026-04-18T09:55:01.933Z</time></trkpt><trkpt lat="40.689425" lon="15.2026433"><ele>431.0</ele><time>2026-04-18T09:55:03.933Z</time></trkpt><trkpt lat="40.6894233" lon="15.2028133"><ele>430.3333333333333</ele><time>2026-04-18T09:55:05.933Z</time></trkpt><trkpt lat="40.68941" lon="15.202905"><ele>429.66666666666663</ele><time>2026-04-18T09:55:06.933Z</time></trkpt><trkpt lat="40.68939" lon="15.2029967"><ele>429.0</ele><time>2026-04-18T09:55:07.933Z</time></trkpt><trkpt lat="40.68937" lon="15.20309"><ele>428.33333333333337</ele><time>2026-04-18T09:55:08.933Z</time></trkpt><trkpt lat="40.6893483" lon="15.2031967"><ele>427.6666666666667</ele><time>2026-04-18T09:55:09.933Z</time></trkpt><trkpt lat="40.6893183" lon="15.2033017"><ele>427.0</ele><time>2026-04-18T09:55:10.933Z</time></trkpt><trkpt lat="40.6892917" lon="15.2034083"><ele>426.50000000000006</ele><time>2026-04-18T09:55:11.933Z</time></trkpt><trkpt lat="40.6892567" lon="15.203515"><ele>426.0</ele><time>2026-04-18T09:55:12.933Z</time></trkpt><trkpt lat="40.689225" lon="15.2036167"><ele>425.5</ele><time>2026-04-18T09:55:13.933Z</time></trkpt><trkpt lat="40.6891967" lon="15.2037133"><ele>425.0</ele><time>2026-04-18T09:55:14.933Z</time></trkpt><trkpt lat="40.6891633" lon="15.2038033"><ele>424.50000000000006</ele><time>2026-04-18T09:55:15.933Z</time></trkpt><trkpt lat="40.689135" lon="15.2038967"><ele>424.0</ele><time>2026-04-18T09:55:16.933Z</time></trkpt><trkpt lat="40.6891033" lon="15.2039933"><ele>423.00000000000006</ele><time>2026-04-18T09:55:17.933Z</time></trkpt><trkpt lat="40.689075" lon="15.20409"><ele>422.0</ele><time>2026-04-18T09:55:18.933Z</time></trkpt><trkpt lat="40.68904" lon="15.2041883"><ele>421.0</ele><time>2026-04-18T09:55:19.933Z</time></trkpt><trkpt lat="40.689005" lon="15.2042867"><ele>420.0</ele><time>2026-04-18T09:55:20.933Z</time></trkpt><trkpt lat="40.6889733" lon="15.204385"><ele>419.00000000000006</ele><time>2026-04-18T09:55:21.933Z</time></trkpt><trkpt lat="40.6889483" lon="15.2044817"><ele>418.0</ele><time>2026-04-18T09:55:22.933Z</time></trkpt><trkpt lat="40.6889283" lon="15.2045717"><ele>418.0</ele><time>2026-04-18T09:55:23.933Z</time></trkpt><trkpt lat="40.6889117" lon="15.2046617"><ele>418.0</ele><time>2026-04-18T09:55:24.933Z</time></trkpt><trkpt lat="40.6888983" lon="15.2047517"><ele>418.0</ele><time>2026-04-18T09:55:25.933Z</time></trkpt><trkpt lat="40.68889" lon="15.204845"><ele>418.0</ele><time>2026-04-18T09:55:26.933Z</time></trkpt><trkpt lat="40.6888817" lon="15.2049417"><ele>418.0</ele><time>2026-04-18T09:55:27.933Z</time></trkpt><trkpt lat="40.688885" lon="15.205035"><ele>418.0</ele><time>2026-04-18T09:55:28.933Z</time></trkpt><trkpt lat="40.6888933" lon="15.2051217"><ele>418.0</ele><time>2026-04-18T09:55:29.933Z</time></trkpt><trkpt lat="40.6889117" lon="15.2052117"><ele>417.50000000000006</ele><time>2026-04-18T09:55:30.933Z</time></trkpt><trkpt lat="40.68894" lon="15.2052967"><ele>417.0</ele><time>2026-04-18T09:55:31.933Z</time></trkpt><trkpt lat="40.6889733" lon="15.2053817"><ele>416.5</ele><time>2026-04-18T09:55:32.933Z</time></trkpt><trkpt lat="40.6889967" lon="15.2054683"><ele>416.0</ele><time>2026-04-18T09:55:33.934Z</time></trkpt><trkpt lat="40.6890117" lon="15.2055667"><ele>415.50000000000006</ele><time>2026-04-18T09:55:34.933Z</time></trkpt><trkpt lat="40.6890217" lon="15.2056717"><ele>415.0</ele><time>2026-04-18T09:55:35.933Z</time></trkpt><trkpt lat="40.6890217" lon="15.2057833"><ele>414.2</ele><time>2026-04-18T09:55:36.933Z</time></trkpt><trkpt lat="40.6890167" lon="15.205905"><ele>413.4</ele><time>2026-04-18T09:55:37.934Z</time></trkpt><trkpt lat="40.6890133" lon="15.2060267"><ele>412.6</ele><time>2026-04-18T09:55:38.933Z</time></trkpt><trkpt lat="40.6890067" lon="15.206145"><ele>411.8</ele><time>2026-04-18T09:55:39.933Z</time></trkpt><trkpt lat="40.6889967" lon="15.2062617"><ele>411.0</ele><time>2026-04-18T09:55:40.933Z</time></trkpt><trkpt lat="40.6889933" lon="15.206385"><ele>409.4</ele><time>2026-04-18T09:55:41.933Z</time></trkpt><trkpt lat="40.68899" lon="15.2065183"><ele>407.8</ele><time>2026-04-18T09:55:42.933Z</time></trkpt><trkpt lat="40.688985" lon="15.2066483"><ele>406.2</ele><time>2026-04-18T09:55:43.933Z</time></trkpt><trkpt lat="40.68898" lon="15.206755"><ele>404.59999999999997</ele><time>2026-04-18T09:55:44.933Z</time></trkpt><trkpt lat="40.68897" lon="15.2068883"><ele>403.0</ele><time>2026-04-18T09:55:46.934Z</time></trkpt><trkpt lat="40.6889517" lon="15.2069783"><ele>403.00000000000006</ele><time>2026-04-18T09:55:48.933Z</time></trkpt><trkpt lat="40.6889467" lon="15.20707"><ele>403.0</ele><time>2026-04-18T09:55:50.933Z</time></trkpt><trkpt lat="40.6889517" lon="15.2071633"><ele>403.0</ele><time>2026-04-18T09:55:53.933Z</time></trkpt><trkpt lat="40.6889983" lon="15.2072517"><ele>403.0</ele><time>2026-04-18T09:55:56.933Z</time></trkpt><trkpt lat="40.689105" lon="15.2073233"><ele>403.00000000000006</ele><time>2026-04-18T09:55:58.933Z</time></trkpt><trkpt lat="40.68917" lon="15.20737"><ele>403.0</ele><time>2026-04-18T09:55:59.933Z</time></trkpt><trkpt lat="40.68923" lon="15.2074117"><ele>402.50000000000006</ele><time>2026-04-18T09:56:00.933Z</time></trkpt><trkpt lat="40.6892883" lon="15.2074517"><ele>402.0</ele><time>2026-04-18T09:56:01.933Z</time></trkpt><trkpt lat="40.6893467" lon="15.207495"><ele>401.5</ele><time>2026-04-18T09:56:02.933Z</time></trkpt><trkpt lat="40.6894033" lon="15.2075333"><ele>401.0</ele><time>2026-04-18T09:56:03.933Z</time></trkpt><trkpt lat="40.68946" lon="15.20757"><ele>400.50000000000006</ele><time>2026-04-18T09:56:04.933Z</time></trkpt><trkpt lat="40.68955" lon="15.2076433"><ele>400.0</ele><time>2026-04-18T09:56:06.933Z</time></trkpt><trkpt lat="40.689625" lon="15.207725"><ele>399.00000000000006</ele><time>2026-04-18T09:56:08.933Z</time></trkpt><trkpt lat="40.6897" lon="15.2078183"><ele>398.0</ele><time>2026-04-18T09:56:10.933Z</time></trkpt><trkpt lat="40.68975" lon="15.2079033"><ele>397.0</ele><time>2026-04-18T09:56:12.933Z</time></trkpt><trkpt lat="40.6897783" lon="15.20799"><ele>396.0</ele><time>2026-04-18T09:56:14.933Z</time></trkpt><trkpt lat="40.68975" lon="15.208105"><ele>395.00000000000006</ele><time>2026-04-18T09:56:16.934Z</time></trkpt><trkpt lat="40.6897033" lon="15.208175"><ele>394.0</ele><time>2026-04-18T09:56:17.933Z</time></trkpt><trkpt lat="40.6896483" lon="15.20823"><ele>393.7142857142857</ele><time>2026-04-18T09:56:18.933Z</time></trkpt><trkpt lat="40.689595" lon="15.2082833"><ele>393.42857142857144</ele><time>2026-04-18T09:56:19.933Z</time></trkpt><trkpt lat="40.689545" lon="15.208335"><ele>393.1428571428571</ele><time>2026-04-18T09:56:20.933Z</time></trkpt><trkpt lat="40.6894917" lon="15.2083883"><ele>392.8571428571429</ele><time>2026-04-18T09:56:21.933Z</time></trkpt><trkpt lat="40.68943" lon="15.20845"><ele>392.57142857142856</ele><time>2026-04-18T09:56:22.933Z</time></trkpt><trkpt lat="40.6893733" lon="15.2085217"><ele>392.2857142857143</ele><time>2026-04-18T09:56:23.933Z</time></trkpt><trkpt lat="40.689325" lon="15.2085783"><ele>392.0</ele><time>2026-04-18T09:56:24.933Z</time></trkpt><trkpt lat="40.689235" lon="15.2086783"><ele>392.0</ele><time>2026-04-18T09:56:26.934Z</time></trkpt><trkpt lat="40.689145" lon="15.2087767"><ele>392.0</ele><time>2026-04-18T09:56:28.933Z</time></trkpt><trkpt lat="40.6890383" lon="15.208875"><ele>392.0</ele><time>2026-04-18T09:56:30.933Z</time></trkpt><trkpt lat="40.68898" lon="15.2089217"><ele>392.0</ele><time>2026-04-18T09:56:31.933Z</time></trkpt><trkpt lat="40.6889183" lon="15.2089617"><ele>392.0</ele><time>2026-04-18T09:56:32.934Z</time></trkpt><trkpt lat="40.688855" lon="15.2090017"><ele>390.16666666666663</ele><time>2026-04-18T09:56:33.933Z</time></trkpt><trkpt lat="40.6887933" lon="15.2090383"><ele>388.3333333333333</ele><time>2026-04-18T09:56:34.933Z</time></trkpt><trkpt lat="40.688735" lon="15.20907"><ele>386.5</ele><time>2026-04-18T09:56:35.933Z</time></trkpt><trkpt lat="40.688675" lon="15.2090967"><ele>384.66666666666663</ele><time>2026-04-18T09:56:36.933Z</time></trkpt><trkpt lat="40.688585" lon="15.2091633"><ele>382.8333333333333</ele><time>2026-04-18T09:56:38.933Z</time></trkpt><trkpt lat="40.6885267" lon="15.2092917"><ele>381.0</ele><time>2026-04-18T09:56:40.934Z</time></trkpt><trkpt lat="40.688495" lon="15.20945"><ele>380.57142857142856</ele><time>2026-04-18T09:56:42.933Z</time></trkpt><trkpt lat="40.6884667" lon="15.209535"><ele>380.14285714285717</ele><time>2026-04-18T09:56:43.933Z</time></trkpt><trkpt lat="40.68843" lon="15.209625"><ele>379.7142857142857</ele><time>2026-04-18T09:56:44.933Z</time></trkpt><trkpt lat="40.6883917" lon="15.209715"><ele>379.2857142857143</ele><time>2026-04-18T09:56:45.933Z</time></trkpt><trkpt lat="40.68835" lon="15.2098017"><ele>378.8571428571429</ele><time>2026-04-18T09:56:46.933Z</time></trkpt><trkpt lat="40.6883067" lon="15.20988"><ele>378.42857142857144</ele><time>2026-04-18T09:56:47.933Z</time></trkpt><trkpt lat="40.6882683" lon="15.2099533"><ele>378.0</ele><time>2026-04-18T09:56:48.933Z</time></trkpt><trkpt lat="40.68823" lon="15.21003"><ele>376.3333333333333</ele><time>2026-04-18T09:56:49.933Z</time></trkpt><trkpt lat="40.68819" lon="15.2101017"><ele>374.6666666666667</ele><time>2026-04-18T09:56:50.933Z</time></trkpt><trkpt lat="40.6881133" lon="15.2102333"><ele>373.0</ele><time>2026-04-18T09:56:52.933Z</time></trkpt><trkpt lat="40.68807" lon="15.2103"><ele>371.33333333333337</ele><time>2026-04-18T09:56:53.933Z</time></trkpt><trkpt lat="40.6880317" lon="15.2103667"><ele>369.6666666666667</ele><time>2026-04-18T09:56:54.933Z</time></trkpt><trkpt lat="40.68798" lon="15.210475"><ele>368.0</ele><time>2026-04-18T09:56:56.933Z</time></trkpt><trkpt lat="40.6879483" lon="15.210595"><ele>368.0</ele><time>2026-04-18T09:56:58.933Z</time></trkpt><trkpt lat="40.68793" lon="15.2107183"><ele>368.0</ele><time>2026-04-18T09:57:00.933Z</time></trkpt><trkpt lat="40.687965" lon="15.2106183"><ele>368.0</ele><time>2026-04-18T09:57:11.933Z</time></trkpt><trkpt lat="40.687985" lon="15.2105083"><ele>368.0</ele><time>2026-04-18T09:57:12.933Z</time></trkpt><trkpt lat="40.6880333" lon="15.2103833"><ele>368.0</ele><time>2026-04-18T09:57:13.933Z</time></trkpt><trkpt lat="40.6880983" lon="15.2102633"><ele>368.0</ele><time>2026-04-18T09:57:14.933Z</time></trkpt><trkpt lat="40.6881683" lon="15.21015"><ele>368.0</ele><time>2026-04-18T09:57:15.933Z</time></trkpt><trkpt lat="40.68823" lon="15.210055"><ele>368.0</ele><time>2026-04-18T09:57:16.933Z</time></trkpt><trkpt lat="40.688275" lon="15.2099783"><ele>368.0</ele><time>2026-04-18T09:57:17.933Z</time></trkpt><trkpt lat="40.6883133" lon="15.209905"><ele>368.0</ele><time>2026-04-18T09:57:18.933Z</time></trkpt><trkpt lat="40.688355" lon="15.20982"><ele>368.0</ele><time>2026-04-18T09:57:19.934Z</time></trkpt><trkpt lat="40.6884067" lon="15.2096967"><ele>370.0</ele><time>2026-04-18T09:57:20.934Z</time></trkpt><trkpt lat="40.688465" lon="15.2095383"><ele>372.0</ele><time>2026-04-18T09:57:21.933Z</time></trkpt><trkpt lat="40.68851" lon="15.2093817"><ele>374.0</ele><time>2026-04-18T09:57:22.933Z</time></trkpt><trkpt lat="40.688545" lon="15.2092617"><ele>376.0</ele><time>2026-04-18T09:57:23.933Z</time></trkpt><trkpt lat="40.6886033" lon="15.2091717"><ele>378.0</ele><time>2026-04-18T09:57:24.933Z</time></trkpt><trkpt lat="40.6886767" lon="15.209105"><ele>378.59999999999997</ele><time>2026-04-18T09:57:25.933Z</time></trkpt><trkpt lat="40.68878" lon="15.2090533"><ele>379.2</ele><time>2026-04-18T09:57:26.933Z</time></trkpt><trkpt lat="40.6888833" lon="15.2090083"><ele>379.8</ele><time>2026-04-18T09:57:27.933Z</time></trkpt><trkpt lat="40.6889833" lon="15.2089483"><ele>380.4</ele><time>2026-04-18T09:57:28.933Z</time></trkpt><trkpt lat="40.689075" lon="15.2088733"><ele>381.0</ele><time>2026-04-18T09:57:29.933Z</time></trkpt><trkpt lat="40.6891733" lon="15.2087817"><ele>382.5</ele><time>2026-04-18T09:57:30.933Z</time></trkpt><trkpt lat="40.689275" lon="15.2086717"><ele>384.0</ele><time>2026-04-18T09:57:31.933Z</time></trkpt><trkpt lat="40.68938" lon="15.2085417"><ele>385.5</ele><time>2026-04-18T09:57:32.933Z</time></trkpt><trkpt lat="40.6894917" lon="15.2084167"><ele>387.0</ele><time>2026-04-18T09:57:33.933Z</time></trkpt><trkpt lat="40.68959" lon="15.20831"><ele>387.0</ele><time>2026-04-18T09:57:34.933Z</time></trkpt><trkpt lat="40.68967" lon="15.20822"><ele>387.0</ele><time>2026-04-18T09:57:35.933Z</time></trkpt><trkpt lat="40.6897333" lon="15.2081517"><ele>387.0</ele><time>2026-04-18T09:57:36.933Z</time></trkpt><trkpt lat="40.6898017" lon="15.2080717"><ele>387.0</ele><time>2026-04-18T09:57:38.933Z</time></trkpt><trkpt lat="40.6897617" lon="15.2079417"><ele>387.0</ele><time>2026-04-18T09:57:42.933Z</time></trkpt><trkpt lat="40.689705" lon="15.2078617"><ele>388.75</ele><time>2026-04-18T09:57:43.933Z</time></trkpt><trkpt lat="40.6896233" lon="15.2077683"><ele>390.5</ele><time>2026-04-18T09:57:44.933Z</time></trkpt><trkpt lat="40.6895267" lon="15.2076667"><ele>392.25</ele><time>2026-04-18T09:57:45.933Z</time></trkpt><trkpt lat="40.689395" lon="15.207555"><ele>394.0</ele><time>2026-04-18T09:57:46.933Z</time></trkpt><trkpt lat="40.6892617" lon="15.2074533"><ele>395.00000000000006</ele><time>2026-04-18T09:57:47.933Z</time></trkpt><trkpt lat="40.6891483" lon="15.2073733"><ele>396.0</ele><time>2026-04-18T09:57:48.933Z</time></trkpt><trkpt lat="40.6890617" lon="15.2073033"><ele>397.0</ele><time>2026-04-18T09:57:49.933Z</time></trkpt><trkpt lat="40.6889983" lon="15.207245"><ele>398.0</ele><time>2026-04-18T09:57:50.933Z</time></trkpt><trkpt lat="40.6889617" lon="15.2071767"><ele>399.00000000000006</ele><time>2026-04-18T09:57:51.933Z</time></trkpt><trkpt lat="40.6889467" lon="15.2070833"><ele>400.0</ele><time>2026-04-18T09:57:52.933Z</time></trkpt><trkpt lat="40.6889483" lon="15.20697"><ele>400.75</ele><time>2026-04-18T09:57:53.933Z</time></trkpt><trkpt lat="40.6889583" lon="15.206815"><ele>401.5</ele><time>2026-04-18T09:57:54.933Z</time></trkpt><trkpt lat="40.6889733" lon="15.20662"><ele>402.25</ele><time>2026-04-18T09:57:55.933Z</time></trkpt><trkpt lat="40.688985" lon="15.2064017"><ele>403.0</ele><time>2026-04-18T09:57:56.933Z</time></trkpt><trkpt lat="40.688995" lon="15.2061633"><ele>405.6666666666667</ele><time>2026-04-18T09:57:57.933Z</time></trkpt><trkpt lat="40.68901" lon="15.2059367"><ele>408.33333333333337</ele><time>2026-04-18T09:57:58.933Z</time></trkpt><trkpt lat="40.6890233" lon="15.2057433"><ele>411.0</ele><time>2026-04-18T09:57:59.933Z</time></trkpt><trkpt lat="40.6890117" lon="15.2055683"><ele>412.0</ele><time>2026-04-18T09:58:00.933Z</time></trkpt><trkpt lat="40.6889733" lon="15.2054033"><ele>413.0</ele><time>2026-04-18T09:58:01.933Z</time></trkpt><trkpt lat="40.68893" lon="15.2052417"><ele>414.0</ele><time>2026-04-18T09:58:02.933Z</time></trkpt><trkpt lat="40.6889033" lon="15.2050983"><ele>415.0</ele><time>2026-04-18T09:58:03.933Z</time></trkpt><trkpt lat="40.6888967" lon="15.2049667"><ele>415.00000000000006</ele><time>2026-04-18T09:58:04.933Z</time></trkpt><trkpt lat="40.6889017" lon="15.204855"><ele>415.0</ele><time>2026-04-18T09:58:05.933Z</time></trkpt><trkpt lat="40.688905" lon="15.204755"><ele>415.0</ele><time>2026-04-18T09:58:06.933Z</time></trkpt><trkpt lat="40.68891" lon="15.2046683"><ele>415.0</ele><time>2026-04-18T09:58:07.933Z</time></trkpt><trkpt lat="40.688925" lon="15.2045617"><ele>415.00000000000006</ele><time>2026-04-18T09:58:09.933Z</time></trkpt><trkpt lat="40.688985" lon="15.2044183"><ele>415.0</ele><time>2026-04-18T09:58:49.933Z</time></trkpt><trkpt lat="40.689015" lon="15.204325"><ele>415.6</ele><time>2026-04-18T09:58:50.933Z</time></trkpt><trkpt lat="40.6890267" lon="15.2042417"><ele>416.2</ele><time>2026-04-18T09:58:52.933Z</time></trkpt><trkpt lat="40.6889667" lon="15.2043417"><ele>416.79999999999995</ele><time>2026-04-18T09:58:54.933Z</time></trkpt><trkpt lat="40.6889483" lon="15.2044417"><ele>417.4</ele><time>2026-04-18T09:58:55.933Z</time></trkpt><trkpt lat="40.6889283" lon="15.2045817"><ele>418.0</ele><time>2026-04-18T09:58:56.933Z</time></trkpt><trkpt lat="40.6889117" lon="15.204745"><ele>417.25</ele><time>2026-04-18T09:58:57.933Z</time></trkpt><trkpt lat="40.6888967" lon="15.2049033"><ele>416.5</ele><time>2026-04-18T09:58:58.933Z</time></trkpt><trkpt lat="40.68889" lon="15.2050433"><ele>415.75</ele><time>2026-04-18T09:58:59.933Z</time></trkpt><trkpt lat="40.68892" lon="15.20519"><ele>415.0</ele><time>2026-04-18T09:59:00.933Z</time></trkpt><trkpt lat="40.688965" lon="15.2053533"><ele>415.0</ele><time>2026-04-18T09:59:01.933Z</time></trkpt><trkpt lat="40.689" lon="15.2055133"><ele>415.0</ele><time>2026-04-18T09:59:02.933Z</time></trkpt><trkpt lat="40.6890167" lon="15.2056767"><ele>415.0</ele><time>2026-04-18T09:59:03.933Z</time></trkpt><trkpt lat="40.6890183" lon="15.205855"><ele>415.0</ele><time>2026-04-18T09:59:04.933Z</time></trkpt><trkpt lat="40.6890133" lon="15.2060267"><ele>414.0</ele><time>2026-04-18T09:59:05.933Z</time></trkpt><trkpt lat="40.6890033" lon="15.2062067"><ele>413.0</ele><time>2026-04-18T09:59:06.933Z</time></trkpt><trkpt lat="40.68899" lon="15.2063783"><ele>412.0</ele><time>2026-04-18T09:59:07.933Z</time></trkpt><trkpt lat="40.6889717" lon="15.2065333"><ele>411.0</ele><time>2026-04-18T09:59:08.933Z</time></trkpt><trkpt lat="40.6889617" lon="15.2066767"><ele>409.6666666666667</ele><time>2026-04-18T09:59:09.933Z</time></trkpt><trkpt lat="40.688955" lon="15.20681"><ele>408.33333333333337</ele><time>2026-04-18T09:59:10.933Z</time></trkpt><trkpt lat="40.688945" lon="15.2069267"><ele>407.0</ele><time>2026-04-18T09:59:11.933Z</time></trkpt><trkpt lat="40.6889383" lon="15.2070167"><ele>405.6666666666667</ele><time>2026-04-18T09:59:12.933Z</time></trkpt><trkpt lat="40.6889367" lon="15.2071033"><ele>404.33333333333337</ele><time>2026-04-18T09:59:13.933Z</time></trkpt><trkpt lat="40.6889283" lon="15.2071933"><ele>403.0</ele><time>2026-04-18T09:59:14.934Z</time></trkpt><trkpt lat="40.6889083" lon="15.207305"><ele>402.4</ele><time>2026-04-18T09:59:15.933Z</time></trkpt><trkpt lat="40.6888817" lon="15.207415"><ele>401.79999999999995</ele><time>2026-04-18T09:59:16.933Z</time></trkpt><trkpt lat="40.6888517" lon="15.2075167"><ele>401.2</ele><time>2026-04-18T09:59:17.933Z</time></trkpt><trkpt lat="40.6888217" lon="15.207635"><ele>400.6</ele><time>2026-04-18T09:59:18.933Z</time></trkpt><trkpt lat="40.688795" lon="15.2077533"><ele>400.0</ele><time>2026-04-18T09:59:19.933Z</time></trkpt><trkpt lat="40.6887683" lon="15.20787"><ele>400.0</ele><time>2026-04-18T09:59:20.933Z</time></trkpt><trkpt lat="40.6887417" lon="15.2079867"><ele>400.0</ele><time>2026-04-18T09:59:21.933Z</time></trkpt><trkpt lat="40.6887083" lon="15.2081017"><ele>400.0</ele><time>2026-04-18T09:59:22.933Z</time></trkpt><trkpt lat="40.6886733" lon="15.20822"><ele>400.0</ele><time>2026-04-18T09:59:23.934Z</time></trkpt><trkpt lat="40.68864" lon="15.20834"><ele>400.0</ele><time>2026-04-18T09:59:24.933Z</time></trkpt><trkpt lat="40.6886083" lon="15.2084633"><ele>397.8</ele><time>2026-04-18T09:59:25.933Z</time></trkpt><trkpt lat="40.6885817" lon="15.2085933"><ele>395.6</ele><time>2026-04-18T09:59:26.933Z</time></trkpt><trkpt lat="40.68855" lon="15.2087217"><ele>393.4</ele><time>2026-04-18T09:59:27.933Z</time></trkpt><trkpt lat="40.6885283" lon="15.20885"><ele>391.2</ele><time>2026-04-18T09:59:28.933Z</time></trkpt><trkpt lat="40.6885233" lon="15.2089767"><ele>389.0</ele><time>2026-04-18T09:59:29.933Z</time></trkpt><trkpt lat="40.6885183" lon="15.2090733"><ele>386.79999999999995</ele><time>2026-04-18T09:59:30.933Z</time></trkpt><trkpt lat="40.688515" lon="15.2091667"><ele>384.59999999999997</ele><time>2026-04-18T09:59:31.934Z</time></trkpt><trkpt lat="40.6885083" lon="15.2092883"><ele>382.4</ele><time>2026-04-18T09:59:32.933Z</time></trkpt><trkpt lat="40.6884833" lon="15.2094317"><ele>380.2</ele><time>2026-04-18T09:59:33.933Z</time></trkpt><trkpt lat="40.688425" lon="15.2096"><ele>378.0</ele><time>2026-04-18T09:59:34.933Z</time></trkpt><trkpt lat="40.6883483" lon="15.20978"><ele>375.5</ele><time>2026-04-18T09:59:35.933Z</time></trkpt><trkpt lat="40.6882633" lon="15.2099433"><ele>373.0</ele><time>2026-04-18T09:59:36.933Z</time></trkpt><trkpt lat="40.68818" lon="15.2101"><ele>370.5</ele><time>2026-04-18T09:59:37.933Z</time></trkpt><trkpt lat="40.688095" lon="15.2102417"><ele>368.0</ele><time>2026-04-18T09:59:38.934Z</time></trkpt><trkpt lat="40.688025" lon="15.2103833"><ele>368.0</ele><time>2026-04-18T09:59:39.933Z</time></trkpt><trkpt lat="40.6879767" lon="15.210515"><ele>368.0</ele><time>2026-04-18T09:59:40.933Z</time></trkpt><trkpt lat="40.687945" lon="15.2106483"><ele>368.0</ele><time>2026-04-18T09:59:41.934Z</time></trkpt><trkpt lat="40.6879317" lon="15.2107833"><ele>368.0</ele><time>2026-04-18T09:59:42.933Z</time></trkpt><trkpt lat="40.68793" lon="15.2109133"><ele>368.0</ele><time>2026-04-18T09:59:43.933Z</time></trkpt><trkpt lat="40.687925" lon="15.21103"><ele>366.79999999999995</ele><time>2026-04-18T09:59:44.933Z</time></trkpt><trkpt lat="40.6879133" lon="15.211155"><ele>365.6</ele><time>2026-04-18T09:59:46.933Z</time></trkpt><trkpt lat="40.6878433" lon="15.2112083"><ele>364.4</ele><time>2026-04-18T09:59:49.933Z</time></trkpt><trkpt lat="40.687745" lon="15.211125"><ele>363.20000000000005</ele><time>2026-04-18T09:59:52.933Z</time></trkpt><trkpt lat="40.6876883" lon="15.211075"><ele>362.0</ele><time>2026-04-18T09:59:53.933Z</time></trkpt><trkpt lat="40.6876117" lon="15.2109717"><ele>352.0</ele><time>2026-04-18T09:59:55.933Z</time></trkpt><trkpt lat="40.68755" lon="15.2108833"><ele>352.0</ele><time>2026-04-18T09:59:57.933Z</time></trkpt><trkpt lat="40.6875767" lon="15.2109867"><ele>352.0</ele><time>2026-04-18T10:00:02.934Z</time></trkpt><trkpt lat="40.6876267" lon="15.211065"><ele>352.0</ele><time>2026-04-18T10:00:04.933Z</time></trkpt></trkseg></trk></gpx>